<?xml version='1.0' encoding='UTF-8'?><gpx version="1.1" creator="JPX - https://github.com/jenetics/jpx" xmlns="http://www.topografix.com/GPX/1/1"><trk><trkseg><trkpt lat="43.89708677848125" lon="10.72999630027445"><ele>168.0</ele><time>2026-04-11T12:25:08Z</time></trkpt><trkpt lat="43.897126353291036" lon="10.730074824293554"><ele>168.0</ele><time>2026-04-11T12:25:09Z</time></trkpt><trkpt lat="43.897168768878835" lon="10.730158006187798"><ele>168.0</ele><time>2026-04-11T12:25:10Z</time></trkpt><trkpt lat="43.89721476470062" lon="10.730261824040253"><ele>168.0</ele><time>2026-04-11T12:25:11Z</time></trkpt><trkpt lat="43.89724453081932" lon="10.730388603773026"><ele>168.0</ele><time>2026-04-11T12:25:12Z</time></trkpt><trkpt lat="43.89727136169267" lon="10.73052466118533"><ele>168.0</ele><time>2026-04-11T12:25:13Z</time></trkpt><trkpt lat="43.89730269723615" lon="10.730657441190603"><ele>166.16666666666666</ele><time>2026-04-11T12:25:14Z</time></trkpt><trkpt lat="43.89734262744856" lon="10.730778369701149"><ele>164.33333333333334</ele><time>2026-04-11T12:25:15Z</time></trkpt><trkpt lat="43.897372635828965" lon="10.730892087280393"><ele>162.5</ele><time>2026-04-11T12:25:16Z</time></trkpt><trkpt lat="43.89740431078243" lon="10.730980951230594"><ele>160.66666666666669</ele><time>2026-04-11T12:25:17Z</time></trkpt><trkpt lat="43.89750525489278" lon="10.73107406700177"><ele>158.83333333333334</ele><time>2026-04-11T12:25:19Z</time></trkpt><trkpt lat="43.89757628808828" lon="10.73108713322531"><ele>157.0</ele><time>2026-04-11T12:25:20Z</time></trkpt><trkpt lat="43.89765030800754" lon="10.731088622493028"><ele>157.0</ele><time>2026-04-11T12:25:21Z</time></trkpt><trkpt lat="43.89771365304836" lon="10.731100627907896"><ele>157.0</ele><time>2026-04-11T12:25:22Z</time></trkpt><trkpt lat="43.89779162944993" lon="10.731111613754022"><ele>157.0</ele><time>2026-04-11T12:25:23Z</time></trkpt><trkpt lat="43.89786278512066" lon="10.73113466632805"><ele>157.0</ele><time>2026-04-11T12:25:24Z</time></trkpt><trkpt lat="43.8979399870041" lon="10.73119107805889"><ele>157.0</ele><time>2026-04-11T12:25:25Z</time></trkpt><trkpt lat="43.89801829214889" lon="10.731265194711728"><ele>157.0</ele><time>2026-04-11T12:25:26Z</time></trkpt><trkpt lat="43.898093900370334" lon="10.731344956715205"><ele>157.0</ele><time>2026-04-11T12:25:27Z</time></trkpt><trkpt lat="43.89815248310799" lon="10.73140195658707"><ele>157.0</ele><time>2026-04-11T12:25:28Z</time></trkpt><trkpt lat="43.898207979978935" lon="10.73147753345512"><ele>157.0</ele><time>2026-04-11T12:25:29Z</time></trkpt><trkpt lat="43.89824999038917" lon="10.73156432637998"><ele>157.0</ele><time>2026-04-11T12:25:30Z</time></trkpt><trkpt lat="43.89829400637992" lon="10.731660135206406"><ele>157.0</ele><time>2026-04-11T12:25:31Z</time></trkpt><trkpt lat="43.898353031077505" lon="10.731762760934274"><ele>157.0</ele><time>2026-04-11T12:25:32Z</time></trkpt><trkpt lat="43.89841275324408" lon="10.731856619613154"><ele>155.0</ele><time>2026-04-11T12:25:33Z</time></trkpt><trkpt lat="43.89848341677475" lon="10.731933799273005"><ele>153.0</ele><time>2026-04-11T12:25:34Z</time></trkpt><trkpt lat="43.89855013739137" lon="10.731996747664121"><ele>151.0</ele><time>2026-04-11T12:25:35Z</time></trkpt><trkpt lat="43.898622538890066" lon="10.732070602680878"><ele>149.0</ele><time>2026-04-11T12:25:36Z</time></trkpt><trkpt lat="43.89868609978596" lon="10.732128266449557"><ele>147.0</ele><time>2026-04-11T12:25:37Z</time></trkpt><trkpt lat="43.8987449895329" lon="10.732189258933383"><ele>145.0</ele><time>2026-04-11T12:25:38Z</time></trkpt><trkpt lat="43.89885185673458" lon="10.732281269299023"><ele>145.0</ele><time>2026-04-11T12:25:40Z</time></trkpt><trkpt lat="43.89891841538836" lon="10.732300738310297"><ele>145.0</ele><time>2026-04-11T12:25:41Z</time></trkpt><trkpt lat="43.89898749589688" lon="10.732314636901206"><ele>145.0</ele><time>2026-04-11T12:25:42Z</time></trkpt><trkpt lat="43.899062103130376" lon="10.73231036486151"><ele>145.0</ele><time>2026-04-11T12:25:43Z</time></trkpt><trkpt lat="43.89914156402747" lon="10.732298137069362"><ele>145.0</ele><time>2026-04-11T12:25:44Z</time></trkpt><trkpt lat="43.89921720447872" lon="10.732270234620845"><ele>145.0</ele><time>2026-04-11T12:25:45Z</time></trkpt><trkpt lat="43.89929252469953" lon="10.732234143134807"><ele>143.5</ele><time>2026-04-11T12:25:46Z</time></trkpt><trkpt lat="43.89937203063071" lon="10.732209714253996"><ele>142.0</ele><time>2026-04-11T12:25:47Z</time></trkpt><trkpt lat="43.89944627321563" lon="10.732192776482995"><ele>140.5</ele><time>2026-04-11T12:25:48Z</time></trkpt><trkpt lat="43.89951972290089" lon="10.732180282555273"><ele>139.0</ele><time>2026-04-11T12:25:49Z</time></trkpt><trkpt lat="43.89958692333254" lon="10.732172942118419"><ele>137.5</ele><time>2026-04-11T12:25:50Z</time></trkpt><trkpt lat="43.89969797464421" lon="10.732198204171576"><ele>136.0</ele><time>2026-04-11T12:25:52Z</time></trkpt><trkpt lat="43.89976818149406" lon="10.732213592528675"><ele>136.0</ele><time>2026-04-11T12:25:54Z</time></trkpt><trkpt lat="43.89983565103696" lon="10.73219339212468"><ele>136.0</ele><time>2026-04-11T12:25:56Z</time></trkpt><trkpt lat="43.899917934447195" lon="10.732223911191674"><ele>136.0</ele><time>2026-04-11T12:25:58Z</time></trkpt><trkpt lat="43.900010476509756" lon="10.732256077690645"><ele>136.0</ele><time>2026-04-11T12:26:00Z</time></trkpt><trkpt lat="43.900087246278844" lon="10.732235782757687"><ele>136.0</ele><time>2026-04-11T12:26:02Z</time></trkpt><trkpt lat="43.90016566270191" lon="10.732242358149854"><ele>136.0</ele><time>2026-04-11T12:26:04Z</time></trkpt><trkpt lat="43.90024602707724" lon="10.732278906827126"><ele>136.2</ele><time>2026-04-11T12:26:06Z</time></trkpt><trkpt lat="43.9003463284109" lon="10.732288243339982"><ele>136.39999999999998</ele><time>2026-04-11T12:26:08Z</time></trkpt><trkpt lat="43.90045490690724" lon="10.732305194050728"><ele>136.6</ele><time>2026-04-11T12:26:10Z</time></trkpt><trkpt lat="43.900553625231524" lon="10.732254285960302"><ele>136.79999999999998</ele><time>2026-04-11T12:26:12Z</time></trkpt><trkpt lat="43.90064982933953" lon="10.732191544124873"><ele>137.0</ele><time>2026-04-11T12:26:14Z</time></trkpt><trkpt lat="43.9007115174679" lon="10.732135288002198"><ele>137.0</ele><time>2026-04-11T12:26:15Z</time></trkpt><trkpt lat="43.90076648235214" lon="10.732080722387195"><ele>137.0</ele><time>2026-04-11T12:26:16Z</time></trkpt><trkpt lat="43.900882685962394" lon="10.731995487101658"><ele>137.0</ele><time>2026-04-11T12:26:18Z</time></trkpt><trkpt lat="43.900969240970184" lon="10.731886209319935"><ele>137.0</ele><time>2026-04-11T12:26:20Z</time></trkpt><trkpt lat="43.90106835169186" lon="10.731800178141272"><ele>137.0</ele><time>2026-04-11T12:26:22Z</time></trkpt><trkpt lat="43.901133298204705" lon="10.731799331398113"><ele>138.4</ele><time>2026-04-11T12:26:25Z</time></trkpt><trkpt lat="43.90120480628366" lon="10.731843426734365"><ele>139.79999999999998</ele><time>2026-04-11T12:26:28Z</time></trkpt><trkpt lat="43.901280225057505" lon="10.731807940435568"><ele>141.2</ele><time>2026-04-11T12:26:30Z</time></trkpt><trkpt lat="43.901374746931985" lon="10.731729184943916"><ele>142.6</ele><time>2026-04-11T12:26:32Z</time></trkpt><trkpt lat="43.9014534605468" lon="10.731635958136739"><ele>144.0</ele><time>2026-04-11T12:26:34Z</time></trkpt><trkpt lat="43.90151354571308" lon="10.731485562126903"><ele>144.0</ele><time>2026-04-11T12:26:36Z</time></trkpt><trkpt lat="43.90154410497162" lon="10.731396550154859"><ele>144.0</ele><time>2026-04-11T12:26:37Z</time></trkpt><trkpt lat="43.90157870714231" lon="10.731302068668734"><ele>144.0</ele><time>2026-04-11T12:26:38Z</time></trkpt><trkpt lat="43.90161523055201" lon="10.731222037950529"><ele>144.0</ele><time>2026-04-11T12:26:39Z</time></trkpt><trkpt lat="43.901703243916515" lon="10.731199995381528"><ele>144.0</ele><time>2026-04-11T12:26:42Z</time></trkpt><trkpt lat="43.90172124858202" lon="10.731290753598048"><ele>144.0</ele><time>2026-04-11T12:26:46Z</time></trkpt><trkpt lat="43.90169183061808" lon="10.731424818061145"><ele>144.0</ele><time>2026-04-11T12:26:48Z</time></trkpt><trkpt lat="43.901676176462615" lon="10.731519924478492"><ele>144.0</ele><time>2026-04-11T12:26:49Z</time></trkpt><trkpt lat="43.90165313163782" lon="10.731629920473097"><ele>144.0</ele><time>2026-04-11T12:26:50Z</time></trkpt><trkpt lat="43.90161167699623" lon="10.731738886212707"><ele>144.0</ele><time>2026-04-11T12:26:51Z</time></trkpt><trkpt lat="43.90155713288432" lon="10.731858498235969"><ele>144.0</ele><time>2026-04-11T12:26:52Z</time></trkpt><trkpt lat="43.90148954691863" lon="10.7319754502551"><ele>148.8</ele><time>2026-04-11T12:26:53Z</time></trkpt><trkpt lat="43.90141124270191" lon="10.732081919922017"><ele>153.60000000000002</ele><time>2026-04-11T12:26:54Z</time></trkpt><trkpt lat="43.901345057376496" lon="10.732188050422884"><ele>158.4</ele><time>2026-04-11T12:26:55Z</time></trkpt><trkpt lat="43.90129695779043" lon="10.732315311358168"><ele>163.20000000000002</ele><time>2026-04-11T12:26:56Z</time></trkpt><trkpt lat="43.90125893786871" lon="10.732421201166858"><ele>168.0</ele><time>2026-04-11T12:26:57Z</time></trkpt><trkpt lat="43.901199685038556" lon="10.732486316048272"><ele>168.0</ele><time>2026-04-11T12:26:58Z</time></trkpt><trkpt lat="43.90115033594969" lon="10.732565144587763"><ele>168.0</ele><time>2026-04-11T12:26:59Z</time></trkpt><trkpt lat="43.901118321420135" lon="10.732663701792582"><ele>168.0</ele><time>2026-04-11T12:27:00Z</time></trkpt><trkpt lat="43.901110865635076" lon="10.73278188734559"><ele>168.0</ele><time>2026-04-11T12:27:01Z</time></trkpt><trkpt lat="43.90110842831058" lon="10.73290945035776"><ele>168.0</ele><time>2026-04-11T12:27:02Z</time></trkpt><trkpt lat="43.90109124037727" lon="10.733026240973441"><ele>168.0</ele><time>2026-04-11T12:27:03Z</time></trkpt><trkpt lat="43.90106520917514" lon="10.733151625396378"><ele>170.83333333333334</ele><time>2026-04-11T12:27:04Z</time></trkpt><trkpt lat="43.90104213081797" lon="10.733276105958145"><ele>173.66666666666666</ele><time>2026-04-11T12:27:05Z</time></trkpt><trkpt lat="43.90102757002178" lon="10.733363533616224"><ele>176.5</ele><time>2026-04-11T12:27:06Z</time></trkpt><trkpt lat="43.90101897827706" lon="10.73345643342008"><ele>179.33333333333331</ele><time>2026-04-11T12:27:08Z</time></trkpt><trkpt lat="43.901095320259714" lon="10.733346244367324"><ele>182.16666666666666</ele><time>2026-04-11T12:27:12Z</time></trkpt><trkpt lat="43.901130921629516" lon="10.733255716692295"><ele>185.0</ele><time>2026-04-11T12:27:13Z</time></trkpt><trkpt lat="43.90116808155356" lon="10.733164062112147"><ele>185.0</ele><time>2026-04-11T12:27:14Z</time></trkpt><trkpt lat="43.901204876185986" lon="10.733058116677714"><ele>185.0</ele><time>2026-04-11T12:27:15Z</time></trkpt><trkpt lat="43.9012379078471" lon="10.73294863039909"><ele>185.0</ele><time>2026-04-11T12:27:16Z</time></trkpt><trkpt lat="43.901271481560435" lon="10.732828176146185"><ele>185.0</ele><time>2026-04-11T12:27:17Z</time></trkpt><trkpt lat="43.90131072204828" lon="10.732735077049266"><ele>185.0</ele><time>2026-04-11T12:27:18Z</time></trkpt><trkpt lat="43.90138297705115" lon="10.732632413692588"><ele>185.0</ele><time>2026-04-11T12:27:19Z</time></trkpt><trkpt lat="43.901448001728845" lon="10.732548376445498"><ele>186.99999999999997</ele><time>2026-04-11T12:27:20Z</time></trkpt><trkpt lat="43.90152182996811" lon="10.732502205866979"><ele>189.0</ele><time>2026-04-11T12:27:21Z</time></trkpt><trkpt lat="43.90158794856223" lon="10.732457160322491"><ele>191.0</ele><time>2026-04-11T12:27:22Z</time></trkpt><trkpt lat="43.901646123220075" lon="10.732403668849807"><ele>193.0</ele><time>2026-04-11T12:27:23Z</time></trkpt><trkpt lat="43.901700567996926" lon="10.732340019627582"><ele>195.0</ele><time>2026-04-11T12:27:24Z</time></trkpt><trkpt lat="43.90175391474744" lon="10.732281479613938"><ele>196.99999999999997</ele><time>2026-04-11T12:27:25Z</time></trkpt><trkpt lat="43.901809271249746" lon="10.732222278622036"><ele>199.0</ele><time>2026-04-11T12:27:26Z</time></trkpt><trkpt lat="43.901860918287014" lon="10.732159491822616"><ele>198.99999999999997</ele><time>2026-04-11T12:27:27Z</time></trkpt><trkpt lat="43.90192218270103" lon="10.732080956576862"><ele>199.0</ele><time>2026-04-11T12:27:28Z</time></trkpt><trkpt lat="43.901985878997614" lon="10.731998864506116"><ele>199.0</ele><time>2026-04-11T12:27:29Z</time></trkpt><trkpt lat="43.90205120697459" lon="10.73191217715793"><ele>199.0</ele><time>2026-04-11T12:27:30Z</time></trkpt><trkpt lat="43.90212190631344" lon="10.731837391279003"><ele>198.99999999999997</ele><time>2026-04-11T12:27:31Z</time></trkpt><trkpt lat="43.90219585177094" lon="10.731760714286963"><ele>199.0</ele><time>2026-04-11T12:27:32Z</time></trkpt><trkpt lat="43.90226952011669" lon="10.731710924252733"><ele>197.33333333333331</ele><time>2026-04-11T12:27:33Z</time></trkpt><trkpt lat="43.90234627167845" lon="10.731688063636005"><ele>195.66666666666666</ele><time>2026-04-11T12:27:34Z</time></trkpt><trkpt lat="43.90242277800977" lon="10.731680586312905"><ele>194.0</ele><time>2026-04-11T12:27:35Z</time></trkpt><trkpt lat="43.90250033656441" lon="10.731668563434607"><ele>192.33333333333331</ele><time>2026-04-11T12:27:36Z</time></trkpt><trkpt lat="43.9025788558933" lon="10.731654110553201"><ele>190.66666666666666</ele><time>2026-04-11T12:27:37Z</time></trkpt><trkpt lat="43.90265753951891" lon="10.731632773253178"><ele>189.0</ele><time>2026-04-11T12:27:38Z</time></trkpt><trkpt lat="43.90273655398125" lon="10.731609367220392"><ele>189.0</ele><time>2026-04-11T12:27:39Z</time></trkpt><trkpt lat="43.90280941535012" lon="10.731564053150857"><ele>189.0</ele><time>2026-04-11T12:27:40Z</time></trkpt><trkpt lat="43.90287443183793" lon="10.731488706506198"><ele>189.0</ele><time>2026-04-11T12:27:41Z</time></trkpt><trkpt lat="43.90292942760205" lon="10.73143059261172"><ele>189.0</ele><time>2026-04-11T12:27:42Z</time></trkpt><trkpt lat="43.90302336810342" lon="10.73144104373232"><ele>189.0</ele><time>2026-04-11T12:27:44Z</time></trkpt><trkpt lat="43.90308708683385" lon="10.731448536737663"><ele>189.0</ele><time>2026-04-11T12:27:45Z</time></trkpt><trkpt lat="43.903146436191136" lon="10.731363648885706"><ele>189.0</ele><time>2026-04-11T12:27:47Z</time></trkpt><trkpt lat="43.90316176443373" lon="10.731254850516132"><ele>189.0</ele><time>2026-04-11T12:27:48Z</time></trkpt><trkpt lat="43.90318778900705" lon="10.731164901808437"><ele>189.0</ele><time>2026-04-11T12:27:49Z</time></trkpt><trkpt lat="43.90319794987281" lon="10.730983993302166"><ele>189.0</ele><time>2026-04-11T12:27:50Z</time></trkpt><trkpt lat="43.90322631069162" lon="10.730846212906668"><ele>189.0</ele><time>2026-04-11T12:27:51Z</time></trkpt><trkpt lat="43.90326351591617" lon="10.730742348187084"><ele>191.66666666666666</ele><time>2026-04-11T12:27:52Z</time></trkpt><trkpt lat="43.90330447720314" lon="10.730672533790427"><ele>194.33333333333331</ele><time>2026-04-11T12:27:53Z</time></trkpt><trkpt lat="43.90336495443826" lon="10.730605442172056"><ele>197.0</ele><time>2026-04-11T12:27:54Z</time></trkpt><trkpt lat="43.903448995485725" lon="10.730572366793732"><ele>199.66666666666666</ele><time>2026-04-11T12:27:55Z</time></trkpt><trkpt lat="43.90351588563922" lon="10.730500490364497"><ele>202.33333333333331</ele><time>2026-04-11T12:27:56Z</time></trkpt><trkpt lat="43.90357762323191" lon="10.730409834258532"><ele>205.0</ele><time>2026-04-11T12:27:57Z</time></trkpt><trkpt lat="43.903618460845635" lon="10.730308416086935"><ele>199.4</ele><time>2026-04-11T12:27:58Z</time></trkpt><trkpt lat="43.90364554768998" lon="10.730185501721804"><ele>193.8</ele><time>2026-04-11T12:27:59Z</time></trkpt><trkpt lat="43.903684758718455" lon="10.730065417607888"><ele>188.2</ele><time>2026-04-11T12:28:00Z</time></trkpt><trkpt lat="43.90373257828522" lon="10.729970228563628"><ele>182.6</ele><time>2026-04-11T12:28:01Z</time></trkpt><trkpt lat="43.903836810890475" lon="10.72987061344728"><ele>177.0</ele><time>2026-04-11T12:28:03Z</time></trkpt><trkpt lat="43.90390425003927" lon="10.729846013607364"><ele>177.0</ele><time>2026-04-11T12:28:04Z</time></trkpt><trkpt lat="43.903975730508215" lon="10.729851296957854"><ele>177.0</ele><time>2026-04-11T12:28:05Z</time></trkpt><trkpt lat="43.90405664740202" lon="10.729829609336804"><ele>177.0</ele><time>2026-04-11T12:28:06Z</time></trkpt><trkpt lat="43.90412977775828" lon="10.729831693091418"><ele>177.0</ele><time>2026-04-11T12:28:07Z</time></trkpt><trkpt lat="43.90419589781068" lon="10.729778446175953"><ele>177.0</ele><time>2026-04-11T12:28:08Z</time></trkpt><trkpt lat="43.90425615411282" lon="10.729701389362416"><ele>177.0</ele><time>2026-04-11T12:28:09Z</time></trkpt><trkpt lat="43.90436032251505" lon="10.729658103933483"><ele>178.33333333333334</ele><time>2026-04-11T12:28:11Z</time></trkpt><trkpt lat="43.90443305837684" lon="10.72969585456434"><ele>179.66666666666666</ele><time>2026-04-11T12:28:12Z</time></trkpt><trkpt lat="43.904509837744165" lon="10.72969728552084"><ele>181.0</ele><time>2026-04-11T12:28:13Z</time></trkpt><trkpt lat="43.90459396000766" lon="10.729693629709637"><ele>182.33333333333331</ele><time>2026-04-11T12:28:14Z</time></trkpt><trkpt lat="43.90469135480426" lon="10.729710560523246"><ele>183.66666666666666</ele><time>2026-04-11T12:28:15Z</time></trkpt><trkpt lat="43.904770569855664" lon="10.729723827719647"><ele>185.0</ele><time>2026-04-11T12:28:16Z</time></trkpt><trkpt lat="43.90485137641824" lon="10.729752771009268"><ele>185.0</ele><time>2026-04-11T12:28:17Z</time></trkpt><trkpt lat="43.90493439379362" lon="10.729778945389475"><ele>185.0</ele><time>2026-04-11T12:28:18Z</time></trkpt><trkpt lat="43.90499885770769" lon="10.729848276015074"><ele>185.0</ele><time>2026-04-11T12:28:19Z</time></trkpt><trkpt lat="43.90506950021936" lon="10.72992995779747"><ele>185.0</ele><time>2026-04-11T12:28:20Z</time></trkpt><trkpt lat="43.90515864430019" lon="10.729986500068522"><ele>185.0</ele><time>2026-04-11T12:28:21Z</time></trkpt><trkpt lat="43.905239515030914" lon="10.730021012706024"><ele>185.0</ele><time>2026-04-11T12:28:22Z</time></trkpt><trkpt lat="43.9053275879028" lon="10.730044940543653"><ele>185.16666666666666</ele><time>2026-04-11T12:28:23Z</time></trkpt><trkpt lat="43.90538766337583" lon="10.730076392587454"><ele>185.33333333333331</ele><time>2026-04-11T12:28:24Z</time></trkpt><trkpt lat="43.905438646487376" lon="10.730143604826859"><ele>185.5</ele><time>2026-04-11T12:28:25Z</time></trkpt><trkpt lat="43.90550826220628" lon="10.730174304261705"><ele>185.66666666666666</ele><time>2026-04-11T12:28:27Z</time></trkpt><trkpt lat="43.90556078340426" lon="10.730106298483632"><ele>185.83333333333334</ele><time>2026-04-11T12:28:28Z</time></trkpt><trkpt lat="43.905649021910584" lon="10.730094684784666"><ele>186.0</ele><time>2026-04-11T12:28:29Z</time></trkpt><trkpt lat="43.90573846865714" lon="10.730068409401467"><ele>186.0</ele><time>2026-04-11T12:28:30Z</time></trkpt><trkpt lat="43.90581819333552" lon="10.730043296786535"><ele>186.0</ele><time>2026-04-11T12:28:31Z</time></trkpt><trkpt lat="43.90586702975549" lon="10.729971578279415"><ele>186.0</ele><time>2026-04-11T12:28:32Z</time></trkpt><trkpt lat="43.905931586042755" lon="10.729831251139531"><ele>186.0</ele><time>2026-04-11T12:28:34Z</time></trkpt><trkpt lat="43.90598012129009" lon="10.72974581897031"><ele>186.0</ele><time>2026-04-11T12:28:35Z</time></trkpt><trkpt lat="43.90602790633083" lon="10.729669153961353"><ele>186.0</ele><time>2026-04-11T12:28:36Z</time></trkpt><trkpt lat="43.906081164512315" lon="10.729587488989777"><ele>186.0</ele><time>2026-04-11T12:28:37Z</time></trkpt><trkpt lat="43.90615800499597" lon="10.72955196205188"><ele>186.0</ele><time>2026-04-11T12:28:38Z</time></trkpt><trkpt lat="43.90626409288053" lon="10.729441095953877"><ele>186.0</ele><time>2026-04-11T12:28:40Z</time></trkpt><trkpt lat="43.90632252870756" lon="10.729404138985034"><ele>186.0</ele><time>2026-04-11T12:28:41Z</time></trkpt><trkpt lat="43.90645615241636" lon="10.7293532651249"><ele>186.0</ele><time>2026-04-11T12:28:43Z</time></trkpt><trkpt lat="43.906577244318754" lon="10.729379750494823"><ele>187.8</ele><time>2026-04-11T12:28:45Z</time></trkpt><trkpt lat="43.90664095246548" lon="10.72947884325609"><ele>189.60000000000002</ele><time>2026-04-11T12:28:47Z</time></trkpt><trkpt lat="43.90669703062337" lon="10.729629250877432"><ele>191.4</ele><time>2026-04-11T12:28:49Z</time></trkpt><trkpt lat="43.90675038208124" lon="10.729701939568065"><ele>193.2</ele><time>2026-04-11T12:28:50Z</time></trkpt><trkpt lat="43.90680651116119" lon="10.7297700268711"><ele>195.0</ele><time>2026-04-11T12:28:51Z</time></trkpt><trkpt lat="43.90686654992278" lon="10.72985073936736"><ele>195.0</ele><time>2026-04-11T12:28:52Z</time></trkpt><trkpt lat="43.90693373151764" lon="10.729899382304282"><ele>195.0</ele><time>2026-04-11T12:28:53Z</time></trkpt><trkpt lat="43.90706595085966" lon="10.729934780100072"><ele>195.0</ele><time>2026-04-11T12:28:55Z</time></trkpt><trkpt lat="43.907142298303455" lon="10.729953927279125"><ele>195.0</ele><time>2026-04-11T12:28:56Z</time></trkpt><trkpt lat="43.90720763548094" lon="10.730035968570188"><ele>195.0</ele><time>2026-04-11T12:28:57Z</time></trkpt><trkpt lat="43.90730305608211" lon="10.730163954334747"><ele>198.5</ele><time>2026-04-11T12:28:59Z</time></trkpt><trkpt lat="43.90736007291753" lon="10.730237429550716"><ele>202.0</ele><time>2026-04-11T12:29:00Z</time></trkpt><trkpt lat="43.90743855774087" lon="10.730278448583288"><ele>205.5</ele><time>2026-04-11T12:29:01Z</time></trkpt><trkpt lat="43.907514979175716" lon="10.730292243618843"><ele>209.0</ele><time>2026-04-11T12:29:02Z</time></trkpt><trkpt lat="43.90762671758216" lon="10.73029486640305"><ele>212.5</ele><time>2026-04-11T12:29:03Z</time></trkpt><trkpt lat="43.90769747970333" lon="10.730326172111134"><ele>216.0</ele><time>2026-04-11T12:29:04Z</time></trkpt><trkpt lat="43.90778184821366" lon="10.730355457397836"><ele>216.0</ele><time>2026-04-11T12:29:05Z</time></trkpt><trkpt lat="43.907863303213695" lon="10.730391907925352"><ele>216.00000000000003</ele><time>2026-04-11T12:29:06Z</time></trkpt><trkpt lat="43.90793486041511" lon="10.730395501838263"><ele>216.00000000000003</ele><time>2026-04-11T12:29:07Z</time></trkpt><trkpt lat="43.90804603341454" lon="10.730337610164542"><ele>216.0</ele><time>2026-04-11T12:29:09Z</time></trkpt><trkpt lat="43.90810855582526" lon="10.73029521246374"><ele>216.0</ele><time>2026-04-11T12:29:10Z</time></trkpt><trkpt lat="43.90821302130068" lon="10.73019234715924"><ele>216.4</ele><time>2026-04-11T12:29:12Z</time></trkpt><trkpt lat="43.908302075569395" lon="10.730178473484033"><ele>216.8</ele><time>2026-04-11T12:29:13Z</time></trkpt><trkpt lat="43.90840953940925" lon="10.730192126546514"><ele>217.20000000000002</ele><time>2026-04-11T12:29:14Z</time></trkpt><trkpt lat="43.908531572323646" lon="10.730200340967432"><ele>217.60000000000002</ele><time>2026-04-11T12:29:15Z</time></trkpt><trkpt lat="43.90863119075627" lon="10.73021910495503"><ele>218.0</ele><time>2026-04-11T12:29:16Z</time></trkpt><trkpt lat="43.90872946876666" lon="10.730256534913643"><ele>217.16666666666669</ele><time>2026-04-11T12:29:17Z</time></trkpt><trkpt lat="43.908828150715145" lon="10.730297703946338"><ele>216.33333333333334</ele><time>2026-04-11T12:29:18Z</time></trkpt><trkpt lat="43.90891297659977" lon="10.730337965654355"><ele>215.5</ele><time>2026-04-11T12:29:19Z</time></trkpt><trkpt lat="43.90897910110955" lon="10.730357160508607"><ele>214.66666666666669</ele><time>2026-04-11T12:29:20Z</time></trkpt><trkpt lat="43.90904535125164" lon="10.730373577699634"><ele>213.83333333333334</ele><time>2026-04-11T12:29:21Z</time></trkpt><trkpt lat="43.90914767869656" lon="10.7303926624984"><ele>213.0</ele><time>2026-04-11T12:29:23Z</time></trkpt><trkpt lat="43.9091209400989" lon="10.730265621583959"><ele>213.83333333333334</ele><time>2026-04-11T12:29:26Z</time></trkpt><trkpt lat="43.90904786712275" lon="10.730158202856495"><ele>214.66666666666669</ele><time>2026-04-11T12:29:28Z</time></trkpt><trkpt lat="43.90900237017391" lon="10.730080946276454"><ele>215.5</ele><time>2026-04-11T12:29:29Z</time></trkpt><trkpt lat="43.90891172299249" lon="10.730000376141485"><ele>216.33333333333334</ele><time>2026-04-11T12:29:30Z</time></trkpt><trkpt lat="43.908838259416676" lon="10.72994461673505"><ele>217.16666666666669</ele><time>2026-04-11T12:29:31Z</time></trkpt><trkpt lat="43.908767350942334" lon="10.729894103436257"><ele>218.0</ele><time>2026-04-11T12:29:32Z</time></trkpt><trkpt lat="43.908689369528155" lon="10.729841749691143"><ele>218.0</ele><time>2026-04-11T12:29:33Z</time></trkpt><trkpt lat="43.9086047792116" lon="10.729775068642725"><ele>218.0</ele><time>2026-04-11T12:29:34Z</time></trkpt><trkpt lat="43.90853183570721" lon="10.72973274871225"><ele>218.0</ele><time>2026-04-11T12:29:35Z</time></trkpt><trkpt lat="43.90842268887283" lon="10.72973028610007"><ele>218.0</ele><time>2026-04-11T12:29:37Z</time></trkpt><trkpt lat="43.90831792739831" lon="10.7297103708353"><ele>218.0</ele><time>2026-04-11T12:29:39Z</time></trkpt><trkpt lat="43.908269212577125" lon="10.729654243767653"><ele>217.66666666666669</ele><time>2026-04-11T12:29:40Z</time></trkpt><trkpt lat="43.90821598733918" lon="10.729590737112362"><ele>217.33333333333334</ele><time>2026-04-11T12:29:41Z</time></trkpt><trkpt lat="43.90814341139735" lon="10.72952515667392"><ele>217.0</ele><time>2026-04-11T12:29:42Z</time></trkpt><trkpt lat="43.908074734745824" lon="10.729470781398629"><ele>216.66666666666669</ele><time>2026-04-11T12:29:43Z</time></trkpt><trkpt lat="43.90801368902591" lon="10.729440522963774"><ele>216.33333333333334</ele><time>2026-04-11T12:29:44Z</time></trkpt><trkpt lat="43.907937136862806" lon="10.729385644365204"><ele>216.0</ele><time>2026-04-11T12:29:45Z</time></trkpt><trkpt lat="43.90785570869054" lon="10.72932689459429"><ele>216.0</ele><time>2026-04-11T12:29:46Z</time></trkpt><trkpt lat="43.907795621468416" lon="10.729261874539587"><ele>216.00000000000003</ele><time>2026-04-11T12:29:47Z</time></trkpt><trkpt lat="43.90774745721509" lon="10.729137023518268"><ele>216.00000000000003</ele><time>2026-04-11T12:29:49Z</time></trkpt><trkpt lat="43.90779549921078" lon="10.729010330869826"><ele>216.0</ele><time>2026-04-11T12:29:51Z</time></trkpt><trkpt lat="43.90788753037954" lon="10.728925733550486"><ele>216.0</ele><time>2026-04-11T12:29:53Z</time></trkpt><trkpt lat="43.90796239155757" lon="10.728890586407696"><ele>216.0</ele><time>2026-04-11T12:29:54Z</time></trkpt><trkpt lat="43.90803201809308" lon="10.728850072397305"><ele>216.0</ele><time>2026-04-11T12:29:55Z</time></trkpt><trkpt lat="43.908106718430524" lon="10.728811695034464"><ele>216.0</ele><time>2026-04-11T12:29:56Z</time></trkpt><trkpt lat="43.908183182573524" lon="10.728788081728185"><ele>216.0</ele><time>2026-04-11T12:29:57Z</time></trkpt><trkpt lat="43.90826390383477" lon="10.728763783813182"><ele>216.0</ele><time>2026-04-11T12:29:58Z</time></trkpt><trkpt lat="43.90835759340751" lon="10.728760666707519"><ele>216.0</ele><time>2026-04-11T12:29:59Z</time></trkpt><trkpt lat="43.90844314526658" lon="10.728767706875262"><ele>218.66666666666666</ele><time>2026-04-11T12:30:00Z</time></trkpt><trkpt lat="43.90853087792727" lon="10.728772191828563"><ele>221.33333333333331</ele><time>2026-04-11T12:30:01Z</time></trkpt><trkpt lat="43.90861010637275" lon="10.728755462896116"><ele>224.0</ele><time>2026-04-11T12:30:02Z</time></trkpt><trkpt lat="43.908678701515456" lon="10.728710220928457"><ele>226.66666666666666</ele><time>2026-04-11T12:30:03Z</time></trkpt><trkpt lat="43.90875803334269" lon="10.728677322124089"><ele>229.33333333333331</ele><time>2026-04-11T12:30:04Z</time></trkpt><trkpt lat="43.90883478957719" lon="10.728679454281785"><ele>232.0</ele><time>2026-04-11T12:30:05Z</time></trkpt><trkpt lat="43.9089713087277" lon="10.728655707642034"><ele>232.0</ele><time>2026-04-11T12:30:07Z</time></trkpt><trkpt lat="43.909047797048444" lon="10.728573595323315"><ele>232.0</ele><time>2026-04-11T12:30:09Z</time></trkpt><trkpt lat="43.90900138363612" lon="10.728487752871825"><ele>232.0</ele><time>2026-04-11T12:30:11Z</time></trkpt><trkpt lat="43.908933487456835" lon="10.728459547781958"><ele>232.0</ele><time>2026-04-11T12:30:12Z</time></trkpt><trkpt lat="43.90884159230822" lon="10.728343822235976"><ele>232.0</ele><time>2026-04-11T12:30:14Z</time></trkpt><trkpt lat="43.9087757025916" lon="10.728266896065584"><ele>232.16666666666666</ele><time>2026-04-11T12:30:15Z</time></trkpt><trkpt lat="43.908709085276534" lon="10.728207626332901"><ele>232.33333333333331</ele><time>2026-04-11T12:30:16Z</time></trkpt><trkpt lat="43.9086324201113" lon="10.728180685674989"><ele>232.5</ele><time>2026-04-11T12:30:17Z</time></trkpt><trkpt lat="43.908554400061824" lon="10.72815846757654"><ele>232.66666666666669</ele><time>2026-04-11T12:30:18Z</time></trkpt><trkpt lat="43.908476128177874" lon="10.728118594419552"><ele>232.83333333333334</ele><time>2026-04-11T12:30:19Z</time></trkpt><trkpt lat="43.908408255814386" lon="10.72805955899464"><ele>233.0</ele><time>2026-04-11T12:30:20Z</time></trkpt><trkpt lat="43.90835049393471" lon="10.727991588401075"><ele>229.4</ele><time>2026-04-11T12:30:21Z</time></trkpt><trkpt lat="43.9082881231411" lon="10.727943595256315"><ele>225.8</ele><time>2026-04-11T12:30:22Z</time></trkpt><trkpt lat="43.90821498085954" lon="10.727936615189037"><ele>222.2</ele><time>2026-04-11T12:30:23Z</time></trkpt><trkpt lat="43.90811508546852" lon="10.727924734469417"><ele>218.6</ele><time>2026-04-11T12:30:24Z</time></trkpt><trkpt lat="43.90800605474866" lon="10.727932115343494"><ele>215.0</ele><time>2026-04-11T12:30:25Z</time></trkpt><trkpt lat="43.907905628485054" lon="10.727941381231654"><ele>215.00000000000003</ele><time>2026-04-11T12:30:26Z</time></trkpt><trkpt lat="43.90781472280675" lon="10.727952413478276"><ele>215.0</ele><time>2026-04-11T12:30:27Z</time></trkpt><trkpt lat="43.90770742926613" lon="10.727954599177737"><ele>215.0</ele><time>2026-04-11T12:30:28Z</time></trkpt><trkpt lat="43.90761630182522" lon="10.727943364013543"><ele>215.0</ele><time>2026-04-11T12:30:29Z</time></trkpt><trkpt lat="43.90754387354173" lon="10.72794564596149"><ele>215.00000000000003</ele><time>2026-04-11T12:30:30Z</time></trkpt><trkpt lat="43.90747083057163" lon="10.72791781553543"><ele>215.0</ele><time>2026-04-11T12:30:31Z</time></trkpt><trkpt lat="43.90738973745634" lon="10.72782914019858"><ele>217.2</ele><time>2026-04-11T12:30:33Z</time></trkpt><trkpt lat="43.907370089287014" lon="10.727713698327676"><ele>219.4</ele><time>2026-04-11T12:30:35Z</time></trkpt><trkpt lat="43.907352432917115" lon="10.72755275427404"><ele>221.60000000000002</ele><time>2026-04-11T12:30:37Z</time></trkpt><trkpt lat="43.90728495196103" lon="10.727464160874739"><ele>223.8</ele><time>2026-04-11T12:30:39Z</time></trkpt><trkpt lat="43.907229543302115" lon="10.727530188990665"><ele>226.0</ele><time>2026-04-11T12:30:41Z</time></trkpt><trkpt lat="43.90715935653371" lon="10.727693456213188"><ele>221.4</ele><time>2026-04-11T12:30:43Z</time></trkpt><trkpt lat="43.907064763866885" lon="10.727794861072733"><ele>216.8</ele><time>2026-04-11T12:30:45Z</time></trkpt><trkpt lat="43.90697220636605" lon="10.727839347472125"><ele>212.20000000000002</ele><time>2026-04-11T12:30:46Z</time></trkpt><trkpt lat="43.90686941070951" lon="10.727852429213957"><ele>207.60000000000002</ele><time>2026-04-11T12:30:47Z</time></trkpt><trkpt lat="43.906763662843545" lon="10.727898922196125"><ele>203.0</ele><time>2026-04-11T12:30:48Z</time></trkpt><trkpt lat="43.90665656249519" lon="10.727983195944981"><ele>202.5</ele><time>2026-04-11T12:30:49Z</time></trkpt><trkpt lat="43.906551544257155" lon="10.728058762761483"><ele>202.0</ele><time>2026-04-11T12:30:50Z</time></trkpt><trkpt lat="43.90643287349319" lon="10.728133060729387"><ele>201.5</ele><time>2026-04-11T12:30:51Z</time></trkpt><trkpt lat="43.906325825006235" lon="10.72819241238159"><ele>201.0</ele><time>2026-04-11T12:30:52Z</time></trkpt><trkpt lat="43.90624241852484" lon="10.728233832707312"><ele>201.0</ele><time>2026-04-11T12:30:53Z</time></trkpt><trkpt lat="43.906168335741604" lon="10.728285086725867"><ele>201.0</ele><time>2026-04-11T12:30:54Z</time></trkpt><trkpt lat="43.90610098092619" lon="10.728312873388655"><ele>201.0</ele><time>2026-04-11T12:30:55Z</time></trkpt><trkpt lat="43.90601880508348" lon="10.728311467609112"><ele>201.0</ele><time>2026-04-11T12:30:56Z</time></trkpt><trkpt lat="43.90593648800118" lon="10.728315569492253"><ele>201.0</ele><time>2026-04-11T12:30:57Z</time></trkpt><trkpt lat="43.905828014308796" lon="10.72829191049711"><ele>201.0</ele><time>2026-04-11T12:30:59Z</time></trkpt><trkpt lat="43.90585831259966" lon="10.728177622115389"><ele>201.0</ele><time>2026-04-11T12:31:01Z</time></trkpt><trkpt lat="43.90592094803092" lon="10.7281557254469"><ele>201.0</ele><time>2026-04-11T12:31:02Z</time></trkpt><trkpt lat="43.9059845416433" lon="10.728079222641375"><ele>201.0</ele><time>2026-04-11T12:31:03Z</time></trkpt><trkpt lat="43.906049476694044" lon="10.728005130513615"><ele>201.0</ele><time>2026-04-11T12:31:04Z</time></trkpt><trkpt lat="43.906115979968824" lon="10.727922517838895"><ele>201.0</ele><time>2026-04-11T12:31:05Z</time></trkpt><trkpt lat="43.906215072600105" lon="10.727832646774882"><ele>201.0</ele><time>2026-04-11T12:31:06Z</time></trkpt><trkpt lat="43.90632774563524" lon="10.727778940442668"><ele>206.60000000000002</ele><time>2026-04-11T12:31:07Z</time></trkpt><trkpt lat="43.90645476009319" lon="10.727720732587521"><ele>212.2</ele><time>2026-04-11T12:31:08Z</time></trkpt><trkpt lat="43.90655845322158" lon="10.727639977994352"><ele>217.79999999999998</ele><time>2026-04-11T12:31:09Z</time></trkpt><trkpt lat="43.90664470737865" lon="10.72756420990121"><ele>223.39999999999998</ele><time>2026-04-11T12:31:10Z</time></trkpt><trkpt lat="43.906693168895245" lon="10.727468442100433"><ele>229.0</ele><time>2026-04-11T12:31:11Z</time></trkpt><trkpt lat="43.90671784549037" lon="10.727353262877482"><ele>228.99999999999997</ele><time>2026-04-11T12:31:12Z</time></trkpt><trkpt lat="43.906761723101575" lon="10.727247628164452"><ele>229.0</ele><time>2026-04-11T12:31:13Z</time></trkpt><trkpt lat="43.90683352093264" lon="10.727154076897575"><ele>229.0</ele><time>2026-04-11T12:31:15Z</time></trkpt><trkpt lat="43.906753873627345" lon="10.727107220858203"><ele>229.0</ele><time>2026-04-11T12:31:17Z</time></trkpt><trkpt lat="43.90664954305279" lon="10.727160762682251"><ele>228.99999999999997</ele><time>2026-04-11T12:31:19Z</time></trkpt><trkpt lat="43.90658593710894" lon="10.727181390973156"><ele>229.0</ele><time>2026-04-11T12:31:20Z</time></trkpt><trkpt lat="43.90659447443076" lon="10.727075628291733"><ele>228.99999999999997</ele><time>2026-04-11T12:31:22Z</time></trkpt><trkpt lat="43.90664745990905" lon="10.726994740366019"><ele>229.0</ele><time>2026-04-11T12:31:24Z</time></trkpt><trkpt lat="43.90668906695738" lon="10.726901163296914"><ele>229.0</ele><time>2026-04-11T12:31:25Z</time></trkpt><trkpt lat="43.90676632620869" lon="10.726883177765904"><ele>229.0</ele><time>2026-04-11T12:31:26Z</time></trkpt><trkpt lat="43.90684745760731" lon="10.726816989746203"><ele>228.99999999999997</ele><time>2026-04-11T12:31:27Z</time></trkpt><trkpt lat="43.90693367626744" lon="10.72675468839667"><ele>229.0</ele><time>2026-04-11T12:31:28Z</time></trkpt><trkpt lat="43.907029927899984" lon="10.726682989008037"><ele>233.2</ele><time>2026-04-11T12:31:29Z</time></trkpt><trkpt lat="43.90708483516971" lon="10.726585934201385"><ele>237.39999999999998</ele><time>2026-04-11T12:31:30Z</time></trkpt><trkpt lat="43.90714667218915" lon="10.72648057987833"><ele>241.6</ele><time>2026-04-11T12:31:31Z</time></trkpt><trkpt lat="43.90723397359773" lon="10.726360103143646"><ele>245.8</ele><time>2026-04-11T12:31:32Z</time></trkpt><trkpt lat="43.90732867220677" lon="10.726244354456687"><ele>250.0</ele><time>2026-04-11T12:31:33Z</time></trkpt><trkpt lat="43.90741021040303" lon="10.726126001922514"><ele>254.25</ele><time>2026-04-11T12:31:34Z</time></trkpt><trkpt lat="43.907504222886274" lon="10.725984716925009"><ele>258.5</ele><time>2026-04-11T12:31:35Z</time></trkpt><trkpt lat="43.907593663325656" lon="10.725889931815443"><ele>262.75</ele><time>2026-04-11T12:31:36Z</time></trkpt><trkpt lat="43.90768442485576" lon="10.725796902884435"><ele>267.0</ele><time>2026-04-11T12:31:37Z</time></trkpt><trkpt lat="43.90778757293686" lon="10.72571946312922"><ele>269.5</ele><time>2026-04-11T12:31:38Z</time></trkpt><trkpt lat="43.90789315608921" lon="10.725645800912071"><ele>272.0</ele><time>2026-04-11T12:31:39Z</time></trkpt><trkpt lat="43.90798906757287" lon="10.725560800881706"><ele>274.5</ele><time>2026-04-11T12:31:40Z</time></trkpt><trkpt lat="43.90807886965937" lon="10.72546429166665"><ele>277.0</ele><time>2026-04-11T12:31:41Z</time></trkpt><trkpt lat="43.9081484577662" lon="10.725344649526374"><ele>277.0</ele><time>2026-04-11T12:31:42Z</time></trkpt><trkpt lat="43.90821525903121" lon="10.725251699363142"><ele>277.0</ele><time>2026-04-11T12:31:43Z</time></trkpt><trkpt lat="43.90827300204952" lon="10.725210020900503"><ele>277.0</ele><time>2026-04-11T12:31:44Z</time></trkpt><trkpt lat="43.90833218436122" lon="10.725268661204026"><ele>277.0</ele><time>2026-04-11T12:31:45Z</time></trkpt><trkpt lat="43.908406662645284" lon="10.72530590870509"><ele>277.0</ele><time>2026-04-11T12:31:46Z</time></trkpt><trkpt lat="43.908504097685864" lon="10.725326697693573"><ele>277.0</ele><time>2026-04-11T12:31:47Z</time></trkpt><trkpt lat="43.90858660323864" lon="10.725315663246153"><ele>280.4</ele><time>2026-04-11T12:31:48Z</time></trkpt><trkpt lat="43.90869706499331" lon="10.725322567307607"><ele>283.79999999999995</ele><time>2026-04-11T12:31:50Z</time></trkpt><trkpt lat="43.90875114006311" lon="10.72541930756734"><ele>287.2</ele><time>2026-04-11T12:31:52Z</time></trkpt><trkpt lat="43.9087506985519" lon="10.72561350784888"><ele>290.59999999999997</ele><time>2026-04-11T12:31:54Z</time></trkpt><trkpt lat="43.908748779690974" lon="10.725737460355035"><ele>294.0</ele><time>2026-04-11T12:31:55Z</time></trkpt><trkpt lat="43.908720577437265" lon="10.725831892371168"><ele>294.0</ele><time>2026-04-11T12:31:56Z</time></trkpt><trkpt lat="43.908657438768955" lon="10.725924434505751"><ele>294.0</ele><time>2026-04-11T12:31:57Z</time></trkpt><trkpt lat="43.90859298451867" lon="10.726051136043038"><ele>294.0</ele><time>2026-04-11T12:31:58Z</time></trkpt><trkpt lat="43.90854174392116" lon="10.72615847098557"><ele>294.0</ele><time>2026-04-11T12:31:59Z</time></trkpt><trkpt lat="43.908521495760475" lon="10.726251327515799"><ele>294.0</ele><time>2026-04-11T12:32:00Z</time></trkpt><trkpt lat="43.90854387139398" lon="10.726350778398967"><ele>294.0</ele><time>2026-04-11T12:32:02Z</time></trkpt><trkpt lat="43.90860770579106" lon="10.726399849190372"><ele>292.3333333333333</ele><time>2026-04-11T12:32:03Z</time></trkpt><trkpt lat="43.9086740056077" lon="10.726397801127892"><ele>290.6666666666667</ele><time>2026-04-11T12:32:04Z</time></trkpt><trkpt lat="43.90875545426753" lon="10.726373412622353"><ele>289.0</ele><time>2026-04-11T12:32:05Z</time></trkpt><trkpt lat="43.9088533672899" lon="10.726332044436957"><ele>287.33333333333337</ele><time>2026-04-11T12:32:06Z</time></trkpt><trkpt lat="43.90894573174456" lon="10.726283122505338"><ele>285.6666666666667</ele><time>2026-04-11T12:32:07Z</time></trkpt><trkpt lat="43.909030893737096" lon="10.726231146529157"><ele>284.0</ele><time>2026-04-11T12:32:08Z</time></trkpt><trkpt lat="43.90908652727052" lon="10.726165029654961"><ele>284.0</ele><time>2026-04-11T12:32:09Z</time></trkpt><trkpt lat="43.9091508949059" lon="10.726070465200818"><ele>284.0</ele><time>2026-04-11T12:32:10Z</time></trkpt><trkpt lat="43.909175809140244" lon="10.725963979800063"><ele>284.0</ele><time>2026-04-11T12:32:11Z</time></trkpt><trkpt lat="43.909188590565016" lon="10.725839958122377"><ele>284.0</ele><time>2026-04-11T12:32:12Z</time></trkpt><trkpt lat="43.909227118334286" lon="10.72575401945049"><ele>284.0</ele><time>2026-04-11T12:32:13Z</time></trkpt><trkpt lat="43.90930067207933" lon="10.725709066945617"><ele>284.0</ele><time>2026-04-11T12:32:14Z</time></trkpt><trkpt lat="43.90940576765501" lon="10.725663251310838"><ele>288.25</ele><time>2026-04-11T12:32:15Z</time></trkpt><trkpt lat="43.90950921063132" lon="10.725606160208958"><ele>292.5</ele><time>2026-04-11T12:32:16Z</time></trkpt><trkpt lat="43.90961386504793" lon="10.725537070770837"><ele>296.75</ele><time>2026-04-11T12:32:17Z</time></trkpt><trkpt lat="43.90971845360701" lon="10.72547051104065"><ele>301.0</ele><time>2026-04-11T12:32:18Z</time></trkpt><trkpt lat="43.909824841555476" lon="10.725419828630386"><ele>301.0</ele><time>2026-04-11T12:32:19Z</time></trkpt><trkpt lat="43.90990294674474" lon="10.725349005283388"><ele>301.0</ele><time>2026-04-11T12:32:20Z</time></trkpt><trkpt lat="43.90989971082475" lon="10.725193523771436"><ele>301.0</ele><time>2026-04-11T12:32:22Z</time></trkpt><trkpt lat="43.90980813994444" lon="10.725057219091976"><ele>301.0</ele><time>2026-04-11T12:32:24Z</time></trkpt><trkpt lat="43.90976795758745" lon="10.724936507301123"><ele>301.0</ele><time>2026-04-11T12:32:25Z</time></trkpt><trkpt lat="43.909725463709364" lon="10.724793405828997"><ele>305.0</ele><time>2026-04-11T12:32:26Z</time></trkpt><trkpt lat="43.90968796790588" lon="10.72462025466141"><ele>309.0</ele><time>2026-04-11T12:32:27Z</time></trkpt><trkpt lat="43.909649358518834" lon="10.724466928596858"><ele>313.0</ele><time>2026-04-11T12:32:28Z</time></trkpt><trkpt lat="43.90964410441907" lon="10.724338530328533"><ele>317.0</ele><time>2026-04-11T12:32:29Z</time></trkpt><trkpt lat="43.90967415927751" lon="10.724249993543726"><ele>321.0</ele><time>2026-04-11T12:32:30Z</time></trkpt><trkpt lat="43.90974280674492" lon="10.724186750136917"><ele>322.6</ele><time>2026-04-11T12:32:31Z</time></trkpt><trkpt lat="43.909833829689525" lon="10.724122617227286"><ele>324.20000000000005</ele><time>2026-04-11T12:32:32Z</time></trkpt><trkpt lat="43.9099386378526" lon="10.724037045135244"><ele>325.79999999999995</ele><time>2026-04-11T12:32:33Z</time></trkpt><trkpt lat="43.91003532909086" lon="10.723957421746576"><ele>327.4</ele><time>2026-04-11T12:32:34Z</time></trkpt><trkpt lat="43.91011262152636" lon="10.723860367375567"><ele>329.0</ele><time>2026-04-11T12:32:35Z</time></trkpt><trkpt lat="43.91014773514287" lon="10.723759839996884"><ele>329.0</ele><time>2026-04-11T12:32:36Z</time></trkpt><trkpt lat="43.91016287210088" lon="10.723660612047656"><ele>329.0</ele><time>2026-04-11T12:32:37Z</time></trkpt><trkpt lat="43.910147832447606" lon="10.723569371563402"><ele>329.0</ele><time>2026-04-11T12:32:38Z</time></trkpt><trkpt lat="43.910035181347034" lon="10.723487866257233"><ele>329.0</ele><time>2026-04-11T12:32:40Z</time></trkpt><trkpt lat="43.909968750110465" lon="10.723443466313466"><ele>329.0</ele><time>2026-04-11T12:32:41Z</time></trkpt><trkpt lat="43.909890251107825" lon="10.723384299304522"><ele>329.0</ele><time>2026-04-11T12:32:42Z</time></trkpt><trkpt lat="43.909857793828714" lon="10.723305474717707"><ele>329.0</ele><time>2026-04-11T12:32:43Z</time></trkpt><trkpt lat="43.909866862144064" lon="10.723182716579808"><ele>329.0</ele><time>2026-04-11T12:33:26Z</time></trkpt><trkpt lat="43.90993300587101" lon="10.72310595271244"><ele>329.0</ele><time>2026-04-11T12:33:29Z</time></trkpt><trkpt lat="43.91004174312376" lon="10.72304091381776"><ele>329.0</ele><time>2026-04-11T12:33:31Z</time></trkpt><trkpt lat="43.91011051983056" lon="10.723028231035702"><ele>329.0</ele><time>2026-04-11T12:33:32Z</time></trkpt><trkpt lat="43.91018902709667" lon="10.723033065213087"><ele>329.0</ele><time>2026-04-11T12:33:33Z</time></trkpt><trkpt lat="43.91026245848742" lon="10.723025254418584"><ele>333.6666666666667</ele><time>2026-04-11T12:33:34Z</time></trkpt><trkpt lat="43.91034246598591" lon="10.723023204860883"><ele>338.33333333333337</ele><time>2026-04-11T12:33:35Z</time></trkpt><trkpt lat="43.9104252665214" lon="10.723018703803774"><ele>343.0</ele><time>2026-04-11T12:33:36Z</time></trkpt><trkpt lat="43.91050890141113" lon="10.723004366067274"><ele>347.6666666666667</ele><time>2026-04-11T12:33:37Z</time></trkpt><trkpt lat="43.91059905595251" lon="10.722981603493858"><ele>352.3333333333333</ele><time>2026-04-11T12:33:38Z</time></trkpt><trkpt lat="43.91068894581652" lon="10.72294127325631"><ele>357.0</ele><time>2026-04-11T12:33:39Z</time></trkpt><trkpt lat="43.910778767879584" lon="10.722896028726812"><ele>357.0</ele><time>2026-04-11T12:33:40Z</time></trkpt><trkpt lat="43.910857552359936" lon="10.722856126495971"><ele>357.0</ele><time>2026-04-11T12:33:41Z</time></trkpt><trkpt lat="43.91091959810528" lon="10.722798221114676"><ele>357.0</ele><time>2026-04-11T12:33:42Z</time></trkpt><trkpt lat="43.91097948084919" lon="10.722702271136251"><ele>357.0</ele><time>2026-04-11T12:33:43Z</time></trkpt><trkpt lat="43.91102871353691" lon="10.722575773235432"><ele>357.0</ele><time>2026-04-11T12:33:44Z</time></trkpt><trkpt lat="43.9110721749891" lon="10.72244594949392"><ele>361.0</ele><time>2026-04-11T12:33:45Z</time></trkpt><trkpt lat="43.91111708142395" lon="10.722312938094182"><ele>365.0</ele><time>2026-04-11T12:33:46Z</time></trkpt><trkpt lat="43.91113790187705" lon="10.722179028953274"><ele>369.0</ele><time>2026-04-11T12:33:47Z</time></trkpt><trkpt lat="43.911141637627416" lon="10.722061752976847"><ele>373.0</ele><time>2026-04-11T12:33:48Z</time></trkpt><trkpt lat="43.91111062578113" lon="10.72195124221615"><ele>377.0</ele><time>2026-04-11T12:33:49Z</time></trkpt><trkpt lat="43.91111108776553" lon="10.721853685650958"><ele>381.0</ele><time>2026-04-11T12:33:50Z</time></trkpt><trkpt lat="43.91117565845538" lon="10.721710744121763"><ele>381.0</ele><time>2026-04-11T12:33:52Z</time></trkpt><trkpt lat="43.9112570400148" lon="10.721589080473258"><ele>381.0</ele><time>2026-04-11T12:33:54Z</time></trkpt><trkpt lat="43.911324748641334" lon="10.721547291990428"><ele>381.0</ele><time>2026-04-11T12:33:55Z</time></trkpt><trkpt lat="43.91139357895743" lon="10.721488247555598"><ele>381.0</ele><time>2026-04-11T12:33:56Z</time></trkpt><trkpt lat="43.9114662357141" lon="10.721426746929259"><ele>381.0</ele><time>2026-04-11T12:33:57Z</time></trkpt><trkpt lat="43.911552486770105" lon="10.721362836725396"><ele>381.0</ele><time>2026-04-11T12:33:58Z</time></trkpt><trkpt lat="43.911625537520734" lon="10.7212820458727"><ele>381.0</ele><time>2026-04-11T12:33:59Z</time></trkpt><trkpt lat="43.91171225164619" lon="10.721209588897835"><ele>381.0</ele><time>2026-04-11T12:34:00Z</time></trkpt><trkpt lat="43.91178366110141" lon="10.721188815925661"><ele>381.0</ele><time>2026-04-11T12:34:01Z</time></trkpt><trkpt lat="43.911926713366704" lon="10.72120681415389"><ele>381.0</ele><time>2026-04-11T12:34:03Z</time></trkpt><trkpt lat="43.91200876445321" lon="10.721275316048901"><ele>384.3333333333333</ele><time>2026-04-11T12:34:05Z</time></trkpt><trkpt lat="43.91194885174326" lon="10.721335578498554"><ele>387.66666666666663</ele><time>2026-04-11T12:34:07Z</time></trkpt><trkpt lat="43.91187626521385" lon="10.721404880934083"><ele>391.0</ele><time>2026-04-11T12:34:09Z</time></trkpt><trkpt lat="43.91194766718504" lon="10.721462730300619"><ele>394.3333333333333</ele><time>2026-04-11T12:34:12Z</time></trkpt><trkpt lat="43.912026847228034" lon="10.721471688629059"><ele>397.66666666666663</ele><time>2026-04-11T12:34:13Z</time></trkpt><trkpt lat="43.91208848553602" lon="10.721498041229076"><ele>401.0</ele><time>2026-04-11T12:34:14Z</time></trkpt><trkpt lat="43.91215559588201" lon="10.721555357896877"><ele>400.99999999999994</ele><time>2026-04-11T12:34:15Z</time></trkpt><trkpt lat="43.91222720686155" lon="10.72163163430036"><ele>401.0</ele><time>2026-04-11T12:34:16Z</time></trkpt><trkpt lat="43.91229109305908" lon="10.721689333519707"><ele>401.0</ele><time>2026-04-11T12:34:17Z</time></trkpt><trkpt lat="43.91236093757271" lon="10.721723058323052"><ele>401.0</ele><time>2026-04-11T12:34:18Z</time></trkpt><trkpt lat="43.9124196089372" lon="10.721762862968006"><ele>400.99999999999994</ele><time>2026-04-11T12:34:20Z</time></trkpt><trkpt lat="43.91236723224682" lon="10.721827222491207"><ele>401.0</ele><time>2026-04-11T12:34:22Z</time></trkpt><trkpt lat="43.91227207145916" lon="10.721853231815762"><ele>401.99999999999994</ele><time>2026-04-11T12:34:24Z</time></trkpt><trkpt lat="43.912212744115635" lon="10.721910067183059"><ele>403.0</ele><time>2026-04-11T12:34:25Z</time></trkpt><trkpt lat="43.912213339477844" lon="10.722033378296503"><ele>404.0</ele><time>2026-04-11T12:34:27Z</time></trkpt><trkpt lat="43.9122855921051" lon="10.722106363580139"><ele>405.0</ele><time>2026-04-11T12:34:29Z</time></trkpt><trkpt lat="43.91235138334955" lon="10.722117731586028"><ele>405.99999999999994</ele><time>2026-04-11T12:34:30Z</time></trkpt><trkpt lat="43.912431028379224" lon="10.722144137896944"><ele>407.0</ele><time>2026-04-11T12:34:31Z</time></trkpt><trkpt lat="43.91251443386788" lon="10.722177327206051"><ele>408.20000000000005</ele><time>2026-04-11T12:34:32Z</time></trkpt><trkpt lat="43.912619692448004" lon="10.722204713005908"><ele>409.4</ele><time>2026-04-11T12:34:33Z</time></trkpt><trkpt lat="43.91271364076982" lon="10.722215707135932"><ele>410.6</ele><time>2026-04-11T12:34:34Z</time></trkpt><trkpt lat="43.912815482271164" lon="10.722206466916617"><ele>411.79999999999995</ele><time>2026-04-11T12:34:35Z</time></trkpt><trkpt lat="43.912910719032205" lon="10.722230790839525"><ele>413.0</ele><time>2026-04-11T12:34:36Z</time></trkpt><trkpt lat="43.91300511375585" lon="10.722357307606801"><ele>413.0</ele><time>2026-04-11T12:34:38Z</time></trkpt><trkpt lat="43.91306670121347" lon="10.722415935307172"><ele>413.0</ele><time>2026-04-11T12:34:39Z</time></trkpt><trkpt lat="43.91314773395338" lon="10.72245530227905"><ele>413.0</ele><time>2026-04-11T12:34:40Z</time></trkpt><trkpt lat="43.91323506479352" lon="10.72243842060759"><ele>413.0</ele><time>2026-04-11T12:34:41Z</time></trkpt><trkpt lat="43.91334708558514" lon="10.722424814634401"><ele>413.0</ele><time>2026-04-11T12:34:42Z</time></trkpt><trkpt lat="43.913478724422326" lon="10.722407647748911"><ele>415.25</ele><time>2026-04-11T12:34:43Z</time></trkpt><trkpt lat="43.913594497010415" lon="10.722399336177341"><ele>417.5</ele><time>2026-04-11T12:34:44Z</time></trkpt><trkpt lat="43.91370597015126" lon="10.72241083278433"><ele>419.75</ele><time>2026-04-11T12:34:45Z</time></trkpt><trkpt lat="43.913827411964846" lon="10.722452898900963"><ele>422.0</ele><time>2026-04-11T12:34:46Z</time></trkpt><trkpt lat="43.91393508110248" lon="10.722517705741042"><ele>422.0</ele><time>2026-04-11T12:34:47Z</time></trkpt><trkpt lat="43.91405183125788" lon="10.72256739897424"><ele>422.0</ele><time>2026-04-11T12:34:48Z</time></trkpt><trkpt lat="43.91416173405514" lon="10.722560819805542"><ele>422.0</ele><time>2026-04-11T12:34:49Z</time></trkpt><trkpt lat="43.91425869839564" lon="10.722527257998214"><ele>422.0</ele><time>2026-04-11T12:34:50Z</time></trkpt><trkpt lat="43.91434954833428" lon="10.72245927901538"><ele>422.0</ele><time>2026-04-11T12:34:51Z</time></trkpt><trkpt lat="43.914458338314795" lon="10.722380764200764"><ele>424.0</ele><time>2026-04-11T12:34:52Z</time></trkpt><trkpt lat="43.91455871952383" lon="10.72229151531303"><ele>426.0</ele><time>2026-04-11T12:34:53Z</time></trkpt><trkpt lat="43.914654466278606" lon="10.722218354443648"><ele>428.00000000000006</ele><time>2026-04-11T12:34:54Z</time></trkpt><trkpt lat="43.91475386684926" lon="10.722168755721984"><ele>430.0</ele><time>2026-04-11T12:34:55Z</time></trkpt><trkpt lat="43.9148552550302" lon="10.722138353370484"><ele>432.0</ele><time>2026-04-11T12:34:56Z</time></trkpt><trkpt lat="43.91495967876086" lon="10.722119622188433"><ele>432.0</ele><time>2026-04-11T12:34:57Z</time></trkpt><trkpt lat="43.915058336047856" lon="10.722095327671742"><ele>432.0</ele><time>2026-04-11T12:34:58Z</time></trkpt><trkpt lat="43.91512894841444" lon="10.722044367887953"><ele>432.0</ele><time>2026-04-11T12:34:59Z</time></trkpt><trkpt lat="43.915178459621586" lon="10.721980724556868"><ele>432.0</ele><time>2026-04-11T12:35:00Z</time></trkpt><trkpt lat="43.91520459906056" lon="10.721897493233108"><ele>432.0</ele><time>2026-04-11T12:35:01Z</time></trkpt><trkpt lat="43.91523236091753" lon="10.721818125219425"><ele>432.0</ele><time>2026-04-11T12:35:02Z</time></trkpt><trkpt lat="43.915278512590376" lon="10.72174098194306"><ele>432.0</ele><time>2026-04-11T12:35:04Z</time></trkpt><trkpt lat="43.91526587088317" lon="10.721834070858229"><ele>433.8333333333333</ele><time>2026-04-11T12:36:47Z</time></trkpt><trkpt lat="43.91522983822911" lon="10.721986408065309"><ele>435.66666666666663</ele><time>2026-04-11T12:36:49Z</time></trkpt><trkpt lat="43.91521804350292" lon="10.722074844021932"><ele>437.5</ele><time>2026-04-11T12:36:50Z</time></trkpt><trkpt lat="43.91523348943424" lon="10.722162497493214"><ele>439.3333333333333</ele><time>2026-04-11T12:36:51Z</time></trkpt><trkpt lat="43.91527720780612" lon="10.722237065567873"><ele>441.16666666666663</ele><time>2026-04-11T12:36:52Z</time></trkpt><trkpt lat="43.91534909258431" lon="10.72229044660419"><ele>443.0</ele><time>2026-04-11T12:36:53Z</time></trkpt><trkpt lat="43.915438230250594" lon="10.722345512536174"><ele>443.0</ele><time>2026-04-11T12:36:54Z</time></trkpt><trkpt lat="43.915536488172826" lon="10.72242808203915"><ele>442.99999999999994</ele><time>2026-04-11T12:36:55Z</time></trkpt><trkpt lat="43.91563308678251" lon="10.722501668125853"><ele>442.99999999999994</ele><time>2026-04-11T12:36:56Z</time></trkpt><trkpt lat="43.91573018605788" lon="10.722575484590937"><ele>443.0</ele><time>2026-04-11T12:36:57Z</time></trkpt><trkpt lat="43.91583018560651" lon="10.722639313390252"><ele>443.0</ele><time>2026-04-11T12:36:58Z</time></trkpt><trkpt lat="43.91590594690657" lon="10.722717652598936"><ele>443.4</ele><time>2026-04-11T12:36:59Z</time></trkpt><trkpt lat="43.91595860462848" lon="10.722836725217913"><ele>443.79999999999995</ele><time>2026-04-11T12:37:00Z</time></trkpt><trkpt lat="43.916005786481506" lon="10.72294846874886"><ele>444.2</ele><time>2026-04-11T12:37:01Z</time></trkpt><trkpt lat="43.91607361778939" lon="10.723028633335744"><ele>444.6</ele><time>2026-04-11T12:37:02Z</time></trkpt><trkpt lat="43.916155398948966" lon="10.723089089576646"><ele>445.0</ele><time>2026-04-11T12:37:03Z</time></trkpt><trkpt lat="43.916251331331615" lon="10.723140122877801"><ele>445.0</ele><time>2026-04-11T12:37:04Z</time></trkpt><trkpt lat="43.91636078919665" lon="10.72320049805143"><ele>445.0</ele><time>2026-04-11T12:37:05Z</time></trkpt><trkpt lat="43.916469764406564" lon="10.723270407152803"><ele>445.0</ele><time>2026-04-11T12:37:06Z</time></trkpt><trkpt lat="43.916594710710164" lon="10.723339723732572"><ele>445.0</ele><time>2026-04-11T12:37:07Z</time></trkpt><trkpt lat="43.91672118578623" lon="10.723421902737805"><ele>445.75</ele><time>2026-04-11T12:37:08Z</time></trkpt><trkpt lat="43.91684218445788" lon="10.723506054386535"><ele>446.5</ele><time>2026-04-11T12:37:09Z</time></trkpt><trkpt lat="43.9169629086919" lon="10.723584272636499"><ele>447.25</ele><time>2026-04-11T12:37:10Z</time></trkpt><trkpt lat="43.917085965398485" lon="10.723670080573577"><ele>448.0</ele><time>2026-04-11T12:37:11Z</time></trkpt><trkpt lat="43.91721101157523" lon="10.723745829651431"><ele>449.75</ele><time>2026-04-11T12:37:12Z</time></trkpt><trkpt lat="43.91733389272137" lon="10.723817339431575"><ele>451.5</ele><time>2026-04-11T12:37:13Z</time></trkpt><trkpt lat="43.91745522660515" lon="10.723894480718142"><ele>453.25</ele><time>2026-04-11T12:37:14Z</time></trkpt><trkpt lat="43.9175863283583" lon="10.723959713942975"><ele>455.0</ele><time>2026-04-11T12:37:15Z</time></trkpt><trkpt lat="43.917694110721655" lon="10.724041720361306"><ele>455.0</ele><time>2026-04-11T12:37:16Z</time></trkpt><trkpt lat="43.91780212445697" lon="10.72412429186732"><ele>455.0</ele><time>2026-04-11T12:37:17Z</time></trkpt><trkpt lat="43.91789391501887" lon="10.724244749488436"><ele>455.0</ele><time>2026-04-11T12:37:18Z</time></trkpt><trkpt lat="43.917968897636804" lon="10.724387870789922"><ele>455.0</ele><time>2026-04-11T12:37:19Z</time></trkpt><trkpt lat="43.91801561172034" lon="10.724551457255668"><ele>457.75</ele><time>2026-04-11T12:37:20Z</time></trkpt><trkpt lat="43.91804339863747" lon="10.724734566681075"><ele>460.5</ele><time>2026-04-11T12:37:21Z</time></trkpt><trkpt lat="43.918064933806875" lon="10.724922976297663"><ele>463.25</ele><time>2026-04-11T12:37:22Z</time></trkpt><trkpt lat="43.91806199664792" lon="10.725109755752817"><ele>466.0</ele><time>2026-04-11T12:37:23Z</time></trkpt><trkpt lat="43.918056348633904" lon="10.725293479200356"><ele>466.25</ele><time>2026-04-11T12:37:24Z</time></trkpt><trkpt lat="43.91806199769129" lon="10.72548743754954"><ele>466.5</ele><time>2026-04-11T12:37:25Z</time></trkpt><trkpt lat="43.918084721545036" lon="10.725676568798425"><ele>466.75</ele><time>2026-04-11T12:37:26Z</time></trkpt><trkpt lat="43.918115151189006" lon="10.725873332583442"><ele>467.0</ele><time>2026-04-11T12:37:27Z</time></trkpt><trkpt lat="43.91810296199547" lon="10.726070337621255"><ele>467.75</ele><time>2026-04-11T12:37:28Z</time></trkpt><trkpt lat="43.918079223208316" lon="10.726258132062421"><ele>468.5</ele><time>2026-04-11T12:37:29Z</time></trkpt><trkpt lat="43.9180508873362" lon="10.726441923077418"><ele>469.25</ele><time>2026-04-11T12:37:30Z</time></trkpt><trkpt lat="43.918038934853335" lon="10.726601738559042"><ele>470.0</ele><time>2026-04-11T12:37:31Z</time></trkpt><trkpt lat="43.918060918152406" lon="10.72675154166583"><ele>470.0</ele><time>2026-04-11T12:37:32Z</time></trkpt><trkpt lat="43.91811938314835" lon="10.726880574395775"><ele>470.0</ele><time>2026-04-11T12:37:33Z</time></trkpt><trkpt lat="43.91820360135973" lon="10.726997437335147"><ele>470.0</ele><time>2026-04-11T12:37:34Z</time></trkpt><trkpt lat="43.918294192861765" lon="10.727121066042105"><ele>470.0</ele><time>2026-04-11T12:37:35Z</time></trkpt><trkpt lat="43.91838080648486" lon="10.727274396122906"><ele>469.5</ele><time>2026-04-11T12:37:36Z</time></trkpt><trkpt lat="43.918465859170595" lon="10.727432809330775"><ele>469.0</ele><time>2026-04-11T12:37:37Z</time></trkpt><trkpt lat="43.918552727442076" lon="10.727586746511586"><ele>468.5</ele><time>2026-04-11T12:37:38Z</time></trkpt><trkpt lat="43.91864121983102" lon="10.727736511221122"><ele>468.0</ele><time>2026-04-11T12:37:39Z</time></trkpt><trkpt lat="43.91872212844908" lon="10.727879951395257"><ele>468.0</ele><time>2026-04-11T12:37:40Z</time></trkpt><trkpt lat="43.918799493543666" lon="10.72801131303347"><ele>467.99999999999994</ele><time>2026-04-11T12:37:41Z</time></trkpt><trkpt lat="43.9188818557175" lon="10.72812483759206"><ele>467.99999999999994</ele><time>2026-04-11T12:37:42Z</time></trkpt><trkpt lat="43.918959503578584" lon="10.728224404829731"><ele>468.0</ele><time>2026-04-11T12:37:43Z</time></trkpt><trkpt lat="43.91902952762087" lon="10.728329794444278"><ele>468.0</ele><time>2026-04-11T12:37:44Z</time></trkpt><trkpt lat="43.91907339833755" lon="10.728452377077284"><ele>467.79999999999995</ele><time>2026-04-11T12:37:45Z</time></trkpt><trkpt lat="43.91908954451695" lon="10.728584150207885"><ele>467.59999999999997</ele><time>2026-04-11T12:37:46Z</time></trkpt><trkpt lat="43.91908282147059" lon="10.728715506933145"><ele>467.40000000000003</ele><time>2026-04-11T12:37:47Z</time></trkpt><trkpt lat="43.91905159879547" lon="10.728839862847103"><ele>467.20000000000005</ele><time>2026-04-11T12:37:48Z</time></trkpt><trkpt lat="43.9190145028019" lon="10.72895863833951"><ele>467.0</ele><time>2026-04-11T12:37:49Z</time></trkpt><trkpt lat="43.91898123147746" lon="10.72906281028389"><ele>467.0</ele><time>2026-04-11T12:37:50Z</time></trkpt><trkpt lat="43.918944627039686" lon="10.72913888542628"><ele>467.00000000000006</ele><time>2026-04-11T12:37:51Z</time></trkpt><trkpt lat="43.91882463527756" lon="10.72917824286811"><ele>467.00000000000006</ele><time>2026-04-11T12:37:53Z</time></trkpt><trkpt lat="43.91874433304845" lon="10.729168409050985"><ele>467.0</ele><time>2026-04-11T12:37:54Z</time></trkpt><trkpt lat="43.918647540249616" lon="10.729188003742529"><ele>467.0</ele><time>2026-04-11T12:37:55Z</time></trkpt><trkpt lat="43.9185520117826" lon="10.729221043208007"><ele>467.0</ele><time>2026-04-11T12:37:56Z</time></trkpt><trkpt lat="43.91845657488925" lon="10.729273597770476"><ele>467.00000000000006</ele><time>2026-04-11T12:37:57Z</time></trkpt><trkpt lat="43.91835508193231" lon="10.72932898564168"><ele>467.00000000000006</ele><time>2026-04-11T12:37:58Z</time></trkpt><trkpt lat="43.91824661835241" lon="10.72938553127761"><ele>467.0</ele><time>2026-04-11T12:37:59Z</time></trkpt><trkpt lat="43.91813695907629" lon="10.729444214905103"><ele>467.0</ele><time>2026-04-11T12:38:00Z</time></trkpt><trkpt lat="43.91802667498626" lon="10.729504737079822"><ele>463.75</ele><time>2026-04-11T12:38:01Z</time></trkpt><trkpt lat="43.917912587057295" lon="10.729570172091233"><ele>460.5</ele><time>2026-04-11T12:38:02Z</time></trkpt><trkpt lat="43.9178011336268" lon="10.729639772998516"><ele>457.25</ele><time>2026-04-11T12:38:03Z</time></trkpt><trkpt lat="43.91767938171946" lon="10.729707785438434"><ele>454.0</ele><time>2026-04-11T12:38:04Z</time></trkpt><trkpt lat="43.917557754136006" lon="10.729760425268383"><ele>449.75</ele><time>2026-04-11T12:38:05Z</time></trkpt><trkpt lat="43.91744343856372" lon="10.729805723670147"><ele>445.5</ele><time>2026-04-11T12:38:06Z</time></trkpt><trkpt lat="43.917336500742564" lon="10.729874270292106"><ele>441.25</ele><time>2026-04-11T12:38:07Z</time></trkpt><trkpt lat="43.91722786073984" lon="10.729952118711003"><ele>437.0</ele><time>2026-04-11T12:38:08Z</time></trkpt><trkpt lat="43.9171261206327" lon="10.730043573995417"><ele>437.0</ele><time>2026-04-11T12:38:09Z</time></trkpt><trkpt lat="43.917032294485" lon="10.730161529002588"><ele>437.00000000000006</ele><time>2026-04-11T12:38:10Z</time></trkpt><trkpt lat="43.91694395402404" lon="10.73027093384864"><ele>437.00000000000006</ele><time>2026-04-11T12:38:11Z</time></trkpt><trkpt lat="43.91686129423339" lon="10.730338151090931"><ele>437.0</ele><time>2026-04-11T12:38:12Z</time></trkpt><trkpt lat="43.91679340610065" lon="10.730406574954003"><ele>437.0</ele><time>2026-04-11T12:38:13Z</time></trkpt><trkpt lat="43.91673666813315" lon="10.730462042420585"><ele>435.3333333333333</ele><time>2026-04-11T12:38:14Z</time></trkpt><trkpt lat="43.916684406083256" lon="10.730569456051944"><ele>433.66666666666663</ele><time>2026-04-11T12:38:16Z</time></trkpt><trkpt lat="43.916617940212525" lon="10.730652549538531"><ele>432.0</ele><time>2026-04-11T12:38:18Z</time></trkpt><trkpt lat="43.91667716453055" lon="10.73077477084583"><ele>430.33333333333337</ele><time>2026-04-11T12:38:21Z</time></trkpt><trkpt lat="43.91673936749468" lon="10.7308042231965"><ele>428.6666666666667</ele><time>2026-04-11T12:38:22Z</time></trkpt><trkpt lat="43.916809001386106" lon="10.730819906844369"><ele>427.0</ele><time>2026-04-11T12:38:23Z</time></trkpt><trkpt lat="43.91687280684725" lon="10.730821701723794"><ele>427.00000000000006</ele><time>2026-04-11T12:38:24Z</time></trkpt><trkpt lat="43.91694018808598" lon="10.730795507506382"><ele>427.0</ele><time>2026-04-11T12:38:25Z</time></trkpt><trkpt lat="43.917009963186125" lon="10.730771043521676"><ele>427.0</ele><time>2026-04-11T12:38:26Z</time></trkpt><trkpt lat="43.9170938176066" lon="10.730737452531573"><ele>427.0</ele><time>2026-04-11T12:38:27Z</time></trkpt><trkpt lat="43.91717843469098" lon="10.730704512437796"><ele>427.00000000000006</ele><time>2026-04-11T12:38:28Z</time></trkpt><trkpt lat="43.9172484904623" lon="10.730719556943255"><ele>427.0</ele><time>2026-04-11T12:38:29Z</time></trkpt><trkpt lat="43.91735003477727" lon="10.730818828460698"><ele>427.00000000000006</ele><time>2026-04-11T12:38:31Z</time></trkpt><trkpt lat="43.91738793423854" lon="10.730924693585632"><ele>427.0</ele><time>2026-04-11T12:38:32Z</time></trkpt><trkpt lat="43.91742317182645" lon="10.731012680863863"><ele>427.0</ele><time>2026-04-11T12:38:33Z</time></trkpt><trkpt lat="43.91744807877489" lon="10.731114478948149"><ele>427.0</ele><time>2026-04-11T12:38:34Z</time></trkpt><trkpt lat="43.91745927417122" lon="10.731218588620248"><ele>427.00000000000006</ele><time>2026-04-11T12:38:35Z</time></trkpt><trkpt lat="43.9174757463243" lon="10.731310457490578"><ele>427.0</ele><time>2026-04-11T12:38:36Z</time></trkpt><trkpt lat="43.9175544173135" lon="10.731405195285948"><ele>426.20000000000005</ele><time>2026-04-11T12:38:38Z</time></trkpt><trkpt lat="43.91767389515544" lon="10.731365987025107"><ele>425.40000000000003</ele><time>2026-04-11T12:38:40Z</time></trkpt><trkpt lat="43.917749914832235" lon="10.731339719456876"><ele>424.6</ele><time>2026-04-11T12:38:41Z</time></trkpt><trkpt lat="43.9178236931548" lon="10.731305346403335"><ele>423.79999999999995</ele><time>2026-04-11T12:38:42Z</time></trkpt><trkpt lat="43.9179455746732" lon="10.731318061232239"><ele>423.0</ele><time>2026-04-11T12:38:44Z</time></trkpt><trkpt lat="43.91799602678773" lon="10.731388986750737"><ele>423.0</ele><time>2026-04-11T12:38:45Z</time></trkpt><trkpt lat="43.91804580245853" lon="10.731491885666124"><ele>423.0</ele><time>2026-04-11T12:38:46Z</time></trkpt><trkpt lat="43.91809639811359" lon="10.73158590837179"><ele>423.0</ele><time>2026-04-11T12:38:47Z</time></trkpt><trkpt lat="43.91816018006094" lon="10.731627325024363"><ele>423.0</ele><time>2026-04-11T12:38:48Z</time></trkpt><trkpt lat="43.918229221685515" lon="10.731626152390179"><ele>423.0</ele><time>2026-04-11T12:38:49Z</time></trkpt><trkpt lat="43.91830147694665" lon="10.73165192766938"><ele>423.0</ele><time>2026-04-11T12:38:50Z</time></trkpt><trkpt lat="43.91840852759754" lon="10.731666793563999"><ele>423.5</ele><time>2026-04-11T12:38:52Z</time></trkpt><trkpt lat="43.91851389694558" lon="10.731597200525146"><ele>424.0</ele><time>2026-04-11T12:38:54Z</time></trkpt><trkpt lat="43.91857382989296" lon="10.731535849903638"><ele>424.5</ele><time>2026-04-11T12:38:55Z</time></trkpt><trkpt lat="43.91863199743716" lon="10.731454765850875"><ele>425.0</ele><time>2026-04-11T12:38:56Z</time></trkpt><trkpt lat="43.918694344539574" lon="10.731396598566963"><ele>425.5</ele><time>2026-04-11T12:38:57Z</time></trkpt><trkpt lat="43.918767475275644" lon="10.731376837953176"><ele>426.0</ele><time>2026-04-11T12:38:58Z</time></trkpt><trkpt lat="43.91883943709662" lon="10.731382552793427"><ele>426.0</ele><time>2026-04-11T12:38:59Z</time></trkpt><trkpt lat="43.91892428939399" lon="10.73139324487506"><ele>426.0</ele><time>2026-04-11T12:39:00Z</time></trkpt><trkpt lat="43.9190065819342" lon="10.731382256336548"><ele>426.0</ele><time>2026-04-11T12:39:01Z</time></trkpt><trkpt lat="43.91908178230761" lon="10.731341796075087"><ele>426.0</ele><time>2026-04-11T12:39:02Z</time></trkpt><trkpt lat="43.91914759310852" lon="10.731285601259462"><ele>426.0</ele><time>2026-04-11T12:39:03Z</time></trkpt><trkpt lat="43.91920192269977" lon="10.731206138809945"><ele>426.0</ele><time>2026-04-11T12:39:04Z</time></trkpt><trkpt lat="43.91922688883506" lon="10.731106507262885"><ele>428.0</ele><time>2026-04-11T12:39:05Z</time></trkpt><trkpt lat="43.91924986822752" lon="10.731012515622028"><ele>430.0</ele><time>2026-04-11T12:39:06Z</time></trkpt><trkpt lat="43.9192905961952" lon="10.730943132899132"><ele>432.0</ele><time>2026-04-11T12:39:07Z</time></trkpt><trkpt lat="43.919358605463366" lon="10.730977715848375"><ele>434.0</ele><time>2026-04-11T12:39:09Z</time></trkpt><trkpt lat="43.9194393343323" lon="10.730982574611161"><ele>436.0</ele><time>2026-04-11T12:39:10Z</time></trkpt><trkpt lat="43.919541511373595" lon="10.731041873985246"><ele>438.0</ele><time>2026-04-11T12:39:12Z</time></trkpt><trkpt lat="43.91957940018493" lon="10.731120915287322"><ele>438.0</ele><time>2026-04-11T12:39:14Z</time></trkpt><trkpt lat="43.91965294527335" lon="10.731221706467123"><ele>438.0</ele><time>2026-04-11T12:39:16Z</time></trkpt><trkpt lat="43.919742017020006" lon="10.731183343078806"><ele>438.0</ele><time>2026-04-11T12:39:19Z</time></trkpt><trkpt lat="43.91979969780165" lon="10.731136146860424"><ele>438.0</ele><time>2026-04-11T12:39:20Z</time></trkpt><trkpt lat="43.91987502317526" lon="10.731079588657172"><ele>438.0</ele><time>2026-04-11T12:39:21Z</time></trkpt><trkpt lat="43.91994564017018" lon="10.731042251359021"><ele>438.0</ele><time>2026-04-11T12:39:22Z</time></trkpt><trkpt lat="43.920027030963375" lon="10.730994518919257"><ele>444.59999999999997</ele><time>2026-04-11T12:39:23Z</time></trkpt><trkpt lat="43.920108547549454" lon="10.730931971330483"><ele>451.19999999999993</ele><time>2026-04-11T12:39:24Z</time></trkpt><trkpt lat="43.9201782901405" lon="10.7308823877345"><ele>457.8</ele><time>2026-04-11T12:39:25Z</time></trkpt><trkpt lat="43.92027509679582" lon="10.730782907351095"><ele>464.4</ele><time>2026-04-11T12:39:27Z</time></trkpt><trkpt lat="43.92020473548273" lon="10.730735863356324"><ele>471.0</ele><time>2026-04-11T12:39:30Z</time></trkpt><trkpt lat="43.92009642274011" lon="10.730658274436104"><ele>471.0</ele><time>2026-04-11T12:39:32Z</time></trkpt><trkpt lat="43.92011537548789" lon="10.730564586286759"><ele>471.0</ele><time>2026-04-11T12:39:34Z</time></trkpt><trkpt lat="43.92021441235252" lon="10.730471294858285"><ele>471.0</ele><time>2026-04-11T12:39:36Z</time></trkpt><trkpt lat="43.92021166118149" lon="10.730312022801128"><ele>471.0</ele><time>2026-04-11T12:39:38Z</time></trkpt><trkpt lat="43.92023726187581" lon="10.730232147505406"><ele>471.0</ele><time>2026-04-11T12:39:40Z</time></trkpt><trkpt lat="43.92032314136561" lon="10.730219082847151"><ele>470.4</ele><time>2026-04-11T12:39:42Z</time></trkpt><trkpt lat="43.92040627890152" lon="10.730216991813899"><ele>469.8</ele><time>2026-04-11T12:39:44Z</time></trkpt><trkpt lat="43.92049057363718" lon="10.730105134727731"><ele>469.19999999999993</ele><time>2026-04-11T12:39:46Z</time></trkpt><trkpt lat="43.92052936856673" lon="10.72998861748528"><ele>468.59999999999997</ele><time>2026-04-11T12:39:47Z</time></trkpt><trkpt lat="43.92056359125244" lon="10.729862791589765"><ele>468.0</ele><time>2026-04-11T12:39:48Z</time></trkpt><trkpt lat="43.920621586454594" lon="10.729752569204127"><ele>468.0</ele><time>2026-04-11T12:39:49Z</time></trkpt><trkpt lat="43.92068848447776" lon="10.72967026221755"><ele>467.99999999999994</ele><time>2026-04-11T12:39:50Z</time></trkpt><trkpt lat="43.920768114480715" lon="10.729638476188933"><ele>467.99999999999994</ele><time>2026-04-11T12:39:51Z</time></trkpt><trkpt lat="43.92086066315021" lon="10.729618349663987"><ele>468.0</ele><time>2026-04-11T12:39:52Z</time></trkpt><trkpt lat="43.92096619681165" lon="10.729630363103835"><ele>468.0</ele><time>2026-04-11T12:39:53Z</time></trkpt><trkpt lat="43.92106539142066" lon="10.729653250149068"><ele>469.0</ele><time>2026-04-11T12:39:54Z</time></trkpt><trkpt lat="43.92116453276712" lon="10.729678732063272"><ele>469.99999999999994</ele><time>2026-04-11T12:39:55Z</time></trkpt><trkpt lat="43.92127341916523" lon="10.729699279081357"><ele>470.99999999999994</ele><time>2026-04-11T12:39:56Z</time></trkpt><trkpt lat="43.921363504887225" lon="10.72970328635053"><ele>472.0</ele><time>2026-04-11T12:39:57Z</time></trkpt><trkpt lat="43.92146266620244" lon="10.729676041288403"><ele>473.0</ele><time>2026-04-11T12:39:58Z</time></trkpt><trkpt lat="43.92155042393482" lon="10.72959887173923"><ele>473.0</ele><time>2026-04-11T12:39:59Z</time></trkpt><trkpt lat="43.92163288751086" lon="10.729512394819375"><ele>472.99999999999994</ele><time>2026-04-11T12:40:00Z</time></trkpt><trkpt lat="43.92171897431873" lon="10.729445719304884"><ele>472.99999999999994</ele><time>2026-04-11T12:40:01Z</time></trkpt><trkpt lat="43.92181189079076" lon="10.72942242091142"><ele>473.0</ele><time>2026-04-11T12:40:02Z</time></trkpt><trkpt lat="43.92192406111963" lon="10.729439387034063"><ele>473.0</ele><time>2026-04-11T12:40:03Z</time></trkpt><trkpt lat="43.922036386289655" lon="10.72948425114079"><ele>472.59999999999997</ele><time>2026-04-11T12:40:04Z</time></trkpt><trkpt lat="43.9221328039143" lon="10.729485531411608"><ele>472.19999999999993</ele><time>2026-04-11T12:40:05Z</time></trkpt><trkpt lat="43.92224192242062" lon="10.72948115393978"><ele>471.8</ele><time>2026-04-11T12:40:06Z</time></trkpt><trkpt lat="43.92234074098087" lon="10.729500282994724"><ele>471.4</ele><time>2026-04-11T12:40:07Z</time></trkpt><trkpt lat="43.92242801061062" lon="10.729534408889206"><ele>471.0</ele><time>2026-04-11T12:40:08Z</time></trkpt><trkpt lat="43.92251793443085" lon="10.729570736421138"><ele>470.6666666666667</ele><time>2026-04-11T12:40:09Z</time></trkpt><trkpt lat="43.92260104772856" lon="10.729636095973639"><ele>470.33333333333337</ele><time>2026-04-11T12:40:10Z</time></trkpt><trkpt lat="43.92267555792952" lon="10.729685837768914"><ele>470.0</ele><time>2026-04-11T12:40:11Z</time></trkpt><trkpt lat="43.92273833957617" lon="10.729743681025159"><ele>469.6666666666667</ele><time>2026-04-11T12:40:12Z</time></trkpt><trkpt lat="43.92280912114089" lon="10.729755113503677"><ele>469.33333333333337</ele><time>2026-04-11T12:40:13Z</time></trkpt><trkpt lat="43.922903872029195" lon="10.729672721252067"><ele>469.0</ele><time>2026-04-11T12:40:15Z</time></trkpt><trkpt lat="43.9229859673801" lon="10.729685840701784"><ele>469.0</ele><time>2026-04-11T12:40:17Z</time></trkpt><trkpt lat="43.92306603586272" lon="10.729784833402409"><ele>469.0</ele><time>2026-04-11T12:40:19Z</time></trkpt><trkpt lat="43.92316935743073" lon="10.729860721480666"><ele>469.0</ele><time>2026-04-11T12:40:21Z</time></trkpt><trkpt lat="43.92327415915226" lon="10.729898829234966"><ele>469.0</ele><time>2026-04-11T12:40:23Z</time></trkpt><trkpt lat="43.92335906210807" lon="10.729961373355579"><ele>469.0</ele><time>2026-04-11T12:40:25Z</time></trkpt><trkpt lat="43.92342169179314" lon="10.729981776800969"><ele>472.0</ele><time>2026-04-11T12:40:26Z</time></trkpt><trkpt lat="43.92353096505867" lon="10.73000786297783"><ele>475.0</ele><time>2026-04-11T12:40:28Z</time></trkpt><trkpt lat="43.9236064782886" lon="10.730017200997493"><ele>478.0</ele><time>2026-04-11T12:40:29Z</time></trkpt><trkpt lat="43.92368643681437" lon="10.730044418875682"><ele>481.0</ele><time>2026-04-11T12:40:30Z</time></trkpt><trkpt lat="43.9237627529117" lon="10.730066444701965"><ele>484.0</ele><time>2026-04-11T12:40:31Z</time></trkpt><trkpt lat="43.92383637861687" lon="10.730180233236851"><ele>483.33333333333337</ele><time>2026-04-11T12:40:33Z</time></trkpt><trkpt lat="43.923915378755304" lon="10.730287131545488"><ele>482.6666666666667</ele><time>2026-04-11T12:40:35Z</time></trkpt><trkpt lat="43.923967559388736" lon="10.73033930473401"><ele>482.0</ele><time>2026-04-11T12:40:36Z</time></trkpt><trkpt lat="43.92400590565014" lon="10.730436743639654"><ele>481.33333333333337</ele><time>2026-04-11T12:40:38Z</time></trkpt><trkpt lat="43.92407124862731" lon="10.730412717742402"><ele>480.6666666666667</ele><time>2026-04-11T12:40:52Z</time></trkpt><trkpt lat="43.924133342645156" lon="10.730347961673173"><ele>480.0</ele><time>2026-04-11T12:40:54Z</time></trkpt><trkpt lat="43.92421567484766" lon="10.730285248377221"><ele>480.8</ele><time>2026-04-11T12:40:56Z</time></trkpt><trkpt lat="43.92428997980147" lon="10.730223893561204"><ele>481.6</ele><time>2026-04-11T12:40:58Z</time></trkpt><trkpt lat="43.92422375963406" lon="10.730159475412623"><ele>482.4</ele><time>2026-04-11T12:41:01Z</time></trkpt><trkpt lat="43.92412356288851" lon="10.730153272439157"><ele>483.2</ele><time>2026-04-11T12:41:03Z</time></trkpt><trkpt lat="43.9240511360743" lon="10.730081745717303"><ele>484.0</ele><time>2026-04-11T12:41:05Z</time></trkpt><trkpt lat="43.92398561325274" lon="10.729943408362967"><ele>484.00000000000006</ele><time>2026-04-11T12:41:07Z</time></trkpt><trkpt lat="43.92393934797357" lon="10.72983592074666"><ele>484.0</ele><time>2026-04-11T12:41:08Z</time></trkpt><trkpt lat="43.92388310020765" lon="10.729754143623165"><ele>484.0</ele><time>2026-04-11T12:41:09Z</time></trkpt><trkpt lat="43.923812105806654" lon="10.729725810551718"><ele>484.0</ele><time>2026-04-11T12:41:10Z</time></trkpt><trkpt lat="43.92376541762192" lon="10.729661331120413"><ele>484.00000000000006</ele><time>2026-04-11T12:41:11Z</time></trkpt><trkpt lat="43.923759249172214" lon="10.72951628829758"><ele>484.0</ele><time>2026-04-11T12:41:13Z</time></trkpt><trkpt lat="43.923737733671636" lon="10.729414797027314"><ele>485.33333333333337</ele><time>2026-04-11T12:41:14Z</time></trkpt><trkpt lat="43.92371206536433" lon="10.729276970026842"><ele>486.6666666666667</ele><time>2026-04-11T12:41:15Z</time></trkpt><trkpt lat="43.92369150440993" lon="10.729146881092298"><ele>488.0</ele><time>2026-04-11T12:41:16Z</time></trkpt><trkpt lat="43.923660785911764" lon="10.7290291546189"><ele>489.33333333333337</ele><time>2026-04-11T12:41:17Z</time></trkpt><trkpt lat="43.92363839446973" lon="10.728924326193777"><ele>490.6666666666667</ele><time>2026-04-11T12:41:18Z</time></trkpt><trkpt lat="43.92362831638101" lon="10.728827376733184"><ele>492.0</ele><time>2026-04-11T12:41:19Z</time></trkpt><trkpt lat="43.92360326167619" lon="10.72873615243154"><ele>492.0</ele><time>2026-04-11T12:41:20Z</time></trkpt><trkpt lat="43.92355930209524" lon="10.72865912831034"><ele>492.00000000000006</ele><time>2026-04-11T12:41:21Z</time></trkpt><trkpt lat="43.923490528431735" lon="10.728607607069428"><ele>492.00000000000006</ele><time>2026-04-11T12:41:22Z</time></trkpt><trkpt lat="43.9234056119645" lon="10.728557563438725"><ele>492.0</ele><time>2026-04-11T12:41:23Z</time></trkpt><trkpt lat="43.92331172043896" lon="10.728485572111671"><ele>492.0</ele><time>2026-04-11T12:41:24Z</time></trkpt><trkpt lat="43.92320610847279" lon="10.728419655614452"><ele>490.0</ele><time>2026-04-11T12:41:25Z</time></trkpt><trkpt lat="43.923098455798446" lon="10.72833475959719"><ele>488.0</ele><time>2026-04-11T12:41:26Z</time></trkpt><trkpt lat="43.92300452217509" lon="10.728256077696987"><ele>486.0</ele><time>2026-04-11T12:41:27Z</time></trkpt><trkpt lat="43.922916371121204" lon="10.728154439599543"><ele>484.0</ele><time>2026-04-11T12:41:28Z</time></trkpt><trkpt lat="43.922837090340494" lon="10.728042370058938"><ele>484.0</ele><time>2026-04-11T12:41:29Z</time></trkpt><trkpt lat="43.92277965919682" lon="10.7279148931925"><ele>484.0</ele><time>2026-04-11T12:41:30Z</time></trkpt><trkpt lat="43.922734748768825" lon="10.727772123912152"><ele>484.0</ele><time>2026-04-11T12:41:31Z</time></trkpt><trkpt lat="43.92269571210704" lon="10.727626849250932"><ele>484.0</ele><time>2026-04-11T12:41:32Z</time></trkpt><trkpt lat="43.92265551422281" lon="10.727483465642514"><ele>484.0</ele><time>2026-04-11T12:41:33Z</time></trkpt><trkpt lat="43.922592195867914" lon="10.727353886223899"><ele>482.0</ele><time>2026-04-11T12:41:34Z</time></trkpt><trkpt lat="43.922539685645766" lon="10.727238346193813"><ele>480.0</ele><time>2026-04-11T12:41:35Z</time></trkpt><trkpt lat="43.922497135771266" lon="10.727153501794312"><ele>478.0</ele><time>2026-04-11T12:41:36Z</time></trkpt><trkpt lat="43.92241117106292" lon="10.727033747973843"><ele>476.0</ele><time>2026-04-11T12:41:38Z</time></trkpt><trkpt lat="43.92236674242161" lon="10.726949055405065"><ele>474.0</ele><time>2026-04-11T12:41:39Z</time></trkpt><trkpt lat="43.92231063570007" lon="10.72685130164224"><ele>473.2</ele><time>2026-04-11T12:41:40Z</time></trkpt><trkpt lat="43.92230327429734" lon="10.72673077649534"><ele>472.4</ele><time>2026-04-11T12:41:41Z</time></trkpt><trkpt lat="43.92230708479661" lon="10.726605614642917"><ele>471.6</ele><time>2026-04-11T12:41:42Z</time></trkpt><trkpt lat="43.92231375171583" lon="10.726460047649086"><ele>470.8</ele><time>2026-04-11T12:41:43Z</time></trkpt><trkpt lat="43.9222847529799" lon="10.726346354329564"><ele>470.0</ele><time>2026-04-11T12:41:44Z</time></trkpt><trkpt lat="43.92224599851941" lon="10.726231970654785"><ele>469.99999999999994</ele><time>2026-04-11T12:41:45Z</time></trkpt><trkpt lat="43.922219058981646" lon="10.726098520430916"><ele>470.0</ele><time>2026-04-11T12:41:46Z</time></trkpt><trkpt lat="43.9222031114814" lon="10.725985214546414"><ele>470.0</ele><time>2026-04-11T12:41:47Z</time></trkpt><trkpt lat="43.92219295489578" lon="10.72588390679935"><ele>470.0</ele><time>2026-04-11T12:41:48Z</time></trkpt><trkpt lat="43.922187115436294" lon="10.725774662027304"><ele>469.99999999999994</ele><time>2026-04-11T12:41:49Z</time></trkpt><trkpt lat="43.922178769332646" lon="10.72568301558395"><ele>470.0</ele><time>2026-04-11T12:41:50Z</time></trkpt><trkpt lat="43.92217111193569" lon="10.725538284076249"><ele>468.49999999999994</ele><time>2026-04-11T12:41:52Z</time></trkpt><trkpt lat="43.92222506124689" lon="10.725487413403117"><ele>467.0</ele><time>2026-04-11T12:42:08Z</time></trkpt><trkpt lat="43.92232455941048" lon="10.725491806824932"><ele>465.5</ele><time>2026-04-11T12:44:41Z</time></trkpt><trkpt lat="43.92240528757441" lon="10.725506455975324"><ele>464.0</ele><time>2026-04-11T12:44:43Z</time></trkpt><trkpt lat="43.9224866502912" lon="10.725568907527624"><ele>462.49999999999994</ele><time>2026-04-11T12:44:45Z</time></trkpt><trkpt lat="43.92251288015953" lon="10.72566470027872"><ele>461.0</ele><time>2026-04-11T12:44:47Z</time></trkpt><trkpt lat="43.92251939145839" lon="10.72576165556238"><ele>460.99999999999994</ele><time>2026-04-11T12:44:50Z</time></trkpt><trkpt lat="43.92253656987971" lon="10.72585454428754"><ele>461.0</ele><time>2026-04-11T12:44:53Z</time></trkpt><trkpt lat="43.9225621907769" lon="10.725937917274965"><ele>461.0</ele><time>2026-04-11T12:44:55Z</time></trkpt><trkpt lat="43.92259416935005" lon="10.726033599490961"><ele>461.0</ele><time>2026-04-11T12:44:57Z</time></trkpt><trkpt lat="43.92268635472853" lon="10.726117568197022"><ele>460.99999999999994</ele><time>2026-04-11T12:44:59Z</time></trkpt><trkpt lat="43.92274877931638" lon="10.726248764576969"><ele>461.0</ele><time>2026-04-11T12:45:01Z</time></trkpt><trkpt lat="43.92283571788993" lon="10.726339923778333"><ele>460.66666666666663</ele><time>2026-04-11T12:45:03Z</time></trkpt><trkpt lat="43.922923700203796" lon="10.726254094392734"><ele>460.3333333333333</ele><time>2026-04-11T12:45:05Z</time></trkpt><trkpt lat="43.922956035847115" lon="10.726177237151216"><ele>460.0</ele><time>2026-04-11T12:45:06Z</time></trkpt><trkpt lat="43.922973146058766" lon="10.72608581248972"><ele>459.66666666666663</ele><time>2026-04-11T12:45:07Z</time></trkpt><trkpt lat="43.92299724981224" lon="10.72597625177875"><ele>459.3333333333333</ele><time>2026-04-11T12:45:08Z</time></trkpt><trkpt lat="43.923018759283885" lon="10.725865137849034"><ele>459.0</ele><time>2026-04-11T12:45:09Z</time></trkpt><trkpt lat="43.923039080994066" lon="10.725758399214357"><ele>459.0</ele><time>2026-04-11T12:45:10Z</time></trkpt><trkpt lat="43.92305564778171" lon="10.725657256891656"><ele>459.0</ele><time>2026-04-11T12:45:11Z</time></trkpt><trkpt lat="43.92310316463653" lon="10.725571203938783"><ele>459.0</ele><time>2026-04-11T12:45:12Z</time></trkpt><trkpt lat="43.92317307889905" lon="10.725417170350818"><ele>459.0</ele><time>2026-04-11T12:45:14Z</time></trkpt><trkpt lat="43.9232594889282" lon="10.725368770785932"><ele>459.0</ele><time>2026-04-11T12:45:15Z</time></trkpt><trkpt lat="43.9233680460482" lon="10.725351325377153"><ele>459.79999999999995</ele><time>2026-04-11T12:45:16Z</time></trkpt><trkpt lat="43.92346529716062" lon="10.725340059913723"><ele>460.59999999999997</ele><time>2026-04-11T12:45:17Z</time></trkpt><trkpt lat="43.92355818173536" lon="10.725308257260355"><ele>461.4</ele><time>2026-04-11T12:45:18Z</time></trkpt><trkpt lat="43.923644517282064" lon="10.72525828114023"><ele>462.2</ele><time>2026-04-11T12:45:19Z</time></trkpt><trkpt lat="43.923719500354466" lon="10.72518766504269"><ele>463.0</ele><time>2026-04-11T12:45:20Z</time></trkpt><trkpt lat="43.9238034282553" lon="10.725129794960315"><ele>461.50000000000006</ele><time>2026-04-11T12:45:21Z</time></trkpt><trkpt lat="43.923885408592014" lon="10.725090537669518"><ele>460.0</ele><time>2026-04-11T12:45:22Z</time></trkpt><trkpt lat="43.92396520424294" lon="10.725056594660776"><ele>458.5</ele><time>2026-04-11T12:45:23Z</time></trkpt><trkpt lat="43.924059590599" lon="10.725024594302136"><ele>457.0</ele><time>2026-04-11T12:45:24Z</time></trkpt><trkpt lat="43.92414587687454" lon="10.72499873086691"><ele>455.50000000000006</ele><time>2026-04-11T12:45:25Z</time></trkpt><trkpt lat="43.92423880462245" lon="10.724985487008253"><ele>454.0</ele><time>2026-04-11T12:45:26Z</time></trkpt><trkpt lat="43.92432306472544" lon="10.724974138393506"><ele>454.0</ele><time>2026-04-11T12:45:27Z</time></trkpt><trkpt lat="43.92439950252561" lon="10.724956190756993"><ele>454.0</ele><time>2026-04-11T12:45:28Z</time></trkpt><trkpt lat="43.92447467576188" lon="10.724951272663795"><ele>454.0</ele><time>2026-04-11T12:45:29Z</time></trkpt><trkpt lat="43.92455772829626" lon="10.724968864422667"><ele>454.0</ele><time>2026-04-11T12:45:30Z</time></trkpt><trkpt lat="43.924635290057495" lon="10.724973357154768"><ele>454.0</ele><time>2026-04-11T12:45:31Z</time></trkpt><trkpt lat="43.92476837766685" lon="10.724897019804716"><ele>454.00000000000006</ele><time>2026-04-11T12:45:33Z</time></trkpt><trkpt lat="43.924820171279194" lon="10.724804410008225"><ele>454.0</ele><time>2026-04-11T12:45:34Z</time></trkpt><trkpt lat="43.924851787728336" lon="10.724700520924424"><ele>454.0</ele><time>2026-04-11T12:45:35Z</time></trkpt><trkpt lat="43.92488009788123" lon="10.72461463803839"><ele>454.0</ele><time>2026-04-11T12:45:36Z</time></trkpt><trkpt lat="43.92491104409777" lon="10.724527430501423"><ele>454.00000000000006</ele><time>2026-04-11T12:45:37Z</time></trkpt><trkpt lat="43.92494642400584" lon="10.724436799784051"><ele>454.0</ele><time>2026-04-11T12:45:38Z</time></trkpt><trkpt lat="43.924968324661" lon="10.72433171080269"><ele>453.00000000000006</ele><time>2026-04-11T12:45:39Z</time></trkpt><trkpt lat="43.92498259257336" lon="10.724227881269945"><ele>452.0</ele><time>2026-04-11T12:45:40Z</time></trkpt><trkpt lat="43.92500658536296" lon="10.724134012014062"><ele>451.0</ele><time>2026-04-11T12:45:41Z</time></trkpt><trkpt lat="43.9250354109879" lon="10.724053288863244"><ele>450.0</ele><time>2026-04-11T12:45:42Z</time></trkpt><trkpt lat="43.925116972578806" lon="10.723930603923785"><ele>449.00000000000006</ele><time>2026-04-11T12:45:44Z</time></trkpt><trkpt lat="43.92517476812726" lon="10.723869135521081"><ele>448.0</ele><time>2026-04-11T12:45:45Z</time></trkpt><trkpt lat="43.92522254954497" lon="10.723797939134217"><ele>448.00000000000006</ele><time>2026-04-11T12:45:46Z</time></trkpt><trkpt lat="43.92528758854101" lon="10.723777397982591"><ele>448.0</ele><time>2026-04-11T12:45:47Z</time></trkpt><trkpt lat="43.92542995223513" lon="10.723807684553837"><ele>448.0</ele><time>2026-04-11T12:45:49Z</time></trkpt><trkpt lat="43.92550513854916" lon="10.723823619955843"><ele>448.0</ele><time>2026-04-11T12:45:50Z</time></trkpt><trkpt lat="43.92558458823306" lon="10.723791873304876"><ele>448.00000000000006</ele><time>2026-04-11T12:45:51Z</time></trkpt><trkpt lat="43.92565641651308" lon="10.723749027777576"><ele>448.0</ele><time>2026-04-11T12:45:52Z</time></trkpt><trkpt lat="43.92571941031529" lon="10.723704675675549"><ele>448.00000000000006</ele><time>2026-04-11T12:45:53Z</time></trkpt><trkpt lat="43.92578230232222" lon="10.723657297224662"><ele>448.0</ele><time>2026-04-11T12:45:54Z</time></trkpt><trkpt lat="43.92582771266415" lon="10.72358363887265"><ele>448.0</ele><time>2026-04-11T12:45:55Z</time></trkpt><trkpt lat="43.925902131520644" lon="10.723476105919374"><ele>448.0</ele><time>2026-04-11T12:45:57Z</time></trkpt><trkpt lat="43.925999100585926" lon="10.723422759226251"><ele>448.00000000000006</ele><time>2026-04-11T12:45:59Z</time></trkpt><trkpt lat="43.926088115570515" lon="10.723433456486239"><ele>448.0</ele><time>2026-04-11T12:46:01Z</time></trkpt><trkpt lat="43.92622153020538" lon="10.72342628651834"><ele>447.50000000000006</ele><time>2026-04-11T12:46:03Z</time></trkpt><trkpt lat="43.926284671174756" lon="10.723426492173887"><ele>447.0</ele><time>2026-04-11T12:46:04Z</time></trkpt><trkpt lat="43.926354747524734" lon="10.7234543467865"><ele>446.5</ele><time>2026-04-11T12:46:05Z</time></trkpt><trkpt lat="43.926438211423964" lon="10.723407732682753"><ele>446.0</ele><time>2026-04-11T12:46:07Z</time></trkpt><trkpt lat="43.926500633006576" lon="10.723262554221073"><ele>445.50000000000006</ele><time>2026-04-11T12:46:09Z</time></trkpt><trkpt lat="43.92646252684831" lon="10.723172461456745"><ele>445.0</ele><time>2026-04-11T12:46:11Z</time></trkpt><trkpt lat="43.926407122267996" lon="10.723078672021316"><ele>445.00000000000006</ele><time>2026-04-11T12:47:36Z</time></trkpt><trkpt lat="43.92636146067913" lon="10.723011612361013"><ele>445.0</ele><time>2026-04-11T12:47:38Z</time></trkpt><trkpt lat="43.92630464238475" lon="10.722953439525549"><ele>445.0</ele><time>2026-04-11T12:47:40Z</time></trkpt><trkpt lat="43.92624029187619" lon="10.722879745748383"><ele>445.0</ele><time>2026-04-11T12:47:42Z</time></trkpt><trkpt lat="43.92617869348015" lon="10.722774330461945"><ele>445.00000000000006</ele><time>2026-04-11T12:47:44Z</time></trkpt><trkpt lat="43.926113863375335" lon="10.722643909001206"><ele>445.0</ele><time>2026-04-11T12:47:46Z</time></trkpt><trkpt lat="43.926059851734244" lon="10.72258500797368"><ele>442.6</ele><time>2026-04-11T12:47:47Z</time></trkpt><trkpt lat="43.92593674771931" lon="10.722521144551305"><ele>440.2</ele><time>2026-04-11T12:47:49Z</time></trkpt><trkpt lat="43.92584850708594" lon="10.722412545844715"><ele>437.79999999999995</ele><time>2026-04-11T12:47:51Z</time></trkpt><trkpt lat="43.92580014929939" lon="10.722356273400944"><ele>435.4</ele><time>2026-04-11T12:47:52Z</time></trkpt><trkpt lat="43.92572643528224" lon="10.722248663362198"><ele>433.0</ele><time>2026-04-11T12:47:54Z</time></trkpt><trkpt lat="43.9257292469898" lon="10.722119462813726"><ele>431.33333333333337</ele><time>2026-04-11T12:47:56Z</time></trkpt><trkpt lat="43.92580134425586" lon="10.721990457351515"><ele>429.6666666666667</ele><time>2026-04-11T12:47:58Z</time></trkpt><trkpt lat="43.92584353281577" lon="10.721903175103055"><ele>428.0</ele><time>2026-04-11T12:47:59Z</time></trkpt><trkpt lat="43.92589755451221" lon="10.721760298173235"><ele>426.33333333333337</ele><time>2026-04-11T12:48:01Z</time></trkpt><trkpt lat="43.92592202076374" lon="10.721676978954727"><ele>424.6666666666667</ele><time>2026-04-11T12:48:02Z</time></trkpt><trkpt lat="43.92596422887376" lon="10.721592575967305"><ele>423.0</ele><time>2026-04-11T12:48:03Z</time></trkpt><trkpt lat="43.92601074255104" lon="10.721526471586683"><ele>423.0</ele><time>2026-04-11T12:48:04Z</time></trkpt><trkpt lat="43.92609439494623" lon="10.721397803462947"><ele>423.0</ele><time>2026-04-11T12:48:06Z</time></trkpt><trkpt lat="43.926117256508455" lon="10.721312859401488"><ele>423.0</ele><time>2026-04-11T12:48:07Z</time></trkpt><trkpt lat="43.926123719545124" lon="10.721221082179534"><ele>423.0</ele><time>2026-04-11T12:48:08Z</time></trkpt><trkpt lat="43.92616067892693" lon="10.721060995358641"><ele>423.0</ele><time>2026-04-11T12:48:10Z</time></trkpt><trkpt lat="43.92618289981521" lon="10.72097071795979"><ele>423.0</ele><time>2026-04-11T12:48:11Z</time></trkpt><trkpt lat="43.92619943009199" lon="10.72088415075637"><ele>421.5</ele><time>2026-04-11T12:48:12Z</time></trkpt><trkpt lat="43.92622297956682" lon="10.7207842249384"><ele>420.0</ele><time>2026-04-11T12:48:13Z</time></trkpt><trkpt lat="43.9262547401318" lon="10.720652393412633"><ele>418.5</ele><time>2026-04-11T12:48:15Z</time></trkpt><trkpt lat="43.92626711230864" lon="10.720551744669686"><ele>417.0</ele><time>2026-04-11T12:48:17Z</time></trkpt><trkpt lat="43.926306799812636" lon="10.720472945678365"><ele>415.5</ele><time>2026-04-11T12:48:18Z</time></trkpt><trkpt lat="43.92634260365984" lon="10.720398467933181"><ele>414.0</ele><time>2026-04-11T12:48:19Z</time></trkpt><trkpt lat="43.926376369239456" lon="10.720316030247412"><ele>410.5</ele><time>2026-04-11T12:48:20Z</time></trkpt><trkpt lat="43.92645134014614" lon="10.720154139137696"><ele>407.0</ele><time>2026-04-11T12:48:22Z</time></trkpt><trkpt lat="43.92648735171775" lon="10.720075968066766"><ele>403.5</ele><time>2026-04-11T12:48:23Z</time></trkpt><trkpt lat="43.92655356963618" lon="10.71991536427703"><ele>400.0</ele><time>2026-04-11T12:48:25Z</time></trkpt><trkpt lat="43.926632304319746" lon="10.719767109096882"><ele>400.00000000000006</ele><time>2026-04-11T12:48:27Z</time></trkpt><trkpt lat="43.92668127111809" lon="10.71969895951186"><ele>400.0</ele><time>2026-04-11T12:48:28Z</time></trkpt><trkpt lat="43.92673162503353" lon="10.719631474233788"><ele>400.0</ele><time>2026-04-11T12:48:29Z</time></trkpt><trkpt lat="43.92677156953666" lon="10.71955333933925"><ele>400.0</ele><time>2026-04-11T12:48:30Z</time></trkpt><trkpt lat="43.92681610583557" lon="10.71946094534603"><ele>400.00000000000006</ele><time>2026-04-11T12:48:31Z</time></trkpt><trkpt lat="43.926857858458725" lon="10.719373618540654"><ele>400.0</ele><time>2026-04-11T12:48:32Z</time></trkpt><trkpt lat="43.926940142966274" lon="10.719225661929835"><ele>398.6666666666667</ele><time>2026-04-11T12:48:34Z</time></trkpt><trkpt lat="43.92701514686088" lon="10.719096111131398"><ele>397.33333333333337</ele><time>2026-04-11T12:48:36Z</time></trkpt><trkpt lat="43.927056522649444" lon="10.719022658878801"><ele>396.0</ele><time>2026-04-11T12:48:37Z</time></trkpt><trkpt lat="43.92710451472185" lon="10.718952407960774"><ele>394.66666666666663</ele><time>2026-04-11T12:48:39Z</time></trkpt><trkpt lat="43.92717493813401" lon="10.719008293767201"><ele>393.3333333333333</ele><time>2026-04-11T12:48:44Z</time></trkpt><trkpt lat="43.927231417178795" lon="10.719047114700334"><ele>392.0</ele><time>2026-04-11T12:48:46Z</time></trkpt><trkpt lat="43.927294775891866" lon="10.719031464139139"><ele>392.0</ele><time>2026-04-11T12:48:48Z</time></trkpt><trkpt lat="43.92739133383904" lon="10.71899578269582"><ele>392.0</ele><time>2026-04-11T12:49:12Z</time></trkpt><trkpt lat="43.9274019555161" lon="10.718893759772795"><ele>392.0</ele><time>2026-04-11T12:49:22Z</time></trkpt><trkpt lat="43.92741439336444" lon="10.718785559235942"><ele>392.0</ele><time>2026-04-11T12:49:24Z</time></trkpt><trkpt lat="43.92749306056716" lon="10.718677269185042"><ele>392.0</ele><time>2026-04-11T12:49:26Z</time></trkpt><trkpt lat="43.92756601514712" lon="10.718591527362381"><ele>389.99999999999994</ele><time>2026-04-11T12:49:28Z</time></trkpt><trkpt lat="43.927625244290624" lon="10.718557746382226"><ele>388.0</ele><time>2026-04-11T12:49:29Z</time></trkpt><trkpt lat="43.927662787495926" lon="10.718465608828955"><ele>386.0</ele><time>2026-04-11T12:49:31Z</time></trkpt><trkpt lat="43.92775483832349" lon="10.718402785483828"><ele>384.0</ele><time>2026-04-11T12:49:33Z</time></trkpt><trkpt lat="43.927850340637036" lon="10.718414517203549"><ele>382.0</ele><time>2026-04-11T12:49:35Z</time></trkpt><trkpt lat="43.92789451789342" lon="10.718345170968437"><ele>380.0</ele><time>2026-04-11T12:49:37Z</time></trkpt><trkpt lat="43.92800344230599" lon="10.718294153801386"><ele>380.0</ele><time>2026-04-11T12:49:39Z</time></trkpt><trkpt lat="43.92811087538007" lon="10.718229800892667"><ele>380.0</ele><time>2026-04-11T12:49:41Z</time></trkpt><trkpt lat="43.928214394841525" lon="10.718147521324072"><ele>380.0</ele><time>2026-04-11T12:49:43Z</time></trkpt><trkpt lat="43.9282745730451" lon="10.71802522585934"><ele>380.0</ele><time>2026-04-11T12:49:45Z</time></trkpt><trkpt lat="43.92835701355655" lon="10.717939007083949"><ele>380.0</ele><time>2026-04-11T12:49:47Z</time></trkpt><trkpt lat="43.92845836342356" lon="10.717943250497015"><ele>382.0</ele><time>2026-04-11T12:49:49Z</time></trkpt><trkpt lat="43.92853045622696" lon="10.717960073545783"><ele>384.0</ele><time>2026-04-11T12:49:51Z</time></trkpt><trkpt lat="43.92863707332246" lon="10.718015976975895"><ele>386.0</ele><time>2026-04-11T12:49:53Z</time></trkpt><trkpt lat="43.92869071303257" lon="10.717955206032386"><ele>388.0</ele><time>2026-04-11T12:49:55Z</time></trkpt><trkpt lat="43.92872448632553" lon="10.717870767583005"><ele>389.99999999999994</ele><time>2026-04-11T12:49:56Z</time></trkpt><trkpt lat="43.92879067434283" lon="10.717834953904324"><ele>392.0</ele><time>2026-04-11T12:49:59Z</time></trkpt><trkpt lat="43.92885273333017" lon="10.71777081431938"><ele>391.75</ele><time>2026-04-11T12:50:01Z</time></trkpt><trkpt lat="43.92896279590486" lon="10.717665468428999"><ele>391.5</ele><time>2026-04-11T12:50:03Z</time></trkpt><trkpt lat="43.9290335888421" lon="10.71754296729813"><ele>391.25</ele><time>2026-04-11T12:50:05Z</time></trkpt><trkpt lat="43.929092646093956" lon="10.71749494363276"><ele>391.0</ele><time>2026-04-11T12:50:06Z</time></trkpt><trkpt lat="43.92923032913889" lon="10.717461772445942"><ele>391.0</ele><time>2026-04-11T12:50:08Z</time></trkpt><trkpt lat="43.92933024857648" lon="10.717383039169132"><ele>391.0</ele><time>2026-04-11T12:50:10Z</time></trkpt><trkpt lat="43.929401321856034" lon="10.717309727477332"><ele>391.0</ele><time>2026-04-11T12:50:12Z</time></trkpt><trkpt lat="43.929472378640874" lon="10.717201561940179"><ele>391.0</ele><time>2026-04-11T12:50:14Z</time></trkpt><trkpt lat="43.92955843090401" lon="10.717104793769007"><ele>391.0</ele><time>2026-04-11T12:50:16Z</time></trkpt><trkpt lat="43.92960510698801" lon="10.717012308892944"><ele>390.99999999999994</ele><time>2026-04-11T12:50:17Z</time></trkpt><trkpt lat="43.929645824979985" lon="10.716927078048558"><ele>391.0</ele><time>2026-04-11T12:50:18Z</time></trkpt><trkpt lat="43.929691289078484" lon="10.716856789512493"><ele>391.0</ele><time>2026-04-11T12:50:19Z</time></trkpt><trkpt lat="43.92974472817383" lon="10.716808528304488"><ele>391.0</ele><time>2026-04-11T12:50:20Z</time></trkpt><trkpt lat="43.92980849211976" lon="10.716832898432092"><ele>391.0</ele><time>2026-04-11T12:50:22Z</time></trkpt><trkpt lat="43.92985712025793" lon="10.716906440804813"><ele>390.99999999999994</ele><time>2026-04-11T12:50:25Z</time></trkpt><trkpt lat="43.92992165279298" lon="10.71691262550535"><ele>391.0</ele><time>2026-04-11T12:50:27Z</time></trkpt><trkpt lat="43.92996558280096" lon="10.716845427783488"><ele>388.20000000000005</ele><time>2026-04-11T12:50:31Z</time></trkpt><trkpt lat="43.92995690136377" lon="10.71675174584763"><ele>385.40000000000003</ele><time>2026-04-11T12:50:48Z</time></trkpt><trkpt lat="43.929869955369355" lon="10.71664490664021"><ele>382.6</ele><time>2026-04-11T12:50:51Z</time></trkpt><trkpt lat="43.92980897921497" lon="10.71653176161118"><ele>379.8</ele><time>2026-04-11T12:50:53Z</time></trkpt><trkpt lat="43.929827382749366" lon="10.716409228366901"><ele>377.0</ele><time>2026-04-11T12:50:55Z</time></trkpt><trkpt lat="43.92987857694985" lon="10.71632743895105"><ele>377.0</ele><time>2026-04-11T12:50:57Z</time></trkpt><trkpt lat="43.929943632640075" lon="10.716235674594328"><ele>377.0</ele><time>2026-04-11T12:50:59Z</time></trkpt><trkpt lat="43.93000074321867" lon="10.716171959472463"><ele>377.0</ele><time>2026-04-11T12:51:01Z</time></trkpt><trkpt lat="43.930023264941724" lon="10.716080805836597"><ele>377.0</ele><time>2026-04-11T12:51:55Z</time></trkpt><trkpt lat="43.92997087529884" lon="10.71614013573327"><ele>377.0</ele><time>2026-04-11T12:52:18Z</time></trkpt><trkpt lat="43.93004875531533" lon="10.716080721344687"><ele>377.0</ele><time>2026-04-11T12:52:21Z</time></trkpt><trkpt lat="43.93009098445354" lon="10.715986830196176"><ele>379.0</ele><time>2026-04-11T12:52:23Z</time></trkpt><trkpt lat="43.93017659197747" lon="10.715833429752516"><ele>381.0</ele><time>2026-04-11T12:52:25Z</time></trkpt><trkpt lat="43.93027732999033" lon="10.715743453564047"><ele>383.0</ele><time>2026-04-11T12:52:26Z</time></trkpt><trkpt lat="43.93030033799756" lon="10.71555346525719"><ele>385.0</ele><time>2026-04-11T12:52:28Z</time></trkpt><trkpt lat="43.930308041277975" lon="10.715456328020121"><ele>385.0</ele><time>2026-04-11T12:52:29Z</time></trkpt><trkpt lat="43.930315536684496" lon="10.715302560578236"><ele>385.0</ele><time>2026-04-11T12:52:31Z</time></trkpt><trkpt lat="43.93029321474969" lon="10.715207422850076"><ele>385.0</ele><time>2026-04-11T12:52:32Z</time></trkpt><trkpt lat="43.93031396107472" lon="10.715032328971454"><ele>385.0</ele><time>2026-04-11T12:52:34Z</time></trkpt><trkpt lat="43.93030663421758" lon="10.71490515391291"><ele>385.0</ele><time>2026-04-11T12:52:35Z</time></trkpt><trkpt lat="43.930384052406055" lon="10.714792213699933"><ele>382.0</ele><time>2026-04-11T12:52:37Z</time></trkpt><trkpt lat="43.93045233654702" lon="10.71469144715732"><ele>379.0</ele><time>2026-04-11T12:52:39Z</time></trkpt><trkpt lat="43.930525228493366" lon="10.714645102175785"><ele>376.0</ele><time>2026-04-11T12:52:41Z</time></trkpt><trkpt lat="43.930602330877804" lon="10.714556054585158"><ele>373.0</ele><time>2026-04-11T12:52:43Z</time></trkpt><trkpt lat="43.93061691150133" lon="10.714416137925362"><ele>370.0</ele><time>2026-04-11T12:52:45Z</time></trkpt><trkpt lat="43.93062811274427" lon="10.714322262814372"><ele>369.5</ele><time>2026-04-11T12:52:46Z</time></trkpt><trkpt lat="43.93069452473111" lon="10.714267510336175"><ele>369.0</ele><time>2026-04-11T12:52:47Z</time></trkpt><trkpt lat="43.93066583718029" lon="10.71410842254556"><ele>368.5</ele><time>2026-04-11T12:52:48Z</time></trkpt><trkpt lat="43.93068031961894" lon="10.714007684916895"><ele>368.0</ele><time>2026-04-11T12:52:49Z</time></trkpt><trkpt lat="43.930698216035985" lon="10.713913335683781"><ele>367.5</ele><time>2026-04-11T12:52:50Z</time></trkpt><trkpt lat="43.93071363573248" lon="10.71382257421008"><ele>367.0</ele><time>2026-04-11T12:52:51Z</time></trkpt><trkpt lat="43.93072910941101" lon="10.713725269721223"><ele>367.0</ele><time>2026-04-11T12:52:52Z</time></trkpt><trkpt lat="43.9307316403851" lon="10.713632107645479"><ele>367.0</ele><time>2026-04-11T12:52:53Z</time></trkpt><trkpt lat="43.93071376025976" lon="10.713451128364648"><ele>367.0</ele><time>2026-04-11T12:52:55Z</time></trkpt><trkpt lat="43.93066666071248" lon="10.713295214605688"><ele>367.0</ele><time>2026-04-11T12:52:57Z</time></trkpt><trkpt lat="43.93063443182565" lon="10.713146523313117"><ele>367.0</ele><time>2026-04-11T12:52:59Z</time></trkpt><trkpt lat="43.930642983964816" lon="10.712979846992724"><ele>366.16666666666663</ele><time>2026-04-11T12:53:01Z</time></trkpt><trkpt lat="43.93060999341383" lon="10.712830489636472"><ele>365.3333333333333</ele><time>2026-04-11T12:53:03Z</time></trkpt><trkpt lat="43.93054088341544" lon="10.712724521589966"><ele>364.5</ele><time>2026-04-11T12:53:05Z</time></trkpt><trkpt lat="43.93058963608012" lon="10.712647535257199"><ele>363.6666666666667</ele><time>2026-04-11T12:53:07Z</time></trkpt><trkpt lat="43.93065737555872" lon="10.712577155196314"><ele>362.83333333333337</ele><time>2026-04-11T12:53:08Z</time></trkpt><trkpt lat="43.930718438161264" lon="10.712519457675567"><ele>362.0</ele><time>2026-04-11T12:53:09Z</time></trkpt><trkpt lat="43.930776993813545" lon="10.712380832041557"><ele>361.0</ele><time>2026-04-11T12:53:10Z</time></trkpt><trkpt lat="43.93081201522659" lon="10.71229239267659"><ele>360.0</ele><time>2026-04-11T12:53:11Z</time></trkpt><trkpt lat="43.9308602091236" lon="10.712162823599947"><ele>359.0</ele><time>2026-04-11T12:53:13Z</time></trkpt><trkpt lat="43.93093460165322" lon="10.712067481739647"><ele>358.0</ele><time>2026-04-11T12:53:15Z</time></trkpt><trkpt lat="43.93098541657872" lon="10.711960099757555"><ele>357.0</ele><time>2026-04-11T12:53:17Z</time></trkpt><trkpt lat="43.93099838867286" lon="10.711816111326401"><ele>358.6</ele><time>2026-04-11T12:53:19Z</time></trkpt><trkpt lat="43.930944299976424" lon="10.711701481418537"><ele>360.20000000000005</ele><time>2026-04-11T12:53:21Z</time></trkpt><trkpt lat="43.93087996700918" lon="10.711632150708637"><ele>361.8</ele><time>2026-04-11T12:53:23Z</time></trkpt><trkpt lat="43.93082200422647" lon="10.711572742334418"><ele>363.4</ele><time>2026-04-11T12:53:25Z</time></trkpt><trkpt lat="43.930856327888506" lon="10.71148141576193"><ele>365.0</ele><time>2026-04-11T12:53:28Z</time></trkpt><trkpt lat="43.930976340774805" lon="10.711432151969095"><ele>359.8</ele><time>2026-04-11T12:53:29Z</time></trkpt><trkpt lat="43.93106661129337" lon="10.711398872936101"><ele>354.6</ele><time>2026-04-11T12:53:30Z</time></trkpt><trkpt lat="43.93112508546497" lon="10.711213694826231"><ele>349.4</ele><time>2026-04-11T12:53:32Z</time></trkpt><trkpt lat="43.93115660972556" lon="10.711132453962938"><ele>344.2</ele><time>2026-04-11T12:53:33Z</time></trkpt><trkpt lat="43.931248179881436" lon="10.711005310995699"><ele>339.0</ele><time>2026-04-11T12:53:35Z</time></trkpt><trkpt lat="43.93128876285083" lon="10.710929680756259"><ele>339.0</ele><time>2026-04-11T12:53:36Z</time></trkpt><trkpt lat="43.93135321227007" lon="10.710896461598931"><ele>339.0</ele><time>2026-04-11T12:53:37Z</time></trkpt><trkpt lat="43.931416385352506" lon="10.710781848306969"><ele>339.0</ele><time>2026-04-11T12:53:39Z</time></trkpt><trkpt lat="43.93143565695971" lon="10.71067021193361"><ele>339.0</ele><time>2026-04-11T12:53:42Z</time></trkpt><trkpt lat="43.931438683221884" lon="10.710561220258663"><ele>339.0</ele><time>2026-04-11T12:53:44Z</time></trkpt><trkpt lat="43.93145543342956" lon="10.71039238646901"><ele>339.0</ele><time>2026-04-11T12:53:46Z</time></trkpt><trkpt lat="43.931471775920166" lon="10.710298208552906"><ele>339.0</ele><time>2026-04-11T12:53:48Z</time></trkpt><trkpt lat="43.93147141420168" lon="10.710168901237207"><ele>339.0</ele><time>2026-04-11T12:53:51Z</time></trkpt><trkpt lat="43.931487776217274" lon="10.710025776821407"><ele>339.0</ele><time>2026-04-11T12:53:54Z</time></trkpt><trkpt lat="43.931548720020004" lon="10.7099307553782"><ele>339.0</ele><time>2026-04-11T12:53:56Z</time></trkpt><trkpt lat="43.9315784912427" lon="10.709781859621323"><ele>342.5</ele><time>2026-04-11T12:53:58Z</time></trkpt><trkpt lat="43.931589457197454" lon="10.70962126664157"><ele>346.0</ele><time>2026-04-11T12:54:00Z</time></trkpt><trkpt lat="43.93161739220594" lon="10.70943095152354"><ele>349.5</ele><time>2026-04-11T12:54:02Z</time></trkpt><trkpt lat="43.931629849623306" lon="10.709253295147066"><ele>353.0</ele><time>2026-04-11T12:54:04Z</time></trkpt><trkpt lat="43.93165176266076" lon="10.709167902170432"><ele>353.0</ele><time>2026-04-11T12:54:05Z</time></trkpt><trkpt lat="43.931708030653525" lon="10.709030561436737"><ele>353.0</ele><time>2026-04-11T12:54:07Z</time></trkpt><trkpt lat="43.93172379876563" lon="10.70892239242999"><ele>353.0</ele><time>2026-04-11T12:54:08Z</time></trkpt><trkpt lat="43.931731305535834" lon="10.708735232168932"><ele>353.0</ele><time>2026-04-11T12:54:10Z</time></trkpt><trkpt lat="43.93174295240512" lon="10.708639502690591"><ele>353.0</ele><time>2026-04-11T12:54:11Z</time></trkpt><trkpt lat="43.93175031995197" lon="10.70853762455136"><ele>346.2</ele><time>2026-04-11T12:54:12Z</time></trkpt><trkpt lat="43.93177824270917" lon="10.708385897173638"><ele>339.4</ele><time>2026-04-11T12:54:14Z</time></trkpt><trkpt lat="43.931775979829176" lon="10.708289661552564"><ele>332.59999999999997</ele><time>2026-04-11T12:54:15Z</time></trkpt><trkpt lat="43.93177388695094" lon="10.708169206813622"><ele>325.79999999999995</ele><time>2026-04-11T12:54:16Z</time></trkpt><trkpt lat="43.93177713075909" lon="10.708009418028599"><ele>319.0</ele><time>2026-04-11T12:54:18Z</time></trkpt><trkpt lat="43.931812088165366" lon="10.707860409576124"><ele>319.0</ele><time>2026-04-11T12:54:20Z</time></trkpt><trkpt lat="43.93184385718115" lon="10.707721582184094"><ele>319.0</ele><time>2026-04-11T12:54:22Z</time></trkpt><trkpt lat="43.93188077321005" lon="10.707591551489413"><ele>319.0</ele><time>2026-04-11T12:54:24Z</time></trkpt><trkpt lat="43.93186685364931" lon="10.707429170045456"><ele>319.0</ele><time>2026-04-11T12:54:26Z</time></trkpt><trkpt lat="43.93185326831587" lon="10.707276566059189"><ele>319.0</ele><time>2026-04-11T12:54:28Z</time></trkpt><trkpt lat="43.93182725343521" lon="10.707192266195602"><ele>319.0</ele><time>2026-04-11T12:54:29Z</time></trkpt><trkpt lat="43.93179712585835" lon="10.70711113378307"><ele>319.0</ele><time>2026-04-11T12:54:30Z</time></trkpt><trkpt lat="43.931758585708" lon="10.707037863343404"><ele>319.0</ele><time>2026-04-11T12:54:31Z</time></trkpt><trkpt lat="43.93170971527463" lon="10.706947191971125"><ele>319.0</ele><time>2026-04-11T12:54:32Z</time></trkpt><trkpt lat="43.93162959018829" lon="10.706783212190889"><ele>319.0</ele><time>2026-04-11T12:54:34Z</time></trkpt><trkpt lat="43.93158404194004" lon="10.706644077397671"><ele>321.5</ele><time>2026-04-11T12:54:36Z</time></trkpt><trkpt lat="43.93155275573885" lon="10.706554989523918"><ele>324.0</ele><time>2026-04-11T12:54:37Z</time></trkpt><trkpt lat="43.93148966235403" lon="10.706443591790011"><ele>326.5</ele><time>2026-04-11T12:54:39Z</time></trkpt><trkpt lat="43.93140090781082" lon="10.706386484556177"><ele>329.0</ele><time>2026-04-11T12:54:41Z</time></trkpt><trkpt lat="43.931338272905776" lon="10.70636095464981"><ele>331.5</ele><time>2026-04-11T12:54:42Z</time></trkpt><trkpt lat="43.93128089513068" lon="10.706265925315495"><ele>334.0</ele><time>2026-04-11T12:54:44Z</time></trkpt><trkpt lat="43.93139445478226" lon="10.70610813252259"><ele>331.2</ele><time>2026-04-11T12:54:46Z</time></trkpt><trkpt lat="43.931408314164614" lon="10.706009392081366"><ele>328.4</ele><time>2026-04-11T12:54:47Z</time></trkpt><trkpt lat="43.93136793805816" lon="10.705853260102387"><ele>325.6</ele><time>2026-04-11T12:54:49Z</time></trkpt><trkpt lat="43.93128611597296" lon="10.705745721648881"><ele>322.8</ele><time>2026-04-11T12:54:51Z</time></trkpt><trkpt lat="43.931233692524685" lon="10.705676815510124"><ele>320.0</ele><time>2026-04-11T12:54:52Z</time></trkpt><trkpt lat="43.931202397824634" lon="10.705521452420827"><ele>320.0</ele><time>2026-04-11T12:54:54Z</time></trkpt><trkpt lat="43.931194802743214" lon="10.705434425873278"><ele>320.0</ele><time>2026-04-11T12:54:55Z</time></trkpt><trkpt lat="43.931171420256504" lon="10.705322009859309"><ele>320.0</ele><time>2026-04-11T12:54:56Z</time></trkpt><trkpt lat="43.93115397967204" lon="10.705228476662374"><ele>320.0</ele><time>2026-04-11T12:54:57Z</time></trkpt><trkpt lat="43.93106396082607" lon="10.705110235986938"><ele>320.0</ele><time>2026-04-11T12:54:59Z</time></trkpt><trkpt lat="43.93097584245092" lon="10.705020895695247"><ele>319.33333333333337</ele><time>2026-04-11T12:55:01Z</time></trkpt><trkpt lat="43.930951860038945" lon="10.704856211458091"><ele>318.6666666666667</ele><time>2026-04-11T12:55:03Z</time></trkpt><trkpt lat="43.9309643976701" lon="10.704762717692478"><ele>318.0</ele><time>2026-04-11T12:55:04Z</time></trkpt><trkpt lat="43.930958288865604" lon="10.70467230353977"><ele>317.3333333333333</ele><time>2026-04-11T12:55:05Z</time></trkpt><trkpt lat="43.93096324102564" lon="10.704576388622048"><ele>316.66666666666663</ele><time>2026-04-11T12:55:06Z</time></trkpt><trkpt lat="43.930944110309674" lon="10.704405542358536"><ele>316.0</ele><time>2026-04-11T12:55:08Z</time></trkpt><trkpt lat="43.93095479419753" lon="10.70426461164492"><ele>316.0</ele><time>2026-04-11T12:55:10Z</time></trkpt><trkpt lat="43.93101669772695" lon="10.70416253849288"><ele>316.0</ele><time>2026-04-11T12:55:12Z</time></trkpt><trkpt lat="43.93102187808316" lon="10.70405828266472"><ele>316.0</ele><time>2026-04-11T12:55:14Z</time></trkpt><trkpt lat="43.931014039893135" lon="10.70388875677322"><ele>316.0</ele><time>2026-04-11T12:55:16Z</time></trkpt><trkpt lat="43.93099767304346" lon="10.703736367161907"><ele>316.0</ele><time>2026-04-11T12:55:18Z</time></trkpt><trkpt lat="43.93096394853329" lon="10.703618571465544"><ele>315.8333333333333</ele><time>2026-04-11T12:55:20Z</time></trkpt><trkpt lat="43.93092292808482" lon="10.703485410049556"><ele>315.66666666666663</ele><time>2026-04-11T12:55:22Z</time></trkpt><trkpt lat="43.93086343730795" lon="10.703424040132814"><ele>315.5</ele><time>2026-04-11T12:55:23Z</time></trkpt><trkpt lat="43.93081617214439" lon="10.703358614545186"><ele>315.3333333333333</ele><time>2026-04-11T12:55:24Z</time></trkpt><trkpt lat="43.93074297331125" lon="10.703306890833595"><ele>315.1666666666667</ele><time>2026-04-11T12:55:25Z</time></trkpt><trkpt lat="43.930661944240015" lon="10.703279244674881"><ele>315.0</ele><time>2026-04-11T12:55:26Z</time></trkpt><trkpt lat="43.93057938830732" lon="10.703256483624648"><ele>317.8333333333333</ele><time>2026-04-11T12:55:27Z</time></trkpt><trkpt lat="43.93049937812658" lon="10.70324204047075"><ele>320.6666666666667</ele><time>2026-04-11T12:55:28Z</time></trkpt><trkpt lat="43.930435948641254" lon="10.703181511160945"><ele>323.5</ele><time>2026-04-11T12:55:29Z</time></trkpt><trkpt lat="43.930378829623486" lon="10.703115475390977"><ele>326.33333333333337</ele><time>2026-04-11T12:55:30Z</time></trkpt><trkpt lat="43.93030746604937" lon="10.702964560621545"><ele>329.1666666666667</ele><time>2026-04-11T12:55:32Z</time></trkpt><trkpt lat="43.930270184665275" lon="10.70289052878416"><ele>332.0</ele><time>2026-04-11T12:55:33Z</time></trkpt><trkpt lat="43.93023601976244" lon="10.702805843132358"><ele>331.33333333333337</ele><time>2026-04-11T12:55:34Z</time></trkpt><trkpt lat="43.93019498140598" lon="10.70272689824756"><ele>330.6666666666667</ele><time>2026-04-11T12:55:35Z</time></trkpt><trkpt lat="43.930143941899" lon="10.702646498166253"><ele>330.0</ele><time>2026-04-11T12:55:36Z</time></trkpt><trkpt lat="43.93006797851536" lon="10.70255080976891"><ele>329.3333333333333</ele><time>2026-04-11T12:55:37Z</time></trkpt><trkpt lat="43.930001947877784" lon="10.702446897421295"><ele>328.66666666666663</ele><time>2026-04-11T12:55:38Z</time></trkpt><trkpt lat="43.929952494210816" lon="10.702334466001522"><ele>328.0</ele><time>2026-04-11T12:55:39Z</time></trkpt><trkpt lat="43.929914911292165" lon="10.702193873044367"><ele>328.0</ele><time>2026-04-11T12:55:40Z</time></trkpt><trkpt lat="43.929886236670846" lon="10.702072366327682"><ele>328.0</ele><time>2026-04-11T12:55:41Z</time></trkpt><trkpt lat="43.92987466183011" lon="10.70194986328543"><ele>328.0</ele><time>2026-04-11T12:55:42Z</time></trkpt><trkpt lat="43.92987049039987" lon="10.701852255780349"><ele>328.0</ele><time>2026-04-11T12:55:43Z</time></trkpt><trkpt lat="43.92987516223215" lon="10.701763507497706"><ele>328.0</ele><time>2026-04-11T12:55:44Z</time></trkpt><trkpt lat="43.92984953630861" lon="10.701682989072435"><ele>328.0</ele><time>2026-04-11T12:55:45Z</time></trkpt><trkpt lat="43.92978665241845" lon="10.701622701364904"><ele>327.16666666666663</ele><time>2026-04-11T12:55:46Z</time></trkpt><trkpt lat="43.929750477655055" lon="10.701529632626693"><ele>326.3333333333333</ele><time>2026-04-11T12:55:47Z</time></trkpt><trkpt lat="43.92969142821671" lon="10.701442773553003"><ele>325.5</ele><time>2026-04-11T12:55:48Z</time></trkpt><trkpt lat="43.929635005659115" lon="10.701348154733486"><ele>324.6666666666667</ele><time>2026-04-11T12:55:49Z</time></trkpt><trkpt lat="43.92958747948982" lon="10.70125416648681"><ele>323.83333333333337</ele><time>2026-04-11T12:55:50Z</time></trkpt><trkpt lat="43.929522803456464" lon="10.701167880657179"><ele>323.0</ele><time>2026-04-11T12:55:51Z</time></trkpt><trkpt lat="43.929452234221934" lon="10.701110300667718"><ele>320.25</ele><time>2026-04-11T12:55:52Z</time></trkpt><trkpt lat="43.92936766541405" lon="10.701022962391338"><ele>317.5</ele><time>2026-04-11T12:55:53Z</time></trkpt><trkpt lat="43.92926404169651" lon="10.700941047050115"><ele>314.75</ele><time>2026-04-11T12:55:54Z</time></trkpt><trkpt lat="43.92915112640966" lon="10.700878825960993"><ele>312.0</ele><time>2026-04-11T12:55:55Z</time></trkpt><trkpt lat="43.929055119026046" lon="10.700821446343786"><ele>315.6666666666667</ele><time>2026-04-11T12:55:56Z</time></trkpt><trkpt lat="43.92897072996206" lon="10.700760372246258"><ele>319.3333333333333</ele><time>2026-04-11T12:55:57Z</time></trkpt><trkpt lat="43.928911067227034" lon="10.70070094147242"><ele>323.0</ele><time>2026-04-11T12:55:58Z</time></trkpt><trkpt lat="43.92885242570634" lon="10.70066730241096"><ele>326.66666666666663</ele><time>2026-04-11T12:55:59Z</time></trkpt><trkpt lat="43.92877833584929" lon="10.700666752526494"><ele>330.3333333333333</ele><time>2026-04-11T12:56:00Z</time></trkpt><trkpt lat="43.92871483453069" lon="10.700650971232218"><ele>334.0</ele><time>2026-04-11T12:56:01Z</time></trkpt><trkpt lat="43.9285921400148" lon="10.700692439632103"><ele>334.0</ele><time>2026-04-11T12:56:03Z</time></trkpt><trkpt lat="43.928530614056854" lon="10.700733173243922"><ele>334.0</ele><time>2026-04-11T12:56:04Z</time></trkpt><trkpt lat="43.928444729704914" lon="10.700780677272492"><ele>334.0</ele><time>2026-04-11T12:56:05Z</time></trkpt><trkpt lat="43.928371097776065" lon="10.700811842639236"><ele>334.0</ele><time>2026-04-11T12:56:06Z</time></trkpt><trkpt lat="43.92829205025675" lon="10.70077915083343"><ele>334.0</ele><time>2026-04-11T12:56:07Z</time></trkpt><trkpt lat="43.92821888116904" lon="10.70073295446104"><ele>334.0</ele><time>2026-04-11T12:56:08Z</time></trkpt><trkpt lat="43.928160435048426" lon="10.700678846511487"><ele>335.1428571428571</ele><time>2026-04-11T12:56:09Z</time></trkpt><trkpt lat="43.92807716240266" lon="10.700684316734433"><ele>336.2857142857143</ele><time>2026-04-11T12:56:11Z</time></trkpt><trkpt lat="43.92801465203179" lon="10.70069995090799"><ele>337.42857142857144</ele><time>2026-04-11T12:56:14Z</time></trkpt><trkpt lat="43.92798445795449" lon="10.70079605016782"><ele>338.57142857142856</ele><time>2026-04-11T12:57:41Z</time></trkpt><trkpt lat="43.92793228612116" lon="10.700874656228866"><ele>339.7142857142857</ele><time>2026-04-11T12:57:44Z</time></trkpt><trkpt lat="43.927996869290666" lon="10.700850332425611"><ele>340.85714285714283</ele><time>2026-04-11T12:57:55Z</time></trkpt><trkpt lat="43.92805528838491" lon="10.700800866358541"><ele>342.0</ele><time>2026-04-11T12:57:56Z</time></trkpt><trkpt lat="43.928150592435436" lon="10.70077954327986"><ele>342.0</ele><time>2026-04-11T12:57:58Z</time></trkpt><trkpt lat="43.92821982514982" lon="10.700788439661368"><ele>342.0</ele><time>2026-04-11T12:57:59Z</time></trkpt><trkpt lat="43.92828232140119" lon="10.700799656857424"><ele>342.0</ele><time>2026-04-11T12:58:00Z</time></trkpt><trkpt lat="43.92837789078486" lon="10.700830438733123"><ele>342.0</ele><time>2026-04-11T12:58:01Z</time></trkpt><trkpt lat="43.92845612422644" lon="10.700815562479153"><ele>342.0</ele><time>2026-04-11T12:58:02Z</time></trkpt><trkpt lat="43.928527015390166" lon="10.700780810955855"><ele>342.0</ele><time>2026-04-11T12:58:03Z</time></trkpt><trkpt lat="43.92859244087588" lon="10.700743986338361"><ele>340.40000000000003</ele><time>2026-04-11T12:58:04Z</time></trkpt><trkpt lat="43.92872669255044" lon="10.7007394014792"><ele>338.8</ele><time>2026-04-11T12:58:06Z</time></trkpt><trkpt lat="43.9288262430639" lon="10.70075647181272"><ele>337.2</ele><time>2026-04-11T12:58:08Z</time></trkpt><trkpt lat="43.92893364142135" lon="10.70080633126368"><ele>335.6</ele><time>2026-04-11T12:58:09Z</time></trkpt><trkpt lat="43.929009353530446" lon="10.700862378109129"><ele>334.0</ele><time>2026-04-11T12:58:10Z</time></trkpt><trkpt lat="43.92909406623189" lon="10.700967137352379"><ele>334.0</ele><time>2026-04-11T12:58:11Z</time></trkpt><trkpt lat="43.9291982108622" lon="10.701046339192363"><ele>334.0</ele><time>2026-04-11T12:58:12Z</time></trkpt><trkpt lat="43.929296619922624" lon="10.701104259323957"><ele>334.0</ele><time>2026-04-11T12:58:13Z</time></trkpt><trkpt lat="43.92937456242276" lon="10.701165231017189"><ele>334.0</ele><time>2026-04-11T12:58:14Z</time></trkpt><trkpt lat="43.92944094699763" lon="10.701247569745638"><ele>334.0</ele><time>2026-04-11T12:58:15Z</time></trkpt><trkpt lat="43.929518313022925" lon="10.70131014456846"><ele>332.16666666666663</ele><time>2026-04-11T12:58:16Z</time></trkpt><trkpt lat="43.92956646285604" lon="10.70140335839847"><ele>330.3333333333333</ele><time>2026-04-11T12:58:17Z</time></trkpt><trkpt lat="43.92962397240603" lon="10.701496705308681"><ele>328.5</ele><time>2026-04-11T12:58:18Z</time></trkpt><trkpt lat="43.929665060342" lon="10.701575111009026"><ele>326.6666666666667</ele><time>2026-04-11T12:58:19Z</time></trkpt><trkpt lat="43.92970769343967" lon="10.701676675489303"><ele>324.83333333333337</ele><time>2026-04-11T12:58:20Z</time></trkpt><trkpt lat="43.92974797263273" lon="10.701760100637275"><ele>323.0</ele><time>2026-04-11T12:58:21Z</time></trkpt><trkpt lat="43.92979434327613" lon="10.701847487178924"><ele>323.83333333333337</ele><time>2026-04-11T12:58:22Z</time></trkpt><trkpt lat="43.92981970557616" lon="10.702004500773427"><ele>324.6666666666667</ele><time>2026-04-11T12:58:24Z</time></trkpt><trkpt lat="43.929820504917856" lon="10.702104621676282"><ele>325.5</ele><time>2026-04-11T12:58:26Z</time></trkpt><trkpt lat="43.929823228341995" lon="10.70219912034624"><ele>326.3333333333333</ele><time>2026-04-11T12:58:35Z</time></trkpt><trkpt lat="43.92988853868426" lon="10.702233902267013"><ele>327.16666666666663</ele><time>2026-04-11T12:59:28Z</time></trkpt><trkpt lat="43.929970598799315" lon="10.70212557929149"><ele>328.0</ele><time>2026-04-11T12:59:30Z</time></trkpt><trkpt lat="43.93000087771641" lon="10.702006574799238"><ele>327.16666666666663</ele><time>2026-04-11T12:59:31Z</time></trkpt><trkpt lat="43.92999524448979" lon="10.70186942857656"><ele>326.3333333333333</ele><time>2026-04-11T12:59:32Z</time></trkpt><trkpt lat="43.929987270895886" lon="10.701763466611315"><ele>325.5</ele><time>2026-04-11T12:59:33Z</time></trkpt><trkpt lat="43.92997591282973" lon="10.70166780191807"><ele>324.6666666666667</ele><time>2026-04-11T12:59:34Z</time></trkpt><trkpt lat="43.930011195204834" lon="10.701584917548374"><ele>323.83333333333337</ele><time>2026-04-11T12:59:36Z</time></trkpt><trkpt lat="43.93007443001938" lon="10.701505220308807"><ele>323.0</ele><time>2026-04-11T12:59:37Z</time></trkpt><trkpt lat="43.93014882101322" lon="10.701376115608191"><ele>319.2</ele><time>2026-04-11T12:59:39Z</time></trkpt><trkpt lat="43.93016833603806" lon="10.701274335836414"><ele>315.4</ele><time>2026-04-11T12:59:40Z</time></trkpt><trkpt lat="43.93018752524668" lon="10.701129142074805"><ele>311.59999999999997</ele><time>2026-04-11T12:59:42Z</time></trkpt><trkpt lat="43.93021015567209" lon="10.70102254131933"><ele>307.79999999999995</ele><time>2026-04-11T12:59:43Z</time></trkpt><trkpt lat="43.930214214621635" lon="10.700877102439648"><ele>304.0</ele><time>2026-04-11T12:59:44Z</time></trkpt><trkpt lat="43.930190558655504" lon="10.700760164201995"><ele>305.3333333333333</ele><time>2026-04-11T12:59:45Z</time></trkpt><trkpt lat="43.93016650443688" lon="10.70067764562927"><ele>306.66666666666663</ele><time>2026-04-11T12:59:46Z</time></trkpt><trkpt lat="43.93011196841156" lon="10.700611245709196"><ele>308.0</ele><time>2026-04-11T12:59:47Z</time></trkpt><trkpt lat="43.93004026487044" lon="10.700555409991283"><ele>309.3333333333333</ele><time>2026-04-11T12:59:48Z</time></trkpt><trkpt lat="43.929962485994885" lon="10.700516390799155"><ele>310.6666666666667</ele><time>2026-04-11T12:59:49Z</time></trkpt><trkpt lat="43.92989844044077" lon="10.700477344976862"><ele>312.0</ele><time>2026-04-11T12:59:50Z</time></trkpt><trkpt lat="43.92982345256676" lon="10.700446622369148"><ele>312.0</ele><time>2026-04-11T12:59:51Z</time></trkpt><trkpt lat="43.92976069831544" lon="10.70040455156024"><ele>312.0</ele><time>2026-04-11T12:59:52Z</time></trkpt><trkpt lat="43.92969967677827" lon="10.700357230030074"><ele>312.0</ele><time>2026-04-11T12:59:53Z</time></trkpt><trkpt lat="43.929621592806676" lon="10.700318895001454"><ele>312.0</ele><time>2026-04-11T12:59:54Z</time></trkpt><trkpt lat="43.92957009797194" lon="10.700230504353563"><ele>312.0</ele><time>2026-04-11T12:59:55Z</time></trkpt><trkpt lat="43.92953885015913" lon="10.700146566742463"><ele>312.0</ele><time>2026-04-11T12:59:56Z</time></trkpt><trkpt lat="43.92951278591117" lon="10.70003192609933"><ele>309.6666666666667</ele><time>2026-04-11T12:59:57Z</time></trkpt><trkpt lat="43.92948338969345" lon="10.69993417856623"><ele>307.3333333333333</ele><time>2026-04-11T12:59:58Z</time></trkpt><trkpt lat="43.92947034499335" lon="10.699826400043829"><ele>305.0</ele><time>2026-04-11T12:59:59Z</time></trkpt><trkpt lat="43.929444415816626" lon="10.699727783484395"><ele>302.66666666666663</ele><time>2026-04-11T13:00:00Z</time></trkpt><trkpt lat="43.929417101930035" lon="10.69962175988695"><ele>300.3333333333333</ele><time>2026-04-11T13:00:01Z</time></trkpt><trkpt lat="43.92938049424141" lon="10.699524926377872"><ele>298.0</ele><time>2026-04-11T13:00:02Z</time></trkpt><trkpt lat="43.929341988216535" lon="10.699445451712723"><ele>297.5</ele><time>2026-04-11T13:00:03Z</time></trkpt><trkpt lat="43.929273528273136" lon="10.699394699989043"><ele>297.0</ele><time>2026-04-11T13:00:04Z</time></trkpt><trkpt lat="43.929202611118576" lon="10.699342055200898"><ele>296.5</ele><time>2026-04-11T13:00:05Z</time></trkpt><trkpt lat="43.929122857065394" lon="10.699300525931847"><ele>296.0</ele><time>2026-04-11T13:00:06Z</time></trkpt><trkpt lat="43.92904445624359" lon="10.699250703299784"><ele>295.5</ele><time>2026-04-11T13:00:07Z</time></trkpt><trkpt lat="43.92896782677509" lon="10.699197181257155"><ele>295.0</ele><time>2026-04-11T13:00:08Z</time></trkpt><trkpt lat="43.928918569465864" lon="10.69911450669067"><ele>295.0</ele><time>2026-04-11T13:00:09Z</time></trkpt><trkpt lat="43.928860110324614" lon="10.69905279736397"><ele>295.0</ele><time>2026-04-11T13:00:10Z</time></trkpt><trkpt lat="43.92880902955491" lon="10.698949166095785"><ele>295.0</ele><time>2026-04-11T13:00:11Z</time></trkpt><trkpt lat="43.92872702276395" lon="10.698817180427982"><ele>295.0</ele><time>2026-04-11T13:00:13Z</time></trkpt><trkpt lat="43.928709545686594" lon="10.698729740115317"><ele>295.0</ele><time>2026-04-11T13:00:16Z</time></trkpt><trkpt lat="43.928718642298236" lon="10.69885004190347"><ele>295.0</ele><time>2026-04-11T13:00:33Z</time></trkpt><trkpt lat="43.928749366791706" lon="10.698936417133039"><ele>295.0</ele><time>2026-04-11T13:00:34Z</time></trkpt><trkpt lat="43.928800618568594" lon="10.69899944560507"><ele>295.0</ele><time>2026-04-11T13:00:35Z</time></trkpt><trkpt lat="43.9288571929331" lon="10.69906969711715"><ele>295.0</ele><time>2026-04-11T13:00:36Z</time></trkpt><trkpt lat="43.92890973658986" lon="10.699138654102804"><ele>295.0</ele><time>2026-04-11T13:00:37Z</time></trkpt><trkpt lat="43.928963963892436" lon="10.699207151289"><ele>295.0</ele><time>2026-04-11T13:00:38Z</time></trkpt><trkpt lat="43.929024867802525" lon="10.699292002748354"><ele>295.0</ele><time>2026-04-11T13:00:39Z</time></trkpt><trkpt lat="43.92910465218984" lon="10.699349316991412"><ele>295.0</ele><time>2026-04-11T13:00:40Z</time></trkpt><trkpt lat="43.929159070482925" lon="10.699401609610844"><ele>295.0</ele><time>2026-04-11T13:00:41Z</time></trkpt><trkpt lat="43.929248191864744" lon="10.699434399832292"><ele>295.0</ele><time>2026-04-11T13:00:42Z</time></trkpt><trkpt lat="43.929308176844145" lon="10.69948080583744"><ele>295.0</ele><time>2026-04-11T13:00:43Z</time></trkpt><trkpt lat="43.929359617097475" lon="10.699551158421611"><ele>295.0</ele><time>2026-04-11T13:00:44Z</time></trkpt><trkpt lat="43.9294378270569" lon="10.699709570312615"><ele>295.0</ele><time>2026-04-11T13:00:46Z</time></trkpt><trkpt lat="43.92946396789421" lon="10.699830177372244"><ele>295.5</ele><time>2026-04-11T13:00:47Z</time></trkpt><trkpt lat="43.929461884208266" lon="10.699952854773922"><ele>296.0</ele><time>2026-04-11T13:00:48Z</time></trkpt><trkpt lat="43.929506319356825" lon="10.70009035234362"><ele>296.5</ele><time>2026-04-11T13:00:49Z</time></trkpt><trkpt lat="43.92954644850518" lon="10.700200090573876"><ele>297.0</ele><time>2026-04-11T13:00:50Z</time></trkpt><trkpt lat="43.92958919086665" lon="10.700288328706959"><ele>297.5</ele><time>2026-04-11T13:00:51Z</time></trkpt><trkpt lat="43.929662635757744" lon="10.70034047515994"><ele>298.0</ele><time>2026-04-11T13:00:53Z</time></trkpt><trkpt lat="43.92976011107574" lon="10.700285310849921"><ele>298.0</ele><time>2026-04-11T13:00:56Z</time></trkpt><trkpt lat="43.92986221137276" lon="10.700254979266287"><ele>298.0</ele><time>2026-04-11T13:00:58Z</time></trkpt><trkpt lat="43.92994849123469" lon="10.700183533981267"><ele>298.0</ele><time>2026-04-11T13:01:00Z</time></trkpt><trkpt lat="43.930004384493934" lon="10.700105323703063"><ele>298.0</ele><time>2026-04-11T13:01:03Z</time></trkpt><trkpt lat="43.92998885902534" lon="10.700019018395324"><ele>298.0</ele><time>2026-04-11T13:01:05Z</time></trkpt><trkpt lat="43.9299339372297" lon="10.699946842790343"><ele>298.0</ele><time>2026-04-11T13:01:07Z</time></trkpt><trkpt lat="43.9298755812153" lon="10.69991362683072"><ele>298.0</ele><time>2026-04-11T13:02:15Z</time></trkpt><trkpt lat="43.929775539028334" lon="10.699921890261253"><ele>298.0</ele><time>2026-04-11T13:02:17Z</time></trkpt><trkpt lat="43.929681088927886" lon="10.699925305160278"><ele>298.0</ele><time>2026-04-11T13:02:19Z</time></trkpt><trkpt lat="43.929608318562714" lon="10.699819523135794"><ele>298.0</ele><time>2026-04-11T13:02:21Z</time></trkpt><trkpt lat="43.929595532138244" lon="10.699665936485212"><ele>298.0</ele><time>2026-04-11T13:02:23Z</time></trkpt><trkpt lat="43.92958707734803" lon="10.699552799680259"><ele>293.6</ele><time>2026-04-11T13:02:24Z</time></trkpt><trkpt lat="43.92955719689059" lon="10.699415295146935"><ele>289.20000000000005</ele><time>2026-04-11T13:02:26Z</time></trkpt><trkpt lat="43.92952610860465" lon="10.69926646543049"><ele>284.8</ele><time>2026-04-11T13:02:28Z</time></trkpt><trkpt lat="43.92948385356132" lon="10.699152261647756"><ele>280.40000000000003</ele><time>2026-04-11T13:02:30Z</time></trkpt><trkpt lat="43.92943773680725" lon="10.699091500306892"><ele>276.0</ele><time>2026-04-11T13:02:31Z</time></trkpt><trkpt lat="43.92936910127234" lon="10.699014531677427"><ele>276.0</ele><time>2026-04-11T13:02:33Z</time></trkpt><trkpt lat="43.9293098176784" lon="10.698963215114961"><ele>276.0</ele><time>2026-04-11T13:02:34Z</time></trkpt><trkpt lat="43.9293255450859" lon="10.698875536271206"><ele>276.0</ele><time>2026-04-11T13:02:39Z</time></trkpt><trkpt lat="43.92939402909361" lon="10.698800355711262"><ele>276.0</ele><time>2026-04-11T13:02:57Z</time></trkpt><trkpt lat="43.92951217497519" lon="10.698837515294521"><ele>276.0</ele><time>2026-04-11T13:03:00Z</time></trkpt><trkpt lat="43.92958878820664" lon="10.69892800696044"><ele>276.0</ele><time>2026-04-11T13:03:02Z</time></trkpt><trkpt lat="43.9296549486944" lon="10.69899310399135"><ele>276.0</ele><time>2026-04-11T13:03:04Z</time></trkpt><trkpt lat="43.92968906934862" lon="10.699115692346863"><ele>276.0</ele><time>2026-04-11T13:03:06Z</time></trkpt><trkpt lat="43.92971110195323" lon="10.699198820970901"><ele>276.0</ele><time>2026-04-11T13:03:07Z</time></trkpt><trkpt lat="43.92973743901307" lon="10.699286363834535"><ele>276.0</ele><time>2026-04-11T13:03:08Z</time></trkpt><trkpt lat="43.92984034151938" lon="10.699298828232733"><ele>276.0</ele><time>2026-04-11T13:03:10Z</time></trkpt><trkpt lat="43.92990436701391" lon="10.69927853044519"><ele>276.0</ele><time>2026-04-11T13:03:11Z</time></trkpt><trkpt lat="43.929980467081414" lon="10.699259803649054"><ele>272.8</ele><time>2026-04-11T13:03:12Z</time></trkpt><trkpt lat="43.93011363105736" lon="10.699291801110098"><ele>269.6</ele><time>2026-04-11T13:03:14Z</time></trkpt><trkpt lat="43.93021846167242" lon="10.699271859063746"><ele>266.4</ele><time>2026-04-11T13:03:16Z</time></trkpt><trkpt lat="43.930323350967605" lon="10.699272543277814"><ele>263.2</ele><time>2026-04-11T13:03:18Z</time></trkpt><trkpt lat="43.930426126858045" lon="10.699278374860128"><ele>260.0</ele><time>2026-04-11T13:03:20Z</time></trkpt><trkpt lat="43.93049359453093" lon="10.69927980857122"><ele>260.0</ele><time>2026-04-11T13:03:21Z</time></trkpt><trkpt lat="43.930611854141794" lon="10.699292160563887"><ele>260.0</ele><time>2026-04-11T13:03:23Z</time></trkpt><trkpt lat="43.93072825639164" lon="10.699344223061283"><ele>260.0</ele><time>2026-04-11T13:03:25Z</time></trkpt><trkpt lat="43.930823733549204" lon="10.69939077560956"><ele>260.0</ele><time>2026-04-11T13:03:27Z</time></trkpt><trkpt lat="43.93093120478361" lon="10.699477724043112"><ele>258.83333333333337</ele><time>2026-04-11T13:03:29Z</time></trkpt><trkpt lat="43.93100263402262" lon="10.699560100083898"><ele>257.6666666666667</ele><time>2026-04-11T13:03:31Z</time></trkpt><trkpt lat="43.93103979685924" lon="10.699633531069713"><ele>256.5</ele><time>2026-04-11T13:03:32Z</time></trkpt><trkpt lat="43.93111473552863" lon="10.699760469187003"><ele>255.33333333333331</ele><time>2026-04-11T13:03:34Z</time></trkpt><trkpt lat="43.93112920771457" lon="10.699866307223708"><ele>254.16666666666666</ele><time>2026-04-11T13:03:36Z</time></trkpt><trkpt lat="43.93118277563491" lon="10.699805804431277"><ele>253.0</ele><time>2026-04-11T13:03:39Z</time></trkpt><trkpt lat="43.93116971055797" lon="10.699718206675055"><ele>252.99999999999997</ele><time>2026-04-11T13:03:40Z</time></trkpt><trkpt lat="43.931174444745935" lon="10.699608229498114"><ele>253.0</ele><time>2026-04-11T13:03:41Z</time></trkpt><trkpt lat="43.93113606869061" lon="10.699503664716232"><ele>253.0</ele><time>2026-04-11T13:03:42Z</time></trkpt><trkpt lat="43.9311175598123" lon="10.699406802195961"><ele>253.0</ele><time>2026-04-11T13:03:43Z</time></trkpt><trkpt lat="43.931070958128835" lon="10.699342253014477"><ele>252.99999999999997</ele><time>2026-04-11T13:03:44Z</time></trkpt><trkpt lat="43.93100010737221" lon="10.699270467108578"><ele>253.0</ele><time>2026-04-11T13:03:45Z</time></trkpt><trkpt lat="43.930926483677226" lon="10.699200927346702"><ele>254.16666666666666</ele><time>2026-04-11T13:03:46Z</time></trkpt><trkpt lat="43.930849525276194" lon="10.699122283925844"><ele>255.33333333333331</ele><time>2026-04-11T13:03:47Z</time></trkpt><trkpt lat="43.93077733061889" lon="10.699043229520967"><ele>256.5</ele><time>2026-04-11T13:03:48Z</time></trkpt><trkpt lat="43.93071937507986" lon="10.698956238008762"><ele>257.6666666666667</ele><time>2026-04-11T13:03:49Z</time></trkpt><trkpt lat="43.93067198687916" lon="10.698873582108227"><ele>258.83333333333337</ele><time>2026-04-11T13:03:50Z</time></trkpt><trkpt lat="43.93062387275699" lon="10.698813228874213"><ele>260.0</ele><time>2026-04-11T13:03:51Z</time></trkpt><trkpt lat="43.93056030427004" lon="10.698790297464349"><ele>260.0</ele><time>2026-04-11T13:03:52Z</time></trkpt><trkpt lat="43.93049733396812" lon="10.698766517329098"><ele>260.0</ele><time>2026-04-11T13:03:53Z</time></trkpt><trkpt lat="43.930422190201604" lon="10.698727822672405"><ele>260.0</ele><time>2026-04-11T13:03:54Z</time></trkpt><trkpt lat="43.93035184086509" lon="10.69867598077985"><ele>260.0</ele><time>2026-04-11T13:03:55Z</time></trkpt><trkpt lat="43.93029070874757" lon="10.698630841653564"><ele>260.0</ele><time>2026-04-11T13:03:56Z</time></trkpt><trkpt lat="43.93021335429471" lon="10.698597738098211"><ele>260.0</ele><time>2026-04-11T13:03:57Z</time></trkpt><trkpt lat="43.93013256322586" lon="10.698564534938667"><ele>258.5714285714286</ele><time>2026-04-11T13:03:58Z</time></trkpt><trkpt lat="43.93006652527708" lon="10.698535283985024"><ele>257.14285714285717</ele><time>2026-04-11T13:03:59Z</time></trkpt><trkpt lat="43.93000700875862" lon="10.698494993688433"><ele>255.71428571428572</ele><time>2026-04-11T13:04:00Z</time></trkpt><trkpt lat="43.9299561468225" lon="10.698439559511337"><ele>254.2857142857143</ele><time>2026-04-11T13:04:01Z</time></trkpt><trkpt lat="43.929921343376726" lon="10.69835106978495"><ele>252.8571428571429</ele><time>2026-04-11T13:04:02Z</time></trkpt><trkpt lat="43.92991005073816" lon="10.698264004867157"><ele>251.42857142857142</ele><time>2026-04-11T13:04:03Z</time></trkpt><trkpt lat="43.92989688945155" lon="10.698163647481408"><ele>250.0</ele><time>2026-04-11T13:04:04Z</time></trkpt><trkpt lat="43.92987411484533" lon="10.698075868665855"><ele>249.99999999999997</ele><time>2026-04-11T13:04:05Z</time></trkpt><trkpt lat="43.929859474574755" lon="10.697983011605169"><ele>250.0</ele><time>2026-04-11T13:04:06Z</time></trkpt><trkpt lat="43.92981772110512" lon="10.69791631533681"><ele>250.0</ele><time>2026-04-11T13:04:07Z</time></trkpt><trkpt lat="43.9296974842576" lon="10.697820204281012"><ele>250.0</ele><time>2026-04-11T13:04:09Z</time></trkpt><trkpt lat="43.929624656326155" lon="10.697767225630823"><ele>249.99999999999997</ele><time>2026-04-11T13:04:10Z</time></trkpt><trkpt lat="43.9295591998901" lon="10.697694774349253"><ele>250.0</ele><time>2026-04-11T13:04:11Z</time></trkpt><trkpt lat="43.929502677019045" lon="10.697592779061717"><ele>250.4</ele><time>2026-04-11T13:04:12Z</time></trkpt><trkpt lat="43.929445542048654" lon="10.697489527015806"><ele>250.8</ele><time>2026-04-11T13:04:13Z</time></trkpt><trkpt lat="43.929390975553545" lon="10.697392766903851"><ele>251.2</ele><time>2026-04-11T13:04:14Z</time></trkpt><trkpt lat="43.92932129798747" lon="10.697294123640022"><ele>251.6</ele><time>2026-04-11T13:04:15Z</time></trkpt><trkpt lat="43.92925074340294" lon="10.69721806083882"><ele>252.0</ele><time>2026-04-11T13:04:16Z</time></trkpt><trkpt lat="43.92918261577316" lon="10.697155340660514"><ele>252.0</ele><time>2026-04-11T13:04:17Z</time></trkpt><trkpt lat="43.92911088946805" lon="10.697083315152753"><ele>252.0</ele><time>2026-04-11T13:04:18Z</time></trkpt><trkpt lat="43.92905077757505" lon="10.697011223003843"><ele>252.0</ele><time>2026-04-11T13:04:19Z</time></trkpt><trkpt lat="43.928994377991486" lon="10.696952955124502"><ele>252.0</ele><time>2026-04-11T13:04:20Z</time></trkpt><trkpt lat="43.92893888247303" lon="10.696881979433464"><ele>252.0</ele><time>2026-04-11T13:04:21Z</time></trkpt><trkpt lat="43.928890230687784" lon="10.696815123028504"><ele>252.0</ele><time>2026-04-11T13:04:22Z</time></trkpt><trkpt lat="43.92884001028224" lon="10.696755777657225"><ele>252.0</ele><time>2026-04-11T13:04:23Z</time></trkpt><trkpt lat="43.928788639697565" lon="10.696686648988644"><ele>250.28571428571428</ele><time>2026-04-11T13:04:24Z</time></trkpt><trkpt lat="43.92873739381105" lon="10.696613577272563"><ele>248.57142857142856</ele><time>2026-04-11T13:04:25Z</time></trkpt><trkpt lat="43.928686080058306" lon="10.696547904431547"><ele>246.85714285714286</ele><time>2026-04-11T13:04:26Z</time></trkpt><trkpt lat="43.92863394144892" lon="10.69649384323378"><ele>245.14285714285714</ele><time>2026-04-11T13:04:27Z</time></trkpt><trkpt lat="43.928577659802826" lon="10.69644034984217"><ele>243.42857142857142</ele><time>2026-04-11T13:04:28Z</time></trkpt><trkpt lat="43.92850477407411" lon="10.696382154867841"><ele>241.71428571428572</ele><time>2026-04-11T13:04:29Z</time></trkpt><trkpt lat="43.928432913133676" lon="10.696345733486313"><ele>240.0</ele><time>2026-04-11T13:04:30Z</time></trkpt><trkpt lat="43.928354434432656" lon="10.696310302534634"><ele>240.0</ele><time>2026-04-11T13:04:31Z</time></trkpt><trkpt lat="43.92827774710931" lon="10.696286841374915"><ele>240.0</ele><time>2026-04-11T13:04:32Z</time></trkpt><trkpt lat="43.92820831793763" lon="10.696239552799321"><ele>240.0</ele><time>2026-04-11T13:04:33Z</time></trkpt><trkpt lat="43.92813209715269" lon="10.696180685611314"><ele>240.0</ele><time>2026-04-11T13:04:34Z</time></trkpt><trkpt lat="43.928114331653454" lon="10.696089710913913"><ele>240.0</ele><time>2026-04-11T13:04:35Z</time></trkpt><trkpt lat="43.92810517119757" lon="10.695955616800317"><ele>240.0</ele><time>2026-04-11T13:04:36Z</time></trkpt><trkpt lat="43.92812102728902" lon="10.695864472454483"><ele>235.66666666666666</ele><time>2026-04-11T13:04:38Z</time></trkpt><trkpt lat="43.9280138848498" lon="10.69581330807846"><ele>231.33333333333331</ele><time>2026-04-11T13:04:41Z</time></trkpt><trkpt lat="43.92795362697609" lon="10.69584772108727"><ele>227.0</ele><time>2026-04-11T13:04:42Z</time></trkpt><trkpt lat="43.927854582508374" lon="10.695882321138475"><ele>222.66666666666666</ele><time>2026-04-11T13:04:44Z</time></trkpt><trkpt lat="43.92779788179766" lon="10.695926615389242"><ele>218.33333333333331</ele><time>2026-04-11T13:04:45Z</time></trkpt><trkpt lat="43.9277326059087" lon="10.695951443562224"><ele>214.0</ele><time>2026-04-11T13:04:46Z</time></trkpt><trkpt lat="43.927616578249975" lon="10.696018684407054"><ele>212.16666666666666</ele><time>2026-04-11T13:04:48Z</time></trkpt><trkpt lat="43.927534169596555" lon="10.696074455856989"><ele>210.33333333333331</ele><time>2026-04-11T13:04:49Z</time></trkpt><trkpt lat="43.927476141801634" lon="10.696128089590134"><ele>208.5</ele><time>2026-04-11T13:04:50Z</time></trkpt><trkpt lat="43.92739532234853" lon="10.696184842781769"><ele>206.66666666666669</ele><time>2026-04-11T13:04:51Z</time></trkpt><trkpt lat="43.92730306596909" lon="10.696238388242282"><ele>204.83333333333334</ele><time>2026-04-11T13:04:52Z</time></trkpt><trkpt lat="43.927228498239614" lon="10.696285401729625"><ele>203.0</ele><time>2026-04-11T13:04:53Z</time></trkpt><trkpt lat="43.927162817488124" lon="10.696325345510939"><ele>207.33333333333334</ele><time>2026-04-11T13:04:54Z</time></trkpt><trkpt lat="43.92710528964528" lon="10.696413465270211"><ele>211.66666666666669</ele><time>2026-04-11T13:04:56Z</time></trkpt><trkpt lat="43.92709146857537" lon="10.696501869916908"><ele>216.0</ele><time>2026-04-11T13:05:02Z</time></trkpt><trkpt lat="43.92709603493997" lon="10.696618888758795"><ele>220.33333333333331</ele><time>2026-04-11T13:05:04Z</time></trkpt><trkpt lat="43.92711241422829" lon="10.696722947347856"><ele>224.66666666666666</ele><time>2026-04-11T13:05:05Z</time></trkpt><trkpt lat="43.92711973204539" lon="10.696834439450388"><ele>229.0</ele><time>2026-04-11T13:05:06Z</time></trkpt><trkpt lat="43.92712604449614" lon="10.696952583107338"><ele>232.33333333333331</ele><time>2026-04-11T13:05:07Z</time></trkpt><trkpt lat="43.927115898762516" lon="10.697042889023495"><ele>235.66666666666666</ele><time>2026-04-11T13:05:08Z</time></trkpt><trkpt lat="43.92706629906766" lon="10.697124381986082"><ele>239.0</ele><time>2026-04-11T13:05:10Z</time></trkpt><trkpt lat="43.9269572734316" lon="10.69705422936095"><ele>242.33333333333331</ele><time>2026-04-11T13:05:11Z</time></trkpt><trkpt lat="43.926876383665274" lon="10.697037553254006"><ele>245.66666666666666</ele><time>2026-04-11T13:05:12Z</time></trkpt><trkpt lat="43.9268027395437" lon="10.696985274097981"><ele>249.0</ele><time>2026-04-11T13:05:13Z</time></trkpt><trkpt lat="43.92673258325041" lon="10.696971447251444"><ele>247.0</ele><time>2026-04-11T13:05:14Z</time></trkpt><trkpt lat="43.92666480080027" lon="10.696961585167807"><ele>245.0</ele><time>2026-04-11T13:05:15Z</time></trkpt><trkpt lat="43.92660140897979" lon="10.696966166192121"><ele>243.0</ele><time>2026-04-11T13:05:16Z</time></trkpt><trkpt lat="43.926495631373896" lon="10.697032204056143"><ele>241.0</ele><time>2026-04-11T13:05:18Z</time></trkpt><trkpt lat="43.92640628749249" lon="10.697128406988043"><ele>239.0</ele><time>2026-04-11T13:05:20Z</time></trkpt><trkpt lat="43.9263357784996" lon="10.697127524368662"><ele>237.0</ele><time>2026-04-11T13:05:21Z</time></trkpt><trkpt lat="43.926220952751784" lon="10.697108538836996"><ele>237.0</ele><time>2026-04-11T13:05:23Z</time></trkpt><trkpt lat="43.92609309987262" lon="10.697056228004465"><ele>237.0</ele><time>2026-04-11T13:05:25Z</time></trkpt><trkpt lat="43.926028337449495" lon="10.697030075161324"><ele>237.0</ele><time>2026-04-11T13:05:26Z</time></trkpt><trkpt lat="43.9259676282018" lon="10.696997100064308"><ele>237.0</ele><time>2026-04-11T13:05:27Z</time></trkpt><trkpt lat="43.92586685239133" lon="10.696889637718556"><ele>237.0</ele><time>2026-04-11T13:05:29Z</time></trkpt><trkpt lat="43.92581182542819" lon="10.696842330881248"><ele>231.16666666666666</ele><time>2026-04-11T13:05:30Z</time></trkpt><trkpt lat="43.92575866709325" lon="10.696794590369363"><ele>225.33333333333331</ele><time>2026-04-11T13:05:31Z</time></trkpt><trkpt lat="43.92564895955284" lon="10.696743917955509"><ele>219.5</ele><time>2026-04-11T13:05:33Z</time></trkpt><trkpt lat="43.92558082196936" lon="10.696733929793893"><ele>213.66666666666666</ele><time>2026-04-11T13:05:34Z</time></trkpt><trkpt lat="43.925509186484206" lon="10.696730835702931"><ele>207.83333333333331</ele><time>2026-04-11T13:05:35Z</time></trkpt><trkpt lat="43.92543990495348" lon="10.696727976314312"><ele>202.0</ele><time>2026-04-11T13:05:36Z</time></trkpt><trkpt lat="43.92537173152892" lon="10.69671839318198"><ele>202.0</ele><time>2026-04-11T13:05:37Z</time></trkpt><trkpt lat="43.9253006001369" lon="10.696719706604595"><ele>202.0</ele><time>2026-04-11T13:05:38Z</time></trkpt><trkpt lat="43.92523487693631" lon="10.696736609799013"><ele>202.0</ele><time>2026-04-11T13:05:39Z</time></trkpt><trkpt lat="43.925170659204156" lon="10.696731727359701"><ele>202.0</ele><time>2026-04-11T13:05:40Z</time></trkpt><trkpt lat="43.92509253873175" lon="10.696725248005315"><ele>202.0</ele><time>2026-04-11T13:05:41Z</time></trkpt><trkpt lat="43.92502794195336" lon="10.696733975986037"><ele>202.0</ele><time>2026-04-11T13:05:42Z</time></trkpt><trkpt lat="43.92496151425234" lon="10.696736843465983"><ele>202.0</ele><time>2026-04-11T13:05:43Z</time></trkpt><trkpt lat="43.92484702334743" lon="10.696715341916354"><ele>202.6</ele><time>2026-04-11T13:05:45Z</time></trkpt><trkpt lat="43.92472743556636" lon="10.696663701979961"><ele>203.2</ele><time>2026-04-11T13:05:47Z</time></trkpt><trkpt lat="43.924612322351095" lon="10.69662964971792"><ele>203.8</ele><time>2026-04-11T13:05:49Z</time></trkpt><trkpt lat="43.92449468329286" lon="10.696601886865906"><ele>204.4</ele><time>2026-04-11T13:05:51Z</time></trkpt><trkpt lat="43.92440901242705" lon="10.696615170748675"><ele>205.0</ele><time>2026-04-11T13:05:53Z</time></trkpt><trkpt lat="43.924343165434884" lon="10.69660164031357"><ele>204.99999999999997</ele><time>2026-04-11T13:06:24Z</time></trkpt><trkpt lat="43.924404353226066" lon="10.69653460522817"><ele>205.0</ele><time>2026-04-11T13:06:40Z</time></trkpt><trkpt lat="43.92447649161213" lon="10.696470415925402"><ele>205.0</ele><time>2026-04-11T13:06:42Z</time></trkpt><trkpt lat="43.924557343399336" lon="10.696490454476836"><ele>205.0</ele><time>2026-04-11T13:06:43Z</time></trkpt><trkpt lat="43.92465693243235" lon="10.696514412520141"><ele>204.99999999999997</ele><time>2026-04-11T13:06:44Z</time></trkpt><trkpt lat="43.924743964952796" lon="10.696524422451878"><ele>205.0</ele><time>2026-04-11T13:06:45Z</time></trkpt><trkpt lat="43.924838264653026" lon="10.696526041782656"><ele>205.0</ele><time>2026-04-11T13:06:46Z</time></trkpt><trkpt lat="43.924924812138265" lon="10.696507752154366"><ele>205.0</ele><time>2026-04-11T13:06:47Z</time></trkpt><trkpt lat="43.925015163489384" lon="10.696504291028749"><ele>205.0</ele><time>2026-04-11T13:06:48Z</time></trkpt><trkpt lat="43.92511155545561" lon="10.69649034854023"><ele>205.0</ele><time>2026-04-11T13:06:49Z</time></trkpt><trkpt lat="43.925203688754806" lon="10.696441665157975"><ele>205.0</ele><time>2026-04-11T13:06:50Z</time></trkpt><trkpt lat="43.92529299179509" lon="10.696416933196561"><ele>204.49999999999997</ele><time>2026-04-11T13:06:51Z</time></trkpt><trkpt lat="43.9253818406533" lon="10.69638284293033"><ele>204.0</ele><time>2026-04-11T13:06:52Z</time></trkpt><trkpt lat="43.925461231500925" lon="10.696360614290489"><ele>203.5</ele><time>2026-04-11T13:06:53Z</time></trkpt><trkpt lat="43.92553475766515" lon="10.696374418700938"><ele>203.0</ele><time>2026-04-11T13:06:54Z</time></trkpt><trkpt lat="43.92561007028545" lon="10.696383240000452"><ele>202.49999999999997</ele><time>2026-04-11T13:06:55Z</time></trkpt><trkpt lat="43.925684720611514" lon="10.696331008668585"><ele>202.0</ele><time>2026-04-11T13:06:56Z</time></trkpt><trkpt lat="43.925749863597034" lon="10.696246506987055"><ele>202.0</ele><time>2026-04-11T13:06:57Z</time></trkpt><trkpt lat="43.92581319626553" lon="10.696144251645793"><ele>202.0</ele><time>2026-04-11T13:06:58Z</time></trkpt><trkpt lat="43.925876871333536" lon="10.69609562004299"><ele>202.0</ele><time>2026-04-11T13:06:59Z</time></trkpt><trkpt lat="43.92599813036217" lon="10.696102007631858"><ele>202.0</ele><time>2026-04-11T13:07:01Z</time></trkpt><trkpt lat="43.92609206435025" lon="10.696175515701396"><ele>202.0</ele><time>2026-04-11T13:07:03Z</time></trkpt><trkpt lat="43.92615646826244" lon="10.696024889547315"><ele>198.2</ele><time>2026-04-11T13:07:06Z</time></trkpt><trkpt lat="43.92611905085709" lon="10.695915526340096"><ele>194.39999999999998</ele><time>2026-04-11T13:07:07Z</time></trkpt><trkpt lat="43.92602490466524" lon="10.695830738909406"><ele>190.60000000000002</ele><time>2026-04-11T13:07:08Z</time></trkpt><trkpt lat="43.92595687286367" lon="10.695766612766187"><ele>186.8</ele><time>2026-04-11T13:07:09Z</time></trkpt><trkpt lat="43.92585293272984" lon="10.695674807569832"><ele>183.0</ele><time>2026-04-11T13:07:11Z</time></trkpt><trkpt lat="43.925835046852406" lon="10.695589263786733"><ele>183.0</ele><time>2026-04-11T13:07:13Z</time></trkpt><trkpt lat="43.92597113650965" lon="10.695622303524836"><ele>183.0</ele><time>2026-04-11T13:07:16Z</time></trkpt><trkpt lat="43.92603204317359" lon="10.695587413083484"><ele>183.0</ele><time>2026-04-11T13:07:18Z</time></trkpt><trkpt lat="43.92600980260095" lon="10.695501915598774"><ele>183.0</ele><time>2026-04-11T13:07:19Z</time></trkpt><trkpt lat="43.92590799371329" lon="10.695435270535862"><ele>183.0</ele><time>2026-04-11T13:07:21Z</time></trkpt><trkpt lat="43.92583654882082" lon="10.695383610518281"><ele>181.8</ele><time>2026-04-11T13:07:22Z</time></trkpt><trkpt lat="43.925764135006446" lon="10.695268081706201"><ele>180.60000000000002</ele><time>2026-04-11T13:07:24Z</time></trkpt><trkpt lat="43.92565670841994" lon="10.695305663415985"><ele>179.39999999999998</ele><time>2026-04-11T13:07:26Z</time></trkpt><trkpt lat="43.92559786456223" lon="10.695337225476038"><ele>178.2</ele><time>2026-04-11T13:07:27Z</time></trkpt><trkpt lat="43.92553217947493" lon="10.695333754565981"><ele>177.0</ele><time>2026-04-11T13:07:28Z</time></trkpt><trkpt lat="43.92542330394792" lon="10.695289459553145"><ele>173.0</ele><time>2026-04-11T13:07:30Z</time></trkpt><trkpt lat="43.92544275420009" lon="10.695184698937892"><ele>169.0</ele><time>2026-04-11T13:07:32Z</time></trkpt><trkpt lat="43.925510035115245" lon="10.695152378855113"><ele>165.0</ele><time>2026-04-11T13:07:33Z</time></trkpt><trkpt lat="43.92563959797785" lon="10.695098559512353"><ele>161.0</ele><time>2026-04-11T13:07:34Z</time></trkpt><trkpt lat="43.925687328584864" lon="10.695031638621987"><ele>157.0</ele><time>2026-04-11T13:07:35Z</time></trkpt><trkpt lat="43.92574734891082" lon="10.694957053399996"><ele>153.0</ele><time>2026-04-11T13:07:36Z</time></trkpt><trkpt lat="43.925801061513916" lon="10.694901354543218"><ele>153.0</ele><time>2026-04-11T13:07:37Z</time></trkpt><trkpt lat="43.92589076438051" lon="10.694884644470353"><ele>153.0</ele><time>2026-04-11T13:07:39Z</time></trkpt><trkpt lat="43.92589445503238" lon="10.694768554450517"><ele>153.0</ele><time>2026-04-11T13:07:41Z</time></trkpt><trkpt lat="43.92579725823416" lon="10.694734453279196"><ele>153.0</ele><time>2026-04-11T13:07:43Z</time></trkpt><trkpt lat="43.925679493102805" lon="10.694795599329337"><ele>153.0</ele><time>2026-04-11T13:07:45Z</time></trkpt><trkpt lat="43.92562107865109" lon="10.694830276291363"><ele>153.0</ele><time>2026-04-11T13:07:46Z</time></trkpt><trkpt lat="43.92556178159328" lon="10.69487546694285"><ele>153.0</ele><time>2026-04-11T13:07:47Z</time></trkpt><trkpt lat="43.92549599395186" lon="10.69489363625549"><ele>153.0</ele><time>2026-04-11T13:07:48Z</time></trkpt><trkpt lat="43.925414512375376" lon="10.694846867023504"><ele>153.0</ele><time>2026-04-11T13:07:49Z</time></trkpt><trkpt lat="43.925341429665195" lon="10.694830117219613"><ele>153.0</ele><time>2026-04-11T13:07:50Z</time></trkpt><trkpt lat="43.92527810696194" lon="10.694812434584158"><ele>153.0</ele><time>2026-04-11T13:07:51Z</time></trkpt><trkpt lat="43.9251915706025" lon="10.69484403402527"><ele>153.0</ele><time>2026-04-11T13:07:52Z</time></trkpt><trkpt lat="43.92510442306517" lon="10.694851804626648"><ele>153.0</ele><time>2026-04-11T13:07:53Z</time></trkpt><trkpt lat="43.925021904544224" lon="10.694832635260736"><ele>153.0</ele><time>2026-04-11T13:07:54Z</time></trkpt><trkpt lat="43.9249394898171" lon="10.694831822258331"><ele>153.0</ele><time>2026-04-11T13:07:55Z</time></trkpt><trkpt lat="43.92486895445928" lon="10.694838593875758"><ele>153.0</ele><time>2026-04-11T13:07:56Z</time></trkpt><trkpt lat="43.92478368654476" lon="10.694906476146826"><ele>153.0</ele><time>2026-04-11T13:07:58Z</time></trkpt><trkpt lat="43.92471548139512" lon="10.694921096080916"><ele>153.0</ele><time>2026-04-11T13:08:00Z</time></trkpt><trkpt lat="43.92478298815409" lon="10.694760200884534"><ele>153.0</ele><time>2026-04-11T13:08:04Z</time></trkpt><trkpt lat="43.924866769048045" lon="10.694724441018243"><ele>153.0</ele><time>2026-04-11T13:08:05Z</time></trkpt><trkpt lat="43.9250261345451" lon="10.69469361176094"><ele>153.0</ele><time>2026-04-11T13:08:06Z</time></trkpt><trkpt lat="43.92511943775607" lon="10.694659499367326"><ele>153.0</ele><time>2026-04-11T13:08:07Z</time></trkpt><trkpt lat="43.925213319475176" lon="10.694629998633495"><ele>153.0</ele><time>2026-04-11T13:08:08Z</time></trkpt><trkpt lat="43.92528823458442" lon="10.69458278964632"><ele>153.0</ele><time>2026-04-11T13:08:09Z</time></trkpt><trkpt lat="43.925364793388376" lon="10.694541736628254"><ele>153.0</ele><time>2026-04-11T13:08:10Z</time></trkpt><trkpt lat="43.925446833857194" lon="10.69451092808781"><ele>153.0</ele><time>2026-04-11T13:08:11Z</time></trkpt><trkpt lat="43.92552932435267" lon="10.694484547219645"><ele>153.0</ele><time>2026-04-11T13:08:12Z</time></trkpt><trkpt lat="43.925597765227494" lon="10.694448400514108"><ele>148.66666666666666</ele><time>2026-04-11T13:08:13Z</time></trkpt><trkpt lat="43.92567412349508" lon="10.694389605053601"><ele>144.33333333333334</ele><time>2026-04-11T13:08:14Z</time></trkpt><trkpt lat="43.925748709848044" lon="10.694325411300294"><ele>140.0</ele><time>2026-04-11T13:08:15Z</time></trkpt><trkpt lat="43.92584702486341" lon="10.694279596811786"><ele>135.66666666666669</ele><time>2026-04-11T13:08:17Z</time></trkpt><trkpt lat="43.9259098290418" lon="10.694204333839693"><ele>131.33333333333334</ele><time>2026-04-11T13:08:22Z</time></trkpt><trkpt lat="43.9258888605679" lon="10.694101907329006"><ele>127.0</ele><time>2026-04-11T13:08:23Z</time></trkpt><trkpt lat="43.92585172342772" lon="10.693987734401171"><ele>125.39999999999999</ele><time>2026-04-11T13:08:24Z</time></trkpt><trkpt lat="43.92579854432997" lon="10.6938814049472"><ele>123.79999999999998</ele><time>2026-04-11T13:08:25Z</time></trkpt><trkpt lat="43.92577590163515" lon="10.69377719141922"><ele>122.2</ele><time>2026-04-11T13:08:26Z</time></trkpt><trkpt lat="43.925757406697166" lon="10.693639906468432"><ele>120.6</ele><time>2026-04-11T13:08:27Z</time></trkpt><trkpt lat="43.92574220741629" lon="10.693511958261"><ele>119.0</ele><time>2026-04-11T13:08:28Z</time></trkpt><trkpt lat="43.92571517270575" lon="10.693364624508748"><ele>120.6</ele><time>2026-04-11T13:08:29Z</time></trkpt><trkpt lat="43.92568433396308" lon="10.693219026272248"><ele>122.2</ele><time>2026-04-11T13:08:30Z</time></trkpt><trkpt lat="43.92566994083568" lon="10.693083884068551"><ele>123.79999999999998</ele><time>2026-04-11T13:08:31Z</time></trkpt><trkpt lat="43.92565623099263" lon="10.692935972119914"><ele>125.39999999999999</ele><time>2026-04-11T13:08:32Z</time></trkpt><trkpt lat="43.92563367665478" lon="10.692806583116985"><ele>127.0</ele><time>2026-04-11T13:08:33Z</time></trkpt><trkpt lat="43.9256215497354" lon="10.692715738619041"><ele>127.0</ele><time>2026-04-11T13:08:34Z</time></trkpt><trkpt lat="43.92561535359853" lon="10.69258439965525"><ele>127.0</ele><time>2026-04-11T13:08:36Z</time></trkpt><trkpt lat="43.92557871126329" lon="10.692502523823913"><ele>127.0</ele><time>2026-04-11T13:10:22Z</time></trkpt><trkpt lat="43.92552311232767" lon="10.692444295420598"><ele>127.0</ele><time>2026-04-11T13:10:28Z</time></trkpt><trkpt lat="43.9254476727303" lon="10.69243469003795"><ele>127.0</ele><time>2026-04-11T13:10:29Z</time></trkpt><trkpt lat="43.92538072683258" lon="10.692461694235359"><ele>127.0</ele><time>2026-04-11T13:10:30Z</time></trkpt><trkpt lat="43.92531562946879" lon="10.692465425897183"><ele>127.0</ele><time>2026-04-11T13:10:31Z</time></trkpt><trkpt lat="43.925243915616974" lon="10.692488865256928"><ele>127.00000000000001</ele><time>2026-04-11T13:10:32Z</time></trkpt><trkpt lat="43.92513226625832" lon="10.692492291389073"><ele>127.0</ele><time>2026-04-11T13:10:34Z</time></trkpt><trkpt lat="43.92506587767145" lon="10.692495358356165"><ele>127.0</ele><time>2026-04-11T13:10:35Z</time></trkpt><trkpt lat="43.92499784292462" lon="10.69253458335601"><ele>127.0</ele><time>2026-04-11T13:10:36Z</time></trkpt><trkpt lat="43.924936751092716" lon="10.692573358512046"><ele>127.00000000000001</ele><time>2026-04-11T13:10:37Z</time></trkpt><trkpt lat="43.924862145434346" lon="10.692628209714893"><ele>127.0</ele><time>2026-04-11T13:10:38Z</time></trkpt><trkpt lat="43.924781075280436" lon="10.69266578867405"><ele>128.0</ele><time>2026-04-11T13:10:39Z</time></trkpt><trkpt lat="43.92469414351442" lon="10.692689883918364"><ele>129.0</ele><time>2026-04-11T13:10:40Z</time></trkpt><trkpt lat="43.924603419475105" lon="10.692678736450482"><ele>130.0</ele><time>2026-04-11T13:10:41Z</time></trkpt><trkpt lat="43.924513974756124" lon="10.692645173955311"><ele>131.0</ele><time>2026-04-11T13:10:42Z</time></trkpt><trkpt lat="43.92441997620406" lon="10.692595000898143"><ele>132.0</ele><time>2026-04-11T13:10:43Z</time></trkpt><trkpt lat="43.92432910213654" lon="10.692540441275185"><ele>132.0</ele><time>2026-04-11T13:10:44Z</time></trkpt><trkpt lat="43.924251750712415" lon="10.692459213053183"><ele>132.0</ele><time>2026-04-11T13:10:45Z</time></trkpt><trkpt lat="43.92414822869839" lon="10.692407733451144"><ele>132.0</ele><time>2026-04-11T13:10:46Z</time></trkpt><trkpt lat="43.92406715316203" lon="10.692352672951658"><ele>132.0</ele><time>2026-04-11T13:10:47Z</time></trkpt><trkpt lat="43.92396682068272" lon="10.692327045989089"><ele>132.0</ele><time>2026-04-11T13:10:48Z</time></trkpt><trkpt lat="43.92387073667032" lon="10.692279219669018"><ele>130.25</ele><time>2026-04-11T13:10:49Z</time></trkpt><trkpt lat="43.92376604078882" lon="10.692231923298147"><ele>128.5</ele><time>2026-04-11T13:10:50Z</time></trkpt><trkpt lat="43.92365507715128" lon="10.6921864968362"><ele>126.75</ele><time>2026-04-11T13:10:51Z</time></trkpt><trkpt lat="43.92352191404355" lon="10.692182170034613"><ele>125.0</ele><time>2026-04-11T13:10:52Z</time></trkpt><trkpt lat="43.92340960676944" lon="10.692176720838297"><ele>123.25</ele><time>2026-04-11T13:10:53Z</time></trkpt><trkpt lat="43.9232846251311" lon="10.692208993958019"><ele>121.5</ele><time>2026-04-11T13:10:54Z</time></trkpt><trkpt lat="43.923160639571" lon="10.692237108011575"><ele>119.75</ele><time>2026-04-11T13:10:55Z</time></trkpt><trkpt lat="43.92304137250666" lon="10.692269391305418"><ele>118.0</ele><time>2026-04-11T13:10:56Z</time></trkpt><trkpt lat="43.9229217804447" lon="10.692312866871227"><ele>118.0</ele><time>2026-04-11T13:10:57Z</time></trkpt><trkpt lat="43.922821201010144" lon="10.69234935884013"><ele>118.00000000000001</ele><time>2026-04-11T13:10:58Z</time></trkpt><trkpt lat="43.92272396345931" lon="10.692391815594695"><ele>118.00000000000001</ele><time>2026-04-11T13:10:59Z</time></trkpt><trkpt lat="43.92262659959667" lon="10.692450038673444"><ele>118.0</ele><time>2026-04-11T13:11:00Z</time></trkpt><trkpt lat="43.922544617933085" lon="10.692501918922103"><ele>118.0</ele><time>2026-04-11T13:11:01Z</time></trkpt><trkpt lat="43.92245840721269" lon="10.692548123212893"><ele>119.0</ele><time>2026-04-11T13:11:02Z</time></trkpt><trkpt lat="43.92238314277718" lon="10.692582197785809"><ele>120.00000000000001</ele><time>2026-04-11T13:11:03Z</time></trkpt><trkpt lat="43.92230799622825" lon="10.692618960575608"><ele>121.00000000000001</ele><time>2026-04-11T13:11:04Z</time></trkpt><trkpt lat="43.922230191396636" lon="10.692672519715074"><ele>122.0</ele><time>2026-04-11T13:11:05Z</time></trkpt><trkpt lat="43.92213989571047" lon="10.692725455976579"><ele>123.0</ele><time>2026-04-11T13:11:06Z</time></trkpt><trkpt lat="43.92204458850359" lon="10.692813304715088"><ele>118.75</ele><time>2026-04-11T13:11:07Z</time></trkpt><trkpt lat="43.92194814357686" lon="10.692860983321118"><ele>114.5</ele><time>2026-04-11T13:11:08Z</time></trkpt><trkpt lat="43.92183984758529" lon="10.6929623548986"><ele>110.25</ele><time>2026-04-11T13:11:09Z</time></trkpt><trkpt lat="43.92173214387405" lon="10.693049433435077"><ele>106.0</ele><time>2026-04-11T13:11:10Z</time></trkpt><trkpt lat="43.921625422457055" lon="10.693144094970686"><ele>106.0</ele><time>2026-04-11T13:11:11Z</time></trkpt><trkpt lat="43.92153512001782" lon="10.693220732768106"><ele>106.0</ele><time>2026-04-11T13:11:12Z</time></trkpt><trkpt lat="43.92144565019134" lon="10.693338891498964"><ele>106.0</ele><time>2026-04-11T13:11:13Z</time></trkpt><trkpt lat="43.92136517985389" lon="10.693437552833354"><ele>106.0</ele><time>2026-04-11T13:11:14Z</time></trkpt><trkpt lat="43.92128071866314" lon="10.693574476638656"><ele>105.0</ele><time>2026-04-11T13:11:15Z</time></trkpt><trkpt lat="43.92117592649822" lon="10.693693370224613"><ele>104.0</ele><time>2026-04-11T13:11:16Z</time></trkpt><trkpt lat="43.92106470644521" lon="10.693734810998205"><ele>103.0</ele><time>2026-04-11T13:11:17Z</time></trkpt><trkpt lat="43.92094151398484" lon="10.693782452574661"><ele>102.0</ele><time>2026-04-11T13:11:18Z</time></trkpt><trkpt lat="43.92080929696628" lon="10.693832844521149"><ele>102.0</ele><time>2026-04-11T13:11:19Z</time></trkpt><trkpt lat="43.920680220155184" lon="10.693901381429505"><ele>102.0</ele><time>2026-04-11T13:11:20Z</time></trkpt><trkpt lat="43.92055833762274" lon="10.693983203602897"><ele>102.0</ele><time>2026-04-11T13:11:21Z</time></trkpt><trkpt lat="43.9204334996486" lon="10.694072254325418"><ele>102.0</ele><time>2026-04-11T13:11:22Z</time></trkpt><trkpt lat="43.920311757101885" lon="10.6941407672223"><ele>102.0</ele><time>2026-04-11T13:11:23Z</time></trkpt><trkpt lat="43.92019174178662" lon="10.694197261675487"><ele>102.0</ele><time>2026-04-11T13:11:24Z</time></trkpt><trkpt lat="43.920068578616075" lon="10.694229178694176"><ele>102.0</ele><time>2026-04-11T13:11:25Z</time></trkpt><trkpt lat="43.91994516161387" lon="10.694239078438262"><ele>102.0</ele><time>2026-04-11T13:11:26Z</time></trkpt><trkpt lat="43.919821370362016" lon="10.694240700325265"><ele>105.0</ele><time>2026-04-11T13:11:27Z</time></trkpt><trkpt lat="43.919693643189206" lon="10.694232031567134"><ele>108.0</ele><time>2026-04-11T13:11:28Z</time></trkpt><trkpt lat="43.91957076389067" lon="10.694226834786878"><ele>111.0</ele><time>2026-04-11T13:11:29Z</time></trkpt><trkpt lat="43.919441998025526" lon="10.694220973453806"><ele>114.0</ele><time>2026-04-11T13:11:30Z</time></trkpt><trkpt lat="43.91932269882253" lon="10.694192778635143"><ele>113.5</ele><time>2026-04-11T13:11:31Z</time></trkpt><trkpt lat="43.919209937891075" lon="10.69417677534286"><ele>113.0</ele><time>2026-04-11T13:11:32Z</time></trkpt><trkpt lat="43.91909911138533" lon="10.694132488968721"><ele>112.5</ele><time>2026-04-11T13:11:33Z</time></trkpt><trkpt lat="43.91898403539232" lon="10.694083358558457"><ele>112.0</ele><time>2026-04-11T13:11:34Z</time></trkpt><trkpt lat="43.91886937233101" lon="10.694019121792175"><ele>112.0</ele><time>2026-04-11T13:11:35Z</time></trkpt><trkpt lat="43.91875482202495" lon="10.69394926007289"><ele>112.0</ele><time>2026-04-11T13:11:36Z</time></trkpt><trkpt lat="43.918632787289276" lon="10.693903652670187"><ele>112.0</ele><time>2026-04-11T13:11:37Z</time></trkpt><trkpt lat="43.918501933670235" lon="10.693869670828917"><ele>112.0</ele><time>2026-04-11T13:11:38Z</time></trkpt><trkpt lat="43.91839227926725" lon="10.693797088890697"><ele>107.25</ele><time>2026-04-11T13:11:39Z</time></trkpt><trkpt lat="43.91827009861482" lon="10.693723557944155"><ele>102.5</ele><time>2026-04-11T13:11:40Z</time></trkpt><trkpt lat="43.91815609999887" lon="10.693618842909405"><ele>97.75</ele><time>2026-04-11T13:11:41Z</time></trkpt><trkpt lat="43.9180360233753" lon="10.693539792963128"><ele>93.0</ele><time>2026-04-11T13:11:42Z</time></trkpt><trkpt lat="43.91793265062468" lon="10.693466497262689"><ele>98.25</ele><time>2026-04-11T13:11:43Z</time></trkpt><trkpt lat="43.91779780648613" lon="10.693425677207982"><ele>103.5</ele><time>2026-04-11T13:11:44Z</time></trkpt><trkpt lat="43.91766256715114" lon="10.693375990923823"><ele>108.75</ele><time>2026-04-11T13:11:45Z</time></trkpt><trkpt lat="43.917515728915305" lon="10.693349235847124"><ele>114.0</ele><time>2026-04-11T13:11:46Z</time></trkpt><trkpt lat="43.91737341930978" lon="10.693325685523408"><ele>114.0</ele><time>2026-04-11T13:11:47Z</time></trkpt><trkpt lat="43.91723548429381" lon="10.693317536609955"><ele>114.0</ele><time>2026-04-11T13:11:48Z</time></trkpt><trkpt lat="43.91710846383359" lon="10.69331251318135"><ele>114.0</ele><time>2026-04-11T13:11:49Z</time></trkpt><trkpt lat="43.91697999684867" lon="10.693311503304704"><ele>114.0</ele><time>2026-04-11T13:11:50Z</time></trkpt><trkpt lat="43.916854924385795" lon="10.693312646326069"><ele>112.5</ele><time>2026-04-11T13:11:51Z</time></trkpt><trkpt lat="43.91672747348548" lon="10.693312975670965"><ele>111.0</ele><time>2026-04-11T13:11:52Z</time></trkpt><trkpt lat="43.91661208927566" lon="10.693317999590763"><ele>109.5</ele><time>2026-04-11T13:11:53Z</time></trkpt><trkpt lat="43.916491795128415" lon="10.693311266065447"><ele>108.0</ele><time>2026-04-11T13:11:54Z</time></trkpt><trkpt lat="43.91636830882757" lon="10.69330625806651"><ele>108.0</ele><time>2026-04-11T13:11:55Z</time></trkpt><trkpt lat="43.9162443133469" lon="10.693282090763077"><ele>108.0</ele><time>2026-04-11T13:11:56Z</time></trkpt><trkpt lat="43.916119430295545" lon="10.693269097371093"><ele>108.0</ele><time>2026-04-11T13:11:57Z</time></trkpt><trkpt lat="43.91599540124735" lon="10.69325627883062"><ele>108.0</ele><time>2026-04-11T13:11:58Z</time></trkpt><trkpt lat="43.91587598067002" lon="10.69325097493437"><ele>105.2</ele><time>2026-04-11T13:11:59Z</time></trkpt><trkpt lat="43.915766661171894" lon="10.693236052112724"><ele>102.4</ele><time>2026-04-11T13:12:00Z</time></trkpt><trkpt lat="43.915665308740614" lon="10.693200552052673"><ele>99.60000000000001</ele><time>2026-04-11T13:12:01Z</time></trkpt><trkpt lat="43.91554417545949" lon="10.693210977185961"><ele>96.80000000000001</ele><time>2026-04-11T13:12:02Z</time></trkpt><trkpt lat="43.91544200596863" lon="10.693187863821052"><ele>94.0</ele><time>2026-04-11T13:12:03Z</time></trkpt><trkpt lat="43.91533309277712" lon="10.693166651159466"><ele>94.0</ele><time>2026-04-11T13:12:04Z</time></trkpt><trkpt lat="43.91522226305595" lon="10.693143721307282"><ele>94.0</ele><time>2026-04-11T13:12:05Z</time></trkpt><trkpt lat="43.91511966641718" lon="10.693098131025378"><ele>94.0</ele><time>2026-04-11T13:12:06Z</time></trkpt><trkpt lat="43.91500019446893" lon="10.693106580224757"><ele>94.0</ele><time>2026-04-11T13:12:07Z</time></trkpt><trkpt lat="43.914880753515575" lon="10.693093129184698"><ele>92.0</ele><time>2026-04-11T13:12:08Z</time></trkpt><trkpt lat="43.91476087679325" lon="10.693076118321347"><ele>90.0</ele><time>2026-04-11T13:12:09Z</time></trkpt><trkpt lat="43.9146343889102" lon="10.693047032898242"><ele>88.0</ele><time>2026-04-11T13:12:10Z</time></trkpt><trkpt lat="43.91452533910635" lon="10.693020505216111"><ele>86.0</ele><time>2026-04-11T13:12:11Z</time></trkpt><trkpt lat="43.91439786927164" lon="10.692958816981667"><ele>86.0</ele><time>2026-04-11T13:12:12Z</time></trkpt><trkpt lat="43.91429606609526" lon="10.692883645794966"><ele>86.0</ele><time>2026-04-11T13:12:13Z</time></trkpt><trkpt lat="43.914196649228096" lon="10.69278151976957"><ele>86.0</ele><time>2026-04-11T13:12:14Z</time></trkpt><trkpt lat="43.91409671788819" lon="10.692667446230466"><ele>86.0</ele><time>2026-04-11T13:12:15Z</time></trkpt><trkpt lat="43.91399738951564" lon="10.692564982262878"><ele>85.25</ele><time>2026-04-11T13:12:16Z</time></trkpt><trkpt lat="43.91389365947487" lon="10.692478888572516"><ele>84.5</ele><time>2026-04-11T13:12:17Z</time></trkpt><trkpt lat="43.91380192770098" lon="10.692384092574475"><ele>83.75</ele><time>2026-04-11T13:12:18Z</time></trkpt><trkpt lat="43.91370818312484" lon="10.692281954277343"><ele>83.0</ele><time>2026-04-11T13:12:19Z</time></trkpt><trkpt lat="43.91361732838049" lon="10.692178569757973"><ele>83.0</ele><time>2026-04-11T13:12:20Z</time></trkpt><trkpt lat="43.913526239465774" lon="10.692086834877719"><ele>83.0</ele><time>2026-04-11T13:12:21Z</time></trkpt><trkpt lat="43.91343952698833" lon="10.691999442150845"><ele>83.0</ele><time>2026-04-11T13:12:22Z</time></trkpt><trkpt lat="43.91334278782347" lon="10.691914797356581"><ele>83.0</ele><time>2026-04-11T13:12:23Z</time></trkpt><trkpt lat="43.91323752638849" lon="10.691846823634194"><ele>83.2</ele><time>2026-04-11T13:12:24Z</time></trkpt><trkpt lat="43.91314186038487" lon="10.691788119928011"><ele>83.4</ele><time>2026-04-11T13:12:25Z</time></trkpt><trkpt lat="43.91304459528547" lon="10.691730123807547"><ele>83.60000000000001</ele><time>2026-04-11T13:12:26Z</time></trkpt><trkpt lat="43.91296040853803" lon="10.691667691228842"><ele>83.80000000000001</ele><time>2026-04-11T13:12:27Z</time></trkpt><trkpt lat="43.912875761160876" lon="10.691616039084096"><ele>84.0</ele><time>2026-04-11T13:12:28Z</time></trkpt><trkpt lat="43.91279852405529" lon="10.691560181684368"><ele>84.0</ele><time>2026-04-11T13:12:29Z</time></trkpt><trkpt lat="43.91272417955278" lon="10.691507506056825"><ele>84.0</ele><time>2026-04-11T13:12:30Z</time></trkpt><trkpt lat="43.91266223816717" lon="10.691457843373765"><ele>84.0</ele><time>2026-04-11T13:12:31Z</time></trkpt><trkpt lat="43.91259452916391" lon="10.691410657334837"><ele>84.0</ele><time>2026-04-11T13:12:33Z</time></trkpt><trkpt lat="43.91254173188444" lon="10.691341953042674"><ele>84.0</ele><time>2026-04-11T13:13:39Z</time></trkpt><trkpt lat="43.912468806888114" lon="10.691350924478424"><ele>84.0</ele><time>2026-04-11T13:13:43Z</time></trkpt><trkpt lat="43.9123610121265" lon="10.691275867216241"><ele>83.83333333333333</ele><time>2026-04-11T13:13:45Z</time></trkpt><trkpt lat="43.912292788556435" lon="10.69123161315633"><ele>83.66666666666667</ele><time>2026-04-11T13:13:46Z</time></trkpt><trkpt lat="43.91222650229191" lon="10.691194806382464"><ele>83.5</ele><time>2026-04-11T13:13:47Z</time></trkpt><trkpt lat="43.912158168691974" lon="10.691151524978316"><ele>83.33333333333334</ele><time>2026-04-11T13:13:48Z</time></trkpt><trkpt lat="43.91208743090718" lon="10.6911222082991"><ele>83.16666666666667</ele><time>2026-04-11T13:13:49Z</time></trkpt><trkpt lat="43.911998915878236" lon="10.691065330048309"><ele>83.0</ele><time>2026-04-11T13:13:50Z</time></trkpt><trkpt lat="43.911907733463316" lon="10.691019104499844"><ele>83.0</ele><time>2026-04-11T13:13:51Z</time></trkpt><trkpt lat="43.91180854374059" lon="10.6909752015176"><ele>83.0</ele><time>2026-04-11T13:13:52Z</time></trkpt><trkpt lat="43.911711325265955" lon="10.690938150651498"><ele>83.0</ele><time>2026-04-11T13:13:53Z</time></trkpt><trkpt lat="43.91160788435033" lon="10.690899788745185"><ele>83.0</ele><time>2026-04-11T13:13:54Z</time></trkpt><trkpt lat="43.9115013097129" lon="10.690860586859417"><ele>83.0</ele><time>2026-04-11T13:13:55Z</time></trkpt><trkpt lat="43.911394783354" lon="10.6908221911717"><ele>81.75</ele><time>2026-04-11T13:13:56Z</time></trkpt><trkpt lat="43.91128248964139" lon="10.690775177593299"><ele>80.5</ele><time>2026-04-11T13:13:57Z</time></trkpt><trkpt lat="43.91117239539845" lon="10.690728204189888"><ele>79.25</ele><time>2026-04-11T13:13:58Z</time></trkpt><trkpt lat="43.91105781621212" lon="10.690682761825574"><ele>78.0</ele><time>2026-04-11T13:13:59Z</time></trkpt><trkpt lat="43.91095096262645" lon="10.690645859552076"><ele>76.75</ele><time>2026-04-11T13:14:00Z</time></trkpt><trkpt lat="43.91082690722261" lon="10.690610120526856"><ele>75.5</ele><time>2026-04-11T13:14:01Z</time></trkpt><trkpt lat="43.91070976126192" lon="10.690560059248446"><ele>74.25</ele><time>2026-04-11T13:14:02Z</time></trkpt><trkpt lat="43.91058546726857" lon="10.690516406164988"><ele>73.0</ele><time>2026-04-11T13:14:03Z</time></trkpt><trkpt lat="43.91046013759725" lon="10.69046951595595"><ele>73.0</ele><time>2026-04-11T13:14:04Z</time></trkpt><trkpt lat="43.91033596885138" lon="10.69041402398489"><ele>73.0</ele><time>2026-04-11T13:14:05Z</time></trkpt><trkpt lat="43.91020825436426" lon="10.690363190040785"><ele>73.0</ele><time>2026-04-11T13:14:06Z</time></trkpt><trkpt lat="43.9100831161572" lon="10.690310617254578"><ele>73.0</ele><time>2026-04-11T13:14:07Z</time></trkpt><trkpt lat="43.90996486532153" lon="10.6902656772481"><ele>72.75</ele><time>2026-04-11T13:14:08Z</time></trkpt><trkpt lat="43.90985289377163" lon="10.690222136176688"><ele>72.5</ele><time>2026-04-11T13:14:09Z</time></trkpt><trkpt lat="43.90974011981849" lon="10.690175340134397"><ele>72.25</ele><time>2026-04-11T13:14:10Z</time></trkpt><trkpt lat="43.90962332918178" lon="10.690128897643975"><ele>72.0</ele><time>2026-04-11T13:14:11Z</time></trkpt><trkpt lat="43.909510576649645" lon="10.69007976699632"><ele>72.0</ele><time>2026-04-11T13:14:12Z</time></trkpt><trkpt lat="43.90939854514466" lon="10.690034417860224"><ele>72.0</ele><time>2026-04-11T13:14:13Z</time></trkpt><trkpt lat="43.9092771130695" lon="10.689991243758406"><ele>72.0</ele><time>2026-04-11T13:14:14Z</time></trkpt><trkpt lat="43.9091607030408" lon="10.68994293403782"><ele>72.0</ele><time>2026-04-11T13:14:15Z</time></trkpt><trkpt lat="43.90904055385993" lon="10.689893631946223"><ele>71.5</ele><time>2026-04-11T13:14:16Z</time></trkpt><trkpt lat="43.90891974420586" lon="10.689849069548211"><ele>71.0</ele><time>2026-04-11T13:14:17Z</time></trkpt><trkpt lat="43.90880200048628" lon="10.689805333476592"><ele>70.5</ele><time>2026-04-11T13:14:18Z</time></trkpt><trkpt lat="43.90868984103158" lon="10.689763917256675"><ele>70.0</ele><time>2026-04-11T13:14:19Z</time></trkpt><trkpt lat="43.908580795598475" lon="10.689721752515041"><ele>70.0</ele><time>2026-04-11T13:14:20Z</time></trkpt><trkpt lat="43.90847167352688" lon="10.689679513316847"><ele>70.0</ele><time>2026-04-11T13:14:21Z</time></trkpt><trkpt lat="43.908366233124625" lon="10.689643812910477"><ele>70.0</ele><time>2026-04-11T13:14:22Z</time></trkpt><trkpt lat="43.908261807527786" lon="10.68960449146647"><ele>70.0</ele><time>2026-04-11T13:14:23Z</time></trkpt><trkpt lat="43.90815855092207" lon="10.689563019660403"><ele>70.0</ele><time>2026-04-11T13:14:24Z</time></trkpt><trkpt lat="43.908054710581226" lon="10.689525183701308"><ele>70.0</ele><time>2026-04-11T13:14:25Z</time></trkpt><trkpt lat="43.90795391113148" lon="10.68948291424274"><ele>70.0</ele><time>2026-04-11T13:14:26Z</time></trkpt><trkpt lat="43.907854235915906" lon="10.6894453601566"><ele>70.0</ele><time>2026-04-11T13:14:27Z</time></trkpt><trkpt lat="43.90775343299032" lon="10.689409735224249"><ele>70.0</ele><time>2026-04-11T13:14:28Z</time></trkpt><trkpt lat="43.90765572028896" lon="10.689370499906033"><ele>70.0</ele><time>2026-04-11T13:14:29Z</time></trkpt><trkpt lat="43.90755448804105" lon="10.689325492607571"><ele>70.2</ele><time>2026-04-11T13:14:30Z</time></trkpt><trkpt lat="43.907455401074536" lon="10.689288541797499"><ele>70.4</ele><time>2026-04-11T13:14:31Z</time></trkpt><trkpt lat="43.90735347454869" lon="10.689261727354408"><ele>70.6</ele><time>2026-04-11T13:14:32Z</time></trkpt><trkpt lat="43.907258172005804" lon="10.689222173222477"><ele>70.8</ele><time>2026-04-11T13:14:33Z</time></trkpt><trkpt lat="43.9071683748038" lon="10.689176358406716"><ele>71.0</ele><time>2026-04-11T13:14:34Z</time></trkpt><trkpt lat="43.907082693439094" lon="10.689142005743326"><ele>71.0</ele><time>2026-04-11T13:14:35Z</time></trkpt><trkpt lat="43.90700414683528" lon="10.689112990001309"><ele>71.0</ele><time>2026-04-11T13:14:36Z</time></trkpt><trkpt lat="43.90694113364668" lon="10.68908094163838"><ele>71.0</ele><time>2026-04-11T13:14:37Z</time></trkpt><trkpt lat="43.90686244732704" lon="10.689028834750722"><ele>71.0</ele><time>2026-04-11T13:14:39Z</time></trkpt><trkpt lat="43.90676440468731" lon="10.689017210317898"><ele>71.0</ele><time>2026-04-11T13:15:28Z</time></trkpt><trkpt lat="43.90667733500199" lon="10.688971447492687"><ele>71.0</ele><time>2026-04-11T13:15:30Z</time></trkpt><trkpt lat="43.9066656357953" lon="10.68883633006437"><ele>71.0</ele><time>2026-04-11T13:15:35Z</time></trkpt><trkpt lat="43.906783865257495" lon="10.688896838006038"><ele>71.0</ele><time>2026-04-11T13:15:37Z</time></trkpt><trkpt lat="43.906880091634555" lon="10.688923611478787"><ele>71.0</ele><time>2026-04-11T13:15:39Z</time></trkpt><trkpt lat="43.90695904604529" lon="10.688900776192174"><ele>71.0</ele><time>2026-04-11T13:15:42Z</time></trkpt><trkpt lat="43.90699164079581" lon="10.688783022395423"><ele>71.0</ele><time>2026-04-11T13:15:44Z</time></trkpt><trkpt lat="43.906988510666814" lon="10.688665519328154"><ele>73.6</ele><time>2026-04-11T13:15:45Z</time></trkpt><trkpt lat="43.90700737934625" lon="10.688541808978934"><ele>76.19999999999999</ele><time>2026-04-11T13:15:47Z</time></trkpt><trkpt lat="43.907087120849205" lon="10.688427695555507"><ele>78.80000000000001</ele><time>2026-04-11T13:15:49Z</time></trkpt><trkpt lat="43.907131237379765" lon="10.688247800714066"><ele>81.4</ele><time>2026-04-11T13:15:51Z</time></trkpt><trkpt lat="43.90717265130985" lon="10.688161718603757"><ele>84.0</ele><time>2026-04-11T13:15:52Z</time></trkpt><trkpt lat="43.9072733125156" lon="10.688161520017582"><ele>84.0</ele><time>2026-04-11T13:15:54Z</time></trkpt><trkpt lat="43.90735053460973" lon="10.68829916841684"><ele>84.0</ele><time>2026-04-11T13:15:56Z</time></trkpt><trkpt lat="43.907393273602366" lon="10.688371465147362"><ele>84.0</ele><time>2026-04-11T13:15:57Z</time></trkpt><trkpt lat="43.90744108917332" lon="10.688491526382672"><ele>84.0</ele><time>2026-04-11T13:15:59Z</time></trkpt><trkpt lat="43.907493432818626" lon="10.68854149178055"><ele>84.0</ele><time>2026-04-11T13:16:02Z</time></trkpt><trkpt lat="43.907574643652694" lon="10.688520726428303"><ele>84.0</ele><time>2026-04-11T13:16:04Z</time></trkpt><trkpt lat="43.90764472331694" lon="10.688495819038211"><ele>84.0</ele><time>2026-04-11T13:16:06Z</time></trkpt><trkpt lat="43.907580440915204" lon="10.688510251810504"><ele>84.0</ele><time>2026-04-11T13:16:25Z</time></trkpt><trkpt lat="43.90748541499866" lon="10.688536062709304"><ele>84.0</ele><time>2026-04-11T13:16:27Z</time></trkpt><trkpt lat="43.90743309168622" lon="10.688478119302538"><ele>84.0</ele><time>2026-04-11T13:16:29Z</time></trkpt><trkpt lat="43.907440388511475" lon="10.688345850539202"><ele>84.0</ele><time>2026-04-11T13:16:30Z</time></trkpt><trkpt lat="43.90736429807593" lon="10.68822477471411"><ele>84.0</ele><time>2026-04-11T13:16:32Z</time></trkpt><trkpt lat="43.907314759858444" lon="10.688168555514798"><ele>84.0</ele><time>2026-04-11T13:16:33Z</time></trkpt><trkpt lat="43.907231408135324" lon="10.68813912911748"><ele>84.0</ele><time>2026-04-11T13:16:35Z</time></trkpt><trkpt lat="43.907191958027745" lon="10.688220434968644"><ele>84.0</ele><time>2026-04-11T13:16:37Z</time></trkpt><trkpt lat="43.907117323570176" lon="10.68831202901574"><ele>84.0</ele><time>2026-04-11T13:16:38Z</time></trkpt><trkpt lat="43.90708066531269" lon="10.688404033131855"><ele>84.0</ele><time>2026-04-11T13:16:39Z</time></trkpt><trkpt lat="43.90703235467982" lon="10.688484836925793"><ele>84.0</ele><time>2026-04-11T13:16:40Z</time></trkpt><trkpt lat="43.90696695716074" lon="10.688603624718251"><ele>81.83333333333333</ele><time>2026-04-11T13:16:42Z</time></trkpt><trkpt lat="43.9069649666084" lon="10.688729268377237"><ele>79.66666666666667</ele><time>2026-04-11T13:16:43Z</time></trkpt><trkpt lat="43.90695362724627" lon="10.688857951653654"><ele>77.5</ele><time>2026-04-11T13:16:45Z</time></trkpt><trkpt lat="43.90685443356357" lon="10.688877833538035"><ele>75.33333333333334</ele><time>2026-04-11T13:16:48Z</time></trkpt><trkpt lat="43.90680663641116" lon="10.688964456603404"><ele>73.16666666666667</ele><time>2026-04-11T13:16:49Z</time></trkpt><trkpt lat="43.906741444275276" lon="10.688993660932697"><ele>71.0</ele><time>2026-04-11T13:16:50Z</time></trkpt><trkpt lat="43.90665509378875" lon="10.688885616146527"><ele>71.0</ele><time>2026-04-11T13:16:52Z</time></trkpt><trkpt lat="43.90657563632549" lon="10.688907369449106"><ele>71.0</ele><time>2026-04-11T13:16:54Z</time></trkpt><trkpt lat="43.90658949419762" lon="10.689007536699867"><ele>71.0</ele><time>2026-04-11T13:17:45Z</time></trkpt><trkpt lat="43.90669824399568" lon="10.68905332546723"><ele>71.0</ele><time>2026-04-11T13:17:47Z</time></trkpt><trkpt lat="43.90676542896539" lon="10.689073982888514"><ele>71.0</ele><time>2026-04-11T13:17:48Z</time></trkpt><trkpt lat="43.906851502646205" lon="10.689102495622448"><ele>71.0</ele><time>2026-04-11T13:17:49Z</time></trkpt><trkpt lat="43.90693299275326" lon="10.689126368699295"><ele>71.0</ele><time>2026-04-11T13:17:50Z</time></trkpt><trkpt lat="43.90701828937849" lon="10.689156833526745"><ele>71.0</ele><time>2026-04-11T13:17:51Z</time></trkpt><trkpt lat="43.90710520231588" lon="10.689190629718857"><ele>71.0</ele><time>2026-04-11T13:17:52Z</time></trkpt><trkpt lat="43.90719379324974" lon="10.68922455324595"><ele>71.0</ele><time>2026-04-11T13:17:53Z</time></trkpt><trkpt lat="43.907292659016264" lon="10.689251644276126"><ele>71.0</ele><time>2026-04-11T13:17:54Z</time></trkpt><trkpt lat="43.907394475763105" lon="10.689283271468367"><ele>71.0</ele><time>2026-04-11T13:17:55Z</time></trkpt><trkpt lat="43.907519181686204" lon="10.689312231424838"><ele>71.0</ele><time>2026-04-11T13:17:56Z</time></trkpt><trkpt lat="43.90765203541405" lon="10.68935833958141"><ele>71.0</ele><time>2026-04-11T13:17:57Z</time></trkpt><trkpt lat="43.907786475462196" lon="10.689417120257115"><ele>71.0</ele><time>2026-04-11T13:17:58Z</time></trkpt><trkpt lat="43.90797801729318" lon="10.689527124045796"><ele>70.66666666666667</ele><time>2026-04-11T13:17:59Z</time></trkpt><trkpt lat="43.90815557174792" lon="10.689591942620007"><ele>70.33333333333333</ele><time>2026-04-11T13:18:00Z</time></trkpt><trkpt lat="43.90830959400873" lon="10.689647038069113"><ele>70.0</ele><time>2026-04-11T13:18:01Z</time></trkpt><trkpt lat="43.90847869872908" lon="10.689712836426938"><ele>70.0</ele><time>2026-04-11T13:18:02Z</time></trkpt><trkpt lat="43.908654026225264" lon="10.689775854954737"><ele>70.0</ele><time>2026-04-11T13:18:03Z</time></trkpt><trkpt lat="43.90882461578744" lon="10.689830703968658"><ele>70.0</ele><time>2026-04-11T13:18:04Z</time></trkpt><trkpt lat="43.90899465503383" lon="10.689898549495965"><ele>70.0</ele><time>2026-04-11T13:18:05Z</time></trkpt><trkpt lat="43.909161350823474" lon="10.689971185496919"><ele>70.0</ele><time>2026-04-11T13:18:06Z</time></trkpt><trkpt lat="43.90934327779234" lon="10.690037149746278"><ele>70.0</ele><time>2026-04-11T13:18:07Z</time></trkpt><trkpt lat="43.90952241647478" lon="10.690102667972914"><ele>70.33333333333333</ele><time>2026-04-11T13:18:08Z</time></trkpt><trkpt lat="43.9097152203247" lon="10.69017137151193"><ele>70.66666666666667</ele><time>2026-04-11T13:18:09Z</time></trkpt><trkpt lat="43.90988858322503" lon="10.690241515846152"><ele>71.0</ele><time>2026-04-11T13:18:10Z</time></trkpt><trkpt lat="43.910025401283974" lon="10.690293197121674"><ele>71.66666666666667</ele><time>2026-04-11T13:18:11Z</time></trkpt><trkpt lat="43.91018292780499" lon="10.690359892929663"><ele>72.33333333333333</ele><time>2026-04-11T13:18:12Z</time></trkpt><trkpt lat="43.910344138981" lon="10.690413905250209"><ele>73.0</ele><time>2026-04-11T13:18:13Z</time></trkpt><trkpt lat="43.910496729375886" lon="10.690486320526956"><ele>73.0</ele><time>2026-04-11T13:18:14Z</time></trkpt><trkpt lat="43.910653698897946" lon="10.690541635516952"><ele>73.0</ele><time>2026-04-11T13:18:15Z</time></trkpt><trkpt lat="43.9108101975567" lon="10.690604414564273"><ele>73.0</ele><time>2026-04-11T13:18:16Z</time></trkpt><trkpt lat="43.91096408511789" lon="10.69066186731191"><ele>74.25</ele><time>2026-04-11T13:18:17Z</time></trkpt><trkpt lat="43.91111296412038" lon="10.690719683595711"><ele>75.5</ele><time>2026-04-11T13:18:18Z</time></trkpt><trkpt lat="43.91125619933422" lon="10.690757485155197"><ele>76.75</ele><time>2026-04-11T13:18:19Z</time></trkpt><trkpt lat="43.911380675518124" lon="10.690810893470532"><ele>78.0</ele><time>2026-04-11T13:18:20Z</time></trkpt><trkpt lat="43.91149871227997" lon="10.690870145686164"><ele>78.0</ele><time>2026-04-11T13:18:21Z</time></trkpt><trkpt lat="43.911608553418326" lon="10.69092197601863"><ele>78.0</ele><time>2026-04-11T13:18:22Z</time></trkpt><trkpt lat="43.911711139228224" lon="10.6909604860972"><ele>78.0</ele><time>2026-04-11T13:18:23Z</time></trkpt><trkpt lat="43.91179822887731" lon="10.691007471529396"><ele>78.0</ele><time>2026-04-11T13:18:24Z</time></trkpt><trkpt lat="43.91186283268342" lon="10.691022808066805"><ele>78.0</ele><time>2026-04-11T13:18:25Z</time></trkpt><trkpt lat="43.91192972644804" lon="10.691053587224394"><ele>78.66666666666667</ele><time>2026-04-11T13:18:26Z</time></trkpt><trkpt lat="43.911997198420465" lon="10.69108641287245"><ele>79.33333333333333</ele><time>2026-04-11T13:18:27Z</time></trkpt><trkpt lat="43.91211466378032" lon="10.691162151265672"><ele>80.0</ele><time>2026-04-11T13:18:29Z</time></trkpt><trkpt lat="43.91217131163068" lon="10.691209322254698"><ele>80.66666666666666</ele><time>2026-04-11T13:18:30Z</time></trkpt><trkpt lat="43.912234519778686" lon="10.69126249597793"><ele>81.33333333333333</ele><time>2026-04-11T13:18:32Z</time></trkpt><trkpt lat="43.912274193883874" lon="10.691190729728971"><ele>82.0</ele><time>2026-04-11T13:18:36Z</time></trkpt><trkpt lat="43.912304966357844" lon="10.691110653953704"><ele>82.0</ele><time>2026-04-11T13:18:43Z</time></trkpt><trkpt lat="43.912241417267296" lon="10.691155885834563"><ele>82.0</ele><time>2026-04-11T13:19:02Z</time></trkpt><trkpt lat="43.912182017221376" lon="10.691110281076503"><ele>82.0</ele><time>2026-04-11T13:19:05Z</time></trkpt><trkpt lat="43.912081134572574" lon="10.691063874886575"><ele>82.0</ele><time>2026-04-11T13:19:07Z</time></trkpt><trkpt lat="43.91202178117098" lon="10.691019959321002"><ele>82.0</ele><time>2026-04-11T13:19:08Z</time></trkpt><trkpt lat="43.91197563762761" lon="10.690956015815038"><ele>82.0</ele><time>2026-04-11T13:19:09Z</time></trkpt><trkpt lat="43.91193516768838" lon="10.690873411651536"><ele>82.16666666666666</ele><time>2026-04-11T13:19:10Z</time></trkpt><trkpt lat="43.91187848196181" lon="10.690792372930332"><ele>82.33333333333333</ele><time>2026-04-11T13:19:11Z</time></trkpt><trkpt lat="43.91183677228355" lon="10.690710321247314"><ele>82.5</ele><time>2026-04-11T13:19:12Z</time></trkpt><trkpt lat="43.91180049038559" lon="10.690608891902581"><ele>82.66666666666667</ele><time>2026-04-11T13:19:14Z</time></trkpt><trkpt lat="43.9118467319684" lon="10.690534227575986"><ele>82.83333333333334</ele><time>2026-04-11T13:19:16Z</time></trkpt><trkpt lat="43.91191393110775" lon="10.690449745797315"><ele>83.0</ele><time>2026-04-11T13:19:18Z</time></trkpt><trkpt lat="43.91201255068477" lon="10.690302543135827"><ele>83.33333333333334</ele><time>2026-04-11T13:19:20Z</time></trkpt><trkpt lat="43.91206648673845" lon="10.690230008018165"><ele>83.66666666666667</ele><time>2026-04-11T13:19:21Z</time></trkpt><trkpt lat="43.91212084475903" lon="10.690138681831632"><ele>84.0</ele><time>2026-04-11T13:19:22Z</time></trkpt><trkpt lat="43.91218467103269" lon="10.690074111381012"><ele>84.33333333333333</ele><time>2026-04-11T13:19:23Z</time></trkpt><trkpt lat="43.91224619989524" lon="10.690010254110199"><ele>84.66666666666666</ele><time>2026-04-11T13:19:24Z</time></trkpt><trkpt lat="43.912314290629844" lon="10.68998191514345"><ele>85.0</ele><time>2026-04-11T13:19:25Z</time></trkpt><trkpt lat="43.91241469843643" lon="10.68995495591193"><ele>85.0</ele><time>2026-04-11T13:19:27Z</time></trkpt><trkpt lat="43.912504217154215" lon="10.689910459913518"><ele>85.0</ele><time>2026-04-11T13:19:29Z</time></trkpt><trkpt lat="43.912610759512184" lon="10.689925048304586"><ele>85.0</ele><time>2026-04-11T13:19:31Z</time></trkpt><trkpt lat="43.91268110192677" lon="10.689957950968097"><ele>85.0</ele><time>2026-04-11T13:19:33Z</time></trkpt><trkpt lat="43.91274719657634" lon="10.689923386946647"><ele>85.0</ele><time>2026-04-11T13:19:58Z</time></trkpt><trkpt lat="43.912838859354046" lon="10.689954649743141"><ele>85.0</ele><time>2026-04-11T13:20:00Z</time></trkpt><trkpt lat="43.91291061343415" lon="10.689970132199338"><ele>86.66666666666666</ele><time>2026-04-11T13:20:01Z</time></trkpt><trkpt lat="43.91298476055678" lon="10.689975717722346"><ele>88.33333333333333</ele><time>2026-04-11T13:20:02Z</time></trkpt><trkpt lat="43.91307482494329" lon="10.689979551692577"><ele>90.0</ele><time>2026-04-11T13:20:03Z</time></trkpt><trkpt lat="43.9131358955829" lon="10.69005462625086"><ele>91.66666666666667</ele><time>2026-04-11T13:20:04Z</time></trkpt><trkpt lat="43.91322085688009" lon="10.690076253927137"><ele>93.33333333333334</ele><time>2026-04-11T13:20:05Z</time></trkpt><trkpt lat="43.91331121219947" lon="10.690057859246245"><ele>95.0</ele><time>2026-04-11T13:20:06Z</time></trkpt><trkpt lat="43.91339373905761" lon="10.690074741006644"><ele>99.0</ele><time>2026-04-11T13:20:07Z</time></trkpt><trkpt lat="43.91348268189717" lon="10.69008057257456"><ele>103.0</ele><time>2026-04-11T13:20:08Z</time></trkpt><trkpt lat="43.91355844079102" lon="10.690091901461644"><ele>107.0</ele><time>2026-04-11T13:20:09Z</time></trkpt><trkpt lat="43.913632439698844" lon="10.6900949410202"><ele>111.0</ele><time>2026-04-11T13:20:10Z</time></trkpt><trkpt lat="43.91370609725881" lon="10.690049150518156"><ele>114.99999999999999</ele><time>2026-04-11T13:20:13Z</time></trkpt><trkpt lat="43.91366262992106" lon="10.689967390227356"><ele>119.0</ele><time>2026-04-11T13:20:15Z</time></trkpt><trkpt lat="43.91363993569861" lon="10.689852092777757"><ele>119.0</ele><time>2026-04-11T13:20:17Z</time></trkpt><trkpt lat="43.91357551930216" lon="10.689691728766242"><ele>119.0</ele><time>2026-04-11T13:20:19Z</time></trkpt><trkpt lat="43.91352866658116" lon="10.689588772335975"><ele>119.0</ele><time>2026-04-11T13:20:20Z</time></trkpt><trkpt lat="43.91345682361692" lon="10.689512050390183"><ele>119.0</ele><time>2026-04-11T13:20:21Z</time></trkpt><trkpt lat="43.91340146703744" lon="10.689448142296193"><ele>119.0</ele><time>2026-04-11T13:20:22Z</time></trkpt><trkpt lat="43.913347420979434" lon="10.689373146464849"><ele>118.99999999999999</ele><time>2026-04-11T13:20:24Z</time></trkpt><trkpt lat="43.913293089424315" lon="10.689420762503984"><ele>119.0</ele><time>2026-04-11T13:20:33Z</time></trkpt><trkpt lat="43.913357790727204" lon="10.689446697264241"><ele>119.0</ele><time>2026-04-11T13:21:18Z</time></trkpt><trkpt lat="43.91345211274491" lon="10.689566074883578"><ele>119.0</ele><time>2026-04-11T13:21:20Z</time></trkpt><trkpt lat="43.913506556027315" lon="10.689638587485687"><ele>118.99999999999999</ele><time>2026-04-11T13:21:21Z</time></trkpt><trkpt lat="43.913548422774745" lon="10.689711397194229"><ele>119.0</ele><time>2026-04-11T13:21:22Z</time></trkpt><trkpt lat="43.91361850857286" lon="10.689854786141945"><ele>118.99999999999999</ele><time>2026-04-11T13:21:24Z</time></trkpt><trkpt lat="43.913656829623875" lon="10.689932689534153"><ele>119.0</ele><time>2026-04-11T13:21:25Z</time></trkpt><trkpt lat="43.91369016648641" lon="10.690012187667692"><ele>119.0</ele><time>2026-04-11T13:21:26Z</time></trkpt><trkpt lat="43.913726834751564" lon="10.690138144495355"><ele>119.0</ele><time>2026-04-11T13:21:28Z</time></trkpt><trkpt lat="43.913774651544095" lon="10.69022369816607"><ele>118.99999999999999</ele><time>2026-04-11T13:21:30Z</time></trkpt><trkpt lat="43.91383028478738" lon="10.690278614522446"><ele>119.0</ele><time>2026-04-11T13:21:31Z</time></trkpt><trkpt lat="43.913892301326975" lon="10.690335398795083"><ele>118.80000000000001</ele><time>2026-04-11T13:21:32Z</time></trkpt><trkpt lat="43.91395369488319" lon="10.69041248806289"><ele>118.60000000000001</ele><time>2026-04-11T13:21:33Z</time></trkpt><trkpt lat="43.91403435873588" lon="10.690508260052267"><ele>118.4</ele><time>2026-04-11T13:21:34Z</time></trkpt><trkpt lat="43.91410448795642" lon="10.690592491698457"><ele>118.2</ele><time>2026-04-11T13:21:35Z</time></trkpt><trkpt lat="43.91417658494958" lon="10.69066069164956"><ele>118.0</ele><time>2026-04-11T13:21:36Z</time></trkpt><trkpt lat="43.91425051321507" lon="10.690716025490381"><ele>118.0</ele><time>2026-04-11T13:21:37Z</time></trkpt><trkpt lat="43.9143289437437" lon="10.690758493161058"><ele>118.00000000000001</ele><time>2026-04-11T13:21:38Z</time></trkpt><trkpt lat="43.914416265212914" lon="10.690800525706136"><ele>118.00000000000001</ele><time>2026-04-11T13:21:39Z</time></trkpt><trkpt lat="43.914508208101644" lon="10.690861145757397"><ele>118.0</ele><time>2026-04-11T13:21:40Z</time></trkpt><trkpt lat="43.91458448163473" lon="10.690936422680261"><ele>118.0</ele><time>2026-04-11T13:21:41Z</time></trkpt><trkpt lat="43.91464329828389" lon="10.691039971256787"><ele>115.0</ele><time>2026-04-11T13:21:42Z</time></trkpt><trkpt lat="43.914704020735144" lon="10.691137515511054"><ele>112.00000000000001</ele><time>2026-04-11T13:21:43Z</time></trkpt><trkpt lat="43.914765400718196" lon="10.691239493682216"><ele>109.0</ele><time>2026-04-11T13:21:44Z</time></trkpt><trkpt lat="43.91483002864453" lon="10.69133893197505"><ele>106.0</ele><time>2026-04-11T13:21:45Z</time></trkpt><trkpt lat="43.91488328769126" lon="10.69145443715098"><ele>103.0</ele><time>2026-04-11T13:21:46Z</time></trkpt><trkpt lat="43.914923828384" lon="10.691577154814443"><ele>103.00000000000001</ele><time>2026-04-11T13:21:47Z</time></trkpt><trkpt lat="43.9149714046493" lon="10.691691201126602"><ele>103.0</ele><time>2026-04-11T13:21:48Z</time></trkpt><trkpt lat="43.9150341102569" lon="10.691786578652845"><ele>103.0</ele><time>2026-04-11T13:21:49Z</time></trkpt><trkpt lat="43.91510037648829" lon="10.691839809617246"><ele>103.0</ele><time>2026-04-11T13:21:50Z</time></trkpt><trkpt lat="43.91517550036712" lon="10.691841840185868"><ele>103.00000000000001</ele><time>2026-04-11T13:21:51Z</time></trkpt><trkpt lat="43.915234038897594" lon="10.691804448204492"><ele>103.0</ele><time>2026-04-11T13:21:52Z</time></trkpt><trkpt lat="43.91528988944738" lon="10.6917088028662"><ele>106.0</ele><time>2026-04-11T13:21:53Z</time></trkpt><trkpt lat="43.91529001699601" lon="10.69159545113528"><ele>109.0</ele><time>2026-04-11T13:21:54Z</time></trkpt><trkpt lat="43.91526154147071" lon="10.6914697137106"><ele>112.00000000000001</ele><time>2026-04-11T13:21:55Z</time></trkpt><trkpt lat="43.915197801842446" lon="10.691316857253426"><ele>115.0</ele><time>2026-04-11T13:21:56Z</time></trkpt><trkpt lat="43.915130751835505" lon="10.691187745499635"><ele>118.0</ele><time>2026-04-11T13:21:57Z</time></trkpt><trkpt lat="43.91506350540675" lon="10.691060466796438"><ele>118.00000000000001</ele><time>2026-04-11T13:21:58Z</time></trkpt><trkpt lat="43.9150063511051" lon="10.690936919408843"><ele>118.0</ele><time>2026-04-11T13:21:59Z</time></trkpt><trkpt lat="43.914964394694294" lon="10.690827037662453"><ele>118.0</ele><time>2026-04-11T13:22:00Z</time></trkpt><trkpt lat="43.91497148718514" lon="10.690729722841324"><ele>118.0</ele><time>2026-04-11T13:22:01Z</time></trkpt><trkpt lat="43.91501156696195" lon="10.69065674977988"><ele>118.00000000000001</ele><time>2026-04-11T13:22:02Z</time></trkpt><trkpt lat="43.9150923767001" lon="10.690664387928468"><ele>118.0</ele><time>2026-04-11T13:22:03Z</time></trkpt><trkpt lat="43.91515101086966" lon="10.690698365591784"><ele>121.4</ele><time>2026-04-11T13:22:04Z</time></trkpt><trkpt lat="43.91522167191098" lon="10.6908122336964"><ele>124.80000000000001</ele><time>2026-04-11T13:22:05Z</time></trkpt><trkpt lat="43.91530047959297" lon="10.690896802772128"><ele>128.2</ele><time>2026-04-11T13:22:06Z</time></trkpt><trkpt lat="43.91538597306823" lon="10.690962495675475"><ele>131.6</ele><time>2026-04-11T13:22:07Z</time></trkpt><trkpt lat="43.915472999688454" lon="10.690997455107222"><ele>135.0</ele><time>2026-04-11T13:22:08Z</time></trkpt><trkpt lat="43.915551505075264" lon="10.690995835809343"><ele>135.0</ele><time>2026-04-11T13:22:09Z</time></trkpt><trkpt lat="43.91565633785984" lon="10.690938216855125"><ele>135.0</ele><time>2026-04-11T13:22:10Z</time></trkpt><trkpt lat="43.91573565588179" lon="10.690868334402637"><ele>135.0</ele><time>2026-04-11T13:22:11Z</time></trkpt><trkpt lat="43.91581153964087" lon="10.6908045630342"><ele>135.0</ele><time>2026-04-11T13:22:12Z</time></trkpt><trkpt lat="43.915897952838" lon="10.690770238634482"><ele>135.0</ele><time>2026-04-11T13:22:13Z</time></trkpt><trkpt lat="43.91599049019962" lon="10.690753733042573"><ele>137.4</ele><time>2026-04-11T13:22:14Z</time></trkpt><trkpt lat="43.916093462002266" lon="10.690746911327757"><ele>139.8</ele><time>2026-04-11T13:22:15Z</time></trkpt><trkpt lat="43.91619685111028" lon="10.69071801186727"><ele>142.2</ele><time>2026-04-11T13:22:16Z</time></trkpt><trkpt lat="43.916285545866856" lon="10.690641785384601"><ele>144.6</ele><time>2026-04-11T13:22:17Z</time></trkpt><trkpt lat="43.91638310984676" lon="10.690542687167751"><ele>147.0</ele><time>2026-04-11T13:22:18Z</time></trkpt><trkpt lat="43.91646586384428" lon="10.690442135646588"><ele>147.0</ele><time>2026-04-11T13:22:19Z</time></trkpt><trkpt lat="43.91647171233947" lon="10.690285159982958"><ele>147.0</ele><time>2026-04-11T13:22:20Z</time></trkpt><trkpt lat="43.916526471523966" lon="10.690177238872257"><ele>147.0</ele><time>2026-04-11T13:22:21Z</time></trkpt><trkpt lat="43.916602420584475" lon="10.690089018217536"><ele>147.0</ele><time>2026-04-11T13:22:22Z</time></trkpt><trkpt lat="43.91667308106202" lon="10.690006655595086"><ele>147.0</ele><time>2026-04-11T13:22:23Z</time></trkpt><trkpt lat="43.91674492176834" lon="10.689938398430792"><ele>151.0</ele><time>2026-04-11T13:22:24Z</time></trkpt><trkpt lat="43.91682797280841" lon="10.689858473667813"><ele>155.0</ele><time>2026-04-11T13:22:25Z</time></trkpt><trkpt lat="43.91691201654436" lon="10.689797308460918"><ele>159.0</ele><time>2026-04-11T13:22:26Z</time></trkpt><trkpt lat="43.91698925719017" lon="10.68973457050821"><ele>163.0</ele><time>2026-04-11T13:22:27Z</time></trkpt><trkpt lat="43.91705774625995" lon="10.689689687780863"><ele>167.0</ele><time>2026-04-11T13:22:28Z</time></trkpt><trkpt lat="43.91712095916134" lon="10.689654716650006"><ele>171.0</ele><time>2026-04-11T13:22:29Z</time></trkpt><trkpt lat="43.917225403905064" lon="10.689645648014814"><ele>170.99999999999997</ele><time>2026-04-11T13:22:31Z</time></trkpt><trkpt lat="43.917247934123985" lon="10.689736726934665"><ele>171.0</ele><time>2026-04-11T13:22:32Z</time></trkpt><trkpt lat="43.917239274199076" lon="10.689826285602136"><ele>171.0</ele><time>2026-04-11T13:22:33Z</time></trkpt><trkpt lat="43.91720831687234" lon="10.689941163293833"><ele>171.0</ele><time>2026-04-11T13:22:34Z</time></trkpt><trkpt lat="43.91719626598845" lon="10.690031428857536"><ele>171.0</ele><time>2026-04-11T13:22:35Z</time></trkpt><trkpt lat="43.917181481768615" lon="10.690118725742673"><ele>170.99999999999997</ele><time>2026-04-11T13:22:36Z</time></trkpt><trkpt lat="43.9171805862751" lon="10.69021820024707"><ele>171.0</ele><time>2026-04-11T13:22:37Z</time></trkpt><trkpt lat="43.91718437451644" lon="10.690312456934121"><ele>171.4</ele><time>2026-04-11T13:22:38Z</time></trkpt><trkpt lat="43.917185943401726" lon="10.690419725555955"><ele>171.8</ele><time>2026-04-11T13:22:39Z</time></trkpt><trkpt lat="43.91716784474597" lon="10.690530210339393"><ele>172.20000000000002</ele><time>2026-04-11T13:22:40Z</time></trkpt><trkpt lat="43.9171390777448" lon="10.690642077960966"><ele>172.60000000000002</ele><time>2026-04-11T13:22:41Z</time></trkpt><trkpt lat="43.917087855688635" lon="10.69076057578994"><ele>173.0</ele><time>2026-04-11T13:22:42Z</time></trkpt><trkpt lat="43.91702375443716" lon="10.690879765386022"><ele>173.0</ele><time>2026-04-11T13:22:43Z</time></trkpt><trkpt lat="43.91697287970868" lon="10.690984590970372"><ele>173.0</ele><time>2026-04-11T13:22:44Z</time></trkpt><trkpt lat="43.91694768190204" lon="10.691092794621227"><ele>173.0</ele><time>2026-04-11T13:22:45Z</time></trkpt><trkpt lat="43.9169468882202" lon="10.691191512030318"><ele>173.0</ele><time>2026-04-11T13:22:46Z</time></trkpt><trkpt lat="43.91701412704019" lon="10.691242044304774"><ele>173.0</ele><time>2026-04-11T13:22:47Z</time></trkpt><trkpt lat="43.91713648813204" lon="10.691185434867563"><ele>173.0</ele><time>2026-04-11T13:22:49Z</time></trkpt><trkpt lat="43.91716810184994" lon="10.691090233693947"><ele>173.0</ele><time>2026-04-11T13:22:50Z</time></trkpt><trkpt lat="43.91718760021358" lon="10.690972477716807"><ele>173.0</ele><time>2026-04-11T13:22:51Z</time></trkpt><trkpt lat="43.91722168246737" lon="10.690861693487662"><ele>173.0</ele><time>2026-04-11T13:22:52Z</time></trkpt><trkpt lat="43.917268892013745" lon="10.690741091675443"><ele>173.0</ele><time>2026-04-11T13:22:53Z</time></trkpt><trkpt lat="43.91734114382502" lon="10.690625231005923"><ele>173.0</ele><time>2026-04-11T13:22:54Z</time></trkpt><trkpt lat="43.91742992980892" lon="10.690531791262524"><ele>173.0</ele><time>2026-04-11T13:22:55Z</time></trkpt><trkpt lat="43.91751953368305" lon="10.69046074265204"><ele>173.0</ele><time>2026-04-11T13:22:56Z</time></trkpt><trkpt lat="43.91760835126675" lon="10.690389068133916"><ele>173.0</ele><time>2026-04-11T13:22:57Z</time></trkpt><trkpt lat="43.91769756245992" lon="10.690316672730722"><ele>173.0</ele><time>2026-04-11T13:22:58Z</time></trkpt><trkpt lat="43.917793021083426" lon="10.690257489074247"><ele>173.0</ele><time>2026-04-11T13:22:59Z</time></trkpt><trkpt lat="43.91790104062637" lon="10.690221786515114"><ele>177.4</ele><time>2026-04-11T13:23:00Z</time></trkpt><trkpt lat="43.91800530511938" lon="10.690191401955891"><ele>181.8</ele><time>2026-04-11T13:23:01Z</time></trkpt><trkpt lat="43.91809703029433" lon="10.6901602334635"><ele>186.2</ele><time>2026-04-11T13:23:02Z</time></trkpt><trkpt lat="43.91817898159771" lon="10.690120938263615"><ele>190.6</ele><time>2026-04-11T13:23:03Z</time></trkpt><trkpt lat="43.91822308949135" lon="10.690043851649284"><ele>195.0</ele><time>2026-04-11T13:23:04Z</time></trkpt><trkpt lat="43.91823906211917" lon="10.689919101789316"><ele>195.0</ele><time>2026-04-11T13:23:06Z</time></trkpt><trkpt lat="43.91816911654392" lon="10.68980779356429"><ele>195.0</ele><time>2026-04-11T13:23:20Z</time></trkpt><trkpt lat="43.91807613295875" lon="10.689669672971286"><ele>195.0</ele><time>2026-04-11T13:23:22Z</time></trkpt><trkpt lat="43.91803434118764" lon="10.68956589680159"><ele>195.0</ele><time>2026-04-11T13:23:23Z</time></trkpt><trkpt lat="43.91802356663697" lon="10.689454179937535"><ele>195.0</ele><time>2026-04-11T13:23:24Z</time></trkpt><trkpt lat="43.91802970698797" lon="10.689345046173313"><ele>196.6</ele><time>2026-04-11T13:23:25Z</time></trkpt><trkpt lat="43.91803545375476" lon="10.689202504090321"><ele>198.2</ele><time>2026-04-11T13:23:26Z</time></trkpt><trkpt lat="43.91806020409403" lon="10.689061542212887"><ele>199.8</ele><time>2026-04-11T13:23:27Z</time></trkpt><trkpt lat="43.91808845043756" lon="10.688925251465292"><ele>201.4</ele><time>2026-04-11T13:23:28Z</time></trkpt><trkpt lat="43.918133654917746" lon="10.688794999554384"><ele>203.0</ele><time>2026-04-11T13:23:29Z</time></trkpt><trkpt lat="43.9181733274843" lon="10.688671376512834"><ele>203.50000000000003</ele><time>2026-04-11T13:23:30Z</time></trkpt><trkpt lat="43.91822370248074" lon="10.688558059775808"><ele>204.0</ele><time>2026-04-11T13:23:31Z</time></trkpt><trkpt lat="43.91828685763475" lon="10.688447318237614"><ele>204.5</ele><time>2026-04-11T13:23:32Z</time></trkpt><trkpt lat="43.91834721991355" lon="10.688338202950508"><ele>205.0</ele><time>2026-04-11T13:23:33Z</time></trkpt><trkpt lat="43.918400735998176" lon="10.68825684581574"><ele>205.50000000000003</ele><time>2026-04-11T13:23:34Z</time></trkpt><trkpt lat="43.918444001338564" lon="10.688178052326084"><ele>206.0</ele><time>2026-04-11T13:23:35Z</time></trkpt><trkpt lat="43.91848156178253" lon="10.688093956803469"><ele>206.0</ele><time>2026-04-11T13:23:36Z</time></trkpt><trkpt lat="43.918457058438456" lon="10.687902068716516"><ele>206.0</ele><time>2026-04-11T13:23:38Z</time></trkpt><trkpt lat="43.91838847465048" lon="10.687852868807024"><ele>206.0</ele><time>2026-04-11T13:23:39Z</time></trkpt><trkpt lat="43.9183128058591" lon="10.687827802885863"><ele>206.0</ele><time>2026-04-11T13:23:40Z</time></trkpt><trkpt lat="43.918229915015814" lon="10.687810219856358"><ele>206.0</ele><time>2026-04-11T13:23:41Z</time></trkpt><trkpt lat="43.918140209903896" lon="10.68786059149584"><ele>206.0</ele><time>2026-04-11T13:23:42Z</time></trkpt><trkpt lat="43.91803499285571" lon="10.687917654998436"><ele>206.0</ele><time>2026-04-11T13:23:43Z</time></trkpt><trkpt lat="43.9179375592147" lon="10.687956233337575"><ele>206.0</ele><time>2026-04-11T13:23:44Z</time></trkpt><trkpt lat="43.91784050854595" lon="10.688007298025505"><ele>206.0</ele><time>2026-04-11T13:23:45Z</time></trkpt><trkpt lat="43.917746086509325" lon="10.6880722698282"><ele>206.0</ele><time>2026-04-11T13:23:46Z</time></trkpt><trkpt lat="43.917662129237996" lon="10.688149268004073"><ele>206.0</ele><time>2026-04-11T13:23:47Z</time></trkpt><trkpt lat="43.9175803883927" lon="10.688243361613013"><ele>206.0</ele><time>2026-04-11T13:23:48Z</time></trkpt><trkpt lat="43.91749657456583" lon="10.688324000769668"><ele>206.0</ele><time>2026-04-11T13:23:49Z</time></trkpt><trkpt lat="43.917410615478516" lon="10.688380990249032"><ele>206.0</ele><time>2026-04-11T13:23:50Z</time></trkpt><trkpt lat="43.917327761601946" lon="10.688403797604543"><ele>206.0</ele><time>2026-04-11T13:23:51Z</time></trkpt><trkpt lat="43.91724585608901" lon="10.68844897651962"><ele>207.66666666666669</ele><time>2026-04-11T13:23:52Z</time></trkpt><trkpt lat="43.91716339583613" lon="10.688479168123349"><ele>209.33333333333334</ele><time>2026-04-11T13:23:53Z</time></trkpt><trkpt lat="43.91707583827757" lon="10.688494120069805"><ele>211.0</ele><time>2026-04-11T13:23:54Z</time></trkpt><trkpt lat="43.916989207395105" lon="10.688501924345784"><ele>212.66666666666669</ele><time>2026-04-11T13:23:55Z</time></trkpt><trkpt lat="43.91690964362403" lon="10.68851645884837"><ele>214.33333333333334</ele><time>2026-04-11T13:23:56Z</time></trkpt><trkpt lat="43.91683553236489" lon="10.68854423922272"><ele>216.0</ele><time>2026-04-11T13:23:57Z</time></trkpt><trkpt lat="43.91676187150918" lon="10.688596475119217"><ele>212.85714285714286</ele><time>2026-04-11T13:23:58Z</time></trkpt><trkpt lat="43.91670058846009" lon="10.688622222639495"><ele>209.71428571428572</ele><time>2026-04-11T13:23:59Z</time></trkpt><trkpt lat="43.91663137566955" lon="10.688637906740304"><ele>206.57142857142856</ele><time>2026-04-11T13:24:00Z</time></trkpt><trkpt lat="43.91655937912752" lon="10.688672771527115"><ele>203.42857142857144</ele><time>2026-04-11T13:24:01Z</time></trkpt><trkpt lat="43.91649451613918" lon="10.688697691582792"><ele>200.2857142857143</ele><time>2026-04-11T13:24:02Z</time></trkpt><trkpt lat="43.91643151688633" lon="10.688702873487266"><ele>197.14285714285714</ele><time>2026-04-11T13:24:03Z</time></trkpt><trkpt lat="43.91635317545873" lon="10.688695584244654"><ele>194.0</ele><time>2026-04-11T13:24:04Z</time></trkpt><trkpt lat="43.91629566720077" lon="10.688612213446431"><ele>200.2</ele><time>2026-04-11T13:24:05Z</time></trkpt><trkpt lat="43.91629086223516" lon="10.688483012375643"><ele>206.39999999999998</ele><time>2026-04-11T13:24:06Z</time></trkpt><trkpt lat="43.916262796741236" lon="10.688358368948265"><ele>212.6</ele><time>2026-04-11T13:24:07Z</time></trkpt><trkpt lat="43.91623563685749" lon="10.688234913481576"><ele>218.8</ele><time>2026-04-11T13:24:08Z</time></trkpt><trkpt lat="43.916181391613264" lon="10.688112397941794"><ele>225.0</ele><time>2026-04-11T13:24:09Z</time></trkpt><trkpt lat="43.916115361746186" lon="10.687991832507326"><ele>225.0</ele><time>2026-04-11T13:24:10Z</time></trkpt><trkpt lat="43.91608159263735" lon="10.687852234418557"><ele>225.0</ele><time>2026-04-11T13:24:11Z</time></trkpt><trkpt lat="43.91606417149504" lon="10.687715785539101"><ele>225.0</ele><time>2026-04-11T13:24:12Z</time></trkpt><trkpt lat="43.916070466375636" lon="10.687576739756741"><ele>225.0</ele><time>2026-04-11T13:24:13Z</time></trkpt><trkpt lat="43.916080034537124" lon="10.687437039458162"><ele>225.0</ele><time>2026-04-11T13:24:14Z</time></trkpt><trkpt lat="43.916101931607166" lon="10.687296618985412"><ele>230.8</ele><time>2026-04-11T13:24:15Z</time></trkpt><trkpt lat="43.916121785719405" lon="10.687157954237545"><ele>236.6</ele><time>2026-04-11T13:24:16Z</time></trkpt><trkpt lat="43.91618048032044" lon="10.687048730725936"><ele>242.39999999999998</ele><time>2026-04-11T13:24:17Z</time></trkpt><trkpt lat="43.916247659345984" lon="10.686940516713765"><ele>248.2</ele><time>2026-04-11T13:24:18Z</time></trkpt><trkpt lat="43.91635221482079" lon="10.686858215217049"><ele>254.0</ele><time>2026-04-11T13:24:19Z</time></trkpt><trkpt lat="43.91643338655341" lon="10.68676242022057"><ele>254.66666666666669</ele><time>2026-04-11T13:24:20Z</time></trkpt><trkpt lat="43.91648166008956" lon="10.686677137388664"><ele>255.33333333333334</ele><time>2026-04-11T13:24:21Z</time></trkpt><trkpt lat="43.91649624807764" lon="10.686585566463636"><ele>256.0</ele><time>2026-04-11T13:24:22Z</time></trkpt><trkpt lat="43.91639442831363" lon="10.686508153980366"><ele>256.6666666666667</ele><time>2026-04-11T13:24:24Z</time></trkpt><trkpt lat="43.916327452658585" lon="10.686475140872465"><ele>257.3333333333333</ele><time>2026-04-11T13:24:25Z</time></trkpt><trkpt lat="43.916218714380854" lon="10.686437362127442"><ele>258.0</ele><time>2026-04-11T13:24:26Z</time></trkpt><trkpt lat="43.91613062624375" lon="10.686391227980737"><ele>258.0</ele><time>2026-04-11T13:24:27Z</time></trkpt><trkpt lat="43.91604130838478" lon="10.686358077419555"><ele>258.0</ele><time>2026-04-11T13:24:28Z</time></trkpt><trkpt lat="43.9159670895797" lon="10.686297172271402"><ele>258.0</ele><time>2026-04-11T13:24:29Z</time></trkpt><trkpt lat="43.91590746970195" lon="10.686232193025692"><ele>258.0</ele><time>2026-04-11T13:24:30Z</time></trkpt><trkpt lat="43.915857329696635" lon="10.68617187374058"><ele>258.0</ele><time>2026-04-11T13:24:31Z</time></trkpt><trkpt lat="43.91578788514738" lon="10.686142497301569"><ele>258.0</ele><time>2026-04-11T13:24:32Z</time></trkpt><trkpt lat="43.915735047451285" lon="10.686215411086069"><ele>256.5</ele><time>2026-04-11T13:24:33Z</time></trkpt><trkpt lat="43.91566660339987" lon="10.686290546106772"><ele>255.0</ele><time>2026-04-11T13:24:34Z</time></trkpt><trkpt lat="43.915612748821005" lon="10.686372616723476"><ele>253.5</ele><time>2026-04-11T13:24:35Z</time></trkpt><trkpt lat="43.91554463798048" lon="10.686462083417915"><ele>252.0</ele><time>2026-04-11T13:24:36Z</time></trkpt><trkpt lat="43.91546679140902" lon="10.686521770197563"><ele>250.5</ele><time>2026-04-11T13:24:37Z</time></trkpt><trkpt lat="43.91539077413444" lon="10.686564000045001"><ele>249.0</ele><time>2026-04-11T13:24:38Z</time></trkpt><trkpt lat="43.91531198466106" lon="10.686630294603539"><ele>249.0</ele><time>2026-04-11T13:24:39Z</time></trkpt><trkpt lat="43.91521210128288" lon="10.686713074868898"><ele>248.99999999999997</ele><time>2026-04-11T13:24:40Z</time></trkpt><trkpt lat="43.915115834868935" lon="10.686781239498853"><ele>248.99999999999997</ele><time>2026-04-11T13:24:41Z</time></trkpt><trkpt lat="43.91504218412102" lon="10.686851429307518"><ele>249.0</ele><time>2026-04-11T13:24:42Z</time></trkpt><trkpt lat="43.91497294475955" lon="10.68693131876518"><ele>249.0</ele><time>2026-04-11T13:24:43Z</time></trkpt><trkpt lat="43.914900519358525" lon="10.687032764988428"><ele>250.33333333333334</ele><time>2026-04-11T13:24:44Z</time></trkpt><trkpt lat="43.91483292210129" lon="10.687113308003227"><ele>251.66666666666669</ele><time>2026-04-11T13:24:45Z</time></trkpt><trkpt lat="43.91475763251273" lon="10.687141810948132"><ele>253.0</ele><time>2026-04-11T13:24:46Z</time></trkpt><trkpt lat="43.9146867370882" lon="10.687149675053679"><ele>254.33333333333334</ele><time>2026-04-11T13:24:47Z</time></trkpt><trkpt lat="43.914610335934356" lon="10.687110049843763"><ele>255.66666666666669</ele><time>2026-04-11T13:24:48Z</time></trkpt><trkpt lat="43.91456079620777" lon="10.687031292073959"><ele>257.0</ele><time>2026-04-11T13:24:49Z</time></trkpt><trkpt lat="43.91453781599719" lon="10.686913537182836"><ele>257.0</ele><time>2026-04-11T13:24:50Z</time></trkpt><trkpt lat="43.91452601190525" lon="10.68680177819248"><ele>257.0</ele><time>2026-04-11T13:24:51Z</time></trkpt><trkpt lat="43.91454192998886" lon="10.68669607463187"><ele>257.0</ele><time>2026-04-11T13:24:52Z</time></trkpt><trkpt lat="43.914581837420485" lon="10.68659054765058"><ele>257.0</ele><time>2026-04-11T13:24:53Z</time></trkpt><trkpt lat="43.91464726843654" lon="10.686494098729646"><ele>257.0</ele><time>2026-04-11T13:24:54Z</time></trkpt><trkpt lat="43.914710587992836" lon="10.68641376710882"><ele>257.0</ele><time>2026-04-11T13:24:55Z</time></trkpt><trkpt lat="43.914783358188345" lon="10.686353314195317"><ele>257.0</ele><time>2026-04-11T13:24:56Z</time></trkpt><trkpt lat="43.914860084487756" lon="10.686295773949066"><ele>257.0</ele><time>2026-04-11T13:24:57Z</time></trkpt><trkpt lat="43.914924096672394" lon="10.686264180925136"><ele>257.0</ele><time>2026-04-11T13:24:58Z</time></trkpt><trkpt lat="43.915031728231206" lon="10.686249571516171"><ele>257.0</ele><time>2026-04-11T13:25:00Z</time></trkpt><trkpt lat="43.91505807483352" lon="10.686134549951458"><ele>257.0</ele><time>2026-04-11T13:25:19Z</time></trkpt><trkpt lat="43.91503854519433" lon="10.686042972188178"><ele>257.0</ele><time>2026-04-11T13:25:20Z</time></trkpt><trkpt lat="43.91502115136436" lon="10.685958851307568"><ele>259.83333333333337</ele><time>2026-04-11T13:25:21Z</time></trkpt><trkpt lat="43.91498675052817" lon="10.685881210063657"><ele>262.6666666666667</ele><time>2026-04-11T13:25:22Z</time></trkpt><trkpt lat="43.9149338831413" lon="10.685790296991522"><ele>265.5</ele><time>2026-04-11T13:25:23Z</time></trkpt><trkpt lat="43.914870698101616" lon="10.685718171808887"><ele>268.3333333333333</ele><time>2026-04-11T13:25:24Z</time></trkpt><trkpt lat="43.9148077065347" lon="10.685701965053246"><ele>271.16666666666663</ele><time>2026-04-11T13:25:25Z</time></trkpt><trkpt lat="43.91472194868284" lon="10.685646791319344"><ele>274.0</ele><time>2026-04-11T13:25:26Z</time></trkpt><trkpt lat="43.91464547709841" lon="10.685584387839453"><ele>274.0</ele><time>2026-04-11T13:25:27Z</time></trkpt><trkpt lat="43.91455493911703" lon="10.685533289986896"><ele>274.0</ele><time>2026-04-11T13:25:28Z</time></trkpt><trkpt lat="43.914451943825526" lon="10.685503720244231"><ele>274.0</ele><time>2026-04-11T13:25:29Z</time></trkpt><trkpt lat="43.914358617564126" lon="10.685471673368895"><ele>274.0</ele><time>2026-04-11T13:25:30Z</time></trkpt><trkpt lat="43.914287102937244" lon="10.68543043075153"><ele>274.0</ele><time>2026-04-11T13:25:31Z</time></trkpt><trkpt lat="43.914173645580135" lon="10.685361420055449"><ele>273.5</ele><time>2026-04-11T13:25:33Z</time></trkpt><trkpt lat="43.9141497040974" lon="10.685263466790195"><ele>273.0</ele><time>2026-04-11T13:25:34Z</time></trkpt><trkpt lat="43.91413278528333" lon="10.685172988598582"><ele>272.5</ele><time>2026-04-11T13:25:35Z</time></trkpt><trkpt lat="43.914091508506495" lon="10.68505384584836"><ele>272.0</ele><time>2026-04-11T13:25:37Z</time></trkpt><trkpt lat="43.914095939070464" lon="10.68495415849535"><ele>271.5</ele><time>2026-04-11T13:25:40Z</time></trkpt><trkpt lat="43.91404438805103" lon="10.685036876338756"><ele>271.0</ele><time>2026-04-11T13:25:50Z</time></trkpt><trkpt lat="43.91408192146586" lon="10.685175746115068"><ele>271.42857142857144</ele><time>2026-04-11T13:25:52Z</time></trkpt><trkpt lat="43.914118785196415" lon="10.685265716783714"><ele>271.8571428571429</ele><time>2026-04-11T13:25:53Z</time></trkpt><trkpt lat="43.9141577501837" lon="10.685342664765264"><ele>272.28571428571433</ele><time>2026-04-11T13:25:54Z</time></trkpt><trkpt lat="43.91421837292335" lon="10.685397937288712"><ele>272.7142857142857</ele><time>2026-04-11T13:25:55Z</time></trkpt><trkpt lat="43.914281088199" lon="10.685448042790313"><ele>273.14285714285717</ele><time>2026-04-11T13:25:56Z</time></trkpt><trkpt lat="43.91435312846612" lon="10.685482778267348"><ele>273.5714285714286</ele><time>2026-04-11T13:25:57Z</time></trkpt><trkpt lat="43.914429462499285" lon="10.685503223060385"><ele>274.0</ele><time>2026-04-11T13:25:58Z</time></trkpt><trkpt lat="43.914510059098184" lon="10.68552582184193"><ele>274.0</ele><time>2026-04-11T13:25:59Z</time></trkpt><trkpt lat="43.91460237793757" lon="10.685559640278932"><ele>274.0</ele><time>2026-04-11T13:26:00Z</time></trkpt><trkpt lat="43.91465621404895" lon="10.6856135760528"><ele>274.0</ele><time>2026-04-11T13:26:01Z</time></trkpt><trkpt lat="43.91474180200416" lon="10.685690895981404"><ele>274.0</ele><time>2026-04-11T13:26:02Z</time></trkpt><trkpt lat="43.91482804041614" lon="10.685753762006406"><ele>274.0</ele><time>2026-04-11T13:26:03Z</time></trkpt><trkpt lat="43.91493151946374" lon="10.685818481202405"><ele>274.0</ele><time>2026-04-11T13:26:04Z</time></trkpt><trkpt lat="43.91499117072787" lon="10.68592200872058"><ele>274.0</ele><time>2026-04-11T13:26:05Z</time></trkpt><trkpt lat="43.91503418820664" lon="10.686038745776585"><ele>274.0</ele><time>2026-04-11T13:26:06Z</time></trkpt><trkpt lat="43.915057030656975" lon="10.686136381631618"><ele>274.0</ele><time>2026-04-11T13:26:07Z</time></trkpt><trkpt lat="43.915056235590086" lon="10.686281888394603"><ele>274.0</ele><time>2026-04-11T13:26:09Z</time></trkpt><trkpt lat="43.91511349134845" lon="10.686321934609593"><ele>274.0</ele><time>2026-04-11T13:26:10Z</time></trkpt><trkpt lat="43.91523369518719" lon="10.686280443540046"><ele>274.3333333333333</ele><time>2026-04-11T13:26:12Z</time></trkpt><trkpt lat="43.9152892298221" lon="10.686237728374483"><ele>274.66666666666663</ele><time>2026-04-11T13:26:13Z</time></trkpt><trkpt lat="43.915347261104365" lon="10.686176552859376"><ele>275.0</ele><time>2026-04-11T13:26:14Z</time></trkpt><trkpt lat="43.91539172537123" lon="10.686094515560972"><ele>275.3333333333333</ele><time>2026-04-11T13:26:15Z</time></trkpt><trkpt lat="43.915411737014864" lon="10.686008142336785"><ele>275.6666666666667</ele><time>2026-04-11T13:26:16Z</time></trkpt><trkpt lat="43.91537691043869" lon="10.685889809654832"><ele>276.0</ele><time>2026-04-11T13:26:18Z</time></trkpt><trkpt lat="43.91528006796016" lon="10.68583501103797"><ele>276.0</ele><time>2026-04-11T13:26:20Z</time></trkpt><trkpt lat="43.91517450975081" lon="10.685739072169953"><ele>276.0</ele><time>2026-04-11T13:26:22Z</time></trkpt><trkpt lat="43.915109839786325" lon="10.685679423048486"><ele>276.0</ele><time>2026-04-11T13:26:23Z</time></trkpt><trkpt lat="43.91504606951473" lon="10.685604671131115"><ele>276.0</ele><time>2026-04-11T13:26:24Z</time></trkpt><trkpt lat="43.91497007672207" lon="10.685525135055896"><ele>276.0</ele><time>2026-04-11T13:26:25Z</time></trkpt><trkpt lat="43.914894574641146" lon="10.685435297210296"><ele>275.6666666666667</ele><time>2026-04-11T13:26:26Z</time></trkpt><trkpt lat="43.914808303003646" lon="10.685346454006874"><ele>275.3333333333333</ele><time>2026-04-11T13:26:27Z</time></trkpt><trkpt lat="43.914740451228006" lon="10.685248358197839"><ele>275.0</ele><time>2026-04-11T13:26:28Z</time></trkpt><trkpt lat="43.91467654472825" lon="10.685184422383374"><ele>274.66666666666663</ele><time>2026-04-11T13:26:29Z</time></trkpt><trkpt lat="43.91459742136498" lon="10.68514755074218"><ele>274.3333333333333</ele><time>2026-04-11T13:26:30Z</time></trkpt><trkpt lat="43.91452663433489" lon="10.68511479879301"><ele>274.0</ele><time>2026-04-11T13:26:31Z</time></trkpt><trkpt lat="43.9144536498674" lon="10.685071250140304"><ele>278.0</ele><time>2026-04-11T13:26:32Z</time></trkpt><trkpt lat="43.91444484301248" lon="10.684900662949131"><ele>282.0</ele><time>2026-04-11T13:26:34Z</time></trkpt><trkpt lat="43.91453699430824" lon="10.684838034527177"><ele>286.0</ele><time>2026-04-11T13:26:36Z</time></trkpt><trkpt lat="43.91458397351911" lon="10.6848971064749"><ele>290.0</ele><time>2026-04-11T13:26:37Z</time></trkpt><trkpt lat="43.91463692628677" lon="10.68494988960665"><ele>294.0</ele><time>2026-04-11T13:26:38Z</time></trkpt><trkpt lat="43.91473626402224" lon="10.685012547660236"><ele>294.0</ele><time>2026-04-11T13:26:40Z</time></trkpt><trkpt lat="43.914858913503835" lon="10.685009403971303"><ele>294.0</ele><time>2026-04-11T13:26:42Z</time></trkpt><trkpt lat="43.91493252223047" lon="10.684987354520228"><ele>294.0</ele><time>2026-04-11T13:26:43Z</time></trkpt><trkpt lat="43.91501395357052" lon="10.684986724337952"><ele>294.0</ele><time>2026-04-11T13:26:44Z</time></trkpt><trkpt lat="43.91511118918649" lon="10.684985645883998"><ele>294.0</ele><time>2026-04-11T13:26:45Z</time></trkpt><trkpt lat="43.91520068658923" lon="10.68499099790685"><ele>296.3333333333333</ele><time>2026-04-11T13:26:46Z</time></trkpt><trkpt lat="43.91528601990289" lon="10.685017045699606"><ele>298.6666666666667</ele><time>2026-04-11T13:26:47Z</time></trkpt><trkpt lat="43.91535777086574" lon="10.685044281137081"><ele>301.0</ele><time>2026-04-11T13:26:48Z</time></trkpt><trkpt lat="43.91543943102881" lon="10.685039765065959"><ele>303.33333333333337</ele><time>2026-04-11T13:26:49Z</time></trkpt><trkpt lat="43.91552070683311" lon="10.684997681995387"><ele>305.6666666666667</ele><time>2026-04-11T13:26:50Z</time></trkpt><trkpt lat="43.91559858597793" lon="10.684933312340018"><ele>308.0</ele><time>2026-04-11T13:26:51Z</time></trkpt><trkpt lat="43.915673266734004" lon="10.684876579200239"><ele>308.0</ele><time>2026-04-11T13:26:52Z</time></trkpt><trkpt lat="43.915762418995364" lon="10.684836157407418"><ele>308.0</ele><time>2026-04-11T13:26:53Z</time></trkpt><trkpt lat="43.915842701612284" lon="10.684806549009787"><ele>308.0</ele><time>2026-04-11T13:26:54Z</time></trkpt><trkpt lat="43.915912324910174" lon="10.68478229845294"><ele>308.0</ele><time>2026-04-11T13:26:55Z</time></trkpt><trkpt lat="43.91597407700471" lon="10.684756493796227"><ele>308.0</ele><time>2026-04-11T13:26:56Z</time></trkpt><trkpt lat="43.916074969827456" lon="10.684734417075527"><ele>308.0</ele><time>2026-04-11T13:26:58Z</time></trkpt><trkpt lat="43.91616077598523" lon="10.684731617381395"><ele>309.6666666666667</ele><time>2026-04-11T13:27:21Z</time></trkpt><trkpt lat="43.916289823398785" lon="10.684775047004143"><ele>311.33333333333337</ele><time>2026-04-11T13:27:23Z</time></trkpt><trkpt lat="43.916358149309524" lon="10.684799191670352"><ele>313.0</ele><time>2026-04-11T13:27:24Z</time></trkpt><trkpt lat="43.91643050501758" lon="10.684852408913585"><ele>314.6666666666667</ele><time>2026-04-11T13:27:25Z</time></trkpt><trkpt lat="43.91650748236628" lon="10.6848804775921"><ele>316.3333333333333</ele><time>2026-04-11T13:27:26Z</time></trkpt><trkpt lat="43.91657721196002" lon="10.684893672316083"><ele>318.0</ele><time>2026-04-11T13:27:27Z</time></trkpt><trkpt lat="43.916665543182276" lon="10.684871683883104"><ele>318.0</ele><time>2026-04-11T13:27:28Z</time></trkpt><trkpt lat="43.91673221464448" lon="10.68482690474468"><ele>318.0</ele><time>2026-04-11T13:27:29Z</time></trkpt><trkpt lat="43.91681325689875" lon="10.684816382538838"><ele>318.0</ele><time>2026-04-11T13:27:30Z</time></trkpt><trkpt lat="43.916883910496004" lon="10.684859097811069"><ele>318.0</ele><time>2026-04-11T13:27:31Z</time></trkpt><trkpt lat="43.91696916018342" lon="10.684863744103247"><ele>318.0</ele><time>2026-04-11T13:27:32Z</time></trkpt><trkpt lat="43.91704670317047" lon="10.68488364326106"><ele>318.0</ele><time>2026-04-11T13:27:33Z</time></trkpt><trkpt lat="43.91712373504625" lon="10.6849133343117"><ele>319.8333333333333</ele><time>2026-04-11T13:27:34Z</time></trkpt><trkpt lat="43.91719728449166" lon="10.684939625301062"><ele>321.6666666666667</ele><time>2026-04-11T13:27:35Z</time></trkpt><trkpt lat="43.91727731422822" lon="10.684941188204693"><ele>323.5</ele><time>2026-04-11T13:27:36Z</time></trkpt><trkpt lat="43.91736364939996" lon="10.684926770560375"><ele>325.33333333333337</ele><time>2026-04-11T13:27:37Z</time></trkpt><trkpt lat="43.91744494061294" lon="10.684921352956502"><ele>327.1666666666667</ele><time>2026-04-11T13:27:38Z</time></trkpt><trkpt lat="43.917545174576055" lon="10.684936763985853"><ele>329.0</ele><time>2026-04-11T13:27:39Z</time></trkpt><trkpt lat="43.91762299467408" lon="10.684985801194548"><ele>331.1666666666667</ele><time>2026-04-11T13:27:40Z</time></trkpt><trkpt lat="43.91770846740106" lon="10.685014120217781"><ele>333.33333333333337</ele><time>2026-04-11T13:27:41Z</time></trkpt><trkpt lat="43.91778991125991" lon="10.685063212486002"><ele>335.5</ele><time>2026-04-11T13:27:42Z</time></trkpt><trkpt lat="43.917871457304344" lon="10.685122974076956"><ele>337.6666666666667</ele><time>2026-04-11T13:27:43Z</time></trkpt><trkpt lat="43.91794515619713" lon="10.68517088526488"><ele>339.8333333333333</ele><time>2026-04-11T13:27:44Z</time></trkpt><trkpt lat="43.91801772556217" lon="10.685194119415954"><ele>342.0</ele><time>2026-04-11T13:27:45Z</time></trkpt><trkpt lat="43.91809196595955" lon="10.685105758224969"><ele>342.0</ele><time>2026-04-11T13:27:47Z</time></trkpt><trkpt lat="43.91808972136749" lon="10.685012275892511"><ele>342.0</ele><time>2026-04-11T13:27:49Z</time></trkpt><trkpt lat="43.91802192656049" lon="10.685039272016354"><ele>342.0</ele><time>2026-04-11T13:27:51Z</time></trkpt><trkpt lat="43.91795398746483" lon="10.685016684749723"><ele>342.0</ele><time>2026-04-11T13:28:08Z</time></trkpt><trkpt lat="43.9178910214956" lon="10.684960663653357"><ele>342.0</ele><time>2026-04-11T13:28:10Z</time></trkpt><trkpt lat="43.917919406619134" lon="10.68482964463897"><ele>342.0</ele><time>2026-04-11T13:28:12Z</time></trkpt><trkpt lat="43.91802714192317" lon="10.684827065396243"><ele>342.0</ele><time>2026-04-11T13:28:14Z</time></trkpt><trkpt lat="43.9181539565569" lon="10.684770472499935"><ele>342.0</ele><time>2026-04-11T13:28:16Z</time></trkpt><trkpt lat="43.918236670463884" lon="10.684765419726602"><ele>342.0</ele><time>2026-04-11T13:28:17Z</time></trkpt><trkpt lat="43.918361932732026" lon="10.684670834109829"><ele>342.0</ele><time>2026-04-11T13:28:19Z</time></trkpt><trkpt lat="43.91842204382008" lon="10.684624495470405"><ele>342.0</ele><time>2026-04-11T13:28:20Z</time></trkpt><trkpt lat="43.91848918943839" lon="10.684580832743944"><ele>341.8333333333333</ele><time>2026-04-11T13:28:21Z</time></trkpt><trkpt lat="43.918569979123816" lon="10.68454983281719"><ele>341.6666666666667</ele><time>2026-04-11T13:28:22Z</time></trkpt><trkpt lat="43.91865444555941" lon="10.684524216872605"><ele>341.5</ele><time>2026-04-11T13:28:23Z</time></trkpt><trkpt lat="43.9187352739362" lon="10.68452556822198"><ele>341.33333333333337</ele><time>2026-04-11T13:28:24Z</time></trkpt><trkpt lat="43.91881101046809" lon="10.684551526708177"><ele>341.1666666666667</ele><time>2026-04-11T13:28:25Z</time></trkpt><trkpt lat="43.91888426452498" lon="10.684583692847621"><ele>341.0</ele><time>2026-04-11T13:28:26Z</time></trkpt><trkpt lat="43.918945162516664" lon="10.684618181769327"><ele>341.0</ele><time>2026-04-11T13:28:27Z</time></trkpt><trkpt lat="43.91900601588098" lon="10.684584770818555"><ele>341.0</ele><time>2026-04-11T13:28:28Z</time></trkpt><trkpt lat="43.91908171617785" lon="10.684549123995254"><ele>341.0</ele><time>2026-04-11T13:28:29Z</time></trkpt><trkpt lat="43.919145583425" lon="10.684479963214285"><ele>341.0</ele><time>2026-04-11T13:28:30Z</time></trkpt><trkpt lat="43.919219808282165" lon="10.684402613155365"><ele>341.0</ele><time>2026-04-11T13:28:31Z</time></trkpt><trkpt lat="43.9192735275061" lon="10.68431189514439"><ele>341.0</ele><time>2026-04-11T13:28:32Z</time></trkpt><trkpt lat="43.919319468208215" lon="10.68424435406206"><ele>347.20000000000005</ele><time>2026-04-11T13:28:33Z</time></trkpt><trkpt lat="43.91941163729759" lon="10.684156907542341"><ele>353.40000000000003</ele><time>2026-04-11T13:28:35Z</time></trkpt><trkpt lat="43.919511909501956" lon="10.684066943725382"><ele>359.6</ele><time>2026-04-11T13:28:37Z</time></trkpt><trkpt lat="43.91959734247332" lon="10.68405600473194"><ele>365.8</ele><time>2026-04-11T13:28:58Z</time></trkpt><trkpt lat="43.91968018790386" lon="10.684005324363783"><ele>372.0</ele><time>2026-04-11T13:29:00Z</time></trkpt><trkpt lat="43.9197669090588" lon="10.6838909736116"><ele>372.00000000000006</ele><time>2026-04-11T13:29:02Z</time></trkpt><trkpt lat="43.91983195250672" lon="10.683832501655889"><ele>372.0</ele><time>2026-04-11T13:29:05Z</time></trkpt><trkpt lat="43.91989417791094" lon="10.68379684142756"><ele>372.0</ele><time>2026-04-11T13:29:22Z</time></trkpt><trkpt lat="43.91996188026037" lon="10.683749745558396"><ele>372.0</ele><time>2026-04-11T13:29:43Z</time></trkpt><trkpt lat="43.9199747235517" lon="10.683653085620811"><ele>372.0</ele><time>2026-04-11T13:30:23Z</time></trkpt><trkpt lat="43.920056089312716" lon="10.683624323427637"><ele>372.00000000000006</ele><time>2026-04-11T13:30:28Z</time></trkpt><trkpt lat="43.9201190922639" lon="10.683581546384504"><ele>372.0</ele><time>2026-04-11T13:30:31Z</time></trkpt><trkpt lat="43.92017941814963" lon="10.683525674059021"><ele>372.0</ele><time>2026-04-11T13:30:42Z</time></trkpt><trkpt lat="43.92011923342567" lon="10.683552272626173"><ele>372.0</ele><time>2026-04-11T13:31:36Z</time></trkpt><trkpt lat="43.92003562783341" lon="10.683557526078808"><ele>372.0</ele><time>2026-04-11T13:31:46Z</time></trkpt><trkpt lat="43.9199725984174" lon="10.683602028914862"><ele>372.0</ele><time>2026-04-11T13:31:50Z</time></trkpt><trkpt lat="43.9199215772455" lon="10.6836840553118"><ele>372.0</ele><time>2026-04-11T13:32:13Z</time></trkpt><trkpt lat="43.919827799001666" lon="10.683746638308595"><ele>372.0</ele><time>2026-04-11T13:32:17Z</time></trkpt><trkpt lat="43.91976861309635" lon="10.683789919865369"><ele>372.0</ele><time>2026-04-11T13:32:19Z</time></trkpt><trkpt lat="43.9196931769155" lon="10.683892432335872"><ele>372.0</ele><time>2026-04-11T13:32:22Z</time></trkpt><trkpt lat="43.91964292926307" lon="10.683951431300823"><ele>372.0</ele><time>2026-04-11T13:32:24Z</time></trkpt><trkpt lat="43.91956222254132" lon="10.684015117523568"><ele>372.0</ele><time>2026-04-11T13:32:26Z</time></trkpt><trkpt lat="43.91948623816196" lon="10.684092241622121"><ele>372.0</ele><time>2026-04-11T13:32:28Z</time></trkpt><trkpt lat="43.91933189376466" lon="10.684095039907666"><ele>372.0</ele><time>2026-04-11T13:32:31Z</time></trkpt><trkpt lat="43.91926221792003" lon="10.684085261069768"><ele>372.0</ele><time>2026-04-11T13:32:32Z</time></trkpt><trkpt lat="43.919189388146734" lon="10.684073985927103"><ele>372.0</ele><time>2026-04-11T13:32:33Z</time></trkpt><trkpt lat="43.919125243641886" lon="10.68404092703107"><ele>372.0</ele><time>2026-04-11T13:32:34Z</time></trkpt><trkpt lat="43.91904682898429" lon="10.684043114708242"><ele>372.0</ele><time>2026-04-11T13:32:35Z</time></trkpt><trkpt lat="43.91895921965828" lon="10.684028988817373"><ele>372.0</ele><time>2026-04-11T13:32:36Z</time></trkpt><trkpt lat="43.91887478280245" lon="10.684028107658541"><ele>372.5</ele><time>2026-04-11T13:32:37Z</time></trkpt><trkpt lat="43.91879816703644" lon="10.684022035967711"><ele>373.0</ele><time>2026-04-11T13:32:38Z</time></trkpt><trkpt lat="43.91873527138064" lon="10.683926226605129"><ele>373.5</ele><time>2026-04-11T13:32:40Z</time></trkpt><trkpt lat="43.91878504248614" lon="10.68383025124604"><ele>374.0</ele><time>2026-04-11T13:32:42Z</time></trkpt><trkpt lat="43.91885335348739" lon="10.68381265986826"><ele>374.5</ele><time>2026-04-11T13:32:43Z</time></trkpt><trkpt lat="43.91894300971414" lon="10.683760648254744"><ele>375.0</ele><time>2026-04-11T13:32:44Z</time></trkpt><trkpt lat="43.919028440707166" lon="10.683726613416107"><ele>375.0</ele><time>2026-04-11T13:32:45Z</time></trkpt><trkpt lat="43.919118772034466" lon="10.683708036376935"><ele>375.0</ele><time>2026-04-11T13:32:46Z</time></trkpt><trkpt lat="43.91922417867835" lon="10.683694492303873"><ele>375.0</ele><time>2026-04-11T13:32:47Z</time></trkpt><trkpt lat="43.91931765894932" lon="10.683700836231084"><ele>375.0</ele><time>2026-04-11T13:32:48Z</time></trkpt><trkpt lat="43.91941134827107" lon="10.683644390510556"><ele>375.0</ele><time>2026-04-11T13:32:49Z</time></trkpt><trkpt lat="43.919504743972276" lon="10.683593252552152"><ele>379.6</ele><time>2026-04-11T13:32:50Z</time></trkpt><trkpt lat="43.91960356077586" lon="10.683550857103436"><ele>384.2</ele><time>2026-04-11T13:32:51Z</time></trkpt><trkpt lat="43.91970692306642" lon="10.68348208104285"><ele>388.79999999999995</ele><time>2026-04-11T13:32:52Z</time></trkpt><trkpt lat="43.91981306090298" lon="10.683431727949877"><ele>393.4</ele><time>2026-04-11T13:32:53Z</time></trkpt><trkpt lat="43.91989947879139" lon="10.683384386647207"><ele>398.0</ele><time>2026-04-11T13:32:54Z</time></trkpt><trkpt lat="43.91996163012262" lon="10.683334716636255"><ele>400.0</ele><time>2026-04-11T13:32:55Z</time></trkpt><trkpt lat="43.92006984609619" lon="10.683223451744148"><ele>402.0</ele><time>2026-04-11T13:32:57Z</time></trkpt><trkpt lat="43.92012930345735" lon="10.683166554739586"><ele>404.0</ele><time>2026-04-11T13:32:58Z</time></trkpt><trkpt lat="43.92021314390248" lon="10.683140530477132"><ele>406.0</ele><time>2026-04-11T13:32:59Z</time></trkpt><trkpt lat="43.920297648805786" lon="10.683160910707302"><ele>408.0</ele><time>2026-04-11T13:33:00Z</time></trkpt><trkpt lat="43.920388955695046" lon="10.683199773286168"><ele>408.0</ele><time>2026-04-11T13:33:01Z</time></trkpt><trkpt lat="43.92049358429451" lon="10.68324772745929"><ele>408.0</ele><time>2026-04-11T13:33:02Z</time></trkpt><trkpt lat="43.920547139006175" lon="10.683331678876195"><ele>408.0</ele><time>2026-04-11T13:33:03Z</time></trkpt><trkpt lat="43.92060538891456" lon="10.683417166229319"><ele>408.0</ele><time>2026-04-11T13:33:04Z</time></trkpt><trkpt lat="43.920708959669064" lon="10.683480682096803"><ele>408.0</ele><time>2026-04-11T13:33:06Z</time></trkpt><trkpt lat="43.9208219553265" lon="10.683448910477825"><ele>408.0</ele><time>2026-04-11T13:33:08Z</time></trkpt><trkpt lat="43.92088480426801" lon="10.68340267336708"><ele>408.0</ele><time>2026-04-11T13:33:09Z</time></trkpt><trkpt lat="43.92097586280483" lon="10.683337839598995"><ele>408.0</ele><time>2026-04-11T13:33:10Z</time></trkpt><trkpt lat="43.92109011060331" lon="10.683305525626325"><ele>408.0</ele><time>2026-04-11T13:33:11Z</time></trkpt><trkpt lat="43.92120533271801" lon="10.68325618169885"><ele>408.0</ele><time>2026-04-11T13:33:12Z</time></trkpt><trkpt lat="43.921299229804895" lon="10.683139344610533"><ele>410.6666666666667</ele><time>2026-04-11T13:33:13Z</time></trkpt><trkpt lat="43.921356728625234" lon="10.68308025949581"><ele>413.33333333333337</ele><time>2026-04-11T13:33:14Z</time></trkpt><trkpt lat="43.921419588496576" lon="10.683063508672406"><ele>416.0</ele><time>2026-04-11T13:33:15Z</time></trkpt><trkpt lat="43.92152554252881" lon="10.68320289421045"><ele>418.6666666666667</ele><time>2026-04-11T13:33:17Z</time></trkpt><trkpt lat="43.921540401518754" lon="10.683296636533349"><ele>421.33333333333337</ele><time>2026-04-11T13:33:18Z</time></trkpt><trkpt lat="43.921577587041625" lon="10.683415821340748"><ele>424.0</ele><time>2026-04-11T13:33:19Z</time></trkpt><trkpt lat="43.921618903497816" lon="10.683501443843616"><ele>421.5</ele><time>2026-04-11T13:33:20Z</time></trkpt><trkpt lat="43.92169206118975" lon="10.683618784794247"><ele>419.0</ele><time>2026-04-11T13:33:22Z</time></trkpt><trkpt lat="43.92172862175987" lon="10.683773461832754"><ele>416.5</ele><time>2026-04-11T13:33:24Z</time></trkpt><trkpt lat="43.92182192346133" lon="10.683857282862823"><ele>414.0</ele><time>2026-04-11T13:33:26Z</time></trkpt><trkpt lat="43.92193859370337" lon="10.683769897091734"><ele>413.2</ele><time>2026-04-11T13:33:28Z</time></trkpt><trkpt lat="43.921999364172486" lon="10.683702198280308"><ele>412.4</ele><time>2026-04-11T13:33:29Z</time></trkpt><trkpt lat="43.922080215486154" lon="10.683634432585835"><ele>411.6</ele><time>2026-04-11T13:33:30Z</time></trkpt><trkpt lat="43.92216583749661" lon="10.683522412901857"><ele>410.8</ele><time>2026-04-11T13:33:31Z</time></trkpt><trkpt lat="43.922250647695314" lon="10.683366019077056"><ele>410.0</ele><time>2026-04-11T13:33:32Z</time></trkpt><trkpt lat="43.92231943126554" lon="10.683259963898712"><ele>413.8333333333333</ele><time>2026-04-11T13:33:33Z</time></trkpt><trkpt lat="43.922403898412256" lon="10.683212649895234"><ele>417.66666666666663</ele><time>2026-04-11T13:33:34Z</time></trkpt><trkpt lat="43.92249862320685" lon="10.683170773530552"><ele>421.5</ele><time>2026-04-11T13:33:35Z</time></trkpt><trkpt lat="43.92256661235676" lon="10.683150463043765"><ele>425.33333333333337</ele><time>2026-04-11T13:33:36Z</time></trkpt><trkpt lat="43.922648068580294" lon="10.683140357078985"><ele>429.1666666666667</ele><time>2026-04-11T13:33:37Z</time></trkpt><trkpt lat="43.92272533182839" lon="10.683114449125371"><ele>433.0</ele><time>2026-04-11T13:33:38Z</time></trkpt><trkpt lat="43.92285950300267" lon="10.68309339277802"><ele>432.99999999999994</ele><time>2026-04-11T13:33:40Z</time></trkpt><trkpt lat="43.922926348491764" lon="10.683088315107977"><ele>433.0</ele><time>2026-04-11T13:33:41Z</time></trkpt><trkpt lat="43.92299654487481" lon="10.683076484077105"><ele>433.0</ele><time>2026-04-11T13:33:42Z</time></trkpt><trkpt lat="43.92305928017815" lon="10.683087012303902"><ele>433.0</ele><time>2026-04-11T13:33:43Z</time></trkpt><trkpt lat="43.923128621301984" lon="10.683059348374782"><ele>433.0</ele><time>2026-04-11T13:33:44Z</time></trkpt><trkpt lat="43.92320017650262" lon="10.683011653158724"><ele>432.99999999999994</ele><time>2026-04-11T13:33:45Z</time></trkpt><trkpt lat="43.92325160372507" lon="10.682959046059542"><ele>433.0</ele><time>2026-04-11T13:33:46Z</time></trkpt><trkpt lat="43.923290315260566" lon="10.68288771024883"><ele>433.00000000000006</ele><time>2026-04-11T13:33:47Z</time></trkpt><trkpt lat="43.9232740975102" lon="10.682795647432455"><ele>433.0</ele><time>2026-04-11T13:33:49Z</time></trkpt><trkpt lat="43.923230392935366" lon="10.682722386705686"><ele>433.0</ele><time>2026-04-11T13:33:50Z</time></trkpt><trkpt lat="43.9231414229628" lon="10.682593762269985"><ele>433.0</ele><time>2026-04-11T13:33:52Z</time></trkpt><trkpt lat="43.92305722806546" lon="10.682552061486861"><ele>433.00000000000006</ele><time>2026-04-11T13:33:54Z</time></trkpt><trkpt lat="43.923015639810444" lon="10.682653704352305"><ele>433.0</ele><time>2026-04-11T13:33:56Z</time></trkpt><trkpt lat="43.92302962676115" lon="10.682792757840417"><ele>433.00000000000006</ele><time>2026-04-11T13:33:58Z</time></trkpt><trkpt lat="43.922942321822646" lon="10.682826817350714"><ele>433.0</ele><time>2026-04-11T13:34:00Z</time></trkpt><trkpt lat="43.922850227507084" lon="10.682754389598738"><ele>433.0</ele><time>2026-04-11T13:34:02Z</time></trkpt><trkpt lat="43.92284047530426" lon="10.68262775785756"><ele>433.0</ele><time>2026-04-11T13:34:04Z</time></trkpt><trkpt lat="43.92286021683112" lon="10.682540233167382"><ele>433.00000000000006</ele><time>2026-04-11T13:34:05Z</time></trkpt><trkpt lat="43.922897974761796" lon="10.682426040942115"><ele>433.0</ele><time>2026-04-11T13:34:06Z</time></trkpt><trkpt lat="43.92286761887052" lon="10.682280755136903"><ele>436.75</ele><time>2026-04-11T13:34:08Z</time></trkpt><trkpt lat="43.92281427302348" lon="10.682175028017781"><ele>440.5</ele><time>2026-04-11T13:34:10Z</time></trkpt><trkpt lat="43.922797216697354" lon="10.681999537848455"><ele>444.25</ele><time>2026-04-11T13:34:12Z</time></trkpt><trkpt lat="43.922839876974365" lon="10.681850868309544"><ele>448.0</ele><time>2026-04-11T13:34:14Z</time></trkpt><trkpt lat="43.922912704722435" lon="10.68170118014411"><ele>451.33333333333337</ele><time>2026-04-11T13:34:16Z</time></trkpt><trkpt lat="43.922971358120584" lon="10.681642200322376"><ele>454.6666666666667</ele><time>2026-04-11T13:34:17Z</time></trkpt><trkpt lat="43.92303432472957" lon="10.681565604323275"><ele>458.0</ele><time>2026-04-11T13:34:18Z</time></trkpt><trkpt lat="43.923097160596285" lon="10.681507989923093"><ele>461.33333333333337</ele><time>2026-04-11T13:34:19Z</time></trkpt><trkpt lat="43.92315236964507" lon="10.681414408424116"><ele>464.6666666666667</ele><time>2026-04-11T13:34:20Z</time></trkpt><trkpt lat="43.92321576988781" lon="10.681382925479065"><ele>468.0</ele><time>2026-04-11T13:34:21Z</time></trkpt><trkpt lat="43.92328149237299" lon="10.681298244266818"><ele>468.0</ele><time>2026-04-11T13:34:22Z</time></trkpt><trkpt lat="43.92334355384071" lon="10.681262806051125"><ele>468.0</ele><time>2026-04-11T13:34:23Z</time></trkpt><trkpt lat="43.923410344711236" lon="10.681140469267978"><ele>468.0</ele><time>2026-04-11T13:34:24Z</time></trkpt><trkpt lat="43.923468142242456" lon="10.681082610688343"><ele>468.0</ele><time>2026-04-11T13:34:25Z</time></trkpt><trkpt lat="43.92354858882204" lon="10.680953999272951"><ele>468.0</ele><time>2026-04-11T13:34:27Z</time></trkpt><trkpt lat="43.92356657350871" lon="10.680866906748534"><ele>468.0</ele><time>2026-04-11T13:34:28Z</time></trkpt><trkpt lat="43.9235949724706" lon="10.680681874108584"><ele>468.42857142857144</ele><time>2026-04-11T13:34:30Z</time></trkpt><trkpt lat="43.9236213713705" lon="10.680594314066816"><ele>468.8571428571429</ele><time>2026-04-11T13:34:31Z</time></trkpt><trkpt lat="43.923665437852584" lon="10.680521970539523"><ele>469.28571428571433</ele><time>2026-04-11T13:34:32Z</time></trkpt><trkpt lat="43.923721334185" lon="10.680468421153831"><ele>469.7142857142858</ele><time>2026-04-11T13:34:33Z</time></trkpt><trkpt lat="43.92379139775287" lon="10.680428027854466"><ele>470.14285714285717</ele><time>2026-04-11T13:34:34Z</time></trkpt><trkpt lat="43.92385781499852" lon="10.680416443230035"><ele>470.57142857142867</ele><time>2026-04-11T13:34:35Z</time></trkpt><trkpt lat="43.92393994715796" lon="10.68040277985299"><ele>471.00000000000006</ele><time>2026-04-11T13:34:36Z</time></trkpt><trkpt lat="43.92402324744912" lon="10.680363602035596"><ele>471.0</ele><time>2026-04-11T13:34:37Z</time></trkpt><trkpt lat="43.924107727374775" lon="10.680304564224354"><ele>471.0</ele><time>2026-04-11T13:34:38Z</time></trkpt><trkpt lat="43.92418992591804" lon="10.680241935406409"><ele>471.0</ele><time>2026-04-11T13:34:39Z</time></trkpt><trkpt lat="43.92426914363719" lon="10.680196505019428"><ele>471.0</ele><time>2026-04-11T13:34:40Z</time></trkpt><trkpt lat="43.92433953235212" lon="10.680141644077908"><ele>471.0</ele><time>2026-04-11T13:34:41Z</time></trkpt><trkpt lat="43.924403889201415" lon="10.680070265041136"><ele>471.0</ele><time>2026-04-11T13:34:42Z</time></trkpt><trkpt lat="43.924479055480056" lon="10.680049295311004"><ele>475.6666666666667</ele><time>2026-04-11T13:34:43Z</time></trkpt><trkpt lat="43.924553309748134" lon="10.680033911109888"><ele>480.33333333333337</ele><time>2026-04-11T13:34:44Z</time></trkpt><trkpt lat="43.924632828949825" lon="10.680069651348894"><ele>485.0</ele><time>2026-04-11T13:34:45Z</time></trkpt><trkpt lat="43.92470523893873" lon="10.680114037724895"><ele>489.6666666666667</ele><time>2026-04-11T13:34:46Z</time></trkpt><trkpt lat="43.92477367415057" lon="10.680140622483803"><ele>494.33333333333337</ele><time>2026-04-11T13:34:47Z</time></trkpt><trkpt lat="43.924838807541434" lon="10.680136527860997"><ele>499.0</ele><time>2026-04-11T13:34:48Z</time></trkpt><trkpt lat="43.924929953160074" lon="10.680086514875104"><ele>499.0</ele><time>2026-04-11T13:34:50Z</time></trkpt><trkpt lat="43.92501238765349" lon="10.679986946529697"><ele>499.0</ele><time>2026-04-11T13:34:52Z</time></trkpt><trkpt lat="43.925104248892865" lon="10.679899368805938"><ele>499.0</ele><time>2026-04-11T13:34:54Z</time></trkpt><trkpt lat="43.92516813953523" lon="10.679863421559498"><ele>499.0</ele><time>2026-04-11T13:34:55Z</time></trkpt><trkpt lat="43.92521941009102" lon="10.679801613738814"><ele>499.0</ele><time>2026-04-11T13:34:58Z</time></trkpt><trkpt lat="43.92525121454111" lon="10.679620479119285"><ele>495.83333333333337</ele><time>2026-04-11T13:37:17Z</time></trkpt><trkpt lat="43.92524697942416" lon="10.679505438053024"><ele>492.6666666666667</ele><time>2026-04-11T13:37:18Z</time></trkpt><trkpt lat="43.92523189058607" lon="10.679386560011135"><ele>489.5</ele><time>2026-04-11T13:37:19Z</time></trkpt><trkpt lat="43.925221192806944" lon="10.679270929491953"><ele>486.33333333333337</ele><time>2026-04-11T13:37:20Z</time></trkpt><trkpt lat="43.92520053076385" lon="10.679165104462491"><ele>483.1666666666667</ele><time>2026-04-11T13:37:21Z</time></trkpt><trkpt lat="43.92517444102386" lon="10.679060609571774"><ele>480.0</ele><time>2026-04-11T13:37:22Z</time></trkpt><trkpt lat="43.92514047252301" lon="10.678956428107165"><ele>480.0</ele><time>2026-04-11T13:37:23Z</time></trkpt><trkpt lat="43.925120356000036" lon="10.678865865229133"><ele>480.0</ele><time>2026-04-11T13:37:24Z</time></trkpt><trkpt lat="43.92511771540992" lon="10.678771819410306"><ele>480.0</ele><time>2026-04-11T13:37:25Z</time></trkpt><trkpt lat="43.92513449591956" lon="10.678670046610312"><ele>480.0</ele><time>2026-04-11T13:37:26Z</time></trkpt><trkpt lat="43.92517421178806" lon="10.678596804397632"><ele>480.0</ele><time>2026-04-11T13:37:27Z</time></trkpt><trkpt lat="43.92521665530348" lon="10.678422143301919"><ele>480.0</ele><time>2026-04-11T13:37:29Z</time></trkpt><trkpt lat="43.92523528084084" lon="10.678319718769119"><ele>483.2</ele><time>2026-04-11T13:37:30Z</time></trkpt><trkpt lat="43.92527195169765" lon="10.678183411624167"><ele>486.4</ele><time>2026-04-11T13:37:32Z</time></trkpt><trkpt lat="43.92529297548064" lon="10.678100917907466"><ele>489.6</ele><time>2026-04-11T13:37:33Z</time></trkpt><trkpt lat="43.925334072466676" lon="10.678018615055434"><ele>492.8</ele><time>2026-04-11T13:37:34Z</time></trkpt><trkpt lat="43.92535262451472" lon="10.677897343067013"><ele>496.0</ele><time>2026-04-11T13:37:36Z</time></trkpt><trkpt lat="43.92533103953292" lon="10.677729670265316"><ele>498.1666666666667</ele><time>2026-04-11T13:37:38Z</time></trkpt><trkpt lat="43.92531677596802" lon="10.677612252206892"><ele>500.33333333333337</ele><time>2026-04-11T13:37:39Z</time></trkpt><trkpt lat="43.925297350604666" lon="10.677490449686214"><ele>502.5</ele><time>2026-04-11T13:37:40Z</time></trkpt><trkpt lat="43.92528500670878" lon="10.677396112624953"><ele>504.66666666666663</ele><time>2026-04-11T13:37:41Z</time></trkpt><trkpt lat="43.925247481447606" lon="10.677267217824387"><ele>506.8333333333333</ele><time>2026-04-11T13:37:43Z</time></trkpt><trkpt lat="43.9252304432754" lon="10.67712897825929"><ele>509.0</ele><time>2026-04-11T13:37:45Z</time></trkpt><trkpt lat="43.92526505142049" lon="10.676969898729137"><ele>510.79999999999995</ele><time>2026-04-11T13:37:47Z</time></trkpt><trkpt lat="43.92534662878696" lon="10.67682433471693"><ele>512.5999999999999</ele><time>2026-04-11T13:37:49Z</time></trkpt><trkpt lat="43.92538573741969" lon="10.676751663515729"><ele>514.4</ele><time>2026-04-11T13:37:50Z</time></trkpt><trkpt lat="43.92547141846497" lon="10.676646724546966"><ele>516.1999999999999</ele><time>2026-04-11T13:37:52Z</time></trkpt><trkpt lat="43.92554885745716" lon="10.676534134985841"><ele>518.0</ele><time>2026-04-11T13:37:54Z</time></trkpt><trkpt lat="43.92559127865247" lon="10.676454520826562"><ele>518.0</ele><time>2026-04-11T13:37:55Z</time></trkpt><trkpt lat="43.92564176761883" lon="10.676320640789305"><ele>518.0</ele><time>2026-04-11T13:37:57Z</time></trkpt><trkpt lat="43.925638213991824" lon="10.676220755985272"><ele>518.0</ele><time>2026-04-11T13:37:59Z</time></trkpt><trkpt lat="43.92559003572438" lon="10.676135093580172"><ele>518.0</ele><time>2026-04-11T13:38:01Z</time></trkpt><trkpt lat="43.925486331665226" lon="10.676095159746797"><ele>518.0</ele><time>2026-04-11T13:38:02Z</time></trkpt><trkpt lat="43.92541600178641" lon="10.676066997661614"><ele>518.0</ele><time>2026-04-11T13:38:03Z</time></trkpt><trkpt lat="43.92529651605154" lon="10.676034260955163"><ele>519.4</ele><time>2026-04-11T13:38:05Z</time></trkpt><trkpt lat="43.925227771533294" lon="10.67604325275955"><ele>520.8</ele><time>2026-04-11T13:38:06Z</time></trkpt><trkpt lat="43.925159073826435" lon="10.676031654886424"><ele>522.2</ele><time>2026-04-11T13:38:07Z</time></trkpt><trkpt lat="43.925095635528315" lon="10.676062718876734"><ele>523.6</ele><time>2026-04-11T13:38:08Z</time></trkpt><trkpt lat="43.92498580278655" lon="10.676165405817166"><ele>525.0</ele><time>2026-04-11T13:38:10Z</time></trkpt><trkpt lat="43.92488119132558" lon="10.67627265321227"><ele>525.0</ele><time>2026-04-11T13:38:12Z</time></trkpt><trkpt lat="43.92480480801839" lon="10.676402976831794"><ele>525.0</ele><time>2026-04-11T13:38:14Z</time></trkpt><trkpt lat="43.92469476893728" lon="10.676444486228904"><ele>525.0</ele><time>2026-04-11T13:38:16Z</time></trkpt><trkpt lat="43.92462929990852" lon="10.676453563231478"><ele>525.0</ele><time>2026-04-11T13:38:17Z</time></trkpt><trkpt lat="43.92456433734899" lon="10.676458981167961"><ele>525.0</ele><time>2026-04-11T13:38:18Z</time></trkpt><trkpt lat="43.924451085526606" lon="10.676530107500778"><ele>525.0</ele><time>2026-04-11T13:38:20Z</time></trkpt><trkpt lat="43.92438333674524" lon="10.676534085302498"><ele>525.0</ele><time>2026-04-11T13:38:21Z</time></trkpt><trkpt lat="43.92431832667103" lon="10.676521538346044"><ele>525.0</ele><time>2026-04-11T13:38:22Z</time></trkpt><trkpt lat="43.92423065269373" lon="10.676499748426854"><ele>525.0</ele><time>2026-04-11T13:38:24Z</time></trkpt><trkpt lat="43.924136430744475" lon="10.67656476918136"><ele>525.0</ele><time>2026-04-11T13:38:26Z</time></trkpt><trkpt lat="43.92407681082868" lon="10.676611175281797"><ele>525.0</ele><time>2026-04-11T13:38:28Z</time></trkpt><trkpt lat="43.92402636373748" lon="10.676672775794653"><ele>527.5</ele><time>2026-04-11T13:38:30Z</time></trkpt><trkpt lat="43.92393139424357" lon="10.67665173360837"><ele>530.0</ele><time>2026-04-11T13:38:32Z</time></trkpt><trkpt lat="43.92386771056113" lon="10.676658972038643"><ele>532.5</ele><time>2026-04-11T13:38:33Z</time></trkpt><trkpt lat="43.923799889153166" lon="10.676702304131263"><ele>535.0</ele><time>2026-04-11T13:38:35Z</time></trkpt><trkpt lat="43.923707966141166" lon="10.676724902588111"><ele>537.5</ele><time>2026-04-11T13:39:52Z</time></trkpt><trkpt lat="43.923634045431555" lon="10.67672689389299"><ele>540.0</ele><time>2026-04-11T13:39:54Z</time></trkpt><trkpt lat="43.92355059876008" lon="10.67675862186466"><ele>540.0</ele><time>2026-04-11T13:39:57Z</time></trkpt><trkpt lat="43.92348366864357" lon="10.676786227268027"><ele>540.0</ele><time>2026-04-11T13:39:59Z</time></trkpt><trkpt lat="43.923391712571735" lon="10.676810865551163"><ele>540.0</ele><time>2026-04-11T13:40:03Z</time></trkpt><trkpt lat="43.923319284065684" lon="10.676805241944084"><ele>540.0</ele><time>2026-04-11T13:40:05Z</time></trkpt><trkpt lat="43.92325004179605" lon="10.67677594520298"><ele>540.0</ele><time>2026-04-11T13:40:07Z</time></trkpt><trkpt lat="43.92319251306543" lon="10.676712580579926"><ele>540.0</ele><time>2026-04-11T13:40:09Z</time></trkpt><trkpt lat="43.923105212427075" lon="10.676633213761685"><ele>539.6666666666666</ele><time>2026-04-11T13:40:12Z</time></trkpt><trkpt lat="43.92300768776813" lon="10.676543763640161"><ele>539.3333333333334</ele><time>2026-04-11T13:40:14Z</time></trkpt><trkpt lat="43.92293931792834" lon="10.676508453637226"><ele>539.0</ele><time>2026-04-11T13:40:16Z</time></trkpt><trkpt lat="43.922881801000486" lon="10.676422399465618"><ele>538.6666666666667</ele><time>2026-04-11T13:40:18Z</time></trkpt><trkpt lat="43.922790926204044" lon="10.67637943811925"><ele>538.3333333333334</ele><time>2026-04-11T13:40:20Z</time></trkpt><trkpt lat="43.92272593189666" lon="10.676387437466252"><ele>538.0</ele><time>2026-04-11T13:40:22Z</time></trkpt><trkpt lat="43.92269259784758" lon="10.676308362087065"><ele>538.0</ele><time>2026-04-11T13:40:24Z</time></trkpt><trkpt lat="43.92263456069482" lon="10.676203070075209"><ele>538.0</ele><time>2026-04-11T13:40:26Z</time></trkpt><trkpt lat="43.92262659773771" lon="10.676097568026563"><ele>538.0</ele><time>2026-04-11T13:40:28Z</time></trkpt><trkpt lat="43.92258673015805" lon="10.676029852975248"><ele>538.0</ele><time>2026-04-11T13:40:30Z</time></trkpt><trkpt lat="43.922547652679036" lon="10.67595687970392"><ele>538.0</ele><time>2026-04-11T13:40:35Z</time></trkpt><trkpt lat="43.92250397132163" lon="10.675853326266912"><ele>538.0</ele><time>2026-04-11T13:41:43Z</time></trkpt><trkpt lat="43.9224478247832" lon="10.67580753991178"><ele>534.8571428571429</ele><time>2026-04-11T13:41:45Z</time></trkpt><trkpt lat="43.922370288378055" lon="10.675793111005675"><ele>531.7142857142858</ele><time>2026-04-11T13:41:49Z</time></trkpt><trkpt lat="43.92240054644907" lon="10.675885745498164"><ele>528.5714285714286</ele><time>2026-04-11T13:42:55Z</time></trkpt><trkpt lat="43.922463868855" lon="10.675869245541664"><ele>525.4285714285714</ele><time>2026-04-11T13:43:05Z</time></trkpt><trkpt lat="43.922396925919074" lon="10.675879311532496"><ele>522.2857142857142</ele><time>2026-04-11T13:43:08Z</time></trkpt><trkpt lat="43.92230847716096" lon="10.675891431923151"><ele>519.1428571428571</ele><time>2026-04-11T13:43:12Z</time></trkpt><trkpt lat="43.92225641107707" lon="10.675839772568981"><ele>516.0</ele><time>2026-04-11T13:43:14Z</time></trkpt><trkpt lat="43.92230068651477" lon="10.675773497332761"><ele>516.0</ele><time>2026-04-11T13:43:25Z</time></trkpt><trkpt lat="43.92228964395292" lon="10.675891754042821"><ele>516.0</ele><time>2026-04-11T13:43:36Z</time></trkpt><trkpt lat="43.92235152282432" lon="10.675936957209831"><ele>516.0</ele><time>2026-04-11T13:43:39Z</time></trkpt><trkpt lat="43.92241461993701" lon="10.675944003510562"><ele>516.0</ele><time>2026-04-11T13:43:41Z</time></trkpt><trkpt lat="43.922469255760205" lon="10.675991752887743"><ele>516.0</ele><time>2026-04-11T13:43:45Z</time></trkpt><trkpt lat="43.9225080860893" lon="10.676073634101492"><ele>516.0</ele><time>2026-04-11T13:43:48Z</time></trkpt><trkpt lat="43.92252146043448" lon="10.67624699786726"><ele>520.4</ele><time>2026-04-11T13:43:53Z</time></trkpt><trkpt lat="43.92262317053826" lon="10.676323827087096"><ele>524.8</ele><time>2026-04-11T13:43:55Z</time></trkpt><trkpt lat="43.92268753466309" lon="10.67639841505237"><ele>529.1999999999999</ele><time>2026-04-11T13:43:57Z</time></trkpt><trkpt lat="43.922743122080426" lon="10.67645966080281"><ele>533.6</ele><time>2026-04-11T13:43:59Z</time></trkpt><trkpt lat="43.92281927232042" lon="10.676534694638681"><ele>538.0</ele><time>2026-04-11T13:44:01Z</time></trkpt><trkpt lat="43.922909422470404" lon="10.676595931547913"><ele>538.0</ele><time>2026-04-11T13:44:03Z</time></trkpt><trkpt lat="43.92296811981478" lon="10.676675946968446"><ele>538.0</ele><time>2026-04-11T13:44:06Z</time></trkpt><trkpt lat="43.92302261346577" lon="10.676784939952649"><ele>538.0</ele><time>2026-04-11T13:44:08Z</time></trkpt><trkpt lat="43.92311213872512" lon="10.67685381674555"><ele>538.0</ele><time>2026-04-11T13:44:10Z</time></trkpt><trkpt lat="43.92317557999484" lon="10.676825752514269"><ele>538.0</ele><time>2026-04-11T13:44:12Z</time></trkpt><trkpt lat="43.923297327160384" lon="10.676866728950328"><ele>538.0</ele><time>2026-04-11T13:44:14Z</time></trkpt><trkpt lat="43.9233746489083" lon="10.676926306569287"><ele>538.0</ele><time>2026-04-11T13:44:16Z</time></trkpt><trkpt lat="43.92343475929713" lon="10.676954574322252"><ele>538.0</ele><time>2026-04-11T13:44:18Z</time></trkpt><trkpt lat="43.92350051969275" lon="10.676868190321223"><ele>538.0</ele><time>2026-04-11T13:44:20Z</time></trkpt><trkpt lat="43.923604442824434" lon="10.676808403284403"><ele>538.0</ele><time>2026-04-11T13:44:22Z</time></trkpt><trkpt lat="43.92373315035201" lon="10.676823077760115"><ele>538.4</ele><time>2026-04-11T13:44:24Z</time></trkpt><trkpt lat="43.92382120419769" lon="10.676771938031525"><ele>538.8</ele><time>2026-04-11T13:44:28Z</time></trkpt><trkpt lat="43.9239146768848" lon="10.676720861209889"><ele>539.2</ele><time>2026-04-11T13:44:30Z</time></trkpt><trkpt lat="43.9240226179897" lon="10.676715657760571"><ele>539.6</ele><time>2026-04-11T13:44:32Z</time></trkpt><trkpt lat="43.92413038084529" lon="10.676677737946529"><ele>540.0</ele><time>2026-04-11T13:44:34Z</time></trkpt><trkpt lat="43.924228128595" lon="10.676658918660657"><ele>537.0</ele><time>2026-04-11T13:44:36Z</time></trkpt><trkpt lat="43.92430602643802" lon="10.676586661882967"><ele>534.0</ele><time>2026-04-11T13:44:38Z</time></trkpt><trkpt lat="43.92440822506377" lon="10.676589855278316"><ele>531.0</ele><time>2026-04-11T13:44:40Z</time></trkpt><trkpt lat="43.924478252145526" lon="10.67660831087918"><ele>528.0</ele><time>2026-04-11T13:44:41Z</time></trkpt><trkpt lat="43.92458601719756" lon="10.67656941040894"><ele>525.0</ele><time>2026-04-11T13:44:43Z</time></trkpt><trkpt lat="43.924690548622074" lon="10.676541702224721"><ele>525.0</ele><time>2026-04-11T13:44:45Z</time></trkpt><trkpt lat="43.92475928964982" lon="10.67649523597436"><ele>525.0</ele><time>2026-04-11T13:44:47Z</time></trkpt><trkpt lat="43.9248548618731" lon="10.676383084338664"><ele>525.0</ele><time>2026-04-11T13:44:49Z</time></trkpt><trkpt lat="43.92491884766162" lon="10.676301622537412"><ele>525.0</ele><time>2026-04-11T13:44:51Z</time></trkpt><trkpt lat="43.92499096437734" lon="10.67622836050632"><ele>525.0</ele><time>2026-04-11T13:44:53Z</time></trkpt><trkpt lat="43.925065241589884" lon="10.676156537366339"><ele>523.6</ele><time>2026-04-11T13:44:55Z</time></trkpt><trkpt lat="43.9251700477513" lon="10.676135193898787"><ele>522.2</ele><time>2026-04-11T13:44:57Z</time></trkpt><trkpt lat="43.92529991976928" lon="10.676132952590404"><ele>520.8</ele><time>2026-04-11T13:44:59Z</time></trkpt><trkpt lat="43.92539616915065" lon="10.6761673144133"><ele>519.4</ele><time>2026-04-11T13:45:01Z</time></trkpt><trkpt lat="43.92549190965172" lon="10.676191999572266"><ele>518.0</ele><time>2026-04-11T13:45:03Z</time></trkpt><trkpt lat="43.925563755781724" lon="10.676250675165361"><ele>518.0</ele><time>2026-04-11T13:45:05Z</time></trkpt><trkpt lat="43.9255444407678" lon="10.676359174497987"><ele>518.0</ele><time>2026-04-11T13:45:10Z</time></trkpt><trkpt lat="43.92550532144093" lon="10.676465766942181"><ele>518.0</ele><time>2026-04-11T13:45:12Z</time></trkpt><trkpt lat="43.925460365414814" lon="10.676527464239477"><ele>518.0</ele><time>2026-04-11T13:45:13Z</time></trkpt><trkpt lat="43.92540557512373" lon="10.67660332867988"><ele>518.0</ele><time>2026-04-11T13:45:15Z</time></trkpt><trkpt lat="43.925333164337786" lon="10.676650406705626"><ele>518.0</ele><time>2026-04-11T13:45:17Z</time></trkpt><trkpt lat="43.92527625941804" lon="10.676750358822733"><ele>518.0</ele><time>2026-04-11T13:45:19Z</time></trkpt><trkpt lat="43.92523525551135" lon="10.67690560384027"><ele>518.0</ele><time>2026-04-11T13:45:21Z</time></trkpt><trkpt lat="43.92517444248075" lon="10.677022953101734"><ele>518.0</ele><time>2026-04-11T13:45:23Z</time></trkpt><trkpt lat="43.92519434597465" lon="10.677144206440595"><ele>518.0</ele><time>2026-04-11T13:45:25Z</time></trkpt><trkpt lat="43.925227734872074" lon="10.677281387509147"><ele>518.0</ele><time>2026-04-11T13:45:27Z</time></trkpt><trkpt lat="43.92527908520766" lon="10.677393908734649"><ele>515.75</ele><time>2026-04-11T13:45:29Z</time></trkpt><trkpt lat="43.92533078556218" lon="10.677532886706558"><ele>513.5</ele><time>2026-04-11T13:45:31Z</time></trkpt><trkpt lat="43.92532605147317" lon="10.677733994223424"><ele>511.25</ele><time>2026-04-11T13:45:33Z</time></trkpt><trkpt lat="43.92533766241221" lon="10.677863921901618"><ele>509.0</ele><time>2026-04-11T13:45:35Z</time></trkpt><trkpt lat="43.92530378401327" lon="10.678001929402049"><ele>507.1428571428571</ele><time>2026-04-11T13:45:37Z</time></trkpt><trkpt lat="43.92526011853142" lon="10.678108439802529"><ele>505.2857142857143</ele><time>2026-04-11T13:45:39Z</time></trkpt><trkpt lat="43.925224889599136" lon="10.678185005044403"><ele>503.42857142857144</ele><time>2026-04-11T13:45:41Z</time></trkpt><trkpt lat="43.92521617752469" lon="10.678274222463891"><ele>501.57142857142856</ele><time>2026-04-11T13:45:42Z</time></trkpt><trkpt lat="43.9251873981632" lon="10.678381606002311"><ele>499.7142857142858</ele><time>2026-04-11T13:45:44Z</time></trkpt><trkpt lat="43.92518946469836" lon="10.678470706937476"><ele>497.8571428571429</ele><time>2026-04-11T13:45:46Z</time></trkpt><trkpt lat="43.92526545440786" lon="10.678479403480306"><ele>496.0</ele><time>2026-04-11T13:45:48Z</time></trkpt><trkpt lat="43.92532800026186" lon="10.67849746699178"><ele>496.0</ele><time>2026-04-11T13:47:16Z</time></trkpt><trkpt lat="43.92543327093516" lon="10.678509489565075"><ele>496.0</ele><time>2026-04-11T13:47:18Z</time></trkpt><trkpt lat="43.92550376736817" lon="10.678515710945296"><ele>496.0</ele><time>2026-04-11T13:47:19Z</time></trkpt><trkpt lat="43.9255909844588" lon="10.678520445774794"><ele>496.0</ele><time>2026-04-11T13:47:20Z</time></trkpt><trkpt lat="43.925665011228176" lon="10.678486250312575"><ele>496.0</ele><time>2026-04-11T13:47:21Z</time></trkpt><trkpt lat="43.92570795524738" lon="10.67828466673271"><ele>496.0</ele><time>2026-04-11T13:47:22Z</time></trkpt><trkpt lat="43.925801348324" lon="10.678198639334463"><ele>496.0</ele><time>2026-04-11T13:47:24Z</time></trkpt><trkpt lat="43.92586760389062" lon="10.678212787576092"><ele>496.0</ele><time>2026-04-11T13:47:25Z</time></trkpt><trkpt lat="43.92590524087768" lon="10.678026805659208"><ele>496.0</ele><time>2026-04-11T13:47:27Z</time></trkpt><trkpt lat="43.925897299391266" lon="10.67777368837165"><ele>495.4</ele><time>2026-04-11T13:47:28Z</time></trkpt><trkpt lat="43.925914021831375" lon="10.677636673068028"><ele>494.8</ele><time>2026-04-11T13:47:29Z</time></trkpt><trkpt lat="43.925937717105164" lon="10.677502875939037"><ele>494.19999999999993</ele><time>2026-04-11T13:47:30Z</time></trkpt><trkpt lat="43.92597726848258" lon="10.677406253669162"><ele>493.59999999999997</ele><time>2026-04-11T13:47:31Z</time></trkpt><trkpt lat="43.9260324302397" lon="10.67734301260671"><ele>493.0</ele><time>2026-04-11T13:47:32Z</time></trkpt><trkpt lat="43.9261018866467" lon="10.677192167222657"><ele>493.00000000000006</ele><time>2026-04-11T13:47:34Z</time></trkpt><trkpt lat="43.926198903259404" lon="10.677152862018929"><ele>493.0</ele><time>2026-04-11T13:47:36Z</time></trkpt><trkpt lat="43.926257465007765" lon="10.677106728914904"><ele>493.0</ele><time>2026-04-11T13:47:38Z</time></trkpt><trkpt lat="43.926319989319175" lon="10.677087840104532"><ele>493.0</ele><time>2026-04-11T13:47:41Z</time></trkpt><trkpt lat="43.92640642623916" lon="10.677014313127613"><ele>493.00000000000006</ele><time>2026-04-11T13:47:43Z</time></trkpt><trkpt lat="43.92647397283412" lon="10.67697883076547"><ele>493.0</ele><time>2026-04-11T13:47:44Z</time></trkpt><trkpt lat="43.92653040817943" lon="10.676931228901283"><ele>494.0</ele><time>2026-04-11T13:47:45Z</time></trkpt><trkpt lat="43.92663892853746" lon="10.676871208011011"><ele>494.99999999999994</ele><time>2026-04-11T13:47:47Z</time></trkpt><trkpt lat="43.926737226385356" lon="10.676833537157098"><ele>495.99999999999994</ele><time>2026-04-11T13:47:48Z</time></trkpt><trkpt lat="43.926822487351224" lon="10.67678712813814"><ele>497.0</ele><time>2026-04-11T13:47:49Z</time></trkpt><trkpt lat="43.92690330331882" lon="10.67677221420286"><ele>498.0</ele><time>2026-04-11T13:47:50Z</time></trkpt><trkpt lat="43.92698102269584" lon="10.676717468068837"><ele>498.0</ele><time>2026-04-11T13:47:51Z</time></trkpt><trkpt lat="43.92704952715967" lon="10.676643332981419"><ele>497.99999999999994</ele><time>2026-04-11T13:47:52Z</time></trkpt><trkpt lat="43.92713015489314" lon="10.676590370002595"><ele>497.99999999999994</ele><time>2026-04-11T13:47:53Z</time></trkpt><trkpt lat="43.9271970847013" lon="10.676534917978836"><ele>498.0</ele><time>2026-04-11T13:47:54Z</time></trkpt><trkpt lat="43.92732125093617" lon="10.676491112605868"><ele>498.0</ele><time>2026-04-11T13:47:56Z</time></trkpt><trkpt lat="43.92740926928405" lon="10.676441256421642"><ele>498.0</ele><time>2026-04-11T13:47:58Z</time></trkpt><trkpt lat="43.92747432614326" lon="10.676400305063048"><ele>498.0</ele><time>2026-04-11T13:48:01Z</time></trkpt><trkpt lat="43.92746453411453" lon="10.676300688070333"><ele>498.0</ele><time>2026-04-11T13:48:03Z</time></trkpt><trkpt lat="43.92748091108169" lon="10.676167624398134"><ele>498.0</ele><time>2026-04-11T13:48:05Z</time></trkpt><trkpt lat="43.927517019479964" lon="10.6760817957128"><ele>498.0</ele><time>2026-04-11T13:48:07Z</time></trkpt><trkpt lat="43.92757225561923" lon="10.676000537916789"><ele>498.0</ele><time>2026-04-11T13:48:10Z</time></trkpt><trkpt lat="43.92752184674503" lon="10.675937864793807"><ele>498.0</ele><time>2026-04-11T13:48:14Z</time></trkpt><trkpt lat="43.92747859451514" lon="10.676017098089604"><ele>498.0</ele><time>2026-04-11T13:48:16Z</time></trkpt><trkpt lat="43.92746421364833" lon="10.676143597557708"><ele>498.0</ele><time>2026-04-11T13:48:18Z</time></trkpt><trkpt lat="43.9274562680423" lon="10.676243287679261"><ele>498.0</ele><time>2026-04-11T13:48:20Z</time></trkpt><trkpt lat="43.927487931783034" lon="10.6763406645335"><ele>498.0</ele><time>2026-04-11T13:48:22Z</time></trkpt><trkpt lat="43.927549191301225" lon="10.67636358943855"><ele>498.0</ele><time>2026-04-11T13:48:24Z</time></trkpt><trkpt lat="43.92761160226081" lon="10.676261662873392"><ele>499.8333333333333</ele><time>2026-04-11T13:48:27Z</time></trkpt><trkpt lat="43.92765244046684" lon="10.676182778512832"><ele>501.66666666666663</ele><time>2026-04-11T13:48:29Z</time></trkpt><trkpt lat="43.92770242751566" lon="10.676056243447729"><ele>503.5</ele><time>2026-04-11T13:48:31Z</time></trkpt><trkpt lat="43.92772556976969" lon="10.675920193742394"><ele>505.3333333333333</ele><time>2026-04-11T13:48:33Z</time></trkpt><trkpt lat="43.92776294304789" lon="10.675824967281569"><ele>507.16666666666663</ele><time>2026-04-11T13:48:35Z</time></trkpt><trkpt lat="43.92784048053147" lon="10.675860335695292"><ele>509.0</ele><time>2026-04-11T13:48:38Z</time></trkpt><trkpt lat="43.927890274174814" lon="10.675980186913407"><ele>508.99999999999994</ele><time>2026-04-11T13:48:40Z</time></trkpt><trkpt lat="43.92792705881807" lon="10.67605772620298"><ele>509.0</ele><time>2026-04-11T13:48:41Z</time></trkpt><trkpt lat="43.927969828777" lon="10.67612485407918"><ele>509.0</ele><time>2026-04-11T13:48:42Z</time></trkpt><trkpt lat="43.928000588527496" lon="10.676253730335121"><ele>509.0</ele><time>2026-04-11T13:48:43Z</time></trkpt><trkpt lat="43.9280193664396" lon="10.676346664622162"><ele>508.99999999999994</ele><time>2026-04-11T13:48:44Z</time></trkpt><trkpt lat="43.928046171527896" lon="10.67646160296941"><ele>509.0</ele><time>2026-04-11T13:48:45Z</time></trkpt><trkpt lat="43.928090217542554" lon="10.676552192162797"><ele>509.0</ele><time>2026-04-11T13:48:46Z</time></trkpt><trkpt lat="43.92821951218389" lon="10.67664976800653"><ele>509.0</ele><time>2026-04-11T13:48:48Z</time></trkpt><trkpt lat="43.92830557897816" lon="10.676678528184246"><ele>509.0</ele><time>2026-04-11T13:48:49Z</time></trkpt><trkpt lat="43.928359826423325" lon="10.676738555861029"><ele>509.0</ele><time>2026-04-11T13:48:50Z</time></trkpt><trkpt lat="43.928420053481865" lon="10.676802540618207"><ele>509.0</ele><time>2026-04-11T13:48:51Z</time></trkpt><trkpt lat="43.92848248509595" lon="10.676852013976658"><ele>510.79999999999995</ele><time>2026-04-11T13:48:52Z</time></trkpt><trkpt lat="43.92856705695517" lon="10.6769921611776"><ele>512.5999999999999</ele><time>2026-04-11T13:48:54Z</time></trkpt><trkpt lat="43.928626190873715" lon="10.677088247366255"><ele>514.4</ele><time>2026-04-11T13:48:56Z</time></trkpt><trkpt lat="43.928631586304476" lon="10.677178346361174"><ele>516.1999999999999</ele><time>2026-04-11T13:48:58Z</time></trkpt><trkpt lat="43.92869219164356" lon="10.677222159961017"><ele>518.0</ele><time>2026-04-11T13:48:59Z</time></trkpt><trkpt lat="43.928792088718666" lon="10.677287818059167"><ele>518.0</ele><time>2026-04-11T13:49:01Z</time></trkpt><trkpt lat="43.92885826917214" lon="10.677327565074876"><ele>518.0</ele><time>2026-04-11T13:49:03Z</time></trkpt><trkpt lat="43.9289353360278" lon="10.677331175492078"><ele>518.0</ele><time>2026-04-11T13:49:05Z</time></trkpt><trkpt lat="43.92899759559516" lon="10.677252943835581"><ele>518.0</ele><time>2026-04-11T13:49:06Z</time></trkpt><trkpt lat="43.92906948958059" lon="10.6771830212967"><ele>518.0</ele><time>2026-04-11T13:49:07Z</time></trkpt><trkpt lat="43.929142535082335" lon="10.677123218787433"><ele>518.0</ele><time>2026-04-11T13:49:08Z</time></trkpt><trkpt lat="43.92923763027306" lon="10.677137605661454"><ele>519.6666666666666</ele><time>2026-04-11T13:49:10Z</time></trkpt><trkpt lat="43.929324704089666" lon="10.677087729285807"><ele>521.3333333333333</ele><time>2026-04-11T13:49:11Z</time></trkpt><trkpt lat="43.92940259534206" lon="10.677109040144755"><ele>523.0</ele><time>2026-04-11T13:49:13Z</time></trkpt><trkpt lat="43.92943970768393" lon="10.677025216135135"><ele>524.6666666666666</ele><time>2026-04-11T13:49:16Z</time></trkpt><trkpt lat="43.929482276741474" lon="10.676940962985748"><ele>526.3333333333334</ele><time>2026-04-11T13:49:18Z</time></trkpt><trkpt lat="43.929536892634054" lon="10.676854564327938"><ele>528.0</ele><time>2026-04-11T13:49:20Z</time></trkpt><trkpt lat="43.9296141379984" lon="10.676831259638329"><ele>528.0</ele><time>2026-04-11T13:49:22Z</time></trkpt><trkpt lat="43.92967839136878" lon="10.676858128144575"><ele>528.0</ele><time>2026-04-11T13:49:24Z</time></trkpt><trkpt lat="43.92974810515417" lon="10.676937729606403"><ele>528.0</ele><time>2026-04-11T13:49:28Z</time></trkpt><trkpt lat="43.929882828331976" lon="10.676994461590526"><ele>528.0</ele><time>2026-04-11T13:49:30Z</time></trkpt><trkpt lat="43.92996427843042" lon="10.67704065522821"><ele>528.0</ele><time>2026-04-11T13:49:31Z</time></trkpt><trkpt lat="43.93005863499244" lon="10.677086358844543"><ele>526.8</ele><time>2026-04-11T13:49:32Z</time></trkpt><trkpt lat="43.93013517359051" lon="10.677139752988555"><ele>525.5999999999999</ele><time>2026-04-11T13:49:33Z</time></trkpt><trkpt lat="43.93021845252727" lon="10.677187004084638"><ele>524.4000000000001</ele><time>2026-04-11T13:49:34Z</time></trkpt><trkpt lat="43.93032059507531" lon="10.67722370544518"><ele>523.2</ele><time>2026-04-11T13:49:36Z</time></trkpt><trkpt lat="43.93042296320096" lon="10.677179305492198"><ele>522.0</ele><time>2026-04-11T13:49:38Z</time></trkpt><trkpt lat="43.93049206290374" lon="10.677112266849756"><ele>522.0</ele><time>2026-04-11T13:49:40Z</time></trkpt><trkpt lat="43.93054325005055" lon="10.676979892309857"><ele>522.0</ele><time>2026-04-11T13:49:42Z</time></trkpt><trkpt lat="43.930582090388135" lon="10.676910852448552"><ele>522.0</ele><time>2026-04-11T13:49:43Z</time></trkpt><trkpt lat="43.9306417519717" lon="10.676838140278914"><ele>522.0</ele><time>2026-04-11T13:49:44Z</time></trkpt><trkpt lat="43.93069469802925" lon="10.676747567657301"><ele>522.0</ele><time>2026-04-11T13:49:45Z</time></trkpt><trkpt lat="43.93073504378945" lon="10.6766699869134"><ele>522.0</ele><time>2026-04-11T13:49:46Z</time></trkpt><trkpt lat="43.930769997856736" lon="10.676548112489563"><ele>522.1666666666666</ele><time>2026-04-11T13:49:47Z</time></trkpt><trkpt lat="43.93081740430575" lon="10.67647326082528"><ele>522.3333333333334</ele><time>2026-04-11T13:49:48Z</time></trkpt><trkpt lat="43.93088484346049" lon="10.67640748286321"><ele>522.5</ele><time>2026-04-11T13:49:50Z</time></trkpt><trkpt lat="43.930963986808344" lon="10.67639860800334"><ele>522.6666666666667</ele><time>2026-04-11T13:49:52Z</time></trkpt><trkpt lat="43.93103205611663" lon="10.6764611629296"><ele>522.8333333333334</ele><time>2026-04-11T13:49:54Z</time></trkpt><trkpt lat="43.93108637120845" lon="10.676532356014985"><ele>523.0</ele><time>2026-04-11T13:49:55Z</time></trkpt><trkpt lat="43.93114738081323" lon="10.676593771858133"><ele>523.0</ele><time>2026-04-11T13:49:56Z</time></trkpt><trkpt lat="43.931155344322406" lon="10.676685787520722"><ele>523.0</ele><time>2026-04-11T13:49:57Z</time></trkpt><trkpt lat="43.931226978740874" lon="10.676705378559724"><ele>523.0</ele><time>2026-04-11T13:49:59Z</time></trkpt><trkpt lat="43.93132124257866" lon="10.67671030658911"><ele>523.0</ele><time>2026-04-11T13:50:01Z</time></trkpt><trkpt lat="43.931382167755196" lon="10.676671472718843"><ele>523.0</ele><time>2026-04-11T13:50:06Z</time></trkpt><trkpt lat="43.931476018946334" lon="10.676618319535711"><ele>523.0</ele><time>2026-04-11T13:50:09Z</time></trkpt><trkpt lat="43.931534103234256" lon="10.676503629030051"><ele>523.0</ele><time>2026-04-11T13:50:11Z</time></trkpt><trkpt lat="43.931566393628216" lon="10.676408074255539"><ele>523.0</ele><time>2026-04-11T13:50:13Z</time></trkpt><trkpt lat="43.93160581821313" lon="10.676297539265438"><ele>523.0</ele><time>2026-04-11T13:50:15Z</time></trkpt><trkpt lat="43.931644321963454" lon="10.676160777866025"><ele>523.0</ele><time>2026-04-11T13:50:17Z</time></trkpt><trkpt lat="43.93165665905302" lon="10.676074832185797"><ele>523.0</ele><time>2026-04-11T13:50:18Z</time></trkpt><trkpt lat="43.9316986788893" lon="10.675951144715498"><ele>523.0</ele><time>2026-04-11T13:50:20Z</time></trkpt><trkpt lat="43.931717612813124" lon="10.675820853967757"><ele>523.3333333333334</ele><time>2026-04-11T13:50:22Z</time></trkpt><trkpt lat="43.93176592598899" lon="10.675736456085541"><ele>523.6666666666667</ele><time>2026-04-11T13:50:24Z</time></trkpt><trkpt lat="43.93183403758788" lon="10.675694521328946"><ele>524.0</ele><time>2026-04-11T13:50:26Z</time></trkpt><trkpt lat="43.9318646372702" lon="10.675834634055374"><ele>524.3333333333334</ele><time>2026-04-11T13:50:28Z</time></trkpt><trkpt lat="43.93194459842944" lon="10.675819916528697"><ele>524.6666666666666</ele><time>2026-04-11T13:50:32Z</time></trkpt><trkpt lat="43.93202205875726" lon="10.675816905572477"><ele>525.0</ele><time>2026-04-11T13:50:34Z</time></trkpt><trkpt lat="43.93207357281408" lon="10.675739820799185"><ele>525.0</ele><time>2026-04-11T13:50:36Z</time></trkpt><trkpt lat="43.93216161521261" lon="10.675652864408706"><ele>525.0</ele><time>2026-04-11T13:50:38Z</time></trkpt><trkpt lat="43.932244874087154" lon="10.675545132968129"><ele>525.0</ele><time>2026-04-11T13:50:40Z</time></trkpt><trkpt lat="43.93231499188825" lon="10.675394756846615"><ele>525.0</ele><time>2026-04-11T13:50:42Z</time></trkpt><trkpt lat="43.93238047019449" lon="10.675270470349682"><ele>523.8</ele><time>2026-04-11T13:50:44Z</time></trkpt><trkpt lat="43.932420859620144" lon="10.675160697419656"><ele>522.6</ele><time>2026-04-11T13:50:46Z</time></trkpt><trkpt lat="43.93246670164772" lon="10.675094570754094"><ele>521.4</ele><time>2026-04-11T13:50:48Z</time></trkpt><trkpt lat="43.932549615938896" lon="10.675052411355455"><ele>520.2</ele><time>2026-04-11T13:50:49Z</time></trkpt><trkpt lat="43.932646981323465" lon="10.674997206613002"><ele>519.0</ele><time>2026-04-11T13:50:52Z</time></trkpt><trkpt lat="43.93273480563306" lon="10.674892312758091"><ele>519.0</ele><time>2026-04-11T13:50:54Z</time></trkpt><trkpt lat="43.932790809547946" lon="10.674833745371492"><ele>519.0</ele><time>2026-04-11T13:50:55Z</time></trkpt><trkpt lat="43.93284493455003" lon="10.674783529252537"><ele>519.0</ele><time>2026-04-11T13:50:56Z</time></trkpt><trkpt lat="43.9329358983298" lon="10.674739173100491"><ele>519.0</ele><time>2026-04-11T13:50:58Z</time></trkpt><trkpt lat="43.93304521119483" lon="10.674665014000867"><ele>519.0</ele><time>2026-04-11T13:51:00Z</time></trkpt><trkpt lat="43.93311273004943" lon="10.674630954360776"><ele>519.0</ele><time>2026-04-11T13:51:02Z</time></trkpt><trkpt lat="43.93318457491243" lon="10.67457290649458"><ele>519.0</ele><time>2026-04-11T13:51:07Z</time></trkpt><trkpt lat="43.933215196163225" lon="10.674495752411133"><ele>519.0</ele><time>2026-04-11T13:51:09Z</time></trkpt><trkpt lat="43.933288989281905" lon="10.674432247891191"><ele>519.0</ele><time>2026-04-11T13:51:12Z</time></trkpt><trkpt lat="43.933354054130376" lon="10.674406697742523"><ele>519.0</ele><time>2026-04-11T13:51:17Z</time></trkpt><trkpt lat="43.933333897105165" lon="10.674314294724475"><ele>519.0</ele><time>2026-04-11T13:51:23Z</time></trkpt><trkpt lat="43.9333689984499" lon="10.674236958056923"><ele>519.0</ele><time>2026-04-11T13:51:30Z</time></trkpt><trkpt lat="43.93337174871614" lon="10.67411406375754"><ele>519.0</ele><time>2026-04-11T13:51:33Z</time></trkpt><trkpt lat="43.93336014343726" lon="10.673998331635408"><ele>516.0</ele><time>2026-04-11T13:51:43Z</time></trkpt><trkpt lat="43.93340029763686" lon="10.67384823096834"><ele>513.0</ele><time>2026-04-11T13:51:45Z</time></trkpt><trkpt lat="43.93341189230108" lon="10.673716709156857"><ele>510.0</ele><time>2026-04-11T13:51:47Z</time></trkpt><trkpt lat="43.93343959583773" lon="10.67362382018972"><ele>507.0</ele><time>2026-04-11T13:51:49Z</time></trkpt><trkpt lat="43.93342744263404" lon="10.673767643305833"><ele>504.0</ele><time>2026-04-11T13:52:08Z</time></trkpt><trkpt lat="43.93340981458728" lon="10.673895095725713"><ele>504.0</ele><time>2026-04-11T13:52:10Z</time></trkpt><trkpt lat="43.93345864777532" lon="10.674044146212347"><ele>504.0</ele><time>2026-04-11T13:52:12Z</time></trkpt><trkpt lat="43.93353887531582" lon="10.674079734817807"><ele>504.0</ele><time>2026-04-11T13:52:13Z</time></trkpt><trkpt lat="43.93363033742754" lon="10.674101610356555"><ele>504.0</ele><time>2026-04-11T13:52:14Z</time></trkpt><trkpt lat="43.93367114545914" lon="10.674174295150598"><ele>504.0</ele><time>2026-04-11T13:52:15Z</time></trkpt><trkpt lat="43.93374787956848" lon="10.674109654167518"><ele>504.0</ele><time>2026-04-11T13:52:17Z</time></trkpt><trkpt lat="43.933838241925876" lon="10.674034015701169"><ele>504.0</ele><time>2026-04-11T13:52:19Z</time></trkpt><trkpt lat="43.9339294035975" lon="10.673961484866524"><ele>504.0</ele><time>2026-04-11T13:52:21Z</time></trkpt><trkpt lat="43.934009419340505" lon="10.67391816410375"><ele>504.0</ele><time>2026-04-11T13:52:23Z</time></trkpt><trkpt lat="43.934084468174234" lon="10.67397269342233"><ele>504.0</ele><time>2026-04-11T13:52:25Z</time></trkpt><trkpt lat="43.934150604386545" lon="10.67402123614692"><ele>504.6</ele><time>2026-04-11T13:52:33Z</time></trkpt><trkpt lat="43.93425234661146" lon="10.673965493808248"><ele>505.2</ele><time>2026-04-11T13:52:37Z</time></trkpt><trkpt lat="43.934324240946324" lon="10.673882795936915"><ele>505.80000000000007</ele><time>2026-04-11T13:52:39Z</time></trkpt><trkpt lat="43.93441645079633" lon="10.673862411438513"><ele>506.40000000000003</ele><time>2026-04-11T13:52:41Z</time></trkpt><trkpt lat="43.9345343196613" lon="10.673811018509834"><ele>507.0</ele><time>2026-04-11T13:52:43Z</time></trkpt><trkpt lat="43.934635297036664" lon="10.673814850073027"><ele>507.0</ele><time>2026-04-11T13:52:45Z</time></trkpt><trkpt lat="43.934692865787675" lon="10.673716037262281"><ele>507.00000000000006</ele><time>2026-04-11T13:52:47Z</time></trkpt><trkpt lat="43.934742349257206" lon="10.673591129871605"><ele>507.00000000000006</ele><time>2026-04-11T13:52:49Z</time></trkpt><trkpt lat="43.93479075371309" lon="10.673495129504945"><ele>507.0</ele><time>2026-04-11T13:52:51Z</time></trkpt><trkpt lat="43.934814794822195" lon="10.673638906482235"><ele>507.0</ele><time>2026-04-11T13:52:55Z</time></trkpt><trkpt lat="43.93477013077503" lon="10.673754979457696"><ele>507.0</ele><time>2026-04-11T13:52:56Z</time></trkpt><trkpt lat="43.934745203863166" lon="10.673855526877295"><ele>507.0</ele><time>2026-04-11T13:52:58Z</time></trkpt><trkpt lat="43.93486181048513" lon="10.673975016883942"><ele>507.0</ele><time>2026-04-11T13:53:00Z</time></trkpt><trkpt lat="43.934976145692424" lon="10.674054996151808"><ele>507.0</ele><time>2026-04-11T13:53:02Z</time></trkpt><trkpt lat="43.93504596628363" lon="10.67416013267398"><ele>506.0</ele><time>2026-04-11T13:53:04Z</time></trkpt><trkpt lat="43.93514240616083" lon="10.67424431592154"><ele>505.0</ele><time>2026-04-11T13:53:06Z</time></trkpt><trkpt lat="43.93523133287014" lon="10.674357597937734"><ele>504.0</ele><time>2026-04-11T13:53:08Z</time></trkpt><trkpt lat="43.935306368380935" lon="10.674480307749855"><ele>503.0</ele><time>2026-04-11T13:53:10Z</time></trkpt><trkpt lat="43.93541135587564" lon="10.674553519122437"><ele>502.99999999999994</ele><time>2026-04-11T13:53:12Z</time></trkpt><trkpt lat="43.935471272615544" lon="10.674682703230879"><ele>503.0</ele><time>2026-04-11T13:53:14Z</time></trkpt><trkpt lat="43.935501225446984" lon="10.674765812812435"><ele>503.0</ele><time>2026-04-11T13:53:15Z</time></trkpt><trkpt lat="43.93555871474785" lon="10.674867684700025"><ele>503.0</ele><time>2026-04-11T13:53:17Z</time></trkpt><trkpt lat="43.93562202051065" lon="10.67491617022065"><ele>502.99999999999994</ele><time>2026-04-11T13:53:19Z</time></trkpt><trkpt lat="43.93570715800312" lon="10.674899266240581"><ele>503.0</ele><time>2026-04-11T13:53:21Z</time></trkpt><trkpt lat="43.9357764125532" lon="10.674900037981448"><ele>502.99999999999994</ele><time>2026-04-11T13:53:24Z</time></trkpt><trkpt lat="43.93585471507265" lon="10.674835102366048"><ele>503.0</ele><time>2026-04-11T13:53:26Z</time></trkpt><trkpt lat="43.93590671961605" lon="10.67478170882055"><ele>503.0</ele><time>2026-04-11T13:53:27Z</time></trkpt><trkpt lat="43.93597142034133" lon="10.674767765425006"><ele>503.0</ele><time>2026-04-11T13:53:28Z</time></trkpt><trkpt lat="43.936045384263814" lon="10.674784102141151"><ele>502.99999999999994</ele><time>2026-04-11T13:53:30Z</time></trkpt><trkpt lat="43.93611297078339" lon="10.674796860957608"><ele>503.0</ele><time>2026-04-11T13:53:31Z</time></trkpt><trkpt lat="43.936223634392775" lon="10.674793968841346"><ele>502.8333333333333</ele><time>2026-04-11T13:53:33Z</time></trkpt><trkpt lat="43.93631566643207" lon="10.674773366452033"><ele>502.66666666666663</ele><time>2026-04-11T13:53:35Z</time></trkpt><trkpt lat="43.93637842715221" lon="10.674708235868676"><ele>502.5</ele><time>2026-04-11T13:53:36Z</time></trkpt><trkpt lat="43.9364792210852" lon="10.674693795228992"><ele>502.33333333333337</ele><time>2026-04-11T13:53:38Z</time></trkpt><trkpt lat="43.93654506200959" lon="10.674703690623994"><ele>502.1666666666667</ele><time>2026-04-11T13:53:39Z</time></trkpt><trkpt lat="43.9366327405795" lon="10.674694295484773"><ele>502.0</ele><time>2026-04-11T13:53:40Z</time></trkpt><trkpt lat="43.93670222057898" lon="10.674709625244265"><ele>506.40000000000003</ele><time>2026-04-11T13:53:41Z</time></trkpt><trkpt lat="43.93676773292636" lon="10.674696810199947"><ele>510.80000000000007</ele><time>2026-04-11T13:53:42Z</time></trkpt><trkpt lat="43.936883494069185" lon="10.674688425120404"><ele>515.2</ele><time>2026-04-11T13:53:44Z</time></trkpt><trkpt lat="43.936998779507334" lon="10.674732330630642"><ele>519.6</ele><time>2026-04-11T13:53:46Z</time></trkpt><trkpt lat="43.93704812061434" lon="10.674885955005681"><ele>524.0</ele><time>2026-04-11T13:53:47Z</time></trkpt><trkpt lat="43.93708876570231" lon="10.674958397446884"><ele>524.0</ele><time>2026-04-11T13:53:48Z</time></trkpt><trkpt lat="43.93713988575401" lon="10.675029382868743"><ele>524.0</ele><time>2026-04-11T13:53:49Z</time></trkpt><trkpt lat="43.937261382107096" lon="10.675110706006953"><ele>524.0</ele><time>2026-04-11T13:53:51Z</time></trkpt><trkpt lat="43.93732007484678" lon="10.675168516910865"><ele>524.0</ele><time>2026-04-11T13:53:52Z</time></trkpt><trkpt lat="43.93736316088044" lon="10.675236484182054"><ele>524.0</ele><time>2026-04-11T13:53:53Z</time></trkpt><trkpt lat="43.937410325059844" lon="10.675397399585576"><ele>524.8</ele><time>2026-04-11T13:53:55Z</time></trkpt><trkpt lat="43.93742743227449" lon="10.675501057020188"><ele>525.5999999999999</ele><time>2026-04-11T13:53:56Z</time></trkpt><trkpt lat="43.937455157540136" lon="10.675647444561385"><ele>526.4</ele><time>2026-04-11T13:53:58Z</time></trkpt><trkpt lat="43.93752489502676" lon="10.675760208476438"><ele>527.1999999999999</ele><time>2026-04-11T13:54:00Z</time></trkpt><trkpt lat="43.93758058192665" lon="10.675855872797763"><ele>528.0</ele><time>2026-04-11T13:54:02Z</time></trkpt><trkpt lat="43.93769184485873" lon="10.675931856537803"><ele>528.0</ele><time>2026-04-11T13:54:04Z</time></trkpt><trkpt lat="43.93776452249677" lon="10.675973370518706"><ele>528.0</ele><time>2026-04-11T13:54:05Z</time></trkpt><trkpt lat="43.93782185550903" lon="10.67602600161107"><ele>528.0</ele><time>2026-04-11T13:54:06Z</time></trkpt><trkpt lat="43.937882321060165" lon="10.67607281995834"><ele>528.0</ele><time>2026-04-11T13:54:07Z</time></trkpt><trkpt lat="43.93793092252589" lon="10.676137309867363"><ele>528.0</ele><time>2026-04-11T13:54:08Z</time></trkpt><trkpt lat="43.93804593331376" lon="10.676263011089281"><ele>528.0</ele><time>2026-04-11T13:54:10Z</time></trkpt><trkpt lat="43.93812746580647" lon="10.676303997758065"><ele>525.0</ele><time>2026-04-11T13:54:11Z</time></trkpt><trkpt lat="43.93818412432424" lon="10.676345283526945"><ele>522.0</ele><time>2026-04-11T13:54:13Z</time></trkpt><trkpt lat="43.93824307835558" lon="10.676425876070612"><ele>519.0</ele><time>2026-04-11T13:55:55Z</time></trkpt><trkpt lat="43.93830737251094" lon="10.676503557480357"><ele>516.0</ele><time>2026-04-11T13:55:57Z</time></trkpt><trkpt lat="43.9383629643504" lon="10.676550941188422"><ele>513.0</ele><time>2026-04-11T13:55:58Z</time></trkpt><trkpt lat="43.93844100923996" lon="10.6765435560189"><ele>510.0</ele><time>2026-04-11T13:56:00Z</time></trkpt><trkpt lat="43.93851801377849" lon="10.676584566306776"><ele>509.0</ele><time>2026-04-11T13:56:02Z</time></trkpt><trkpt lat="43.938578222758714" lon="10.676629525959788"><ele>508.0</ele><time>2026-04-11T13:56:03Z</time></trkpt><trkpt lat="43.938647464084546" lon="10.676701940964952"><ele>507.0</ele><time>2026-04-11T13:56:05Z</time></trkpt><trkpt lat="43.93863070851211" lon="10.676801311153811"><ele>506.0</ele><time>2026-04-11T13:56:07Z</time></trkpt><trkpt lat="43.93858045663949" lon="10.676875513314785"><ele>505.0</ele><time>2026-04-11T13:56:09Z</time></trkpt><trkpt lat="43.938659013541525" lon="10.676943421311995"><ele>504.0</ele><time>2026-04-11T13:56:13Z</time></trkpt><trkpt lat="43.938734780541495" lon="10.676844789358354"><ele>504.0</ele><time>2026-04-11T13:56:15Z</time></trkpt><trkpt lat="43.938771024935875" lon="10.676701086456989"><ele>504.0</ele><time>2026-04-11T13:56:17Z</time></trkpt><trkpt lat="43.93877533723162" lon="10.676611710838884"><ele>504.0</ele><time>2026-04-11T13:56:18Z</time></trkpt><trkpt lat="43.938771581554334" lon="10.676462753630394"><ele>504.0</ele><time>2026-04-11T13:56:20Z</time></trkpt><trkpt lat="43.93882362591676" lon="10.676302498716037"><ele>504.0</ele><time>2026-04-11T13:56:22Z</time></trkpt><trkpt lat="43.93887385031546" lon="10.67615911204429"><ele>504.0</ele><time>2026-04-11T13:56:24Z</time></trkpt><trkpt lat="43.9389419681743" lon="10.676166147557062"><ele>504.0</ele><time>2026-04-11T13:56:26Z</time></trkpt><trkpt lat="43.93899773777096" lon="10.67626245378875"><ele>504.0</ele><time>2026-04-11T13:56:28Z</time></trkpt><trkpt lat="43.93902663863132" lon="10.676347211874656"><ele>504.0</ele><time>2026-04-11T13:56:29Z</time></trkpt><trkpt lat="43.93907041692847" lon="10.67643542585873"><ele>504.0</ele><time>2026-04-11T13:56:30Z</time></trkpt><trkpt lat="43.93912989119658" lon="10.67650667911582"><ele>504.0</ele><time>2026-04-11T13:56:31Z</time></trkpt><trkpt lat="43.93920790580488" lon="10.676507400685267"><ele>503.6666666666667</ele><time>2026-04-11T13:56:32Z</time></trkpt><trkpt lat="43.93926872548317" lon="10.67655466609922"><ele>503.33333333333337</ele><time>2026-04-11T13:56:33Z</time></trkpt><trkpt lat="43.93934302905125" lon="10.676670687579556"><ele>503.0</ele><time>2026-04-11T13:56:35Z</time></trkpt><trkpt lat="43.939345695762185" lon="10.676844508890317"><ele>502.6666666666667</ele><time>2026-04-11T13:56:37Z</time></trkpt><trkpt lat="43.93935881807947" lon="10.676933841004084"><ele>502.33333333333337</ele><time>2026-04-11T13:56:38Z</time></trkpt><trkpt lat="43.939403611644266" lon="10.677007700628776"><ele>502.0</ele><time>2026-04-11T13:56:39Z</time></trkpt><trkpt lat="43.939431381004056" lon="10.67709594780749"><ele>501.99999999999994</ele><time>2026-04-11T13:56:40Z</time></trkpt><trkpt lat="43.9394701322667" lon="10.677177230545452"><ele>502.0</ele><time>2026-04-11T13:56:41Z</time></trkpt><trkpt lat="43.939515092594135" lon="10.67724659065606"><ele>501.99999999999994</ele><time>2026-04-11T13:56:42Z</time></trkpt><trkpt lat="43.93956916791929" lon="10.677309995586707"><ele>501.99999999999994</ele><time>2026-04-11T13:56:43Z</time></trkpt><trkpt lat="43.939645886026625" lon="10.677328523941714"><ele>502.0</ele><time>2026-04-11T13:56:44Z</time></trkpt><trkpt lat="43.939715291581884" lon="10.677316869210847"><ele>501.99999999999994</ele><time>2026-04-11T13:56:45Z</time></trkpt><trkpt lat="43.93979461365256" lon="10.677303985754087"><ele>501.99999999999994</ele><time>2026-04-11T13:56:46Z</time></trkpt><trkpt lat="43.93987959349774" lon="10.677284761048206"><ele>502.0</ele><time>2026-04-11T13:56:47Z</time></trkpt><trkpt lat="43.9399662702696" lon="10.677275559271177"><ele>502.00000000000006</ele><time>2026-04-11T13:56:48Z</time></trkpt><trkpt lat="43.94006676618186" lon="10.67725739105206"><ele>502.00000000000006</ele><time>2026-04-11T13:56:49Z</time></trkpt><trkpt lat="43.94016500673244" lon="10.677251742686975"><ele>502.0</ele><time>2026-04-11T13:56:50Z</time></trkpt><trkpt lat="43.9402516533418" lon="10.67726881497915"><ele>502.0</ele><time>2026-04-11T13:56:51Z</time></trkpt><trkpt lat="43.94033419842895" lon="10.677313006155769"><ele>503.1666666666667</ele><time>2026-04-11T13:56:52Z</time></trkpt><trkpt lat="43.94040875241739" lon="10.677367070869167"><ele>504.33333333333337</ele><time>2026-04-11T13:56:53Z</time></trkpt><trkpt lat="43.94048823409187" lon="10.677408954826612"><ele>505.5</ele><time>2026-04-11T13:56:54Z</time></trkpt><trkpt lat="43.94056509453775" lon="10.677443480036498"><ele>506.66666666666663</ele><time>2026-04-11T13:56:55Z</time></trkpt><trkpt lat="43.94064507026368" lon="10.677461244100584"><ele>507.8333333333333</ele><time>2026-04-11T13:56:56Z</time></trkpt><trkpt lat="43.940721280390086" lon="10.677475547493897"><ele>509.0</ele><time>2026-04-11T13:56:57Z</time></trkpt><trkpt lat="43.940794613107585" lon="10.677492401941766"><ele>508.99999999999994</ele><time>2026-04-11T13:56:58Z</time></trkpt><trkpt lat="43.9408647105606" lon="10.677494017136748"><ele>509.0</ele><time>2026-04-11T13:56:59Z</time></trkpt><trkpt lat="43.940931379585706" lon="10.677480789345614"><ele>509.0</ele><time>2026-04-11T13:57:00Z</time></trkpt><trkpt lat="43.94100999287326" lon="10.677432748713123"><ele>509.0</ele><time>2026-04-11T13:57:01Z</time></trkpt><trkpt lat="43.941091523212755" lon="10.677376173844232"><ele>508.99999999999994</ele><time>2026-04-11T13:57:02Z</time></trkpt><trkpt lat="43.9411559917194" lon="10.677311255942145"><ele>509.0</ele><time>2026-04-11T13:57:03Z</time></trkpt><trkpt lat="43.94120835037795" lon="10.677236577460615"><ele>511.0</ele><time>2026-04-11T13:57:04Z</time></trkpt><trkpt lat="43.94126852321942" lon="10.677155529953351"><ele>513.0</ele><time>2026-04-11T13:57:05Z</time></trkpt><trkpt lat="43.9413148233301" lon="10.677073173147068"><ele>515.0</ele><time>2026-04-11T13:57:06Z</time></trkpt><trkpt lat="43.94140493880023" lon="10.676969910262185"><ele>517.0</ele><time>2026-04-11T13:57:08Z</time></trkpt><trkpt lat="43.94150167398802" lon="10.676903251558022"><ele>519.0</ele><time>2026-04-11T13:57:10Z</time></trkpt><trkpt lat="43.94157803867969" lon="10.67691511466819"><ele>519.0</ele><time>2026-04-11T13:57:11Z</time></trkpt><trkpt lat="43.94166874336303" lon="10.676947905625694"><ele>519.0</ele><time>2026-04-11T13:57:12Z</time></trkpt><trkpt lat="43.941763924777995" lon="10.676983459782363"><ele>519.0</ele><time>2026-04-11T13:57:14Z</time></trkpt><trkpt lat="43.94183899992628" lon="10.676886435696591"><ele>519.0</ele><time>2026-04-11T13:57:26Z</time></trkpt><trkpt lat="43.941888142450495" lon="10.676769617211828"><ele>519.0</ele><time>2026-04-11T13:57:28Z</time></trkpt><trkpt lat="43.941916407673965" lon="10.67662788425608"><ele>520.0</ele><time>2026-04-11T13:57:30Z</time></trkpt><trkpt lat="43.94195696761878" lon="10.676484165198483"><ele>521.0</ele><time>2026-04-11T13:57:32Z</time></trkpt><trkpt lat="43.94199230086106" lon="10.676407711620433"><ele>522.0</ele><time>2026-04-11T13:57:33Z</time></trkpt><trkpt lat="43.94205432845665" lon="10.676338987062374"><ele>523.0</ele><time>2026-04-11T13:57:34Z</time></trkpt><trkpt lat="43.94211577315249" lon="10.676285303212047"><ele>524.0</ele><time>2026-04-11T13:57:35Z</time></trkpt><trkpt lat="43.942176781674625" lon="10.67620525532728"><ele>525.0</ele><time>2026-04-11T13:57:36Z</time></trkpt><trkpt lat="43.94225160196257" lon="10.67615318055326"><ele>525.6666666666666</ele><time>2026-04-11T13:57:37Z</time></trkpt><trkpt lat="43.942306256741965" lon="10.676049559154649"><ele>526.3333333333334</ele><time>2026-04-11T13:57:38Z</time></trkpt><trkpt lat="43.942321900212015" lon="10.675955649764832"><ele>527.0</ele><time>2026-04-11T13:57:39Z</time></trkpt><trkpt lat="43.94237771879465" lon="10.6758686187556"><ele>527.6666666666667</ele><time>2026-04-11T13:57:40Z</time></trkpt><trkpt lat="43.94241820542483" lon="10.675794591234858"><ele>528.3333333333334</ele><time>2026-04-11T13:57:41Z</time></trkpt><trkpt lat="43.94252473920415" lon="10.675723763744324"><ele>529.0</ele><time>2026-04-11T13:57:43Z</time></trkpt><trkpt lat="43.94260047517459" lon="10.67570946014575"><ele>530.1666666666667</ele><time>2026-04-11T13:57:44Z</time></trkpt><trkpt lat="43.94263488350888" lon="10.67578416471619"><ele>531.3333333333334</ele><time>2026-04-11T13:57:52Z</time></trkpt><trkpt lat="43.94269097556181" lon="10.675682130611754"><ele>532.5</ele><time>2026-04-11T14:00:59Z</time></trkpt><trkpt lat="43.94270642665277" lon="10.675550158214163"><ele>533.6666666666666</ele><time>2026-04-11T14:01:01Z</time></trkpt><trkpt lat="43.942695559553194" lon="10.675419305285114"><ele>534.8333333333333</ele><time>2026-04-11T14:01:03Z</time></trkpt><trkpt lat="43.94267179725197" lon="10.675284280360234"><ele>536.0</ele><time>2026-04-11T14:01:05Z</time></trkpt><trkpt lat="43.942661479781805" lon="10.675136995921447"><ele>536.0</ele><time>2026-04-11T14:01:07Z</time></trkpt><trkpt lat="43.94263542223518" lon="10.675027745185982"><ele>536.0</ele><time>2026-04-11T14:01:09Z</time></trkpt><trkpt lat="43.94265010030565" lon="10.674938504005835"><ele>536.0</ele><time>2026-04-11T14:01:18Z</time></trkpt><trkpt lat="43.94273743049194" lon="10.67496820289489"><ele>536.0</ele><time>2026-04-11T14:01:20Z</time></trkpt><trkpt lat="43.94280069828089" lon="10.675002765509506"><ele>536.0</ele><time>2026-04-11T14:01:21Z</time></trkpt><trkpt lat="43.94287710243394" lon="10.674992413823942"><ele>536.0</ele><time>2026-04-11T14:01:22Z</time></trkpt><trkpt lat="43.9429421771204" lon="10.674995514001195"><ele>536.0</ele><time>2026-04-11T14:01:23Z</time></trkpt><trkpt lat="43.94300401558013" lon="10.674972315706794"><ele>536.0</ele><time>2026-04-11T14:01:24Z</time></trkpt><trkpt lat="43.94307985571376" lon="10.674863377362648"><ele>536.0</ele><time>2026-04-11T14:01:26Z</time></trkpt><trkpt lat="43.94311326535832" lon="10.674781729401735"><ele>536.0</ele><time>2026-04-11T14:01:27Z</time></trkpt><trkpt lat="43.943152592422095" lon="10.674677524740096"><ele>536.0</ele><time>2026-04-11T14:01:28Z</time></trkpt><trkpt lat="43.94321866212772" lon="10.674541219500004"><ele>536.0</ele><time>2026-04-11T14:01:30Z</time></trkpt><trkpt lat="43.94333156720771" lon="10.674518365266513"><ele>536.1666666666666</ele><time>2026-04-11T14:01:33Z</time></trkpt><trkpt lat="43.94340197116722" lon="10.674525381979228"><ele>536.3333333333333</ele><time>2026-04-11T14:01:34Z</time></trkpt><trkpt lat="43.94348168227517" lon="10.67448414650671"><ele>536.5</ele><time>2026-04-11T14:01:35Z</time></trkpt><trkpt lat="43.943570978790966" lon="10.67444936741112"><ele>536.6666666666666</ele><time>2026-04-11T14:01:36Z</time></trkpt><trkpt lat="43.943637962974556" lon="10.674415243481434"><ele>536.8333333333334</ele><time>2026-04-11T14:01:37Z</time></trkpt><trkpt lat="43.94372383165513" lon="10.674367171055373"><ele>537.0</ele><time>2026-04-11T14:01:39Z</time></trkpt><trkpt lat="43.94379840487151" lon="10.674274061707303"><ele>537.0</ele><time>2026-04-11T14:01:41Z</time></trkpt><trkpt lat="43.943865011349466" lon="10.67415993955142"><ele>537.0</ele><time>2026-04-11T14:01:43Z</time></trkpt><trkpt lat="43.94383496303379" lon="10.674005379000672"><ele>537.0</ele><time>2026-04-11T14:01:45Z</time></trkpt><trkpt lat="43.94381417264005" lon="10.673906577974149"><ele>537.0</ele><time>2026-04-11T14:01:46Z</time></trkpt><trkpt lat="43.94379242547458" lon="10.673809747991205"><ele>537.0</ele><time>2026-04-11T14:01:47Z</time></trkpt><trkpt lat="43.94377664641803" lon="10.673709472726328"><ele>537.0</ele><time>2026-04-11T14:01:48Z</time></trkpt><trkpt lat="43.94375446889025" lon="10.673596627180501"><ele>539.9999999999999</ele><time>2026-04-11T14:01:49Z</time></trkpt><trkpt lat="43.943756431793695" lon="10.673485952761222"><ele>543.0</ele><time>2026-04-11T14:01:50Z</time></trkpt><trkpt lat="43.94373799985832" lon="10.673393046719232"><ele>546.0</ele><time>2026-04-11T14:01:51Z</time></trkpt><trkpt lat="43.943746950781964" lon="10.67328733970954"><ele>549.0</ele><time>2026-04-11T14:01:52Z</time></trkpt><trkpt lat="43.943720552703674" lon="10.673185603323223"><ele>552.0</ele><time>2026-04-11T14:01:53Z</time></trkpt><trkpt lat="43.94370159707943" lon="10.673091972577184"><ele>554.9999999999999</ele><time>2026-04-11T14:01:54Z</time></trkpt><trkpt lat="43.94372737306393" lon="10.672994887957522"><ele>558.0</ele><time>2026-04-11T14:01:56Z</time></trkpt><trkpt lat="43.94382305016391" lon="10.67300008183456"><ele>558.0</ele><time>2026-04-11T14:01:58Z</time></trkpt><trkpt lat="43.943911440640186" lon="10.673092246830253"><ele>558.0</ele><time>2026-04-11T14:02:00Z</time></trkpt><trkpt lat="43.94396568467378" lon="10.673148175229935"><ele>558.0</ele><time>2026-04-11T14:02:01Z</time></trkpt><trkpt lat="43.944028288485654" lon="10.673196093283057"><ele>558.0</ele><time>2026-04-11T14:02:02Z</time></trkpt><trkpt lat="43.94409067698644" lon="10.673214274763152"><ele>558.0</ele><time>2026-04-11T14:02:03Z</time></trkpt><trkpt lat="43.94415567733624" lon="10.67312387387831"><ele>558.0</ele><time>2026-04-11T14:02:05Z</time></trkpt><trkpt lat="43.94417771354397" lon="10.673019460641427"><ele>558.0</ele><time>2026-04-11T14:02:07Z</time></trkpt><trkpt lat="43.944170558915076" lon="10.67286853315783"><ele>558.0</ele><time>2026-04-11T14:02:09Z</time></trkpt><trkpt lat="43.94420052821046" lon="10.672745913319375"><ele>558.0</ele><time>2026-04-11T14:02:11Z</time></trkpt><trkpt lat="43.944201713341116" lon="10.67261917374151"><ele>558.0</ele><time>2026-04-11T14:02:13Z</time></trkpt><trkpt lat="43.94428752458894" lon="10.672561809926934"><ele>558.0</ele><time>2026-04-11T14:02:15Z</time></trkpt><trkpt lat="43.94436076768466" lon="10.67254473018071"><ele>561.0</ele><time>2026-04-11T14:02:16Z</time></trkpt><trkpt lat="43.94444841152269" lon="10.672515173465511"><ele>564.0</ele><time>2026-04-11T14:02:17Z</time></trkpt><trkpt lat="43.944517805267786" lon="10.672481617897507"><ele>567.0</ele><time>2026-04-11T14:02:18Z</time></trkpt><trkpt lat="43.94464119967312" lon="10.672486675620448"><ele>570.0</ele><time>2026-04-11T14:02:20Z</time></trkpt><trkpt lat="43.9447074636732" lon="10.672502628181523"><ele>573.0</ele><time>2026-04-11T14:02:21Z</time></trkpt><trkpt lat="43.94477667017148" lon="10.67249858219689"><ele>576.0</ele><time>2026-04-11T14:02:22Z</time></trkpt><trkpt lat="43.94484113577922" lon="10.672490415817142"><ele>576.0</ele><time>2026-04-11T14:02:23Z</time></trkpt><trkpt lat="43.94495024009328" lon="10.672532545732226"><ele>576.0</ele><time>2026-04-11T14:02:24Z</time></trkpt><trkpt lat="43.945086514995864" lon="10.672520888447481"><ele>576.0</ele><time>2026-04-11T14:02:26Z</time></trkpt><trkpt lat="43.945176676201456" lon="10.672516246790751"><ele>576.0</ele><time>2026-04-11T14:02:27Z</time></trkpt><trkpt lat="43.94523143451655" lon="10.67246139429465"><ele>576.0</ele><time>2026-04-11T14:02:28Z</time></trkpt><trkpt lat="43.945289958167166" lon="10.672415433361074"><ele>575.1666666666666</ele><time>2026-04-11T14:02:29Z</time></trkpt><trkpt lat="43.945335794679956" lon="10.672352276837731"><ele>574.3333333333334</ele><time>2026-04-11T14:02:30Z</time></trkpt><trkpt lat="43.94537192357661" lon="10.672272923340563"><ele>573.5</ele><time>2026-04-11T14:02:31Z</time></trkpt><trkpt lat="43.9453953041935" lon="10.672177693938815"><ele>572.6666666666667</ele><time>2026-04-11T14:02:32Z</time></trkpt><trkpt lat="43.94543145357708" lon="10.67206509689382"><ele>571.8333333333334</ele><time>2026-04-11T14:02:33Z</time></trkpt><trkpt lat="43.94547014259707" lon="10.671971044105836"><ele>571.0</ele><time>2026-04-11T14:02:34Z</time></trkpt><trkpt lat="43.945508705239156" lon="10.671870352103662"><ele>571.0</ele><time>2026-04-11T14:02:35Z</time></trkpt><trkpt lat="43.94552908110025" lon="10.671787389988165"><ele>571.0</ele><time>2026-04-11T14:02:36Z</time></trkpt><trkpt lat="43.945532661681135" lon="10.671689855411508"><ele>571.0</ele><time>2026-04-11T14:02:37Z</time></trkpt><trkpt lat="43.945500759816795" lon="10.67152287508166"><ele>571.0</ele><time>2026-04-11T14:02:39Z</time></trkpt><trkpt lat="43.94547109200096" lon="10.671443744933356"><ele>571.0</ele><time>2026-04-11T14:02:40Z</time></trkpt><trkpt lat="43.94541843569284" lon="10.67136637729479"><ele>571.0</ele><time>2026-04-11T14:02:41Z</time></trkpt><trkpt lat="43.945342821294965" lon="10.671296656134258"><ele>571.0</ele><time>2026-04-11T14:02:42Z</time></trkpt><trkpt lat="43.94527112396477" lon="10.671237849682994"><ele>571.0</ele><time>2026-04-11T14:02:43Z</time></trkpt><trkpt lat="43.94520940453418" lon="10.671180180880912"><ele>571.0</ele><time>2026-04-11T14:02:44Z</time></trkpt><trkpt lat="43.94513642520886" lon="10.671118601564295"><ele>571.0</ele><time>2026-04-11T14:02:45Z</time></trkpt><trkpt lat="43.94506354197184" lon="10.671069314330513"><ele>571.0</ele><time>2026-04-11T14:02:46Z</time></trkpt><trkpt lat="43.944938090859736" lon="10.671023745973889"><ele>574.1666666666667</ele><time>2026-04-11T14:02:48Z</time></trkpt><trkpt lat="43.94484336366573" lon="10.671049304127655"><ele>577.3333333333334</ele><time>2026-04-11T14:02:49Z</time></trkpt><trkpt lat="43.94477410370179" lon="10.671090167809723"><ele>580.5</ele><time>2026-04-11T14:02:50Z</time></trkpt><trkpt lat="43.94470749794868" lon="10.67113472217216"><ele>583.6666666666666</ele><time>2026-04-11T14:02:51Z</time></trkpt><trkpt lat="43.94462840657869" lon="10.6711326765762"><ele>586.8333333333333</ele><time>2026-04-11T14:02:52Z</time></trkpt><trkpt lat="43.94454216807423" lon="10.671123305558075"><ele>590.0</ele><time>2026-04-11T14:02:53Z</time></trkpt><trkpt lat="43.944470951789704" lon="10.671106365799119"><ele>590.0</ele><time>2026-04-11T14:02:54Z</time></trkpt><trkpt lat="43.94436673878005" lon="10.671013770547022"><ele>590.0</ele><time>2026-04-11T14:02:56Z</time></trkpt><trkpt lat="43.94431671440794" lon="10.670949711555425"><ele>590.0</ele><time>2026-04-11T14:02:57Z</time></trkpt><trkpt lat="43.94428061272991" lon="10.670861295173381"><ele>590.0</ele><time>2026-04-11T14:02:58Z</time></trkpt><trkpt lat="43.944271666483246" lon="10.670768752490638"><ele>590.0</ele><time>2026-04-11T14:02:59Z</time></trkpt><trkpt lat="43.94427885126755" lon="10.670660713647406"><ele>590.0</ele><time>2026-04-11T14:03:00Z</time></trkpt><trkpt lat="43.94429848827289" lon="10.670566342572693"><ele>590.0</ele><time>2026-04-11T14:03:01Z</time></trkpt><trkpt lat="43.944315588368575" lon="10.670454030717382"><ele>590.0</ele><time>2026-04-11T14:03:02Z</time></trkpt><trkpt lat="43.94428968454922" lon="10.670282397080019"><ele>590.0</ele><time>2026-04-11T14:03:04Z</time></trkpt><trkpt lat="43.94419668041714" lon="10.670144167037503"><ele>590.0</ele><time>2026-04-11T14:03:06Z</time></trkpt><trkpt lat="43.944124036525594" lon="10.670106364083166"><ele>590.0</ele><time>2026-04-11T14:03:07Z</time></trkpt><trkpt lat="43.94413634451751" lon="10.669994306451596"><ele>590.6</ele><time>2026-04-11T14:03:09Z</time></trkpt><trkpt lat="43.94421895861414" lon="10.669991476777437"><ele>591.2</ele><time>2026-04-11T14:03:11Z</time></trkpt><trkpt lat="43.944302567473876" lon="10.669971056000858"><ele>591.8</ele><time>2026-04-11T14:03:12Z</time></trkpt><trkpt lat="43.944383329917784" lon="10.669928197914412"><ele>592.4</ele><time>2026-04-11T14:03:13Z</time></trkpt><trkpt lat="43.94445219538074" lon="10.669896777654133"><ele>593.0</ele><time>2026-04-11T14:03:14Z</time></trkpt><trkpt lat="43.944507631550934" lon="10.669742826255705"><ele>593.0</ele><time>2026-04-11T14:03:16Z</time></trkpt><trkpt lat="43.94449274619727" lon="10.669577414647964"><ele>593.0</ele><time>2026-04-11T14:03:18Z</time></trkpt><trkpt lat="43.94447987378813" lon="10.66946020595379"><ele>593.0</ele><time>2026-04-11T14:03:19Z</time></trkpt><trkpt lat="43.94448583357069" lon="10.669325775722708"><ele>593.0</ele><time>2026-04-11T14:03:20Z</time></trkpt><trkpt lat="43.94449442482323" lon="10.669213472461786"><ele>593.0</ele><time>2026-04-11T14:03:21Z</time></trkpt><trkpt lat="43.944505365193606" lon="10.669122034784895"><ele>595.0</ele><time>2026-04-11T14:03:52Z</time></trkpt><trkpt lat="43.944610473762054" lon="10.669145616813553"><ele>597.0</ele><time>2026-04-11T14:04:16Z</time></trkpt><trkpt lat="43.94474402001296" lon="10.669134167597255"><ele>599.0</ele><time>2026-04-11T14:04:18Z</time></trkpt><trkpt lat="43.94485736478776" lon="10.669136759068094"><ele>601.0</ele><time>2026-04-11T14:04:20Z</time></trkpt><trkpt lat="43.944890101050916" lon="10.669227675273543"><ele>603.0</ele><time>2026-04-11T14:04:21Z</time></trkpt><trkpt lat="43.944925052403605" lon="10.669361031762664"><ele>603.0</ele><time>2026-04-11T14:04:22Z</time></trkpt><trkpt lat="43.94500876353153" lon="10.669383584340935"><ele>603.0</ele><time>2026-04-11T14:04:23Z</time></trkpt><trkpt lat="43.94508952626722" lon="10.669482611597855"><ele>603.0</ele><time>2026-04-11T14:04:25Z</time></trkpt><trkpt lat="43.94517218944" lon="10.669534752941265"><ele>603.0</ele><time>2026-04-11T14:04:26Z</time></trkpt><trkpt lat="43.94525157098223" lon="10.669574474463088"><ele>603.0</ele><time>2026-04-11T14:04:27Z</time></trkpt><trkpt lat="43.945326505598274" lon="10.66962132322823"><ele>601.6666666666666</ele><time>2026-04-11T14:04:28Z</time></trkpt><trkpt lat="43.94539937324036" lon="10.66966809721449"><ele>600.3333333333334</ele><time>2026-04-11T14:04:29Z</time></trkpt><trkpt lat="43.94546748967791" lon="10.669718982587538"><ele>599.0</ele><time>2026-04-11T14:04:30Z</time></trkpt><trkpt lat="43.94556594035005" lon="10.669744890386612"><ele>597.6666666666667</ele><time>2026-04-11T14:04:31Z</time></trkpt><trkpt lat="43.94561984970614" lon="10.669790839071622"><ele>596.3333333333334</ele><time>2026-04-11T14:04:32Z</time></trkpt><trkpt lat="43.94569386777389" lon="10.66979552186865"><ele>595.0</ele><time>2026-04-11T14:04:33Z</time></trkpt><trkpt lat="43.94575561557382" lon="10.669755592846796"><ele>595.0</ele><time>2026-04-11T14:04:34Z</time></trkpt><trkpt lat="43.94581254373612" lon="10.669696236855977"><ele>595.0</ele><time>2026-04-11T14:04:35Z</time></trkpt><trkpt lat="43.94586145568281" lon="10.66961688257947"><ele>595.0</ele><time>2026-04-11T14:04:36Z</time></trkpt><trkpt lat="43.94590089434907" lon="10.66954587418976"><ele>595.0</ele><time>2026-04-11T14:04:37Z</time></trkpt><trkpt lat="43.94602986205121" lon="10.669512513443747"><ele>595.0</ele><time>2026-04-11T14:04:39Z</time></trkpt><trkpt lat="43.946104026178006" lon="10.66948164882009"><ele>595.0</ele><time>2026-04-11T14:04:40Z</time></trkpt><trkpt lat="43.946178720928316" lon="10.669466655919935"><ele>594.6666666666667</ele><time>2026-04-11T14:04:41Z</time></trkpt><trkpt lat="43.94623988743844" lon="10.669492604636597"><ele>594.3333333333334</ele><time>2026-04-11T14:04:42Z</time></trkpt><trkpt lat="43.946307647828256" lon="10.669499359087217"><ele>594.0</ele><time>2026-04-11T14:04:43Z</time></trkpt><trkpt lat="43.946441591104" lon="10.669509443865776"><ele>593.6666666666666</ele><time>2026-04-11T14:04:45Z</time></trkpt><trkpt lat="43.94651934727574" lon="10.669515582321104"><ele>593.3333333333333</ele><time>2026-04-11T14:04:46Z</time></trkpt><trkpt lat="43.946585324561894" lon="10.669525408728518"><ele>593.0</ele><time>2026-04-11T14:04:47Z</time></trkpt><trkpt lat="43.94670511533038" lon="10.669564568958458"><ele>593.3333333333333</ele><time>2026-04-11T14:04:49Z</time></trkpt><trkpt lat="43.946774099799256" lon="10.669696380894097"><ele>593.6666666666666</ele><time>2026-04-11T14:04:51Z</time></trkpt><trkpt lat="43.94683911249067" lon="10.669797433674969"><ele>594.0</ele><time>2026-04-11T14:04:53Z</time></trkpt><trkpt lat="43.946889044583266" lon="10.669877274744568"><ele>594.3333333333334</ele><time>2026-04-11T14:04:55Z</time></trkpt><trkpt lat="43.946947624358366" lon="10.669943573879332"><ele>594.6666666666667</ele><time>2026-04-11T14:04:57Z</time></trkpt><trkpt lat="43.947025580641935" lon="10.669954719731436"><ele>595.0</ele><time>2026-04-11T14:05:00Z</time></trkpt><trkpt lat="43.94710069078584" lon="10.669974327209133"><ele>595.0</ele><time>2026-04-11T14:06:02Z</time></trkpt><trkpt lat="43.947162589871375" lon="10.66995785505073"><ele>595.0</ele><time>2026-04-11T14:06:03Z</time></trkpt><trkpt lat="43.94728962949648" lon="10.669934612424909"><ele>595.0</ele><time>2026-04-11T14:06:05Z</time></trkpt><trkpt lat="43.94741520001235" lon="10.669914790185638"><ele>595.0</ele><time>2026-04-11T14:06:07Z</time></trkpt><trkpt lat="43.947491030729026" lon="10.669900520060342"><ele>595.0</ele><time>2026-04-11T14:06:08Z</time></trkpt><trkpt lat="43.94756206457559" lon="10.669904899225537"><ele>594.8333333333334</ele><time>2026-04-11T14:06:09Z</time></trkpt><trkpt lat="43.94764470959763" lon="10.66992198528136"><ele>594.6666666666667</ele><time>2026-04-11T14:06:10Z</time></trkpt><trkpt lat="43.947740616968325" lon="10.669911673412892"><ele>594.5</ele><time>2026-04-11T14:06:11Z</time></trkpt><trkpt lat="43.94780485151624" lon="10.669914099400922"><ele>594.3333333333334</ele><time>2026-04-11T14:06:12Z</time></trkpt><trkpt lat="43.9478697694705" lon="10.66992551415614"><ele>594.1666666666666</ele><time>2026-04-11T14:06:13Z</time></trkpt><trkpt lat="43.94794554450935" lon="10.669940996872626"><ele>594.0</ele><time>2026-04-11T14:06:14Z</time></trkpt><trkpt lat="43.94801782920926" lon="10.669977218541298"><ele>594.0</ele><time>2026-04-11T14:06:15Z</time></trkpt><trkpt lat="43.94809624670118" lon="10.670016970918804"><ele>594.0</ele><time>2026-04-11T14:06:16Z</time></trkpt><trkpt lat="43.94817216038661" lon="10.67004122052844"><ele>594.0</ele><time>2026-04-11T14:06:17Z</time></trkpt><trkpt lat="43.94825092018274" lon="10.670067804848337"><ele>594.0</ele><time>2026-04-11T14:06:18Z</time></trkpt><trkpt lat="43.94838584173677" lon="10.670095818381437"><ele>594.0</ele><time>2026-04-11T14:06:20Z</time></trkpt><trkpt lat="43.94851867252599" lon="10.670051797893686"><ele>596.2</ele><time>2026-04-11T14:06:22Z</time></trkpt><trkpt lat="43.94859628573438" lon="10.670047906569375"><ele>598.4</ele><time>2026-04-11T14:06:23Z</time></trkpt><trkpt lat="43.94866226652169" lon="10.670036300323897"><ele>600.6</ele><time>2026-04-11T14:06:24Z</time></trkpt><trkpt lat="43.94877061921668" lon="10.67010983960013"><ele>602.8</ele><time>2026-04-11T14:06:26Z</time></trkpt><trkpt lat="43.94884756666323" lon="10.670259755436499"><ele>605.0</ele><time>2026-04-11T14:06:28Z</time></trkpt><trkpt lat="43.94887770268826" lon="10.670439303542098"><ele>605.0</ele><time>2026-04-11T14:06:30Z</time></trkpt><trkpt lat="43.94891521037896" lon="10.670601617755434"><ele>605.0</ele><time>2026-04-11T14:06:32Z</time></trkpt><trkpt lat="43.94894425369198" lon="10.670687545725572"><ele>605.0</ele><time>2026-04-11T14:06:33Z</time></trkpt><trkpt lat="43.94896997048986" lon="10.670772966412814"><ele>605.0</ele><time>2026-04-11T14:06:34Z</time></trkpt><trkpt lat="43.949020861425794" lon="10.67084468412356"><ele>605.0</ele><time>2026-04-11T14:06:35Z</time></trkpt><trkpt lat="43.94907483125539" lon="10.670903674667217"><ele>605.0</ele><time>2026-04-11T14:06:36Z</time></trkpt><trkpt lat="43.949127490299" lon="10.670953176734894"><ele>605.0</ele><time>2026-04-11T14:06:37Z</time></trkpt><trkpt lat="43.94919833473685" lon="10.670975610110387"><ele>605.0</ele><time>2026-04-11T14:06:38Z</time></trkpt><trkpt lat="43.94927276679076" lon="10.671012527874522"><ele>605.0</ele><time>2026-04-11T14:06:40Z</time></trkpt><trkpt lat="43.94936107782931" lon="10.671107898006328"><ele>605.0</ele><time>2026-04-11T14:06:42Z</time></trkpt><trkpt lat="43.94939193478357" lon="10.671194814071898"><ele>605.0</ele><time>2026-04-11T14:06:43Z</time></trkpt><trkpt lat="43.94943294311861" lon="10.671266928400641"><ele>605.0</ele><time>2026-04-11T14:06:44Z</time></trkpt><trkpt lat="43.949472984305515" lon="10.671354253023427"><ele>607.5</ele><time>2026-04-11T14:06:45Z</time></trkpt><trkpt lat="43.94950828084891" lon="10.671441707455847"><ele>610.0</ele><time>2026-04-11T14:06:46Z</time></trkpt><trkpt lat="43.94953790502454" lon="10.67152125977677"><ele>612.5</ele><time>2026-04-11T14:06:47Z</time></trkpt><trkpt lat="43.94953645605387" lon="10.671622928770116"><ele>615.0</ele><time>2026-04-11T14:06:48Z</time></trkpt><trkpt lat="43.94956795672347" lon="10.67171501353414"><ele>617.5</ele><time>2026-04-11T14:06:49Z</time></trkpt><trkpt lat="43.94947874183438" lon="10.671813468368967"><ele>620.0</ele><time>2026-04-11T14:06:50Z</time></trkpt><trkpt lat="43.949533372666174" lon="10.671953179890478"><ele>620.6666666666666</ele><time>2026-04-11T14:06:52Z</time></trkpt><trkpt lat="43.94961460809564" lon="10.672055383222114"><ele>621.3333333333333</ele><time>2026-04-11T14:06:54Z</time></trkpt><trkpt lat="43.94970351179386" lon="10.672148161208133"><ele>622.0</ele><time>2026-04-11T14:06:55Z</time></trkpt><trkpt lat="43.949765545608244" lon="10.672200717024502"><ele>622.6666666666666</ele><time>2026-04-11T14:06:56Z</time></trkpt><trkpt lat="43.949813281369146" lon="10.672279804359809"><ele>623.3333333333334</ele><time>2026-04-11T14:06:57Z</time></trkpt><trkpt lat="43.94986868540684" lon="10.672329083002722"><ele>624.0</ele><time>2026-04-11T14:06:58Z</time></trkpt><trkpt lat="43.95000071069055" lon="10.672368114255208"><ele>627.0</ele><time>2026-04-11T14:07:00Z</time></trkpt><trkpt lat="43.95015735375598" lon="10.672372785926498"><ele>630.0</ele><time>2026-04-11T14:07:02Z</time></trkpt><trkpt lat="43.95023074532295" lon="10.67238158219986"><ele>633.0</ele><time>2026-04-11T14:07:03Z</time></trkpt><trkpt lat="43.950343678851745" lon="10.672420884379273"><ele>636.0</ele><time>2026-04-11T14:07:05Z</time></trkpt><trkpt lat="43.95043723284957" lon="10.672382777890457"><ele>639.0</ele><time>2026-04-11T14:07:06Z</time></trkpt><trkpt lat="43.950501669970116" lon="10.672402558942306"><ele>639.0</ele><time>2026-04-11T14:07:07Z</time></trkpt><trkpt lat="43.95061046448082" lon="10.67247445630161"><ele>639.0</ele><time>2026-04-11T14:07:09Z</time></trkpt><trkpt lat="43.950680615317886" lon="10.672501478326534"><ele>639.0</ele><time>2026-04-11T14:07:10Z</time></trkpt><trkpt lat="43.950762020252014" lon="10.672487066824374"><ele>639.0</ele><time>2026-04-11T14:07:11Z</time></trkpt><trkpt lat="43.950844005872156" lon="10.67247001121433"><ele>639.0</ele><time>2026-04-11T14:07:12Z</time></trkpt><trkpt lat="43.95091693822624" lon="10.672453342237823"><ele>639.0</ele><time>2026-04-11T14:07:13Z</time></trkpt><trkpt lat="43.950991785041104" lon="10.672421185786305"><ele>639.6666666666666</ele><time>2026-04-11T14:07:14Z</time></trkpt><trkpt lat="43.95105730530057" lon="10.672414888482438"><ele>640.3333333333334</ele><time>2026-04-11T14:07:15Z</time></trkpt><trkpt lat="43.951129978896404" lon="10.672405076430385"><ele>641.0</ele><time>2026-04-11T14:07:16Z</time></trkpt><trkpt lat="43.9512066159572" lon="10.672398783921535"><ele>641.6666666666667</ele><time>2026-04-11T14:07:17Z</time></trkpt><trkpt lat="43.95128568725301" lon="10.672387758396535"><ele>642.3333333333334</ele><time>2026-04-11T14:07:18Z</time></trkpt><trkpt lat="43.951368125442585" lon="10.672415183432078"><ele>643.0</ele><time>2026-04-11T14:07:19Z</time></trkpt><trkpt lat="43.95144024356863" lon="10.672443541464581"><ele>643.0</ele><time>2026-04-11T14:07:20Z</time></trkpt><trkpt lat="43.95150275654561" lon="10.67246785723082"><ele>643.0</ele><time>2026-04-11T14:07:21Z</time></trkpt><trkpt lat="43.951615834933015" lon="10.6725492259413"><ele>643.0</ele><time>2026-04-11T14:07:23Z</time></trkpt><trkpt lat="43.95168579800328" lon="10.672559567635476"><ele>643.0</ele><time>2026-04-11T14:07:24Z</time></trkpt><trkpt lat="43.951761844214765" lon="10.672553883665822"><ele>643.0</ele><time>2026-04-11T14:07:25Z</time></trkpt><trkpt lat="43.95183896363594" lon="10.672570736109522"><ele>643.0</ele><time>2026-04-11T14:07:26Z</time></trkpt><trkpt lat="43.951914361633236" lon="10.672609951040142"><ele>645.3333333333334</ele><time>2026-04-11T14:07:27Z</time></trkpt><trkpt lat="43.951973052578964" lon="10.672670412256291"><ele>647.6666666666667</ele><time>2026-04-11T14:07:28Z</time></trkpt><trkpt lat="43.951997081563015" lon="10.672758376993018"><ele>650.0</ele><time>2026-04-11T14:07:29Z</time></trkpt><trkpt lat="43.95206346798307" lon="10.672900029473048"><ele>652.3333333333334</ele><time>2026-04-11T14:07:31Z</time></trkpt><trkpt lat="43.9521184092729" lon="10.672958360035134"><ele>654.6666666666666</ele><time>2026-04-11T14:07:32Z</time></trkpt><trkpt lat="43.95217750559147" lon="10.6730242998336"><ele>657.0</ele><time>2026-04-11T14:07:33Z</time></trkpt><trkpt lat="43.952240912810986" lon="10.673092618748989"><ele>657.0</ele><time>2026-04-11T14:07:34Z</time></trkpt><trkpt lat="43.95228809560267" lon="10.673153496268796"><ele>657.0</ele><time>2026-04-11T14:07:35Z</time></trkpt><trkpt lat="43.95233737395385" lon="10.673218225972287"><ele>657.0</ele><time>2026-04-11T14:07:36Z</time></trkpt><trkpt lat="43.95238296035407" lon="10.673292031966993"><ele>657.0</ele><time>2026-04-11T14:07:37Z</time></trkpt><trkpt lat="43.95245755589936" lon="10.673324153134097"><ele>657.0</ele><time>2026-04-11T14:07:38Z</time></trkpt><trkpt lat="43.952556111223295" lon="10.673356409447356"><ele>657.0</ele><time>2026-04-11T14:07:40Z</time></trkpt><trkpt lat="43.95261617320128" lon="10.673401192740391"><ele>658.0</ele><time>2026-04-11T14:07:41Z</time></trkpt><trkpt lat="43.95268035468941" lon="10.67345224286135"><ele>659.0</ele><time>2026-04-11T14:07:42Z</time></trkpt><trkpt lat="43.95273546220597" lon="10.67350439982614"><ele>660.0</ele><time>2026-04-11T14:07:43Z</time></trkpt><trkpt lat="43.95277478027383" lon="10.673579262640752"><ele>661.0</ele><time>2026-04-11T14:07:44Z</time></trkpt><trkpt lat="43.95281579088225" lon="10.673660952806197"><ele>662.0</ele><time>2026-04-11T14:07:45Z</time></trkpt><trkpt lat="43.952856633156124" lon="10.67373563492743"><ele>663.0</ele><time>2026-04-11T14:07:46Z</time></trkpt><trkpt lat="43.952911451712886" lon="10.673800075687598"><ele>664.0</ele><time>2026-04-11T14:07:47Z</time></trkpt><trkpt lat="43.95299207874319" lon="10.673826816280608"><ele>664.0</ele><time>2026-04-11T14:07:48Z</time></trkpt><trkpt lat="43.95305780938499" lon="10.673860785490445"><ele>664.0</ele><time>2026-04-11T14:07:49Z</time></trkpt><trkpt lat="43.95311838347911" lon="10.673910914837071"><ele>664.0</ele><time>2026-04-11T14:07:50Z</time></trkpt><trkpt lat="43.95320582791135" lon="10.67396943770345"><ele>664.0</ele><time>2026-04-11T14:07:51Z</time></trkpt><trkpt lat="43.95325902775637" lon="10.674025976084904"><ele>664.0</ele><time>2026-04-11T14:07:52Z</time></trkpt><trkpt lat="43.95330826816015" lon="10.674084230472968"><ele>664.0</ele><time>2026-04-11T14:07:53Z</time></trkpt><trkpt lat="43.95332692094057" lon="10.674185551930501"><ele>664.0</ele><time>2026-04-11T14:07:54Z</time></trkpt><trkpt lat="43.95335575803492" lon="10.674294649247283"><ele>663.4000000000001</ele><time>2026-04-11T14:07:55Z</time></trkpt><trkpt lat="43.95338251480954" lon="10.674435606133422"><ele>662.8</ele><time>2026-04-11T14:07:56Z</time></trkpt><trkpt lat="43.9534093154314" lon="10.674586052727305"><ele>662.2</ele><time>2026-04-11T14:07:57Z</time></trkpt><trkpt lat="43.953390832281144" lon="10.674709588065701"><ele>661.5999999999999</ele><time>2026-04-11T14:07:58Z</time></trkpt><trkpt lat="43.95341225518807" lon="10.674798829471936"><ele>661.0</ele><time>2026-04-11T14:07:59Z</time></trkpt><trkpt lat="43.95347096886367" lon="10.674884206533639"><ele>662.0</ele><time>2026-04-11T14:08:00Z</time></trkpt><trkpt lat="43.9535371371519" lon="10.674965088995771"><ele>663.0</ele><time>2026-04-11T14:08:01Z</time></trkpt><trkpt lat="43.95358821323072" lon="10.675048240266111"><ele>664.0</ele><time>2026-04-11T14:08:02Z</time></trkpt><trkpt lat="43.95363905276741" lon="10.675128201884148"><ele>665.0</ele><time>2026-04-11T14:08:03Z</time></trkpt><trkpt lat="43.953712283700014" lon="10.675209100231674"><ele>666.0</ele><time>2026-04-11T14:08:04Z</time></trkpt><trkpt lat="43.95379901159382" lon="10.675261175125684"><ele>667.0</ele><time>2026-04-11T14:08:05Z</time></trkpt><trkpt lat="43.953881020878036" lon="10.675314163504977"><ele>667.0</ele><time>2026-04-11T14:08:06Z</time></trkpt><trkpt lat="43.95394443865058" lon="10.675368741809386"><ele>667.0</ele><time>2026-04-11T14:08:07Z</time></trkpt><trkpt lat="43.954035250730634" lon="10.675397363954255"><ele>667.0</ele><time>2026-04-11T14:08:08Z</time></trkpt><trkpt lat="43.95412616105011" lon="10.675439728504742"><ele>667.0</ele><time>2026-04-11T14:08:09Z</time></trkpt><trkpt lat="43.95424093805149" lon="10.675470092442868"><ele>667.0</ele><time>2026-04-11T14:08:10Z</time></trkpt><trkpt lat="43.95436420585242" lon="10.675519383215157"><ele>666.6</ele><time>2026-04-11T14:08:11Z</time></trkpt><trkpt lat="43.95446935964909" lon="10.675557986451928"><ele>666.2</ele><time>2026-04-11T14:08:12Z</time></trkpt><trkpt lat="43.954560628938594" lon="10.675606355947"><ele>665.8</ele><time>2026-04-11T14:08:13Z</time></trkpt><trkpt lat="43.9546352536979" lon="10.675658037172996"><ele>665.4</ele><time>2026-04-11T14:08:14Z</time></trkpt><trkpt lat="43.95471670620163" lon="10.675691500891572"><ele>665.0</ele><time>2026-04-11T14:08:15Z</time></trkpt><trkpt lat="43.95479379766611" lon="10.675689789348969"><ele>665.0</ele><time>2026-04-11T14:08:16Z</time></trkpt><trkpt lat="43.95487373294095" lon="10.675670303987623"><ele>665.0</ele><time>2026-04-11T14:08:17Z</time></trkpt><trkpt lat="43.95495738986956" lon="10.675559143063062"><ele>665.0</ele><time>2026-04-11T14:08:18Z</time></trkpt><trkpt lat="43.95500908120751" lon="10.67543391573736"><ele>665.0</ele><time>2026-04-11T14:08:19Z</time></trkpt><trkpt lat="43.955073832339004" lon="10.675376319278033"><ele>665.0</ele><time>2026-04-11T14:08:20Z</time></trkpt><trkpt lat="43.955137455512876" lon="10.675303051728198"><ele>665.8333333333333</ele><time>2026-04-11T14:08:21Z</time></trkpt><trkpt lat="43.95519455089875" lon="10.67524989650184"><ele>666.6666666666666</ele><time>2026-04-11T14:08:22Z</time></trkpt><trkpt lat="43.95524551467509" lon="10.675191207607003"><ele>667.5</ele><time>2026-04-11T14:08:23Z</time></trkpt><trkpt lat="43.95535156294955" lon="10.67508565732952"><ele>668.3333333333334</ele><time>2026-04-11T14:08:25Z</time></trkpt><trkpt lat="43.95541366736729" lon="10.675020683101923"><ele>669.1666666666667</ele><time>2026-04-11T14:08:26Z</time></trkpt><trkpt lat="43.95547704740351" lon="10.674972016423856"><ele>670.0</ele><time>2026-04-11T14:08:27Z</time></trkpt><trkpt lat="43.95554876272633" lon="10.674922238295553"><ele>670.0</ele><time>2026-04-11T14:08:28Z</time></trkpt><trkpt lat="43.95562455262178" lon="10.674946525022575"><ele>670.0</ele><time>2026-04-11T14:08:29Z</time></trkpt><trkpt lat="43.95569687723963" lon="10.674995253941162"><ele>670.0</ele><time>2026-04-11T14:08:30Z</time></trkpt><trkpt lat="43.955789566439165" lon="10.675057684723106"><ele>670.0</ele><time>2026-04-11T14:08:31Z</time></trkpt><trkpt lat="43.95587746467107" lon="10.675141526386403"><ele>670.0</ele><time>2026-04-11T14:08:32Z</time></trkpt><trkpt lat="43.955960505813024" lon="10.675247939686693"><ele>668.3333333333334</ele><time>2026-04-11T14:08:33Z</time></trkpt><trkpt lat="43.956033118078665" lon="10.675327773299488"><ele>666.6666666666667</ele><time>2026-04-11T14:08:34Z</time></trkpt><trkpt lat="43.95610310997877" lon="10.675372226498636"><ele>665.0</ele><time>2026-04-11T14:08:35Z</time></trkpt><trkpt lat="43.956165417558275" lon="10.675414558176836"><ele>663.3333333333334</ele><time>2026-04-11T14:08:36Z</time></trkpt><trkpt lat="43.95622786617152" lon="10.675448114406455"><ele>661.6666666666666</ele><time>2026-04-11T14:08:37Z</time></trkpt><trkpt lat="43.9563711438159" lon="10.675446983617938"><ele>660.0</ele><time>2026-04-11T14:08:39Z</time></trkpt><trkpt lat="43.956448284398675" lon="10.675416337245794"><ele>660.0</ele><time>2026-04-11T14:08:40Z</time></trkpt><trkpt lat="43.956548584041286" lon="10.675392295625157"><ele>660.0</ele><time>2026-04-11T14:08:41Z</time></trkpt><trkpt lat="43.95664008380715" lon="10.675354135639285"><ele>660.0</ele><time>2026-04-11T14:08:42Z</time></trkpt><trkpt lat="43.95673184510336" lon="10.675313226504562"><ele>660.0</ele><time>2026-04-11T14:08:43Z</time></trkpt><trkpt lat="43.95680878571831" lon="10.675276555781723"><ele>660.0</ele><time>2026-04-11T14:08:44Z</time></trkpt><trkpt lat="43.956898964866944" lon="10.675267240250447"><ele>660.8</ele><time>2026-04-11T14:08:45Z</time></trkpt><trkpt lat="43.95699465033756" lon="10.675263382938386"><ele>661.6</ele><time>2026-04-11T14:08:46Z</time></trkpt><trkpt lat="43.95708836707696" lon="10.67531794684763"><ele>662.4000000000001</ele><time>2026-04-11T14:08:47Z</time></trkpt><trkpt lat="43.95717031807481" lon="10.675378753701786"><ele>663.2</ele><time>2026-04-11T14:08:48Z</time></trkpt><trkpt lat="43.95725852982352" lon="10.675467282063432"><ele>664.0</ele><time>2026-04-11T14:08:49Z</time></trkpt><trkpt lat="43.95732874890507" lon="10.675529176634631"><ele>664.6666666666667</ele><time>2026-04-11T14:08:50Z</time></trkpt><trkpt lat="43.95737537970791" lon="10.675617236540786"><ele>665.3333333333334</ele><time>2026-04-11T14:08:51Z</time></trkpt><trkpt lat="43.95744116346934" lon="10.675655269916952"><ele>666.0</ele><time>2026-04-11T14:08:52Z</time></trkpt><trkpt lat="43.95753889880293" lon="10.675758463675493"><ele>666.6666666666666</ele><time>2026-04-11T14:08:54Z</time></trkpt><trkpt lat="43.957610718104746" lon="10.675824150493389"><ele>667.3333333333333</ele><time>2026-04-11T14:08:55Z</time></trkpt><trkpt lat="43.957680325113365" lon="10.675893671744504"><ele>668.0</ele><time>2026-04-11T14:08:56Z</time></trkpt><trkpt lat="43.95774544862287" lon="10.675965731217032"><ele>669.0</ele><time>2026-04-11T14:08:57Z</time></trkpt><trkpt lat="43.95780600801495" lon="10.676059228172917"><ele>670.0</ele><time>2026-04-11T14:08:58Z</time></trkpt><trkpt lat="43.95785742136473" lon="10.676153616807946"><ele>671.0</ele><time>2026-04-11T14:08:59Z</time></trkpt><trkpt lat="43.95790727555629" lon="10.67625492226169"><ele>672.0</ele><time>2026-04-11T14:09:00Z</time></trkpt><trkpt lat="43.957949383284294" lon="10.676343295007523"><ele>673.0</ele><time>2026-04-11T14:09:01Z</time></trkpt><trkpt lat="43.958022212355935" lon="10.676406654164165"><ele>674.0</ele><time>2026-04-11T14:09:02Z</time></trkpt><trkpt lat="43.95810616198067" lon="10.676457402641807"><ele>674.0</ele><time>2026-04-11T14:09:03Z</time></trkpt><trkpt lat="43.95818294732452" lon="10.676456674145609"><ele>674.0</ele><time>2026-04-11T14:09:04Z</time></trkpt><trkpt lat="43.95826262324155" lon="10.67644284972141"><ele>674.0</ele><time>2026-04-11T14:09:05Z</time></trkpt><trkpt lat="43.958354673965864" lon="10.676452469601234"><ele>674.0</ele><time>2026-04-11T14:09:06Z</time></trkpt><trkpt lat="43.958429468989664" lon="10.676475450269807"><ele>674.0</ele><time>2026-04-11T14:09:07Z</time></trkpt><trkpt lat="43.958532596243074" lon="10.676473124666677"><ele>674.0</ele><time>2026-04-11T14:09:08Z</time></trkpt><trkpt lat="43.95862049802766" lon="10.676482151866907"><ele>674.6666666666666</ele><time>2026-04-11T14:09:09Z</time></trkpt><trkpt lat="43.95871099197205" lon="10.676518904027052"><ele>675.3333333333333</ele><time>2026-04-11T14:09:10Z</time></trkpt><trkpt lat="43.95878740548923" lon="10.676536450216686"><ele>676.0</ele><time>2026-04-11T14:09:11Z</time></trkpt><trkpt lat="43.958858888412706" lon="10.67653194673062"><ele>676.6666666666666</ele><time>2026-04-11T14:09:12Z</time></trkpt><trkpt lat="43.95894487760575" lon="10.676516173298559"><ele>677.3333333333334</ele><time>2026-04-11T14:09:13Z</time></trkpt><trkpt lat="43.95902813715359" lon="10.676482088202428"><ele>678.0</ele><time>2026-04-11T14:09:14Z</time></trkpt><trkpt lat="43.95910702113024" lon="10.676435417069008"><ele>678.0</ele><time>2026-04-11T14:09:15Z</time></trkpt><trkpt lat="43.959173747302806" lon="10.676382290092523"><ele>678.0</ele><time>2026-04-11T14:09:16Z</time></trkpt><trkpt lat="43.95922988760164" lon="10.676317515740095"><ele>678.0</ele><time>2026-04-11T14:09:17Z</time></trkpt><trkpt lat="43.95926289125163" lon="10.676241789770785"><ele>678.0</ele><time>2026-04-11T14:09:18Z</time></trkpt><trkpt lat="43.95930897528621" lon="10.67615093968636"><ele>678.0</ele><time>2026-04-11T14:09:19Z</time></trkpt><trkpt lat="43.959356469606554" lon="10.676058747593803"><ele>678.0</ele><time>2026-04-11T14:09:20Z</time></trkpt><trkpt lat="43.95941088576012" lon="10.675954639287758"><ele>676.4</ele><time>2026-04-11T14:09:21Z</time></trkpt><trkpt lat="43.959456190565795" lon="10.675855175381873"><ele>674.8</ele><time>2026-04-11T14:09:22Z</time></trkpt><trkpt lat="43.9594928687094" lon="10.675772226505147"><ele>673.2</ele><time>2026-04-11T14:09:23Z</time></trkpt><trkpt lat="43.95957450259806" lon="10.675614665364472"><ele>671.6</ele><time>2026-04-11T14:09:25Z</time></trkpt><trkpt lat="43.95961277830001" lon="10.675534922638791"><ele>670.0</ele><time>2026-04-11T14:09:26Z</time></trkpt><trkpt lat="43.959698810943586" lon="10.67541389704122"><ele>670.0</ele><time>2026-04-11T14:09:28Z</time></trkpt><trkpt lat="43.95975749470688" lon="10.675360158093243"><ele>670.0</ele><time>2026-04-11T14:09:29Z</time></trkpt><trkpt lat="43.959865453139166" lon="10.675389156101454"><ele>670.0</ele><time>2026-04-11T14:09:30Z</time></trkpt><trkpt lat="43.95991601936341" lon="10.675570113936546"><ele>670.0</ele><time>2026-04-11T14:09:32Z</time></trkpt><trkpt lat="43.95999732062601" lon="10.675571697489495"><ele>670.0</ele><time>2026-04-11T14:09:33Z</time></trkpt><trkpt lat="43.960060210526876" lon="10.675588389866624"><ele>668.6666666666667</ele><time>2026-04-11T14:09:34Z</time></trkpt><trkpt lat="43.96019166570145" lon="10.675650130554718"><ele>667.3333333333334</ele><time>2026-04-11T14:09:36Z</time></trkpt><trkpt lat="43.960249513439706" lon="10.67571482758321"><ele>666.0</ele><time>2026-04-11T14:09:37Z</time></trkpt><trkpt lat="43.96030323126184" lon="10.675769496250583"><ele>664.6666666666666</ele><time>2026-04-11T14:09:38Z</time></trkpt><trkpt lat="43.96036021114273" lon="10.675815463876672"><ele>663.3333333333333</ele><time>2026-04-11T14:09:39Z</time></trkpt><trkpt lat="43.96041865738006" lon="10.675850491687557"><ele>662.0</ele><time>2026-04-11T14:09:40Z</time></trkpt><trkpt lat="43.960512609643104" lon="10.675959303588094"><ele>662.0</ele><time>2026-04-11T14:09:42Z</time></trkpt><trkpt lat="43.96063431674075" lon="10.676015643092454"><ele>662.0</ele><time>2026-04-11T14:09:44Z</time></trkpt><trkpt lat="43.96077400446343" lon="10.676011878278908"><ele>662.0</ele><time>2026-04-11T14:09:46Z</time></trkpt><trkpt lat="43.96084193677269" lon="10.676005425488361"><ele>662.0</ele><time>2026-04-11T14:09:47Z</time></trkpt><trkpt lat="43.96099467800285" lon="10.675988695815517"><ele>662.6</ele><time>2026-04-11T14:09:49Z</time></trkpt><trkpt lat="43.96108274673664" lon="10.675966335615843"><ele>663.2</ele><time>2026-04-11T14:09:50Z</time></trkpt><trkpt lat="43.961170661880935" lon="10.675949105526074"><ele>663.8</ele><time>2026-04-11T14:09:51Z</time></trkpt><trkpt lat="43.96126173044675" lon="10.675924651424143"><ele>664.4</ele><time>2026-04-11T14:09:52Z</time></trkpt><trkpt lat="43.961395426198365" lon="10.67585326319346"><ele>665.0</ele><time>2026-04-11T14:09:53Z</time></trkpt><trkpt lat="43.96151656566911" lon="10.675811036099834"><ele>665.0</ele><time>2026-04-11T14:09:54Z</time></trkpt><trkpt lat="43.96162042906116" lon="10.67577015956003"><ele>665.0</ele><time>2026-04-11T14:09:55Z</time></trkpt><trkpt lat="43.96171640039808" lon="10.675749898033944"><ele>665.0</ele><time>2026-04-11T14:09:56Z</time></trkpt><trkpt lat="43.96179484643347" lon="10.675727077215788"><ele>665.0</ele><time>2026-04-11T14:09:57Z</time></trkpt><trkpt lat="43.96185811814384" lon="10.675670776301478"><ele>665.0</ele><time>2026-04-11T14:09:58Z</time></trkpt><trkpt lat="43.961913741151044" lon="10.67559745224137"><ele>665.0</ele><time>2026-04-11T14:09:59Z</time></trkpt><trkpt lat="43.961976465783906" lon="10.675570525988146"><ele>664.6666666666666</ele><time>2026-04-11T14:10:00Z</time></trkpt><trkpt lat="43.96204251272548" lon="10.675495997352785"><ele>664.3333333333333</ele><time>2026-04-11T14:10:01Z</time></trkpt><trkpt lat="43.96210807483434" lon="10.675421504018797"><ele>664.0</ele><time>2026-04-11T14:10:02Z</time></trkpt><trkpt lat="43.96217060436116" lon="10.67537843884874"><ele>663.6666666666666</ele><time>2026-04-11T14:10:03Z</time></trkpt><trkpt lat="43.962255194041326" lon="10.675315529574156"><ele>663.3333333333334</ele><time>2026-04-11T14:10:04Z</time></trkpt><trkpt lat="43.96233370715925" lon="10.67527043107378"><ele>663.0</ele><time>2026-04-11T14:10:05Z</time></trkpt><trkpt lat="43.962410147467565" lon="10.67524431914599"><ele>663.8333333333334</ele><time>2026-04-11T14:10:06Z</time></trkpt><trkpt lat="43.962495705383176" lon="10.675217550720088"><ele>664.6666666666666</ele><time>2026-04-11T14:10:07Z</time></trkpt><trkpt lat="43.96257519164092" lon="10.675196989767292"><ele>665.5</ele><time>2026-04-11T14:10:08Z</time></trkpt><trkpt lat="43.96265763289831" lon="10.675162155895977"><ele>666.3333333333333</ele><time>2026-04-11T14:10:09Z</time></trkpt><trkpt lat="43.96272838647385" lon="10.675147549736897"><ele>667.1666666666666</ele><time>2026-04-11T14:10:10Z</time></trkpt><trkpt lat="43.96279407255948" lon="10.675100223954813"><ele>668.0</ele><time>2026-04-11T14:10:11Z</time></trkpt><trkpt lat="43.96286116657181" lon="10.675040737602654"><ele>668.6666666666666</ele><time>2026-04-11T14:10:12Z</time></trkpt><trkpt lat="43.96291352143048" lon="10.67497736888083"><ele>669.3333333333333</ele><time>2026-04-11T14:10:13Z</time></trkpt><trkpt lat="43.963000239539106" lon="10.674900511024637"><ele>670.0</ele><time>2026-04-11T14:10:14Z</time></trkpt><trkpt lat="43.963069568758414" lon="10.67485335705043"><ele>670.6666666666666</ele><time>2026-04-11T14:10:15Z</time></trkpt><trkpt lat="43.96313933579686" lon="10.674800381312389"><ele>671.3333333333334</ele><time>2026-04-11T14:10:16Z</time></trkpt><trkpt lat="43.96321086508408" lon="10.674729445470124"><ele>672.0</ele><time>2026-04-11T14:10:17Z</time></trkpt><trkpt lat="43.96327576956369" lon="10.674664947266137"><ele>672.0</ele><time>2026-04-11T14:10:18Z</time></trkpt><trkpt lat="43.96334547570334" lon="10.674590588246597"><ele>672.0</ele><time>2026-04-11T14:10:19Z</time></trkpt><trkpt lat="43.96340332198357" lon="10.674500355033643"><ele>672.0</ele><time>2026-04-11T14:10:20Z</time></trkpt><trkpt lat="43.96346303179654" lon="10.674427484121878"><ele>672.0</ele><time>2026-04-11T14:10:21Z</time></trkpt><trkpt lat="43.9635234602125" lon="10.674355312066945"><ele>672.0</ele><time>2026-04-11T14:10:22Z</time></trkpt><trkpt lat="43.963574561832594" lon="10.674276378787741"><ele>672.0</ele><time>2026-04-11T14:10:23Z</time></trkpt><trkpt lat="43.963627467981496" lon="10.674188097887528"><ele>672.6</ele><time>2026-04-11T14:10:24Z</time></trkpt><trkpt lat="43.96368368589058" lon="10.674082992497702"><ele>673.2</ele><time>2026-04-11T14:10:25Z</time></trkpt><trkpt lat="43.96374170171647" lon="10.673973901240267"><ele>673.8</ele><time>2026-04-11T14:10:26Z</time></trkpt><trkpt lat="43.96380954873707" lon="10.67384139585684"><ele>674.4</ele><time>2026-04-11T14:10:27Z</time></trkpt><trkpt lat="43.963894464584506" lon="10.673714504331397"><ele>675.0</ele><time>2026-04-11T14:10:28Z</time></trkpt><trkpt lat="43.9639424445185" lon="10.673551295636859"><ele>676.1666666666666</ele><time>2026-04-11T14:10:29Z</time></trkpt><trkpt lat="43.963991151316876" lon="10.673468958366739"><ele>677.3333333333334</ele><time>2026-04-11T14:10:30Z</time></trkpt><trkpt lat="43.964035977608475" lon="10.673368872481076"><ele>678.5</ele><time>2026-04-11T14:10:31Z</time></trkpt><trkpt lat="43.96406758533731" lon="10.673287126387285"><ele>679.6666666666667</ele><time>2026-04-11T14:10:32Z</time></trkpt><trkpt lat="43.9641341114928" lon="10.67326886049027"><ele>680.8333333333334</ele><time>2026-04-11T14:10:34Z</time></trkpt><trkpt lat="43.96421987747927" lon="10.673288326910319"><ele>682.0</ele><time>2026-04-11T14:10:38Z</time></trkpt><trkpt lat="43.964323414147024" lon="10.673266464072585"><ele>683.0</ele><time>2026-04-11T14:11:29Z</time></trkpt><trkpt lat="43.96438481171055" lon="10.673228794957314"><ele>684.0</ele><time>2026-04-11T14:11:30Z</time></trkpt><trkpt lat="43.96447964320108" lon="10.673214441708119"><ele>685.0</ele><time>2026-04-11T14:11:31Z</time></trkpt><trkpt lat="43.96456157250068" lon="10.673229376836934"><ele>686.0</ele><time>2026-04-11T14:11:32Z</time></trkpt><trkpt lat="43.964653183636706" lon="10.673198780632678"><ele>687.0</ele><time>2026-04-11T14:11:33Z</time></trkpt><trkpt lat="43.964760522031675" lon="10.673259150889072"><ele>687.0</ele><time>2026-04-11T14:11:34Z</time></trkpt><trkpt lat="43.96484350162792" lon="10.673276656668566"><ele>687.0</ele><time>2026-04-11T14:11:35Z</time></trkpt><trkpt lat="43.964967175901" lon="10.673402641934976"><ele>687.0</ele><time>2026-04-11T14:11:37Z</time></trkpt><trkpt lat="43.96503284202613" lon="10.673408181888485"><ele>687.0</ele><time>2026-04-11T14:11:38Z</time></trkpt><trkpt lat="43.96511395329792" lon="10.673432934374592"><ele>687.0</ele><time>2026-04-11T14:11:39Z</time></trkpt><trkpt lat="43.965189298548104" lon="10.673475371941782"><ele>689.6</ele><time>2026-04-11T14:11:40Z</time></trkpt><trkpt lat="43.965276012915425" lon="10.673523764082764"><ele>692.2</ele><time>2026-04-11T14:11:41Z</time></trkpt><trkpt lat="43.965345843161636" lon="10.67360401273468"><ele>694.8</ele><time>2026-04-11T14:11:42Z</time></trkpt><trkpt lat="43.96541856157266" lon="10.673710010339033"><ele>697.4</ele><time>2026-04-11T14:11:43Z</time></trkpt><trkpt lat="43.96548024223271" lon="10.673847015999895"><ele>700.0</ele><time>2026-04-11T14:11:44Z</time></trkpt><trkpt lat="43.965537530043335" lon="10.673964799037357"><ele>700.0</ele><time>2026-04-11T14:11:45Z</time></trkpt><trkpt lat="43.965599479258294" lon="10.674067473708767"><ele>700.0</ele><time>2026-04-11T14:11:46Z</time></trkpt><trkpt lat="43.96566547955513" lon="10.67420504333997"><ele>700.0</ele><time>2026-04-11T14:11:47Z</time></trkpt><trkpt lat="43.96571204428806" lon="10.674286048598884"><ele>700.0</ele><time>2026-04-11T14:11:48Z</time></trkpt><trkpt lat="43.96574048976706" lon="10.674366142151325"><ele>700.0</ele><time>2026-04-11T14:11:49Z</time></trkpt><trkpt lat="43.96585311483646" lon="10.67442857681885"><ele>701.4</ele><time>2026-04-11T14:11:51Z</time></trkpt><trkpt lat="43.96597205461473" lon="10.674461162118657"><ele>702.8</ele><time>2026-04-11T14:11:53Z</time></trkpt><trkpt lat="43.96603261034344" lon="10.674430778739234"><ele>704.2</ele><time>2026-04-11T14:11:54Z</time></trkpt><trkpt lat="43.96610970456466" lon="10.674348481258782"><ele>705.6</ele><time>2026-04-11T14:11:56Z</time></trkpt><trkpt lat="43.96615835894871" lon="10.67419200838935"><ele>707.0</ele><time>2026-04-11T14:11:58Z</time></trkpt><trkpt lat="43.96619156938215" lon="10.674097424320955"><ele>707.0</ele><time>2026-04-11T14:11:59Z</time></trkpt><trkpt lat="43.966240314052975" lon="10.67399874136776"><ele>707.0</ele><time>2026-04-11T14:12:00Z</time></trkpt><trkpt lat="43.96627651709989" lon="10.673910752465966"><ele>707.0</ele><time>2026-04-11T14:12:01Z</time></trkpt><trkpt lat="43.966333521344765" lon="10.673762108249463"><ele>707.0</ele><time>2026-04-11T14:12:02Z</time></trkpt><trkpt lat="43.96635989032322" lon="10.673659319886456"><ele>707.0</ele><time>2026-04-11T14:12:03Z</time></trkpt><trkpt lat="43.96639230141985" lon="10.673477217418956"><ele>708.3333333333333</ele><time>2026-04-11T14:12:05Z</time></trkpt><trkpt lat="43.96642974136302" lon="10.673383798230695"><ele>709.6666666666666</ele><time>2026-04-11T14:12:06Z</time></trkpt><trkpt lat="43.966507477466614" lon="10.673376204731037"><ele>711.0</ele><time>2026-04-11T14:12:07Z</time></trkpt><trkpt lat="43.966595275338214" lon="10.673451434514016"><ele>712.3333333333334</ele><time>2026-04-11T14:12:08Z</time></trkpt><trkpt lat="43.96663766063634" lon="10.673572323060144"><ele>713.6666666666667</ele><time>2026-04-11T14:12:09Z</time></trkpt><trkpt lat="43.966708924864854" lon="10.673651522614065"><ele>715.0</ele><time>2026-04-11T14:12:10Z</time></trkpt><trkpt lat="43.96680912791977" lon="10.673742461534452"><ele>715.8</ele><time>2026-04-11T14:12:11Z</time></trkpt><trkpt lat="43.96690003421418" lon="10.673834760545251"><ele>716.6</ele><time>2026-04-11T14:12:12Z</time></trkpt><trkpt lat="43.96694324262507" lon="10.673930368003246"><ele>717.4000000000001</ele><time>2026-04-11T14:12:13Z</time></trkpt><trkpt lat="43.967038424726226" lon="10.673932661948877"><ele>718.2</ele><time>2026-04-11T14:12:15Z</time></trkpt><trkpt lat="43.967131597343446" lon="10.673895328028015"><ele>719.0</ele><time>2026-04-11T14:12:16Z</time></trkpt><trkpt lat="43.96722117717639" lon="10.673867911151614"><ele>719.0</ele><time>2026-04-11T14:12:17Z</time></trkpt><trkpt lat="43.96732296524156" lon="10.673895903026676"><ele>719.0</ele><time>2026-04-11T14:12:18Z</time></trkpt><trkpt lat="43.96742654303514" lon="10.673880600644127"><ele>719.0</ele><time>2026-04-11T14:12:19Z</time></trkpt><trkpt lat="43.96751099721569" lon="10.673900756836659"><ele>719.0</ele><time>2026-04-11T14:12:20Z</time></trkpt><trkpt lat="43.96758022881328" lon="10.673950619118818"><ele>719.0</ele><time>2026-04-11T14:12:21Z</time></trkpt><trkpt lat="43.967648676133415" lon="10.674040275546544"><ele>721.0</ele><time>2026-04-11T14:12:22Z</time></trkpt><trkpt lat="43.96774572233267" lon="10.674126969433527"><ele>723.0</ele><time>2026-04-11T14:12:24Z</time></trkpt><trkpt lat="43.967909117766034" lon="10.674077325081901"><ele>725.0</ele><time>2026-04-11T14:12:26Z</time></trkpt><trkpt lat="43.96796362770358" lon="10.674003625220555"><ele>727.0</ele><time>2026-04-11T14:12:27Z</time></trkpt><trkpt lat="43.968036670867804" lon="10.673894677670187"><ele>727.0</ele><time>2026-04-11T14:12:28Z</time></trkpt><trkpt lat="43.96807737207642" lon="10.67380712180969"><ele>727.0</ele><time>2026-04-11T14:12:29Z</time></trkpt><trkpt lat="43.968110381097915" lon="10.673720580722122"><ele>727.0</ele><time>2026-04-11T14:12:30Z</time></trkpt><trkpt lat="43.96823595367054" lon="10.67365901405965"><ele>727.0</ele><time>2026-04-11T14:12:32Z</time></trkpt><trkpt lat="43.96831713233526" lon="10.673668062903207"><ele>727.0</ele><time>2026-04-11T14:12:33Z</time></trkpt><trkpt lat="43.96839131329385" lon="10.673661763714314"><ele>727.0</ele><time>2026-04-11T14:12:34Z</time></trkpt><trkpt lat="43.96847819997223" lon="10.673631785484762"><ele>727.8333333333334</ele><time>2026-04-11T14:12:35Z</time></trkpt><trkpt lat="43.968559178830624" lon="10.673634350576696"><ele>728.6666666666667</ele><time>2026-04-11T14:12:36Z</time></trkpt><trkpt lat="43.96865139010474" lon="10.673631794908484"><ele>729.5</ele><time>2026-04-11T14:12:37Z</time></trkpt><trkpt lat="43.96873338045141" lon="10.673632846538373"><ele>730.3333333333334</ele><time>2026-04-11T14:12:38Z</time></trkpt><trkpt lat="43.968805328876044" lon="10.673648606086825"><ele>731.1666666666666</ele><time>2026-04-11T14:12:39Z</time></trkpt><trkpt lat="43.96887172102137" lon="10.673689808474252"><ele>732.0</ele><time>2026-04-11T14:12:40Z</time></trkpt><trkpt lat="43.96892999031729" lon="10.673728937084915"><ele>732.0</ele><time>2026-04-11T14:12:41Z</time></trkpt><trkpt lat="43.9689925456182" lon="10.673790042932302"><ele>732.0</ele><time>2026-04-11T14:12:42Z</time></trkpt><trkpt lat="43.969067357744244" lon="10.673856919281919"><ele>732.0</ele><time>2026-04-11T14:12:43Z</time></trkpt><trkpt lat="43.969187651281985" lon="10.673878812308729"><ele>732.0</ele><time>2026-04-11T14:12:44Z</time></trkpt><trkpt lat="43.96924768877335" lon="10.673939508674179"><ele>732.0</ele><time>2026-04-11T14:12:45Z</time></trkpt><trkpt lat="43.96931151109816" lon="10.674005023163035"><ele>732.0</ele><time>2026-04-11T14:12:46Z</time></trkpt><trkpt lat="43.96937627547842" lon="10.67406125968595"><ele>732.0</ele><time>2026-04-11T14:12:47Z</time></trkpt><trkpt lat="43.969432458155374" lon="10.674132942993488"><ele>732.0</ele><time>2026-04-11T14:12:48Z</time></trkpt><trkpt lat="43.96948062910394" lon="10.674207307187432"><ele>732.0</ele><time>2026-04-11T14:12:49Z</time></trkpt><trkpt lat="43.96956571412512" lon="10.674373378765784"><ele>732.0</ele><time>2026-04-11T14:12:51Z</time></trkpt><trkpt lat="43.969598335962644" lon="10.674459795317128"><ele>732.0</ele><time>2026-04-11T14:12:52Z</time></trkpt><trkpt lat="43.96966529166925" lon="10.67448765980105"><ele>732.0</ele><time>2026-04-11T14:12:53Z</time></trkpt><trkpt lat="43.969734404103654" lon="10.674527850591707"><ele>732.0</ele><time>2026-04-11T14:12:54Z</time></trkpt><trkpt lat="43.96977371604098" lon="10.674604300085434"><ele>732.0</ele><time>2026-04-11T14:12:55Z</time></trkpt><trkpt lat="43.969842657855075" lon="10.674640720350595"><ele>732.0</ele><time>2026-04-11T14:12:56Z</time></trkpt><trkpt lat="43.96991104451302" lon="10.67465790086744"><ele>732.0</ele><time>2026-04-11T14:12:57Z</time></trkpt><trkpt lat="43.96999227533459" lon="10.67470670147116"><ele>732.0</ele><time>2026-04-11T14:12:58Z</time></trkpt><trkpt lat="43.970067576760854" lon="10.674721474707827"><ele>732.0</ele><time>2026-04-11T14:12:59Z</time></trkpt><trkpt lat="43.97019778780309" lon="10.674717491966423"><ele>732.5</ele><time>2026-04-11T14:13:01Z</time></trkpt><trkpt lat="43.97028264021136" lon="10.674697569099802"><ele>733.0</ele><time>2026-04-11T14:13:02Z</time></trkpt><trkpt lat="43.9703656629196" lon="10.674698666423108"><ele>733.5</ele><time>2026-04-11T14:13:03Z</time></trkpt><trkpt lat="43.97044706145894" lon="10.67466337492377"><ele>734.0</ele><time>2026-04-11T14:13:04Z</time></trkpt><trkpt lat="43.97052465249865" lon="10.674631414091584"><ele>734.5</ele><time>2026-04-11T14:13:05Z</time></trkpt><trkpt lat="43.97060981821398" lon="10.674593782354515"><ele>735.0</ele><time>2026-04-11T14:13:06Z</time></trkpt><trkpt lat="43.97068225006804" lon="10.67456690148907"><ele>735.0</ele><time>2026-04-11T14:13:07Z</time></trkpt><trkpt lat="43.970762780689114" lon="10.67453731896273"><ele>735.0</ele><time>2026-04-11T14:13:08Z</time></trkpt><trkpt lat="43.970826900604024" lon="10.674534241197312"><ele>735.0</ele><time>2026-04-11T14:13:09Z</time></trkpt><trkpt lat="43.97090641075655" lon="10.67453707674827"><ele>735.0</ele><time>2026-04-11T14:13:10Z</time></trkpt><trkpt lat="43.970986070775865" lon="10.67453471009002"><ele>735.0</ele><time>2026-04-11T14:13:11Z</time></trkpt><trkpt lat="43.97106196588797" lon="10.674562881204281"><ele>735.0</ele><time>2026-04-11T14:13:12Z</time></trkpt><trkpt lat="43.97114459249926" lon="10.674597735307586"><ele>737.0</ele><time>2026-04-11T14:13:13Z</time></trkpt><trkpt lat="43.97121062891495" lon="10.674729404355494"><ele>739.0</ele><time>2026-04-11T14:13:14Z</time></trkpt><trkpt lat="43.97127749623805" lon="10.674793468259661"><ele>741.0</ele><time>2026-04-11T14:13:15Z</time></trkpt><trkpt lat="43.97138153750675" lon="10.674865653209643"><ele>743.0</ele><time>2026-04-11T14:13:16Z</time></trkpt><trkpt lat="43.9714695565844" lon="10.674906356227343"><ele>745.0</ele><time>2026-04-11T14:13:17Z</time></trkpt><trkpt lat="43.97153186878705" lon="10.674949298525055"><ele>745.0</ele><time>2026-04-11T14:13:18Z</time></trkpt><trkpt lat="43.97160913068097" lon="10.675033375549944"><ele>745.0</ele><time>2026-04-11T14:13:20Z</time></trkpt><trkpt lat="43.97167659560385" lon="10.675064631911988"><ele>745.0</ele><time>2026-04-11T14:13:22Z</time></trkpt><trkpt lat="43.97167525692828" lon="10.675180729039011"><ele>745.0</ele><time>2026-04-11T14:13:26Z</time></trkpt><trkpt lat="43.97160370069109" lon="10.67525760703567"><ele>745.0</ele><time>2026-04-11T14:13:28Z</time></trkpt><trkpt lat="43.97150870324314" lon="10.67530763277529"><ele>745.0</ele><time>2026-04-11T14:13:30Z</time></trkpt><trkpt lat="43.97142592052968" lon="10.675330708499958"><ele>745.0</ele><time>2026-04-11T14:13:32Z</time></trkpt><trkpt lat="43.97136841390527" lon="10.675264572381282"><ele>745.0</ele><time>2026-04-11T14:13:35Z</time></trkpt><trkpt lat="43.971434626975935" lon="10.675228476475068"><ele>745.0</ele><time>2026-04-11T14:13:37Z</time></trkpt><trkpt lat="43.97152027055265" lon="10.675222039111226"><ele>745.0</ele><time>2026-04-11T14:13:39Z</time></trkpt><trkpt lat="43.97157389518705" lon="10.675148912773349"><ele>745.0</ele><time>2026-04-11T14:13:42Z</time></trkpt><trkpt lat="43.9715131439764" lon="10.675215136677835"><ele>745.0</ele><time>2026-04-11T14:19:16Z</time></trkpt><trkpt lat="43.97144186031312" lon="10.675250926802878"><ele>745.0</ele><time>2026-04-11T14:19:22Z</time></trkpt><trkpt lat="43.97136902033193" lon="10.675281055217694"><ele>745.0</ele><time>2026-04-11T14:19:31Z</time></trkpt><trkpt lat="43.97133009497076" lon="10.675352600508761"><ele>745.0</ele><time>2026-04-11T14:19:37Z</time></trkpt><trkpt lat="43.97127451862365" lon="10.675424896968709"><ele>745.0</ele><time>2026-04-11T14:19:44Z</time></trkpt><trkpt lat="43.97132354413779" lon="10.675353201045885"><ele>745.0</ele><time>2026-04-11T14:20:03Z</time></trkpt><trkpt lat="43.971378492762135" lon="10.675282183758139"><ele>745.0</ele><time>2026-04-11T14:20:09Z</time></trkpt><trkpt lat="43.97144039368077" lon="10.675237121141242"><ele>745.0</ele><time>2026-04-11T14:20:15Z</time></trkpt><trkpt lat="43.97150312071557" lon="10.675191727629038"><ele>745.0</ele><time>2026-04-11T14:20:21Z</time></trkpt><trkpt lat="43.971555381715554" lon="10.675133125681258"><ele>745.0</ele><time>2026-04-11T14:20:27Z</time></trkpt><trkpt lat="43.9716348392682" lon="10.675164713447653"><ele>745.0</ele><time>2026-04-11T14:23:45Z</time></trkpt><trkpt lat="43.971707192913456" lon="10.675208184341102"><ele>745.0</ele><time>2026-04-11T14:23:47Z</time></trkpt><trkpt lat="43.97174432324918" lon="10.675286107137994"><ele>745.0</ele><time>2026-04-11T14:23:49Z</time></trkpt><trkpt lat="43.97183866079722" lon="10.675332081907614"><ele>745.0</ele><time>2026-04-11T14:23:52Z</time></trkpt><trkpt lat="43.971908594598325" lon="10.675375668290625"><ele>745.0</ele><time>2026-04-11T14:23:54Z</time></trkpt><trkpt lat="43.97187096557101" lon="10.675303756004325"><ele>745.0</ele><time>2026-04-11T14:24:02Z</time></trkpt><trkpt lat="43.9717818489468" lon="10.675261803192848"><ele>745.0</ele><time>2026-04-11T14:24:04Z</time></trkpt><trkpt lat="43.971707163329846" lon="10.675239816848928"><ele>745.0</ele><time>2026-04-11T14:24:06Z</time></trkpt><trkpt lat="43.97165340768452" lon="10.675140440892678"><ele>745.0</ele><time>2026-04-11T14:24:09Z</time></trkpt><trkpt lat="43.97167228531684" lon="10.675052047662565"><ele>745.0</ele><time>2026-04-11T14:24:12Z</time></trkpt><trkpt lat="43.97172580751824" lon="10.675001025535028"><ele>747.3333333333334</ele><time>2026-04-11T14:24:14Z</time></trkpt><trkpt lat="43.97179519381967" lon="10.67498079504888"><ele>749.6666666666667</ele><time>2026-04-11T14:24:27Z</time></trkpt><trkpt lat="43.97191229941385" lon="10.674956329717025"><ele>752.0</ele><time>2026-04-11T14:24:29Z</time></trkpt><trkpt lat="43.971995610938556" lon="10.67501254717037"><ele>754.3333333333334</ele><time>2026-04-11T14:24:31Z</time></trkpt><trkpt lat="43.97202985259916" lon="10.675125904324474"><ele>756.6666666666666</ele><time>2026-04-11T14:24:33Z</time></trkpt><trkpt lat="43.97205116138611" lon="10.675213210015814"><ele>759.0</ele><time>2026-04-11T14:24:35Z</time></trkpt><trkpt lat="43.97208572939254" lon="10.67531020707839"><ele>759.3333333333334</ele><time>2026-04-11T14:24:38Z</time></trkpt><trkpt lat="43.9721448422748" lon="10.675453978148441"><ele>759.6666666666666</ele><time>2026-04-11T14:27:15Z</time></trkpt><trkpt lat="43.97218304977621" lon="10.675529147134885"><ele>760.0</ele><time>2026-04-11T14:27:16Z</time></trkpt><trkpt lat="43.97221169708413" lon="10.675614278556692"><ele>760.3333333333333</ele><time>2026-04-11T14:27:17Z</time></trkpt><trkpt lat="43.97221715939802" lon="10.675713658855177"><ele>760.6666666666666</ele><time>2026-04-11T14:27:18Z</time></trkpt><trkpt lat="43.97224521089087" lon="10.675865124831393"><ele>761.0</ele><time>2026-04-11T14:27:20Z</time></trkpt><trkpt lat="43.972228925767716" lon="10.675957295441728"><ele>761.0</ele><time>2026-04-11T14:27:26Z</time></trkpt><trkpt lat="43.97215934309323" lon="10.676030604112785"><ele>761.0</ele><time>2026-04-11T14:27:33Z</time></trkpt><trkpt lat="43.972174565154546" lon="10.67617584406156"><ele>761.0</ele><time>2026-04-11T14:27:35Z</time></trkpt><trkpt lat="43.97221569378159" lon="10.676270387671066"><ele>761.0</ele><time>2026-04-11T14:27:37Z</time></trkpt><trkpt lat="43.9722051553313" lon="10.676429185158264"><ele>761.0</ele><time>2026-04-11T14:27:39Z</time></trkpt><trkpt lat="43.972215215755256" lon="10.676545066374649"><ele>759.9999999999999</ele><time>2026-04-11T14:27:43Z</time></trkpt><trkpt lat="43.97223003545094" lon="10.676639901289343"><ele>759.0</ele><time>2026-04-11T14:27:45Z</time></trkpt><trkpt lat="43.97228290533303" lon="10.676710879575362"><ele>758.0</ele><time>2026-04-11T14:27:47Z</time></trkpt><trkpt lat="43.972347716178135" lon="10.676753310125145"><ele>757.0</ele><time>2026-04-11T14:27:50Z</time></trkpt><trkpt lat="43.97234614612595" lon="10.676856800503348"><ele>756.0</ele><time>2026-04-11T14:27:53Z</time></trkpt><trkpt lat="43.97228984478059" lon="10.676929945180206"><ele>754.9999999999999</ele><time>2026-04-11T14:27:55Z</time></trkpt><trkpt lat="43.972248489137066" lon="10.677026906443718"><ele>754.0</ele><time>2026-04-11T14:27:57Z</time></trkpt><trkpt lat="43.97222584891985" lon="10.67711786802795"><ele>754.0</ele><time>2026-04-11T14:27:58Z</time></trkpt><trkpt lat="43.97216345874301" lon="10.677186843850626"><ele>754.0</ele><time>2026-04-11T14:28:00Z</time></trkpt><trkpt lat="43.97212368615358" lon="10.677300315317593"><ele>754.0</ele><time>2026-04-11T14:28:02Z</time></trkpt><trkpt lat="43.97205745277381" lon="10.677385823282163"><ele>754.0</ele><time>2026-04-11T14:28:04Z</time></trkpt><trkpt lat="43.972033867858585" lon="10.67752136956229"><ele>754.0</ele><time>2026-04-11T14:28:06Z</time></trkpt><trkpt lat="43.971999241877185" lon="10.677618803212875"><ele>754.0</ele><time>2026-04-11T14:28:08Z</time></trkpt><trkpt lat="43.97196646759756" lon="10.677709397714496"><ele>754.8333333333334</ele><time>2026-04-11T14:28:09Z</time></trkpt><trkpt lat="43.9719306277564" lon="10.677823413839304"><ele>755.6666666666667</ele><time>2026-04-11T14:28:11Z</time></trkpt><trkpt lat="43.971880607084316" lon="10.677925193478327"><ele>756.5</ele><time>2026-04-11T14:28:13Z</time></trkpt><trkpt lat="43.97182131262198" lon="10.678009010973227"><ele>757.3333333333334</ele><time>2026-04-11T14:28:15Z</time></trkpt><trkpt lat="43.97174832774469" lon="10.678065381275388"><ele>758.1666666666666</ele><time>2026-04-11T14:28:17Z</time></trkpt><trkpt lat="43.97171773129168" lon="10.678158451480705"><ele>759.0</ele><time>2026-04-11T14:28:19Z</time></trkpt><trkpt lat="43.97167938784396" lon="10.678237926250343"><ele>752.8333333333334</ele><time>2026-04-11T14:28:21Z</time></trkpt><trkpt lat="43.971630172704884" lon="10.678359622192158"><ele>746.6666666666666</ele><time>2026-04-11T14:28:23Z</time></trkpt><trkpt lat="43.971565442545334" lon="10.678412814991667"><ele>740.5</ele><time>2026-04-11T14:28:26Z</time></trkpt><trkpt lat="43.971543928120454" lon="10.67855128279513"><ele>734.3333333333333</ele><time>2026-04-11T14:28:29Z</time></trkpt><trkpt lat="43.971507579228394" lon="10.678651729816082"><ele>728.1666666666666</ele><time>2026-04-11T14:28:31Z</time></trkpt><trkpt lat="43.97151441974117" lon="10.678758947617013"><ele>722.0</ele><time>2026-04-11T14:28:33Z</time></trkpt><trkpt lat="43.97151658320217" lon="10.678848900297744"><ele>720.8333333333333</ele><time>2026-04-11T14:28:35Z</time></trkpt><trkpt lat="43.97153092902627" lon="10.678934415090033"><ele>719.6666666666666</ele><time>2026-04-11T14:28:37Z</time></trkpt><trkpt lat="43.97152936442639" lon="10.679032444479324"><ele>718.5</ele><time>2026-04-11T14:28:40Z</time></trkpt><trkpt lat="43.971540893903494" lon="10.679129609494458"><ele>717.3333333333334</ele><time>2026-04-11T14:28:43Z</time></trkpt><trkpt lat="43.971600803704" lon="10.67926420993471"><ele>716.1666666666667</ele><time>2026-04-11T14:28:46Z</time></trkpt><trkpt lat="43.97164940137118" lon="10.679360192327966"><ele>715.0</ele><time>2026-04-11T14:28:49Z</time></trkpt><trkpt lat="43.97170780371221" lon="10.679440856738402"><ele>713.0</ele><time>2026-04-11T14:28:51Z</time></trkpt><trkpt lat="43.97170485669099" lon="10.679568143638939"><ele>711.0</ele><time>2026-04-11T14:28:54Z</time></trkpt><trkpt lat="43.971699374354934" lon="10.679674007556624"><ele>709.0</ele><time>2026-04-11T14:28:56Z</time></trkpt><trkpt lat="43.971691389945946" lon="10.679788333204373"><ele>707.0</ele><time>2026-04-11T14:29:01Z</time></trkpt><trkpt lat="43.97166915367278" lon="10.679898594613105"><ele>705.0</ele><time>2026-04-11T14:29:03Z</time></trkpt><trkpt lat="43.97161495110527" lon="10.679986254958065"><ele>703.0</ele><time>2026-04-11T14:29:05Z</time></trkpt><trkpt lat="43.97158221585611" lon="10.680075660299527"><ele>703.0</ele><time>2026-04-11T14:29:07Z</time></trkpt><trkpt lat="43.97163160596105" lon="10.680166372322036"><ele>703.0</ele><time>2026-04-11T14:29:09Z</time></trkpt><trkpt lat="43.97161344254377" lon="10.68025724989319"><ele>703.0</ele><time>2026-04-11T14:29:12Z</time></trkpt><trkpt lat="43.971638467509706" lon="10.680383593587905"><ele>703.0</ele><time>2026-04-11T14:29:15Z</time></trkpt><trkpt lat="43.9717171164372" lon="10.680504159437001"><ele>703.0</ele><time>2026-04-11T14:29:17Z</time></trkpt><trkpt lat="43.971754295115474" lon="10.680586402579918"><ele>703.0</ele><time>2026-04-11T14:29:18Z</time></trkpt><trkpt lat="43.97178269699313" lon="10.680680424031546"><ele>705.6666666666667</ele><time>2026-04-11T14:29:19Z</time></trkpt><trkpt lat="43.971858322402674" lon="10.680768770459128"><ele>708.3333333333334</ele><time>2026-04-11T14:29:21Z</time></trkpt><trkpt lat="43.97192620926" lon="10.680779650072823"><ele>711.0</ele><time>2026-04-11T14:29:22Z</time></trkpt><trkpt lat="43.97198030938511" lon="10.680841041447335"><ele>713.6666666666666</ele><time>2026-04-11T14:29:24Z</time></trkpt><trkpt lat="43.97205974837661" lon="10.68086370353147"><ele>716.3333333333333</ele><time>2026-04-11T14:29:26Z</time></trkpt><trkpt lat="43.97211324818089" lon="10.680942584697448"><ele>719.0</ele><time>2026-04-11T14:29:29Z</time></trkpt><trkpt lat="43.97210602695633" lon="10.681033895780082"><ele>717.6</ele><time>2026-04-11T14:29:31Z</time></trkpt><trkpt lat="43.97212543476306" lon="10.681206511212011"><ele>716.2</ele><time>2026-04-11T14:29:33Z</time></trkpt><trkpt lat="43.972095026180234" lon="10.68138371422469"><ele>714.8000000000001</ele><time>2026-04-11T14:29:35Z</time></trkpt><trkpt lat="43.97209109132034" lon="10.681511176805516"><ele>713.4000000000001</ele><time>2026-04-11T14:29:36Z</time></trkpt><trkpt lat="43.9721268324162" lon="10.681624950999824"><ele>712.0</ele><time>2026-04-11T14:29:37Z</time></trkpt><trkpt lat="43.972157392008675" lon="10.681772696656472"><ele>712.0</ele><time>2026-04-11T14:29:39Z</time></trkpt><trkpt lat="43.972183585688136" lon="10.681853490886436"><ele>712.0</ele><time>2026-04-11T14:29:40Z</time></trkpt><trkpt lat="43.972201947276474" lon="10.681937365296497"><ele>712.0</ele><time>2026-04-11T14:29:41Z</time></trkpt><trkpt lat="43.972254424663625" lon="10.682018704746136"><ele>712.0</ele><time>2026-04-11T14:29:43Z</time></trkpt><trkpt lat="43.97233161338092" lon="10.682087492567236"><ele>712.0</ele><time>2026-04-11T14:29:45Z</time></trkpt><trkpt lat="43.97237479545717" lon="10.682190472767042"><ele>712.0</ele><time>2026-04-11T14:29:48Z</time></trkpt><trkpt lat="43.97231985945616" lon="10.68226756505491"><ele>711.7142857142857</ele><time>2026-04-11T14:29:50Z</time></trkpt><trkpt lat="43.972274685009424" lon="10.682206597701141"><ele>711.4285714285714</ele><time>2026-04-11T14:29:57Z</time></trkpt><trkpt lat="43.97222075609813" lon="10.682285504082094"><ele>711.1428571428571</ele><time>2026-04-11T14:30:02Z</time></trkpt><trkpt lat="43.9721596562343" lon="10.68230906615455"><ele>710.8571428571429</ele><time>2026-04-11T14:30:10Z</time></trkpt><trkpt lat="43.97216329298008" lon="10.682404985992411"><ele>710.5714285714286</ele><time>2026-04-11T14:30:13Z</time></trkpt><trkpt lat="43.972092427829864" lon="10.682470757746717"><ele>710.2857142857142</ele><time>2026-04-11T14:30:17Z</time></trkpt><trkpt lat="43.972045885718586" lon="10.682576848704551"><ele>710.0</ele><time>2026-04-11T14:30:20Z</time></trkpt><trkpt lat="43.9719736909154" lon="10.682671487572591"><ele>709.5</ele><time>2026-04-11T14:30:27Z</time></trkpt><trkpt lat="43.971924813169316" lon="10.682767992421105"><ele>709.0</ele><time>2026-04-11T14:30:29Z</time></trkpt><trkpt lat="43.97186316959239" lon="10.682859249303997"><ele>708.5</ele><time>2026-04-11T14:30:33Z</time></trkpt><trkpt lat="43.97178084584067" lon="10.682883095603795"><ele>708.0</ele><time>2026-04-11T14:30:36Z</time></trkpt><trkpt lat="43.971731393809755" lon="10.68296245730685"><ele>707.5</ele><time>2026-04-11T14:30:37Z</time></trkpt><trkpt lat="43.9717166507144" lon="10.68310390942482"><ele>707.0</ele><time>2026-04-11T14:30:39Z</time></trkpt><trkpt lat="43.97169351840864" lon="10.683260089953617"><ele>707.0</ele><time>2026-04-11T14:30:41Z</time></trkpt><trkpt lat="43.971722401660784" lon="10.68343541676329"><ele>707.0</ele><time>2026-04-11T14:30:43Z</time></trkpt><trkpt lat="43.971736385536154" lon="10.683557714352428"><ele>707.0</ele><time>2026-04-11T14:30:44Z</time></trkpt><trkpt lat="43.97175777863864" lon="10.683645214051127"><ele>707.0</ele><time>2026-04-11T14:30:45Z</time></trkpt><trkpt lat="43.971829172948404" lon="10.68375043542989"><ele>707.0</ele><time>2026-04-11T14:30:47Z</time></trkpt><trkpt lat="43.97191466492937" lon="10.683805838899554"><ele>705.0</ele><time>2026-04-11T14:30:49Z</time></trkpt><trkpt lat="43.97195964788228" lon="10.683930039847544"><ele>703.0</ele><time>2026-04-11T14:30:51Z</time></trkpt><trkpt lat="43.97197588775988" lon="10.684030636770816"><ele>701.0</ele><time>2026-04-11T14:30:53Z</time></trkpt><trkpt lat="43.97202112341151" lon="10.684167362847258"><ele>699.0</ele><time>2026-04-11T14:30:55Z</time></trkpt><trkpt lat="43.97199634485486" lon="10.684282390765475"><ele>697.0</ele><time>2026-04-11T14:30:57Z</time></trkpt><trkpt lat="43.97192060174469" lon="10.684369070640141"><ele>697.0</ele><time>2026-04-11T14:30:59Z</time></trkpt><trkpt lat="43.971867725868705" lon="10.684428168960368"><ele>697.0</ele><time>2026-04-11T14:31:00Z</time></trkpt><trkpt lat="43.97180322791807" lon="10.684483303290325"><ele>697.0</ele><time>2026-04-11T14:31:02Z</time></trkpt><trkpt lat="43.971745281594494" lon="10.684534100182022"><ele>697.0</ele><time>2026-04-11T14:31:04Z</time></trkpt><trkpt lat="43.97167448016156" lon="10.684618658881723"><ele>697.0</ele><time>2026-04-11T14:31:06Z</time></trkpt><trkpt lat="43.971632051933966" lon="10.684738180091195"><ele>697.0</ele><time>2026-04-11T14:31:08Z</time></trkpt><trkpt lat="43.971581824498095" lon="10.684828441957572"><ele>689.0</ele><time>2026-04-11T14:31:10Z</time></trkpt><trkpt lat="43.97153101406744" lon="10.684937805836059"><ele>681.0</ele><time>2026-04-11T14:31:12Z</time></trkpt><trkpt lat="43.97145887977055" lon="10.685043820749517"><ele>673.0</ele><time>2026-04-11T14:31:14Z</time></trkpt><trkpt lat="43.971362302500076" lon="10.68518305107169"><ele>665.0</ele><time>2026-04-11T14:31:16Z</time></trkpt><trkpt lat="43.97127045153207" lon="10.68527569509099"><ele>665.0</ele><time>2026-04-11T14:31:18Z</time></trkpt><trkpt lat="43.971202291425534" lon="10.685364326272976"><ele>665.0</ele><time>2026-04-11T14:31:20Z</time></trkpt><trkpt lat="43.971147504759294" lon="10.685411913401323"><ele>665.0</ele><time>2026-04-11T14:31:22Z</time></trkpt><trkpt lat="43.97106506132784" lon="10.685371421848814"><ele>665.0</ele><time>2026-04-11T14:31:24Z</time></trkpt><trkpt lat="43.971006502224505" lon="10.685427560682129"><ele>665.0</ele><time>2026-04-11T14:31:29Z</time></trkpt><trkpt lat="43.971023944525825" lon="10.685543086373459"><ele>665.0</ele><time>2026-04-11T14:31:31Z</time></trkpt><trkpt lat="43.97100971712281" lon="10.685651877353035"><ele>665.0</ele><time>2026-04-11T14:31:33Z</time></trkpt><trkpt lat="43.9709195580814" lon="10.685674054314237"><ele>665.0</ele><time>2026-04-11T14:31:37Z</time></trkpt><trkpt lat="43.97084395064456" lon="10.685642171477944"><ele>665.0</ele><time>2026-04-11T14:31:40Z</time></trkpt><trkpt lat="43.9707725899582" lon="10.685595956640258"><ele>665.0</ele><time>2026-04-11T14:31:42Z</time></trkpt><trkpt lat="43.970729122481984" lon="10.685507396697648"><ele>665.0</ele><time>2026-04-11T14:32:12Z</time></trkpt><trkpt lat="43.97070051177161" lon="10.685424180297542"><ele>665.0</ele><time>2026-04-11T14:32:15Z</time></trkpt><trkpt lat="43.97064739591242" lon="10.68535935003453"><ele>658.1666666666666</ele><time>2026-04-11T14:32:18Z</time></trkpt><trkpt lat="43.97057564686001" lon="10.68537062297585"><ele>651.3333333333333</ele><time>2026-04-11T14:32:20Z</time></trkpt><trkpt lat="43.97051822160344" lon="10.685473577097211"><ele>644.5</ele><time>2026-04-11T14:32:22Z</time></trkpt><trkpt lat="43.97050989396159" lon="10.685564836897933"><ele>637.6666666666666</ele><time>2026-04-11T14:32:24Z</time></trkpt><trkpt lat="43.970542682581524" lon="10.685648655013058"><ele>630.8333333333334</ele><time>2026-04-11T14:32:26Z</time></trkpt><trkpt lat="43.970568340415454" lon="10.685762230110226"><ele>624.0</ele><time>2026-04-11T14:32:28Z</time></trkpt><trkpt lat="43.97057299169542" lon="10.685857835024855"><ele>624.0</ele><time>2026-04-11T14:32:30Z</time></trkpt><trkpt lat="43.97061216256903" lon="10.685995944375845"><ele>624.0</ele><time>2026-04-11T14:32:32Z</time></trkpt><trkpt lat="43.97059077862069" lon="10.686100187985929"><ele>624.0</ele><time>2026-04-11T14:32:34Z</time></trkpt><trkpt lat="43.9705317646122" lon="10.686175219353686"><ele>624.0</ele><time>2026-04-11T14:32:36Z</time></trkpt><trkpt lat="43.97047283542337" lon="10.686257236305403"><ele>624.0</ele><time>2026-04-11T14:32:38Z</time></trkpt><trkpt lat="43.97040577772978" lon="10.686298608714937"><ele>624.0</ele><time>2026-04-11T14:32:40Z</time></trkpt><trkpt lat="43.970349382339" lon="10.68634288711431"><ele>625.0</ele><time>2026-04-11T14:32:42Z</time></trkpt><trkpt lat="43.97027939218602" lon="10.686437905222979"><ele>626.0</ele><time>2026-04-11T14:32:44Z</time></trkpt><trkpt lat="43.970221948878226" lon="10.686490004509327"><ele>627.0</ele><time>2026-04-11T14:32:47Z</time></trkpt><trkpt lat="43.97018665966764" lon="10.68656331918356"><ele>628.0</ele><time>2026-04-11T14:32:51Z</time></trkpt><trkpt lat="43.97019491862484" lon="10.686731499048742"><ele>629.0</ele><time>2026-04-11T14:32:53Z</time></trkpt><trkpt lat="43.97018980935734" lon="10.686895099478821"><ele>628.6666666666666</ele><time>2026-04-11T14:32:54Z</time></trkpt><trkpt lat="43.97018321452278" lon="10.68698919435031"><ele>628.3333333333333</ele><time>2026-04-11T14:32:55Z</time></trkpt><trkpt lat="43.97014869077012" lon="10.687086353353346"><ele>628.0</ele><time>2026-04-11T14:32:56Z</time></trkpt><trkpt lat="43.97012320105117" lon="10.68723040105193"><ele>627.6666666666666</ele><time>2026-04-11T14:32:58Z</time></trkpt><trkpt lat="43.97012651926626" lon="10.68733742701596"><ele>627.3333333333334</ele><time>2026-04-11T14:32:59Z</time></trkpt><trkpt lat="43.97011643087735" lon="10.687439839782588"><ele>627.0</ele><time>2026-04-11T14:33:00Z</time></trkpt><trkpt lat="43.970140779629325" lon="10.687528356705617"><ele>627.0</ele><time>2026-04-11T14:33:01Z</time></trkpt><trkpt lat="43.97012478701958" lon="10.687619944085299"><ele>627.0</ele><time>2026-04-11T14:33:02Z</time></trkpt><trkpt lat="43.97011558671419" lon="10.687713487585148"><ele>627.0</ele><time>2026-04-11T14:33:03Z</time></trkpt><trkpt lat="43.970127519681164" lon="10.687830400998813"><ele>627.0</ele><time>2026-04-11T14:33:05Z</time></trkpt><trkpt lat="43.970210686653076" lon="10.687954665760529"><ele>627.0</ele><time>2026-04-11T14:33:07Z</time></trkpt><trkpt lat="43.97028345144256" lon="10.688078007333957"><ele>625.4</ele><time>2026-04-11T14:33:09Z</time></trkpt><trkpt lat="43.97031972819441" lon="10.688235845110631"><ele>623.8000000000001</ele><time>2026-04-11T14:33:11Z</time></trkpt><trkpt lat="43.97028717520524" lon="10.688353801036413"><ele>622.2</ele><time>2026-04-11T14:33:12Z</time></trkpt><trkpt lat="43.97021932236699" lon="10.688420732906122"><ele>620.6</ele><time>2026-04-11T14:33:13Z</time></trkpt><trkpt lat="43.97017709261412" lon="10.688562403682202"><ele>619.0</ele><time>2026-04-11T14:33:14Z</time></trkpt><trkpt lat="43.97013716329807" lon="10.688654810855791"><ele>618.5</ele><time>2026-04-11T14:33:15Z</time></trkpt><trkpt lat="43.970104893568966" lon="10.688743307869709"><ele>618.0</ele><time>2026-04-11T14:33:16Z</time></trkpt><trkpt lat="43.97006560090293" lon="10.6888442376798"><ele>617.5</ele><time>2026-04-11T14:33:17Z</time></trkpt><trkpt lat="43.97004194627974" lon="10.688956524465924"><ele>617.0</ele><time>2026-04-11T14:33:18Z</time></trkpt><trkpt lat="43.970023695297385" lon="10.689059702451749"><ele>616.5</ele><time>2026-04-11T14:33:19Z</time></trkpt><trkpt lat="43.96999713528221" lon="10.689164506955896"><ele>616.0</ele><time>2026-04-11T14:33:20Z</time></trkpt><trkpt lat="43.96996950531599" lon="10.689252005749884"><ele>613.0</ele><time>2026-04-11T14:33:21Z</time></trkpt><trkpt lat="43.96996223980771" lon="10.689341344917425"><ele>610.0</ele><time>2026-04-11T14:33:22Z</time></trkpt><trkpt lat="43.96997346923716" lon="10.689521870181204"><ele>607.0</ele><time>2026-04-11T14:33:24Z</time></trkpt><trkpt lat="43.9700496293855" lon="10.689659088058725"><ele>604.0</ele><time>2026-04-11T14:33:26Z</time></trkpt><trkpt lat="43.97011701972779" lon="10.689690052771574"><ele>601.0</ele><time>2026-04-11T14:33:27Z</time></trkpt><trkpt lat="43.97017651795917" lon="10.689747222093578"><ele>601.0</ele><time>2026-04-11T14:33:28Z</time></trkpt><trkpt lat="43.97024231443646" lon="10.68984347352334"><ele>601.0</ele><time>2026-04-11T14:33:29Z</time></trkpt><trkpt lat="43.97027884184656" lon="10.689945420623546"><ele>601.0</ele><time>2026-04-11T14:33:30Z</time></trkpt><trkpt lat="43.970304010996884" lon="10.690063683702585"><ele>601.0</ele><time>2026-04-11T14:33:31Z</time></trkpt><trkpt lat="43.9703333334228" lon="10.690180742156691"><ele>601.0</ele><time>2026-04-11T14:33:32Z</time></trkpt><trkpt lat="43.97034230275722" lon="10.69028570503917"><ele>601.0</ele><time>2026-04-11T14:33:33Z</time></trkpt><trkpt lat="43.970348351819716" lon="10.690380138062263"><ele>595.6</ele><time>2026-04-11T14:33:34Z</time></trkpt><trkpt lat="43.970418105248754" lon="10.690486849195892"><ele>590.2</ele><time>2026-04-11T14:33:35Z</time></trkpt><trkpt lat="43.970438165164296" lon="10.690640706395131"><ele>584.8</ele><time>2026-04-11T14:33:37Z</time></trkpt><trkpt lat="43.970437103862906" lon="10.690758731548735"><ele>579.4</ele><time>2026-04-11T14:33:40Z</time></trkpt><trkpt lat="43.97048489169715" lon="10.690926251091339"><ele>574.0</ele><time>2026-04-11T14:34:38Z</time></trkpt><trkpt lat="43.97052856070043" lon="10.691005361480178"><ele>574.0</ele><time>2026-04-11T14:34:39Z</time></trkpt><trkpt lat="43.97058298148961" lon="10.691066262237234"><ele>574.0</ele><time>2026-04-11T14:34:40Z</time></trkpt><trkpt lat="43.97063260309413" lon="10.691196884736845"><ele>574.0</ele><time>2026-04-11T14:34:42Z</time></trkpt><trkpt lat="43.97060518843766" lon="10.691282096901407"><ele>574.0</ele><time>2026-04-11T14:34:43Z</time></trkpt><trkpt lat="43.97049436032385" lon="10.691312954551035"><ele>574.0</ele><time>2026-04-11T14:34:44Z</time></trkpt><trkpt lat="43.970415341033906" lon="10.691310580606018"><ele>574.0</ele><time>2026-04-11T14:34:45Z</time></trkpt><trkpt lat="43.970335083120254" lon="10.691246699132035"><ele>574.0</ele><time>2026-04-11T14:34:46Z</time></trkpt><trkpt lat="43.970262070324175" lon="10.691150800692748"><ele>574.0</ele><time>2026-04-11T14:34:47Z</time></trkpt><trkpt lat="43.9701778102047" lon="10.691094968826437"><ele>574.0</ele><time>2026-04-11T14:34:48Z</time></trkpt><trkpt lat="43.970068636593695" lon="10.691082574345161"><ele>574.0</ele><time>2026-04-11T14:34:50Z</time></trkpt><trkpt lat="43.97000065755273" lon="10.691161672335292"><ele>574.0</ele><time>2026-04-11T14:34:54Z</time></trkpt><trkpt lat="43.969995639446395" lon="10.691277975331028"><ele>574.0</ele><time>2026-04-11T14:34:58Z</time></trkpt><trkpt lat="43.96999501881082" lon="10.691380824104117"><ele>574.0</ele><time>2026-04-11T14:35:01Z</time></trkpt><trkpt lat="43.97002399057965" lon="10.691249735150835"><ele>574.0</ele><time>2026-04-11T14:35:03Z</time></trkpt><trkpt lat="43.970057565411665" lon="10.691169696448148"><ele>574.0</ele><time>2026-04-11T14:35:04Z</time></trkpt><trkpt lat="43.97006689537152" lon="10.691082628487102"><ele>574.0</ele><time>2026-04-11T14:36:00Z</time></trkpt><trkpt lat="43.96999306633617" lon="10.690935055176867"><ele>574.0</ele><time>2026-04-11T14:36:02Z</time></trkpt><trkpt lat="43.969962789725344" lon="10.690844985278646"><ele>574.0</ele><time>2026-04-11T14:36:03Z</time></trkpt><trkpt lat="43.9699637373021" lon="10.69074549139306"><ele>574.0</ele><time>2026-04-11T14:36:04Z</time></trkpt><trkpt lat="43.96998062181486" lon="10.690605016922328"><ele>574.0</ele><time>2026-04-11T14:36:05Z</time></trkpt><trkpt lat="43.97002019758212" lon="10.690500688867873"><ele>574.0</ele><time>2026-04-11T14:36:06Z</time></trkpt><trkpt lat="43.97003716452627" lon="10.69039231250718"><ele>574.0</ele><time>2026-04-11T14:36:07Z</time></trkpt><trkpt lat="43.96997702153264" lon="10.690212599760478"><ele>572.2</ele><time>2026-04-11T14:36:09Z</time></trkpt><trkpt lat="43.96985644550828" lon="10.690115948026374"><ele>570.4</ele><time>2026-04-11T14:36:10Z</time></trkpt><trkpt lat="43.96979367930297" lon="10.690025748702958"><ele>568.6</ele><time>2026-04-11T14:36:11Z</time></trkpt><trkpt lat="43.9697292249952" lon="10.689935821748772"><ele>566.8</ele><time>2026-04-11T14:36:12Z</time></trkpt><trkpt lat="43.96962858357578" lon="10.689844239436173"><ele>565.0</ele><time>2026-04-11T14:36:13Z</time></trkpt><trkpt lat="43.96955633046175" lon="10.689751799737177"><ele>565.0</ele><time>2026-04-11T14:36:14Z</time></trkpt><trkpt lat="43.96951444248553" lon="10.689664019932088"><ele>565.0</ele><time>2026-04-11T14:36:15Z</time></trkpt><trkpt lat="43.96947700357175" lon="10.68956717214847"><ele>565.0</ele><time>2026-04-11T14:36:16Z</time></trkpt><trkpt lat="43.96949575949149" lon="10.689471989887515"><ele>565.0</ele><time>2026-04-11T14:36:17Z</time></trkpt><trkpt lat="43.96952312577353" lon="10.68938665797054"><ele>565.0</ele><time>2026-04-11T14:36:18Z</time></trkpt><trkpt lat="43.96956805949135" lon="10.689283692726557"><ele>565.0</ele><time>2026-04-11T14:36:19Z</time></trkpt><trkpt lat="43.96961951914474" lon="10.689182460577959"><ele>566.8</ele><time>2026-04-11T14:36:20Z</time></trkpt><trkpt lat="43.969641662285284" lon="10.689082915451706"><ele>568.6</ele><time>2026-04-11T14:36:21Z</time></trkpt><trkpt lat="43.9697260795772" lon="10.688978691917102"><ele>570.4</ele><time>2026-04-11T14:36:22Z</time></trkpt><trkpt lat="43.9696870091606" lon="10.688841020297962"><ele>572.2</ele><time>2026-04-11T14:36:23Z</time></trkpt><trkpt lat="43.969688881152415" lon="10.688722670701924"><ele>574.0</ele><time>2026-04-11T14:36:24Z</time></trkpt><trkpt lat="43.96968581679158" lon="10.688601312433683"><ele>574.4</ele><time>2026-04-11T14:36:25Z</time></trkpt><trkpt lat="43.96967634669639" lon="10.688455079883951"><ele>574.8</ele><time>2026-04-11T14:36:26Z</time></trkpt><trkpt lat="43.9696506388729" lon="10.688334260793981"><ele>575.2</ele><time>2026-04-11T14:36:27Z</time></trkpt><trkpt lat="43.969621594369215" lon="10.688214312878072"><ele>575.6</ele><time>2026-04-11T14:36:28Z</time></trkpt><trkpt lat="43.969558405445326" lon="10.688078814230735"><ele>576.0</ele><time>2026-04-11T14:36:29Z</time></trkpt><trkpt lat="43.969503474075786" lon="10.68795348256861"><ele>576.0</ele><time>2026-04-11T14:36:30Z</time></trkpt><trkpt lat="43.96942928890604" lon="10.687855171120239"><ele>576.0</ele><time>2026-04-11T14:36:31Z</time></trkpt><trkpt lat="43.96932256759621" lon="10.6877841829546"><ele>576.0</ele><time>2026-04-11T14:36:32Z</time></trkpt><trkpt lat="43.969248549837914" lon="10.687707570909499"><ele>576.0</ele><time>2026-04-11T14:36:33Z</time></trkpt><trkpt lat="43.969189828753" lon="10.687612235484762"><ele>576.0</ele><time>2026-04-11T14:36:34Z</time></trkpt><trkpt lat="43.96915637687512" lon="10.687508481319028"><ele>571.6666666666666</ele><time>2026-04-11T14:36:35Z</time></trkpt><trkpt lat="43.96911069159986" lon="10.687429495907232"><ele>567.3333333333334</ele><time>2026-04-11T14:36:36Z</time></trkpt><trkpt lat="43.969105292345695" lon="10.687284221654199"><ele>563.0</ele><time>2026-04-11T14:36:38Z</time></trkpt><trkpt lat="43.96913641962879" lon="10.687188006326132"><ele>558.6666666666667</ele><time>2026-04-11T14:36:40Z</time></trkpt><trkpt lat="43.96915805619601" lon="10.68706372595022"><ele>554.3333333333334</ele><time>2026-04-11T14:36:43Z</time></trkpt><trkpt lat="43.96916665943696" lon="10.686968948167673"><ele>550.0</ele><time>2026-04-11T14:36:45Z</time></trkpt><trkpt lat="43.969191093318344" lon="10.686858112075418"><ele>556.8</ele><time>2026-04-11T14:36:47Z</time></trkpt><trkpt lat="43.96926592501295" lon="10.686776582018718"><ele>563.6</ele><time>2026-04-11T14:36:49Z</time></trkpt><trkpt lat="43.969306169091766" lon="10.686681205675978"><ele>570.4</ele><time>2026-04-11T14:36:51Z</time></trkpt><trkpt lat="43.96933749572778" lon="10.686770740159128"><ele>577.2</ele><time>2026-04-11T14:36:53Z</time></trkpt><trkpt lat="43.96926388696164" lon="10.686770996373246"><ele>584.0</ele><time>2026-04-11T14:36:57Z</time></trkpt><trkpt lat="43.969349422613334" lon="10.686621535444887"><ele>584.0</ele><time>2026-04-11T14:37:15Z</time></trkpt><trkpt lat="43.969284988692706" lon="10.686648441147318"><ele>584.0</ele><time>2026-04-11T14:37:18Z</time></trkpt><trkpt lat="43.96926749718068" lon="10.686794722603135"><ele>584.0</ele><time>2026-04-11T14:38:24Z</time></trkpt><trkpt lat="43.969320740107605" lon="10.68685221560768"><ele>584.0</ele><time>2026-04-11T14:38:35Z</time></trkpt><trkpt lat="43.96928003929187" lon="10.686689827867308"><ele>584.0</ele><time>2026-04-11T14:39:01Z</time></trkpt><trkpt lat="43.96919683325388" lon="10.686723727888273"><ele>578.3333333333333</ele><time>2026-04-11T14:39:02Z</time></trkpt><trkpt lat="43.96916981424768" lon="10.686826866323441"><ele>572.6666666666666</ele><time>2026-04-11T14:39:06Z</time></trkpt><trkpt lat="43.969136825706165" lon="10.686908857577176"><ele>567.0</ele><time>2026-04-11T14:39:08Z</time></trkpt><trkpt lat="43.96912817324393" lon="10.687019823156342"><ele>561.3333333333334</ele><time>2026-04-11T14:39:10Z</time></trkpt><trkpt lat="43.96910479581999" lon="10.687110245059278"><ele>555.6666666666667</ele><time>2026-04-11T14:39:12Z</time></trkpt><trkpt lat="43.969062212204086" lon="10.687287252923204"><ele>550.0</ele><time>2026-04-11T14:39:13Z</time></trkpt><trkpt lat="43.969079987759805" lon="10.687469432234609"><ele>550.0</ele><time>2026-04-11T14:39:14Z</time></trkpt><trkpt lat="43.969110953701545" lon="10.687583285258253"><ele>550.0</ele><time>2026-04-11T14:39:15Z</time></trkpt><trkpt lat="43.96917488219438" lon="10.687690340333322"><ele>550.0</ele><time>2026-04-11T14:39:16Z</time></trkpt><trkpt lat="43.96923128752258" lon="10.687804309422114"><ele>550.0</ele><time>2026-04-11T14:39:17Z</time></trkpt><trkpt lat="43.96930276922733" lon="10.687902757516069"><ele>550.0</ele><time>2026-04-11T14:39:18Z</time></trkpt><trkpt lat="43.96938957617918" lon="10.68797234607889"><ele>555.2</ele><time>2026-04-11T14:39:19Z</time></trkpt><trkpt lat="43.96945256281545" lon="10.688066869180718"><ele>560.4</ele><time>2026-04-11T14:39:20Z</time></trkpt><trkpt lat="43.969507433950916" lon="10.688161247617193"><ele>565.6</ele><time>2026-04-11T14:39:21Z</time></trkpt><trkpt lat="43.969565959163496" lon="10.68826795578568"><ele>570.8</ele><time>2026-04-11T14:39:22Z</time></trkpt><trkpt lat="43.96962111312027" lon="10.688362729335012"><ele>576.0</ele><time>2026-04-11T14:39:23Z</time></trkpt><trkpt lat="43.96967688074658" lon="10.68846529831683"><ele>576.0</ele><time>2026-04-11T14:39:24Z</time></trkpt><trkpt lat="43.969689236056325" lon="10.688591255808921"><ele>576.0</ele><time>2026-04-11T14:39:25Z</time></trkpt><trkpt lat="43.969698464202686" lon="10.688709869901043"><ele>576.0</ele><time>2026-04-11T14:39:26Z</time></trkpt><trkpt lat="43.96971501903882" lon="10.688841841880155"><ele>576.0</ele><time>2026-04-11T14:39:27Z</time></trkpt><trkpt lat="43.96972216486362" lon="10.68899156859659"><ele>576.0</ele><time>2026-04-11T14:39:28Z</time></trkpt><trkpt lat="43.96969016576993" lon="10.689119463732167"><ele>575.6666666666666</ele><time>2026-04-11T14:39:29Z</time></trkpt><trkpt lat="43.96967533368488" lon="10.689208257372615"><ele>575.3333333333334</ele><time>2026-04-11T14:39:30Z</time></trkpt><trkpt lat="43.9696347331622" lon="10.689292686218975"><ele>575.0</ele><time>2026-04-11T14:39:31Z</time></trkpt><trkpt lat="43.969579524105015" lon="10.68935295119602"><ele>574.6666666666667</ele><time>2026-04-11T14:39:32Z</time></trkpt><trkpt lat="43.9695193074617" lon="10.689479070887275"><ele>574.3333333333334</ele><time>2026-04-11T14:39:34Z</time></trkpt><trkpt lat="43.96950663489759" lon="10.689572991785052"><ele>574.0</ele><time>2026-04-11T14:39:35Z</time></trkpt><trkpt lat="43.969512029435" lon="10.68966245997068"><ele>572.5</ele><time>2026-04-11T14:39:36Z</time></trkpt><trkpt lat="43.96953606586687" lon="10.689749711083804"><ele>571.0</ele><time>2026-04-11T14:39:37Z</time></trkpt><trkpt lat="43.969572585125135" lon="10.689856102223821"><ele>569.5</ele><time>2026-04-11T14:39:38Z</time></trkpt><trkpt lat="43.96961166849839" lon="10.689945932185962"><ele>568.0</ele><time>2026-04-11T14:39:39Z</time></trkpt><trkpt lat="43.96965665925356" lon="10.690028740147659"><ele>566.5</ele><time>2026-04-11T14:39:40Z</time></trkpt><trkpt lat="43.96971954405884" lon="10.690089630304774"><ele>565.0</ele><time>2026-04-11T14:39:41Z</time></trkpt><trkpt lat="43.96978197635849" lon="10.690153619437355"><ele>565.0</ele><time>2026-04-11T14:39:42Z</time></trkpt><trkpt lat="43.96984088257296" lon="10.690220299729935"><ele>565.0</ele><time>2026-04-11T14:39:43Z</time></trkpt><trkpt lat="43.96990102655851" lon="10.690287009317732"><ele>565.0</ele><time>2026-04-11T14:39:44Z</time></trkpt><trkpt lat="43.96998347511857" lon="10.690343161319952"><ele>565.0</ele><time>2026-04-11T14:39:45Z</time></trkpt><trkpt lat="43.97002890109965" lon="10.690429940721222"><ele>565.0</ele><time>2026-04-11T14:39:46Z</time></trkpt><trkpt lat="43.97007301415412" lon="10.690576377597917"><ele>565.0</ele><time>2026-04-11T14:39:48Z</time></trkpt><trkpt lat="43.97004436308612" lon="10.690703060521852"><ele>562.8</ele><time>2026-04-11T14:39:49Z</time></trkpt><trkpt lat="43.96999533776571" lon="10.690830458724076"><ele>560.6</ele><time>2026-04-11T14:39:50Z</time></trkpt><trkpt lat="43.96995491620164" lon="10.690912062840397"><ele>558.4</ele><time>2026-04-11T14:39:51Z</time></trkpt><trkpt lat="43.96998810529676" lon="10.691066505592133"><ele>556.2</ele><time>2026-04-11T14:39:53Z</time></trkpt><trkpt lat="43.97003721139128" lon="10.691214088526495"><ele>554.0</ele><time>2026-04-11T14:39:55Z</time></trkpt><trkpt lat="43.97004560681802" lon="10.691307488761181"><ele>553.6666666666666</ele><time>2026-04-11T14:39:56Z</time></trkpt><trkpt lat="43.97001871384918" lon="10.691396848965464"><ele>553.3333333333333</ele><time>2026-04-11T14:39:57Z</time></trkpt><trkpt lat="43.97009416712163" lon="10.69148241154482"><ele>553.0</ele><time>2026-04-11T14:39:58Z</time></trkpt><trkpt lat="43.97015781795656" lon="10.691541024754668"><ele>552.6666666666666</ele><time>2026-04-11T14:39:59Z</time></trkpt><trkpt lat="43.97021759815011" lon="10.691607164886749"><ele>552.3333333333334</ele><time>2026-04-11T14:40:00Z</time></trkpt><trkpt lat="43.97030924672646" lon="10.691642592428208"><ele>552.0</ele><time>2026-04-11T14:40:01Z</time></trkpt><trkpt lat="43.970386225602894" lon="10.691691972515425"><ele>552.0</ele><time>2026-04-11T14:40:02Z</time></trkpt><trkpt lat="43.97046643012239" lon="10.691734700685291"><ele>552.0</ele><time>2026-04-11T14:40:03Z</time></trkpt><trkpt lat="43.9705633145353" lon="10.69175153747528"><ele>552.0</ele><time>2026-04-11T14:40:04Z</time></trkpt><trkpt lat="43.97064963517785" lon="10.69177470729063"><ele>552.0</ele><time>2026-04-11T14:40:05Z</time></trkpt><trkpt lat="43.97072951162815" lon="10.69180595154084"><ele>552.0</ele><time>2026-04-11T14:40:06Z</time></trkpt><trkpt lat="43.9708053840312" lon="10.69183602844291"><ele>552.0</ele><time>2026-04-11T14:40:07Z</time></trkpt><trkpt lat="43.97089881604091" lon="10.691835584289839"><ele>552.5</ele><time>2026-04-11T14:40:08Z</time></trkpt><trkpt lat="43.97098923177427" lon="10.691837655232272"><ele>553.0</ele><time>2026-04-11T14:40:09Z</time></trkpt><trkpt lat="43.97108847020909" lon="10.691819436597067"><ele>553.5</ele><time>2026-04-11T14:40:10Z</time></trkpt><trkpt lat="43.97116747375722" lon="10.691827010193759"><ele>554.0</ele><time>2026-04-11T14:40:11Z</time></trkpt><trkpt lat="43.97125277696254" lon="10.691833525574626"><ele>554.5</ele><time>2026-04-11T14:40:12Z</time></trkpt><trkpt lat="43.971338830134435" lon="10.691824982662009"><ele>555.0</ele><time>2026-04-11T14:40:13Z</time></trkpt><trkpt lat="43.97141192392483" lon="10.691792628104244"><ele>555.0</ele><time>2026-04-11T14:40:14Z</time></trkpt><trkpt lat="43.97151262007155" lon="10.691787658573663"><ele>555.0</ele><time>2026-04-11T14:40:15Z</time></trkpt><trkpt lat="43.97159880739807" lon="10.691873083159596"><ele>555.0</ele><time>2026-04-11T14:40:16Z</time></trkpt><trkpt lat="43.97166833089504" lon="10.691942127511492"><ele>555.0</ele><time>2026-04-11T14:40:17Z</time></trkpt><trkpt lat="43.97172975639336" lon="10.6920434366475"><ele>555.0</ele><time>2026-04-11T14:40:18Z</time></trkpt><trkpt lat="43.97176758032841" lon="10.692174890194202"><ele>555.75</ele><time>2026-04-11T14:40:19Z</time></trkpt><trkpt lat="43.97182536603091" lon="10.692222580855129"><ele>556.5</ele><time>2026-04-11T14:40:20Z</time></trkpt><trkpt lat="43.97185930857681" lon="10.692385713368134"><ele>557.25</ele><time>2026-04-11T14:40:22Z</time></trkpt><trkpt lat="43.97172244043743" lon="10.692428405994834"><ele>558.0</ele><time>2026-04-11T14:40:24Z</time></trkpt><trkpt lat="43.97151318848532" lon="10.692477996807366"><ele>554.4</ele><time>2026-04-11T14:40:26Z</time></trkpt><trkpt lat="43.971392836468716" lon="10.692389601497451"><ele>550.8</ele><time>2026-04-11T14:40:27Z</time></trkpt><trkpt lat="43.97129479233493" lon="10.692350630904748"><ele>547.2</ele><time>2026-04-11T14:40:28Z</time></trkpt><trkpt lat="43.97116974116684" lon="10.692362570369857"><ele>543.6</ele><time>2026-04-11T14:40:29Z</time></trkpt><trkpt lat="43.971085149706205" lon="10.692379416629114"><ele>540.0</ele><time>2026-04-11T14:40:30Z</time></trkpt><trkpt lat="43.97100518629077" lon="10.692430321916186"><ele>540.0</ele><time>2026-04-11T14:40:31Z</time></trkpt><trkpt lat="43.970915416552415" lon="10.692468407539279"><ele>540.0</ele><time>2026-04-11T14:40:32Z</time></trkpt><trkpt lat="43.97084950587223" lon="10.692505391058376"><ele>540.0</ele><time>2026-04-11T14:40:33Z</time></trkpt><trkpt lat="43.97073283891341" lon="10.692522974315667"><ele>540.0</ele><time>2026-04-11T14:40:35Z</time></trkpt><trkpt lat="43.97075235628006" lon="10.692626617382551"><ele>540.0</ele><time>2026-04-11T14:40:37Z</time></trkpt><trkpt lat="43.97081334441884" lon="10.692734605822453"><ele>538.0</ele><time>2026-04-11T14:40:38Z</time></trkpt><trkpt lat="43.97084337404857" lon="10.692827733942698"><ele>536.0</ele><time>2026-04-11T14:40:39Z</time></trkpt><trkpt lat="43.97086070639025" lon="10.692935428187637"><ele>534.0</ele><time>2026-04-11T14:40:40Z</time></trkpt><trkpt lat="43.97085704817029" lon="10.693046154579086"><ele>532.0</ele><time>2026-04-11T14:40:41Z</time></trkpt><trkpt lat="43.970818082727945" lon="10.69322603498016"><ele>530.0</ele><time>2026-04-11T14:40:42Z</time></trkpt><trkpt lat="43.97078481518007" lon="10.693367842911467"><ele>527.2</ele><time>2026-04-11T14:40:43Z</time></trkpt><trkpt lat="43.97077126974781" lon="10.693503647838945"><ele>524.4</ele><time>2026-04-11T14:40:44Z</time></trkpt><trkpt lat="43.9707729961061" lon="10.693672170016784"><ele>521.6</ele><time>2026-04-11T14:40:45Z</time></trkpt><trkpt lat="43.970758847228254" lon="10.693801389343218"><ele>518.8</ele><time>2026-04-11T14:40:46Z</time></trkpt><trkpt lat="43.97076019743793" lon="10.693911202338876"><ele>516.0</ele><time>2026-04-11T14:40:47Z</time></trkpt><trkpt lat="43.970745941733306" lon="10.694015657729105"><ele>517.2</ele><time>2026-04-11T14:40:48Z</time></trkpt><trkpt lat="43.970766854220926" lon="10.694111606009045"><ele>518.4000000000001</ele><time>2026-04-11T14:40:49Z</time></trkpt><trkpt lat="43.97081386646354" lon="10.694238288417239"><ele>519.6</ele><time>2026-04-11T14:40:50Z</time></trkpt><trkpt lat="43.970919032663055" lon="10.694315367026329"><ele>520.8000000000001</ele><time>2026-04-11T14:40:51Z</time></trkpt><trkpt lat="43.971027117236574" lon="10.694373731755205"><ele>522.0</ele><time>2026-04-11T14:40:52Z</time></trkpt><trkpt lat="43.97111581990905" lon="10.694385456062834"><ele>522.0</ele><time>2026-04-11T14:40:53Z</time></trkpt><trkpt lat="43.97118069259343" lon="10.694378472044091"><ele>522.0</ele><time>2026-04-11T14:40:54Z</time></trkpt><trkpt lat="43.971197305444164" lon="10.694464158780974"><ele>522.0</ele><time>2026-04-11T14:40:58Z</time></trkpt><trkpt lat="43.971133188597946" lon="10.694459068394837"><ele>522.0</ele><time>2026-04-11T14:40:59Z</time></trkpt><trkpt lat="43.97104554213026" lon="10.694429382213405"><ele>522.0</ele><time>2026-04-11T14:41:00Z</time></trkpt><trkpt lat="43.970938177801926" lon="10.694412009942932"><ele>522.0</ele><time>2026-04-11T14:41:01Z</time></trkpt><trkpt lat="43.97081483248457" lon="10.694372379283555"><ele>518.5</ele><time>2026-04-11T14:41:02Z</time></trkpt><trkpt lat="43.97071802456134" lon="10.694342354442375"><ele>515.0</ele><time>2026-04-11T14:41:03Z</time></trkpt><trkpt lat="43.97060431445086" lon="10.694313174627196"><ele>511.5</ele><time>2026-04-11T14:41:04Z</time></trkpt><trkpt lat="43.97048893198289" lon="10.694300694408277"><ele>508.0</ele><time>2026-04-11T14:41:05Z</time></trkpt><trkpt lat="43.97037056841305" lon="10.694278792028824"><ele>508.0</ele><time>2026-04-11T14:41:06Z</time></trkpt><trkpt lat="43.97025117634698" lon="10.694245126155893"><ele>508.0</ele><time>2026-04-11T14:41:07Z</time></trkpt><trkpt lat="43.970216827022455" lon="10.6940175456466"><ele>508.0</ele><time>2026-04-11T14:41:08Z</time></trkpt><trkpt lat="43.97015006732146" lon="10.693853351340719"><ele>508.0</ele><time>2026-04-11T14:41:09Z</time></trkpt><trkpt lat="43.97009399173789" lon="10.693786558554546"><ele>506.4</ele><time>2026-04-11T14:41:10Z</time></trkpt><trkpt lat="43.97001300397395" lon="10.693738792754582"><ele>504.79999999999995</ele><time>2026-04-11T14:41:11Z</time></trkpt><trkpt lat="43.969902600340234" lon="10.693739820923968"><ele>503.2</ele><time>2026-04-11T14:41:12Z</time></trkpt><trkpt lat="43.96982423317604" lon="10.693807382123124"><ele>501.6</ele><time>2026-04-11T14:41:13Z</time></trkpt><trkpt lat="43.969741348613724" lon="10.693880887924875"><ele>500.0</ele><time>2026-04-11T14:41:14Z</time></trkpt><trkpt lat="43.969720016162995" lon="10.694035226181589"><ele>500.0</ele><time>2026-04-11T14:41:15Z</time></trkpt><trkpt lat="43.96975541167874" lon="10.694187251665172"><ele>500.0</ele><time>2026-04-11T14:41:16Z</time></trkpt><trkpt lat="43.96984448282817" lon="10.694289341695523"><ele>500.0</ele><time>2026-04-11T14:41:17Z</time></trkpt><trkpt lat="43.969887375424776" lon="10.694371639534436"><ele>500.0</ele><time>2026-04-11T14:41:18Z</time></trkpt><trkpt lat="43.96992884006878" lon="10.694521552568485"><ele>500.0</ele><time>2026-04-11T14:41:20Z</time></trkpt><trkpt lat="43.969795202029175" lon="10.694610762426631"><ele>496.49999999999994</ele><time>2026-04-11T14:41:22Z</time></trkpt><trkpt lat="43.96973928127663" lon="10.694660580535913"><ele>493.0</ele><time>2026-04-11T14:41:23Z</time></trkpt><trkpt lat="43.96967188431219" lon="10.694691015466463"><ele>489.5</ele><time>2026-04-11T14:41:24Z</time></trkpt><trkpt lat="43.9695905494586" lon="10.694738492832917"><ele>486.0</ele><time>2026-04-11T14:41:25Z</time></trkpt><trkpt lat="43.96944655093276" lon="10.694775471682373"><ele>482.49999999999994</ele><time>2026-04-11T14:41:27Z</time></trkpt><trkpt lat="43.969371838073414" lon="10.694793555857935"><ele>479.0</ele><time>2026-04-11T14:41:28Z</time></trkpt><trkpt lat="43.969249009937734" lon="10.694813587278139"><ele>479.8333333333333</ele><time>2026-04-11T14:41:30Z</time></trkpt><trkpt lat="43.96913235103462" lon="10.694828174503005"><ele>480.66666666666663</ele><time>2026-04-11T14:41:32Z</time></trkpt><trkpt lat="43.969058566292524" lon="10.694835311182025"><ele>481.5</ele><time>2026-04-11T14:41:33Z</time></trkpt><trkpt lat="43.96899333696035" lon="10.69484570916639"><ele>482.33333333333337</ele><time>2026-04-11T14:41:34Z</time></trkpt><trkpt lat="43.96893046696478" lon="10.694924460894688"><ele>483.1666666666667</ele><time>2026-04-11T14:41:36Z</time></trkpt><trkpt lat="43.96894787365398" lon="10.695044301936397"><ele>484.0</ele><time>2026-04-11T14:41:38Z</time></trkpt><trkpt lat="43.96904433231552" lon="10.69507264450838"><ele>484.0</ele><time>2026-04-11T14:41:39Z</time></trkpt><trkpt lat="43.96911575895868" lon="10.69508031562786"><ele>484.0</ele><time>2026-04-11T14:41:40Z</time></trkpt><trkpt lat="43.96921048587325" lon="10.695141590960477"><ele>484.0</ele><time>2026-04-11T14:41:42Z</time></trkpt><trkpt lat="43.96929600743766" lon="10.695250939333354"><ele>484.0</ele><time>2026-04-11T14:41:44Z</time></trkpt><trkpt lat="43.96935693236505" lon="10.695287362054506"><ele>484.0</ele><time>2026-04-11T14:41:45Z</time></trkpt><trkpt lat="43.96944389963865" lon="10.69538292678007"><ele>480.1666666666667</ele><time>2026-04-11T14:41:47Z</time></trkpt><trkpt lat="43.96948921594644" lon="10.695471930995064"><ele>476.33333333333337</ele><time>2026-04-11T14:41:49Z</time></trkpt><trkpt lat="43.96947739776858" lon="10.69557067423226"><ele>472.5</ele><time>2026-04-11T14:41:50Z</time></trkpt><trkpt lat="43.96947566069453" lon="10.695666272386587"><ele>468.66666666666663</ele><time>2026-04-11T14:41:51Z</time></trkpt><trkpt lat="43.969413331578785" lon="10.695788377324002"><ele>464.8333333333333</ele><time>2026-04-11T14:41:52Z</time></trkpt><trkpt lat="43.96933994056792" lon="10.695826157560926"><ele>461.0</ele><time>2026-04-11T14:41:53Z</time></trkpt><trkpt lat="43.96921627354288" lon="10.695814391462992"><ele>460.99999999999994</ele><time>2026-04-11T14:41:55Z</time></trkpt><trkpt lat="43.96915276725946" lon="10.69572999856883"><ele>461.0</ele><time>2026-04-11T14:41:56Z</time></trkpt><trkpt lat="43.96904633263784" lon="10.69573914107578"><ele>461.0</ele><time>2026-04-11T14:41:58Z</time></trkpt><trkpt lat="43.969000950991145" lon="10.695816427497382"><ele>461.0</ele><time>2026-04-11T14:41:59Z</time></trkpt><trkpt lat="43.96897117209357" lon="10.695911138178168"><ele>460.99999999999994</ele><time>2026-04-11T14:42:00Z</time></trkpt><trkpt lat="43.96900551492129" lon="10.696052253490718"><ele>461.0</ele><time>2026-04-11T14:42:01Z</time></trkpt><trkpt lat="43.9690496518002" lon="10.696159158516663"><ele>457.4</ele><time>2026-04-11T14:42:02Z</time></trkpt><trkpt lat="43.96906754337953" lon="10.696247001226642"><ele>453.8</ele><time>2026-04-11T14:42:03Z</time></trkpt><trkpt lat="43.96906588318347" lon="10.6964033894838"><ele>450.19999999999993</ele><time>2026-04-11T14:42:05Z</time></trkpt><trkpt lat="43.96903817641471" lon="10.696563116470612"><ele>446.59999999999997</ele><time>2026-04-11T14:42:07Z</time></trkpt><trkpt lat="43.96898248496419" lon="10.696693225277679"><ele>443.0</ele><time>2026-04-11T14:42:09Z</time></trkpt><trkpt lat="43.96893499437709" lon="10.696759785253114"><ele>443.0</ele><time>2026-04-11T14:42:10Z</time></trkpt><trkpt lat="43.9688844132814" lon="10.696812448252032"><ele>442.99999999999994</ele><time>2026-04-11T14:42:11Z</time></trkpt><trkpt lat="43.968832370852624" lon="10.696865163902293"><ele>442.99999999999994</ele><time>2026-04-11T14:42:12Z</time></trkpt><trkpt lat="43.96872191748784" lon="10.69688979313297"><ele>443.0</ele><time>2026-04-11T14:42:14Z</time></trkpt><trkpt lat="43.96861588825372" lon="10.696853681765193"><ele>443.0</ele><time>2026-04-11T14:42:16Z</time></trkpt><trkpt lat="43.96851229763831" lon="10.696763308726528"><ele>443.0</ele><time>2026-04-11T14:42:18Z</time></trkpt><trkpt lat="43.96842700610343" lon="10.696672554047607"><ele>442.99999999999994</ele><time>2026-04-11T14:42:20Z</time></trkpt><trkpt lat="43.96833493845701" lon="10.696582409691485"><ele>442.99999999999994</ele><time>2026-04-11T14:42:22Z</time></trkpt><trkpt lat="43.96823771456602" lon="10.696482512160655"><ele>443.0</ele><time>2026-04-11T14:42:24Z</time></trkpt><trkpt lat="43.96817919527283" lon="10.69643211103159"><ele>443.0</ele><time>2026-04-11T14:42:25Z</time></trkpt><trkpt lat="43.968052354215814" lon="10.696399710672276"><ele>442.16666666666663</ele><time>2026-04-11T14:42:27Z</time></trkpt><trkpt lat="43.96798324006139" lon="10.696384408743594"><ele>441.3333333333333</ele><time>2026-04-11T14:42:28Z</time></trkpt><trkpt lat="43.9678618911483" lon="10.69631218485915"><ele>440.5</ele><time>2026-04-11T14:42:30Z</time></trkpt><trkpt lat="43.96778848659862" lon="10.696301930101388"><ele>439.66666666666663</ele><time>2026-04-11T14:42:31Z</time></trkpt><trkpt lat="43.96774297779334" lon="10.696227670758878"><ele>438.8333333333333</ele><time>2026-04-11T14:42:32Z</time></trkpt><trkpt lat="43.96767297072728" lon="10.696208065373986"><ele>438.0</ele><time>2026-04-11T14:42:33Z</time></trkpt><trkpt lat="43.96752980574874" lon="10.696248118753108"><ele>434.0</ele><time>2026-04-11T14:42:35Z</time></trkpt><trkpt lat="43.96746387095286" lon="10.696271447078447"><ele>430.0</ele><time>2026-04-11T14:42:36Z</time></trkpt><trkpt lat="43.967343561203776" lon="10.696385863123787"><ele>426.0</ele><time>2026-04-11T14:42:38Z</time></trkpt><trkpt lat="43.96722521120765" lon="10.696426199151864"><ele>422.0</ele><time>2026-04-11T14:42:40Z</time></trkpt><trkpt lat="43.967118260298776" lon="10.696365361044915"><ele>421.99999999999994</ele><time>2026-04-11T14:42:42Z</time></trkpt><trkpt lat="43.96704823723038" lon="10.696328504847573"><ele>422.0</ele><time>2026-04-11T14:42:44Z</time></trkpt><trkpt lat="43.96697741636749" lon="10.696337005594335"><ele>422.0</ele><time>2026-04-11T14:42:49Z</time></trkpt><trkpt lat="43.96697377375694" lon="10.696428101817668"><ele>422.0</ele><time>2026-04-11T14:42:50Z</time></trkpt><trkpt lat="43.96698116231969" lon="10.696563719894712"><ele>421.99999999999994</ele><time>2026-04-11T14:42:52Z</time></trkpt><trkpt lat="43.96699077119933" lon="10.696684642896642"><ele>422.0</ele><time>2026-04-11T14:42:54Z</time></trkpt><trkpt lat="43.96699604229462" lon="10.696786175281877"><ele>421.99999999999994</ele><time>2026-04-11T14:42:56Z</time></trkpt><trkpt lat="43.96705497635296" lon="10.696852494291358"><ele>422.0</ele><time>2026-04-11T14:42:58Z</time></trkpt><trkpt lat="43.96709800394106" lon="10.69692052043848"><ele>422.0</ele><time>2026-04-11T14:43:01Z</time></trkpt><trkpt lat="43.96709435122356" lon="10.697060429498489"><ele>422.0</ele><time>2026-04-11T14:43:06Z</time></trkpt><trkpt lat="43.9670202264007" lon="10.697105091849366"><ele>421.99999999999994</ele><time>2026-04-11T14:43:07Z</time></trkpt><trkpt lat="43.966956332349696" lon="10.697174231432394"><ele>422.0</ele><time>2026-04-11T14:43:09Z</time></trkpt><trkpt lat="43.96688695125392" lon="10.697216774176047"><ele>419.49999999999994</ele><time>2026-04-11T14:43:11Z</time></trkpt><trkpt lat="43.96685629623087" lon="10.69732218389154"><ele>417.0</ele><time>2026-04-11T14:43:14Z</time></trkpt><trkpt lat="43.9669000578737" lon="10.697385305369654"><ele>414.5</ele><time>2026-04-11T14:43:15Z</time></trkpt><trkpt lat="43.96690676752005" lon="10.697492394519463"><ele>412.0</ele><time>2026-04-11T14:43:18Z</time></trkpt><trkpt lat="43.96681659853139" lon="10.697563391858072"><ele>409.49999999999994</ele><time>2026-04-11T14:43:20Z</time></trkpt><trkpt lat="43.9667283788309" lon="10.697644021641397"><ele>407.0</ele><time>2026-04-11T14:43:22Z</time></trkpt><trkpt lat="43.96666212064636" lon="10.697750670987807"><ele>402.40000000000003</ele><time>2026-04-11T14:43:24Z</time></trkpt><trkpt lat="43.966603376809154" lon="10.697885284740805"><ele>397.8</ele><time>2026-04-11T14:43:26Z</time></trkpt><trkpt lat="43.96652756033466" lon="10.697959949241687"><ele>393.2</ele><time>2026-04-11T14:43:28Z</time></trkpt><trkpt lat="43.96645989830851" lon="10.698048959738957"><ele>388.6</ele><time>2026-04-11T14:43:30Z</time></trkpt><trkpt lat="43.966458921396914" lon="10.6981667449329"><ele>384.0</ele><time>2026-04-11T14:43:33Z</time></trkpt><trkpt lat="43.9664633433844" lon="10.698279101190439"><ele>384.0</ele><time>2026-04-11T14:43:35Z</time></trkpt><trkpt lat="43.966453122864756" lon="10.698386082744515"><ele>384.0</ele><time>2026-04-11T14:43:37Z</time></trkpt><trkpt lat="43.96642665874899" lon="10.698528926427418"><ele>384.0</ele><time>2026-04-11T14:43:39Z</time></trkpt><trkpt lat="43.966377261924634" lon="10.698627581192747"><ele>384.0</ele><time>2026-04-11T14:43:40Z</time></trkpt><trkpt lat="43.96633208952492" lon="10.698746471282377"><ele>384.0</ele><time>2026-04-11T14:43:42Z</time></trkpt><trkpt lat="43.96629922379772" lon="10.698847074333742"><ele>384.0</ele><time>2026-04-11T14:43:44Z</time></trkpt><trkpt lat="43.96631755438325" lon="10.699004805573397"><ele>381.4</ele><time>2026-04-11T14:43:46Z</time></trkpt><trkpt lat="43.966291280408385" lon="10.699095647752165"><ele>378.79999999999995</ele><time>2026-04-11T14:43:48Z</time></trkpt><trkpt lat="43.96625430013891" lon="10.699233492058665"><ele>376.20000000000005</ele><time>2026-04-11T14:43:50Z</time></trkpt><trkpt lat="43.96622232507996" lon="10.69935802923117"><ele>373.6</ele><time>2026-04-11T14:43:52Z</time></trkpt><trkpt lat="43.96616986211008" lon="10.69949974510777"><ele>371.0</ele><time>2026-04-11T14:43:54Z</time></trkpt><trkpt lat="43.96615702483527" lon="10.699652732567253"><ele>369.6666666666667</ele><time>2026-04-11T14:43:56Z</time></trkpt><trkpt lat="43.96613559780946" lon="10.699788742575945"><ele>368.33333333333337</ele><time>2026-04-11T14:43:58Z</time></trkpt><trkpt lat="43.96607937233169" lon="10.699857528949021"><ele>367.0</ele><time>2026-04-11T14:44:00Z</time></trkpt><trkpt lat="43.966013905751815" lon="10.699944004685731"><ele>365.6666666666667</ele><time>2026-04-11T14:44:02Z</time></trkpt><trkpt lat="43.96592014096943" lon="10.699979758807379"><ele>364.3333333333333</ele><time>2026-04-11T14:44:04Z</time></trkpt><trkpt lat="43.96586227939549" lon="10.700027971589247"><ele>363.0</ele><time>2026-04-11T14:44:06Z</time></trkpt><trkpt lat="43.96579707860778" lon="10.7000600884784"><ele>363.0</ele><time>2026-04-11T14:44:08Z</time></trkpt><trkpt lat="43.9656957877463" lon="10.700061634564223"><ele>363.0</ele><time>2026-04-11T14:44:25Z</time></trkpt><trkpt lat="43.96565505809128" lon="10.70016325434004"><ele>363.0</ele><time>2026-04-11T14:44:28Z</time></trkpt><trkpt lat="43.9655783393251" lon="10.700177869171691"><ele>363.0</ele><time>2026-04-11T14:44:30Z</time></trkpt><trkpt lat="43.96551664534421" lon="10.700199207812256"><ele>363.0</ele><time>2026-04-11T14:44:32Z</time></trkpt><trkpt lat="43.96544207425429" lon="10.700193406686326"><ele>363.0</ele><time>2026-04-11T14:44:34Z</time></trkpt><trkpt lat="43.965348180551196" lon="10.70021766597145"><ele>360.79999999999995</ele><time>2026-04-11T14:44:36Z</time></trkpt><trkpt lat="43.965294707974856" lon="10.700312522719063"><ele>358.6</ele><time>2026-04-11T14:44:38Z</time></trkpt><trkpt lat="43.96521918115039" lon="10.700418840908117"><ele>356.4</ele><time>2026-04-11T14:44:40Z</time></trkpt><trkpt lat="43.96513409259224" lon="10.700483737925621"><ele>354.20000000000005</ele><time>2026-04-11T14:44:42Z</time></trkpt><trkpt lat="43.96503416176681" lon="10.700530365929223"><ele>352.0</ele><time>2026-04-11T14:44:44Z</time></trkpt><trkpt lat="43.96493398662796" lon="10.70054827720425"><ele>351.5</ele><time>2026-04-11T14:44:46Z</time></trkpt><trkpt lat="43.964838240627806" lon="10.700557398290417"><ele>351.0</ele><time>2026-04-11T14:44:48Z</time></trkpt><trkpt lat="43.96474828649384" lon="10.700561497525788"><ele>350.5</ele><time>2026-04-11T14:44:49Z</time></trkpt><trkpt lat="43.964684921102666" lon="10.700578668952112"><ele>350.0</ele><time>2026-04-11T14:44:50Z</time></trkpt><trkpt lat="43.964633554696675" lon="10.700657146711027"><ele>349.5</ele><time>2026-04-11T14:44:52Z</time></trkpt><trkpt lat="43.964579406945994" lon="10.700741142214332"><ele>349.0</ele><time>2026-04-11T14:44:54Z</time></trkpt><trkpt lat="43.96450450629453" lon="10.700761156034044"><ele>349.0</ele><time>2026-04-11T14:44:57Z</time></trkpt><trkpt lat="43.964441222717916" lon="10.700755376028775"><ele>349.0</ele><time>2026-04-11T14:44:59Z</time></trkpt><trkpt lat="43.964341781317266" lon="10.700783572843065"><ele>349.0</ele><time>2026-04-11T14:45:01Z</time></trkpt><trkpt lat="43.96424577853716" lon="10.700802691857282"><ele>349.0</ele><time>2026-04-11T14:45:03Z</time></trkpt><trkpt lat="43.96415646818792" lon="10.700928407817425"><ele>349.0</ele><time>2026-04-11T14:45:06Z</time></trkpt><trkpt lat="43.964159301004266" lon="10.701090895054064"><ele>343.0</ele><time>2026-04-11T14:45:08Z</time></trkpt><trkpt lat="43.96415999351362" lon="10.701247529635335"><ele>337.0</ele><time>2026-04-11T14:45:10Z</time></trkpt><trkpt lat="43.96414324638829" lon="10.701365560556239"><ele>331.0</ele><time>2026-04-11T14:45:12Z</time></trkpt><trkpt lat="43.964061232271504" lon="10.701282805014587"><ele>325.0</ele><time>2026-04-11T14:45:16Z</time></trkpt><trkpt lat="43.96402004170375" lon="10.701208991407468"><ele>319.0</ele><time>2026-04-11T14:45:18Z</time></trkpt><trkpt lat="43.96394565975203" lon="10.7011495168148"><ele>319.0</ele><time>2026-04-11T14:45:20Z</time></trkpt><trkpt lat="43.96385803761356" lon="10.701136953246461"><ele>319.0</ele><time>2026-04-11T14:45:22Z</time></trkpt><trkpt lat="43.963798842204525" lon="10.701183558675524"><ele>319.0</ele><time>2026-04-11T14:45:27Z</time></trkpt><trkpt lat="43.963822579282926" lon="10.701300167171734"><ele>319.0</ele><time>2026-04-11T14:45:29Z</time></trkpt><trkpt lat="43.96386737710334" lon="10.70140570075179"><ele>319.0</ele><time>2026-04-11T14:45:30Z</time></trkpt><trkpt lat="43.96388319578933" lon="10.701526247960645"><ele>319.0</ele><time>2026-04-11T14:45:32Z</time></trkpt><trkpt lat="43.96383646849408" lon="10.701626299108325"><ele>319.0</ele><time>2026-04-11T14:45:34Z</time></trkpt><trkpt lat="43.96383156509272" lon="10.701735984767616"><ele>319.0</ele><time>2026-04-11T14:45:36Z</time></trkpt><trkpt lat="43.96385819771414" lon="10.70186134790097"><ele>319.0</ele><time>2026-04-11T14:45:38Z</time></trkpt><trkpt lat="43.96389229501888" lon="10.702013248806995"><ele>319.0</ele><time>2026-04-11T14:45:40Z</time></trkpt><trkpt lat="43.96390496618069" lon="10.702132524519252"><ele>319.0</ele><time>2026-04-11T14:45:42Z</time></trkpt><trkpt lat="43.96387211608223" lon="10.70221672517367"><ele>319.0</ele><time>2026-04-11T14:45:44Z</time></trkpt><trkpt lat="43.96379068490461" lon="10.702195789549204"><ele>315.5</ele><time>2026-04-11T14:45:46Z</time></trkpt><trkpt lat="43.96369083327141" lon="10.702170531608397"><ele>312.0</ele><time>2026-04-11T14:45:48Z</time></trkpt><trkpt lat="43.96361105884984" lon="10.702140340402106"><ele>308.5</ele><time>2026-04-11T14:45:50Z</time></trkpt><trkpt lat="43.96353146629095" lon="10.702108284516857"><ele>305.0</ele><time>2026-04-11T14:45:52Z</time></trkpt><trkpt lat="43.9634721803022" lon="10.702154110291172"><ele>301.5</ele><time>2026-04-11T14:45:54Z</time></trkpt><trkpt lat="43.9635011761762" lon="10.702236969254283"><ele>298.0</ele><time>2026-04-11T14:45:55Z</time></trkpt><trkpt lat="43.96350594705032" lon="10.702337231766935"><ele>298.0</ele><time>2026-04-11T14:45:57Z</time></trkpt><trkpt lat="43.963439949321916" lon="10.702301494813952"><ele>298.0</ele><time>2026-04-11T14:45:59Z</time></trkpt><trkpt lat="43.963353134494874" lon="10.702286707349751"><ele>298.0</ele><time>2026-04-11T14:46:01Z</time></trkpt><trkpt lat="43.96330284918073" lon="10.702349468180252"><ele>298.0</ele><time>2026-04-11T14:46:03Z</time></trkpt><trkpt lat="43.96328471680232" lon="10.702440573516789"><ele>298.0</ele><time>2026-04-11T14:46:04Z</time></trkpt><trkpt lat="43.96320575928307" lon="10.702561266627933"><ele>298.0</ele><time>2026-04-11T14:46:06Z</time></trkpt><trkpt lat="43.963134097667655" lon="10.702640397673465"><ele>295.1428571428571</ele><time>2026-04-11T14:46:08Z</time></trkpt><trkpt lat="43.963085743568534" lon="10.702697710643191"><ele>292.2857142857143</ele><time>2026-04-11T14:46:09Z</time></trkpt><trkpt lat="43.96304577360567" lon="10.702775073859183"><ele>289.42857142857144</ele><time>2026-04-11T14:46:11Z</time></trkpt><trkpt lat="43.96298265248187" lon="10.702796485668138"><ele>286.57142857142856</ele><time>2026-04-11T14:46:14Z</time></trkpt><trkpt lat="43.962909175282256" lon="10.702802797041027"><ele>283.7142857142857</ele><time>2026-04-11T14:46:17Z</time></trkpt><trkpt lat="43.962835544743974" lon="10.702805113512984"><ele>280.85714285714283</ele><time>2026-04-11T14:46:19Z</time></trkpt><trkpt lat="43.96277354831728" lon="10.702900897275585"><ele>278.0</ele><time>2026-04-11T14:46:23Z</time></trkpt><trkpt lat="43.96271619174132" lon="10.702979686247044"><ele>275.5</ele><time>2026-04-11T14:46:25Z</time></trkpt><trkpt lat="43.96265177119465" lon="10.703034350767723"><ele>273.0</ele><time>2026-04-11T14:46:27Z</time></trkpt><trkpt lat="43.96262846670391" lon="10.702920324405605"><ele>270.5</ele><time>2026-04-11T14:46:30Z</time></trkpt><trkpt lat="43.96253318726298" lon="10.702860628068862"><ele>268.0</ele><time>2026-04-11T14:46:34Z</time></trkpt><trkpt lat="43.96245048543121" lon="10.702898357244568"><ele>265.5</ele><time>2026-04-11T14:46:36Z</time></trkpt><trkpt lat="43.962381760836436" lon="10.702954577600492"><ele>263.0</ele><time>2026-04-11T14:46:38Z</time></trkpt><trkpt lat="43.962327508140405" lon="10.703004034337978"><ele>262.5</ele><time>2026-04-11T14:46:42Z</time></trkpt><trkpt lat="43.96226493761252" lon="10.702993117290648"><ele>262.0</ele><time>2026-04-11T14:46:47Z</time></trkpt><trkpt lat="43.96234871985936" lon="10.702942421556854"><ele>261.5</ele><time>2026-04-11T14:46:53Z</time></trkpt><trkpt lat="43.9622825040243" lon="10.702925634143389"><ele>261.0</ele><time>2026-04-11T14:47:21Z</time></trkpt><trkpt lat="43.96220665552245" lon="10.7029533491962"><ele>260.5</ele><time>2026-04-11T14:47:23Z</time></trkpt><trkpt lat="43.96216482733388" lon="10.70305263095869"><ele>260.0</ele><time>2026-04-11T14:47:25Z</time></trkpt><trkpt lat="43.962107254038564" lon="10.703002619847522"><ele>260.0</ele><time>2026-04-11T14:47:30Z</time></trkpt><trkpt lat="43.96204453957959" lon="10.703014155528377"><ele>260.0</ele><time>2026-04-11T14:47:32Z</time></trkpt><trkpt lat="43.96197029646614" lon="10.70299905092626"><ele>260.0</ele><time>2026-04-11T14:47:37Z</time></trkpt><trkpt lat="43.96190916151366" lon="10.703050796868572"><ele>260.0</ele><time>2026-04-11T14:47:40Z</time></trkpt><trkpt lat="43.961840918228454" lon="10.703098773291796"><ele>260.0</ele><time>2026-04-11T14:47:42Z</time></trkpt><trkpt lat="43.9617841058257" lon="10.703225195886242"><ele>260.0</ele><time>2026-04-11T14:47:45Z</time></trkpt><trkpt lat="43.961814109405154" lon="10.703368555510984"><ele>260.0</ele><time>2026-04-11T14:47:47Z</time></trkpt><trkpt lat="43.96182551244288" lon="10.703476206706995"><ele>260.0</ele><time>2026-04-11T14:47:49Z</time></trkpt><trkpt lat="43.961797189476" lon="10.703565088141863"><ele>260.0</ele><time>2026-04-11T14:48:09Z</time></trkpt><trkpt lat="43.961751739547516" lon="10.703633655503864"><ele>260.0</ele><time>2026-04-11T14:48:11Z</time></trkpt><trkpt lat="43.961573555278825" lon="10.703634798836392"><ele>260.0</ele><time>2026-04-11T14:48:13Z</time></trkpt><trkpt lat="43.96146490745948" lon="10.703594140437131"><ele>261.6</ele><time>2026-04-11T14:48:14Z</time></trkpt><trkpt lat="43.96136242595341" lon="10.703591927172551"><ele>263.2</ele><time>2026-04-11T14:48:15Z</time></trkpt><trkpt lat="43.96126702745084" lon="10.703596900054146"><ele>264.8</ele><time>2026-04-11T14:48:16Z</time></trkpt><trkpt lat="43.96114636209562" lon="10.70362130411684"><ele>266.4</ele><time>2026-04-11T14:48:17Z</time></trkpt><trkpt lat="43.961029973999906" lon="10.703641309284205"><ele>268.0</ele><time>2026-04-11T14:48:18Z</time></trkpt><trkpt lat="43.960934449920096" lon="10.703671649249388"><ele>265.8333333333333</ele><time>2026-04-11T14:48:19Z</time></trkpt><trkpt lat="43.96084011182955" lon="10.703696070921715"><ele>263.66666666666663</ele><time>2026-04-11T14:48:20Z</time></trkpt><trkpt lat="43.960744016019426" lon="10.703725649626945"><ele>261.5</ele><time>2026-04-11T14:48:21Z</time></trkpt><trkpt lat="43.9606532022988" lon="10.70376979905339"><ele>259.3333333333333</ele><time>2026-04-11T14:48:22Z</time></trkpt><trkpt lat="43.96058723924764" lon="10.703816363464464"><ele>257.1666666666667</ele><time>2026-04-11T14:48:23Z</time></trkpt><trkpt lat="43.96050950080233" lon="10.703855347630277"><ele>255.0</ele><time>2026-04-11T14:48:24Z</time></trkpt><trkpt lat="43.96043810523848" lon="10.703905338348696"><ele>255.0</ele><time>2026-04-11T14:48:25Z</time></trkpt><trkpt lat="43.96037066272572" lon="10.703969291378561"><ele>255.0</ele><time>2026-04-11T14:48:26Z</time></trkpt><trkpt lat="43.96030316226039" lon="10.704025009088605"><ele>255.0</ele><time>2026-04-11T14:48:27Z</time></trkpt><trkpt lat="43.960232131700295" lon="10.7041087097873"><ele>255.0</ele><time>2026-04-11T14:48:28Z</time></trkpt><trkpt lat="43.96016330379832" lon="10.70418605914963"><ele>255.0</ele><time>2026-04-11T14:48:29Z</time></trkpt><trkpt lat="43.960101518622025" lon="10.70427950145961"><ele>255.0</ele><time>2026-04-11T14:48:30Z</time></trkpt><trkpt lat="43.96003846453707" lon="10.704360916267378"><ele>253.8</ele><time>2026-04-11T14:48:31Z</time></trkpt><trkpt lat="43.959982458106616" lon="10.704462004478247"><ele>252.6</ele><time>2026-04-11T14:48:32Z</time></trkpt><trkpt lat="43.959932772439664" lon="10.704600252726982"><ele>251.39999999999998</ele><time>2026-04-11T14:48:33Z</time></trkpt><trkpt lat="43.95989419920408" lon="10.704732185790652"><ele>250.2</ele><time>2026-04-11T14:48:34Z</time></trkpt><trkpt lat="43.95984238551789" lon="10.704867692674902"><ele>249.0</ele><time>2026-04-11T14:48:35Z</time></trkpt><trkpt lat="43.95980721173764" lon="10.705003905448823"><ele>249.0</ele><time>2026-04-11T14:48:36Z</time></trkpt><trkpt lat="43.95976479320088" lon="10.705160700713671"><ele>249.0</ele><time>2026-04-11T14:48:37Z</time></trkpt><trkpt lat="43.95973262916709" lon="10.705316643766198"><ele>249.0</ele><time>2026-04-11T14:48:38Z</time></trkpt><trkpt lat="43.959713355906835" lon="10.705484826264312"><ele>249.0</ele><time>2026-04-11T14:48:39Z</time></trkpt><trkpt lat="43.95967773996937" lon="10.70564141318975"><ele>250.6</ele><time>2026-04-11T14:48:40Z</time></trkpt><trkpt lat="43.95964585900114" lon="10.705799144369024"><ele>252.2</ele><time>2026-04-11T14:48:41Z</time></trkpt><trkpt lat="43.95961453696896" lon="10.705953614555119"><ele>253.79999999999998</ele><time>2026-04-11T14:48:42Z</time></trkpt><trkpt lat="43.95957776714577" lon="10.706082313603526"><ele>255.39999999999998</ele><time>2026-04-11T14:48:43Z</time></trkpt><trkpt lat="43.95952931722269" lon="10.706206736656496"><ele>257.0</ele><time>2026-04-11T14:48:44Z</time></trkpt><trkpt lat="43.95950285522356" lon="10.70633719229337"><ele>257.6</ele><time>2026-04-11T14:48:45Z</time></trkpt><trkpt lat="43.9594633270776" lon="10.706453838670294"><ele>258.2</ele><time>2026-04-11T14:48:46Z</time></trkpt><trkpt lat="43.95947400406986" lon="10.706603011888626"><ele>258.8</ele><time>2026-04-11T14:48:47Z</time></trkpt><trkpt lat="43.95952855073903" lon="10.706749390165228"><ele>259.4</ele><time>2026-04-11T14:48:48Z</time></trkpt><trkpt lat="43.95959234898196" lon="10.706887321612445"><ele>260.0</ele><time>2026-04-11T14:48:49Z</time></trkpt><trkpt lat="43.959666533505825" lon="10.707038489435817"><ele>260.6</ele><time>2026-04-11T14:48:50Z</time></trkpt><trkpt lat="43.959727683039546" lon="10.70715084855818"><ele>261.2</ele><time>2026-04-11T14:48:51Z</time></trkpt><trkpt lat="43.95977090938233" lon="10.70728018734282"><ele>261.8</ele><time>2026-04-11T14:48:52Z</time></trkpt><trkpt lat="43.959790325759876" lon="10.707400470472592"><ele>262.4</ele><time>2026-04-11T14:48:53Z</time></trkpt><trkpt lat="43.95978102045052" lon="10.707564158065152"><ele>263.0</ele><time>2026-04-11T14:48:54Z</time></trkpt><trkpt lat="43.959751488509966" lon="10.707696763837577"><ele>265.25</ele><time>2026-04-11T14:48:55Z</time></trkpt><trkpt lat="43.95967876219921" lon="10.707821956981235"><ele>267.5</ele><time>2026-04-11T14:48:56Z</time></trkpt><trkpt lat="43.95955169517248" lon="10.707936570163117"><ele>269.75</ele><time>2026-04-11T14:48:57Z</time></trkpt><trkpt lat="43.95943257878322" lon="10.70801707978217"><ele>272.0</ele><time>2026-04-11T14:48:58Z</time></trkpt><trkpt lat="43.9593376323462" lon="10.708084164180738"><ele>272.0</ele><time>2026-04-11T14:48:59Z</time></trkpt><trkpt lat="43.95929047136643" lon="10.70819358900947"><ele>272.0</ele><time>2026-04-11T14:49:00Z</time></trkpt><trkpt lat="43.959249282934124" lon="10.708309275589535"><ele>272.0</ele><time>2026-04-11T14:49:01Z</time></trkpt><trkpt lat="43.95923031118892" lon="10.708452080742877"><ele>272.0</ele><time>2026-04-11T14:49:02Z</time></trkpt><trkpt lat="43.95920281617648" lon="10.708588676030775"><ele>272.0</ele><time>2026-04-11T14:49:03Z</time></trkpt><trkpt lat="43.959167973813805" lon="10.70871241849094"><ele>263.0</ele><time>2026-04-11T14:49:04Z</time></trkpt><trkpt lat="43.95913837112351" lon="10.708833418878475"><ele>254.0</ele><time>2026-04-11T14:49:05Z</time></trkpt><trkpt lat="43.959102444438706" lon="10.708946330695394"><ele>245.0</ele><time>2026-04-11T14:49:06Z</time></trkpt><trkpt lat="43.95898220804527" lon="10.709026113606324"><ele>236.0</ele><time>2026-04-11T14:49:07Z</time></trkpt><trkpt lat="43.95890642629434" lon="10.709145499766144"><ele>227.0</ele><time>2026-04-11T14:49:09Z</time></trkpt><trkpt lat="43.958872887660426" lon="10.709247359586469"><ele>227.00000000000003</ele><time>2026-04-11T14:49:10Z</time></trkpt><trkpt lat="43.9588384345208" lon="10.709338015191618"><ele>227.0</ele><time>2026-04-11T14:49:11Z</time></trkpt><trkpt lat="43.95881066039765" lon="10.709420741750222"><ele>227.0</ele><time>2026-04-11T14:49:12Z</time></trkpt><trkpt lat="43.95876419500232" lon="10.709542172338933"><ele>227.0</ele><time>2026-04-11T14:49:14Z</time></trkpt><trkpt lat="43.95867652619091" lon="10.709562979563424"><ele>227.00000000000003</ele><time>2026-04-11T14:49:16Z</time></trkpt><trkpt lat="43.95858003785743" lon="10.709549262425508"><ele>227.0</ele><time>2026-04-11T14:49:18Z</time></trkpt><trkpt lat="43.95851389529535" lon="10.709192457907887"><ele>227.00000000000003</ele><time>2026-04-11T14:49:20Z</time></trkpt><trkpt lat="43.958456265369676" lon="10.70908689940462"><ele>227.0</ele><time>2026-04-11T14:49:21Z</time></trkpt><trkpt lat="43.95841331475451" lon="10.708986843878638"><ele>227.0</ele><time>2026-04-11T14:49:22Z</time></trkpt><trkpt lat="43.95835055324324" lon="10.708902587644335"><ele>227.0</ele><time>2026-04-11T14:49:23Z</time></trkpt><trkpt lat="43.95829431724159" lon="10.708823654955623"><ele>227.00000000000003</ele><time>2026-04-11T14:49:24Z</time></trkpt><trkpt lat="43.95823385957031" lon="10.708757516414204"><ele>227.0</ele><time>2026-04-11T14:49:25Z</time></trkpt><trkpt lat="43.958159708794604" lon="10.708704447393142"><ele>228.50000000000003</ele><time>2026-04-11T14:49:26Z</time></trkpt><trkpt lat="43.95808376173067" lon="10.70866391782414"><ele>230.0</ele><time>2026-04-11T14:49:27Z</time></trkpt><trkpt lat="43.95801389083209" lon="10.708616149374855"><ele>231.5</ele><time>2026-04-11T14:49:28Z</time></trkpt><trkpt lat="43.957950157701895" lon="10.70858538948152"><ele>233.0</ele><time>2026-04-11T14:49:29Z</time></trkpt><trkpt lat="43.957870551157534" lon="10.70855249915587"><ele>234.50000000000003</ele><time>2026-04-11T14:49:31Z</time></trkpt><trkpt lat="43.95776713057758" lon="10.70856699176173"><ele>236.0</ele><time>2026-04-11T14:51:40Z</time></trkpt><trkpt lat="43.957696054875534" lon="10.708541639902432"><ele>236.33333333333334</ele><time>2026-04-11T14:51:41Z</time></trkpt><trkpt lat="43.95761518999714" lon="10.708532305397023"><ele>236.66666666666669</ele><time>2026-04-11T14:51:42Z</time></trkpt><trkpt lat="43.95752412069007" lon="10.708525774727905"><ele>237.0</ele><time>2026-04-11T14:51:43Z</time></trkpt><trkpt lat="43.9574486905151" lon="10.70853739331436"><ele>237.33333333333331</ele><time>2026-04-11T14:51:44Z</time></trkpt><trkpt lat="43.95735337667638" lon="10.708567355914273"><ele>237.66666666666666</ele><time>2026-04-11T14:51:45Z</time></trkpt><trkpt lat="43.957267517017634" lon="10.708635408856413"><ele>238.0</ele><time>2026-04-11T14:51:46Z</time></trkpt><trkpt lat="43.957189397096265" lon="10.708721304554944"><ele>238.33333333333331</ele><time>2026-04-11T14:51:47Z</time></trkpt><trkpt lat="43.95711096117886" lon="10.708805331940319"><ele>238.66666666666666</ele><time>2026-04-11T14:51:48Z</time></trkpt><trkpt lat="43.95705332093864" lon="10.70890959475756"><ele>239.0</ele><time>2026-04-11T14:51:49Z</time></trkpt><trkpt lat="43.956996437270895" lon="10.709005882247006"><ele>239.33333333333331</ele><time>2026-04-11T14:51:50Z</time></trkpt><trkpt lat="43.956945449615894" lon="10.70908810293419"><ele>239.66666666666666</ele><time>2026-04-11T14:51:51Z</time></trkpt><trkpt lat="43.95688678135843" lon="10.709148735246625"><ele>240.0</ele><time>2026-04-11T14:51:52Z</time></trkpt><trkpt lat="43.95681316423954" lon="10.709210331219804"><ele>240.0</ele><time>2026-04-11T14:51:53Z</time></trkpt><trkpt lat="43.956758427081894" lon="10.709339083458648"><ele>240.0</ele><time>2026-04-11T14:51:54Z</time></trkpt><trkpt lat="43.9567044909976" lon="10.709497380683189"><ele>240.0</ele><time>2026-04-11T14:51:55Z</time></trkpt><trkpt lat="43.95663307389771" lon="10.709617644781195"><ele>240.0</ele><time>2026-04-11T14:51:56Z</time></trkpt><trkpt lat="43.95655309793065" lon="10.70971232457927"><ele>238.6</ele><time>2026-04-11T14:51:57Z</time></trkpt><trkpt lat="43.95647525335719" lon="10.709814634839416"><ele>237.2</ele><time>2026-04-11T14:51:58Z</time></trkpt><trkpt lat="43.95639417864818" lon="10.709921885477694"><ele>235.8</ele><time>2026-04-11T14:51:59Z</time></trkpt><trkpt lat="43.95631550628977" lon="10.710026514174093"><ele>234.4</ele><time>2026-04-11T14:52:00Z</time></trkpt><trkpt lat="43.95623281839093" lon="10.710125129703219"><ele>233.0</ele><time>2026-04-11T14:52:01Z</time></trkpt><trkpt lat="43.9561476932168" lon="10.710227276095988"><ele>233.0</ele><time>2026-04-11T14:52:02Z</time></trkpt><trkpt lat="43.95603903806759" lon="10.710201415616154"><ele>233.0</ele><time>2026-04-11T14:52:03Z</time></trkpt><trkpt lat="43.95593162911636" lon="10.710184798723736"><ele>233.0</ele><time>2026-04-11T14:52:04Z</time></trkpt><trkpt lat="43.955829261530674" lon="10.710171214304397"><ele>233.0</ele><time>2026-04-11T14:52:05Z</time></trkpt><trkpt lat="43.95572082169862" lon="10.710144725380635"><ele>233.0</ele><time>2026-04-11T14:52:06Z</time></trkpt><trkpt lat="43.955609641936434" lon="10.710105060378734"><ele>230.5</ele><time>2026-04-11T14:52:07Z</time></trkpt><trkpt lat="43.95553040514346" lon="10.709981327006314"><ele>228.0</ele><time>2026-04-11T14:52:08Z</time></trkpt><trkpt lat="43.955569407338515" lon="10.709721701430814"><ele>225.5</ele><time>2026-04-11T14:52:09Z</time></trkpt><trkpt lat="43.955578007720526" lon="10.709617358633901"><ele>223.0</ele><time>2026-04-11T14:52:10Z</time></trkpt><trkpt lat="43.9555191579546" lon="10.709529025103265"><ele>223.0</ele><time>2026-04-11T14:52:11Z</time></trkpt><trkpt lat="43.95545895268946" lon="10.709449816471105"><ele>223.0</ele><time>2026-04-11T14:52:12Z</time></trkpt><trkpt lat="43.955398582549016" lon="10.709360986635195"><ele>223.0</ele><time>2026-04-11T14:52:13Z</time></trkpt><trkpt lat="43.95532118607555" lon="10.709275139350586"><ele>223.0</ele><time>2026-04-11T14:52:14Z</time></trkpt><trkpt lat="43.955241089832086" lon="10.709214947622828"><ele>223.0</ele><time>2026-04-11T14:52:15Z</time></trkpt><trkpt lat="43.955137306982756" lon="10.709192128382776"><ele>221.2</ele><time>2026-04-11T14:52:16Z</time></trkpt><trkpt lat="43.95502476769485" lon="10.709153565647329"><ele>219.4</ele><time>2026-04-11T14:52:17Z</time></trkpt><trkpt lat="43.954921691004365" lon="10.709101186065288"><ele>217.59999999999997</ele><time>2026-04-11T14:52:18Z</time></trkpt><trkpt lat="43.954823754717474" lon="10.709054189776962"><ele>215.79999999999998</ele><time>2026-04-11T14:52:19Z</time></trkpt><trkpt lat="43.95473429285349" lon="10.709042014026457"><ele>214.0</ele><time>2026-04-11T14:52:20Z</time></trkpt><trkpt lat="43.954626600796864" lon="10.708980318545835"><ele>214.0</ele><time>2026-04-11T14:52:21Z</time></trkpt><trkpt lat="43.95452878936436" lon="10.708928101215099"><ele>214.0</ele><time>2026-04-11T14:52:22Z</time></trkpt><trkpt lat="43.95441798450123" lon="10.708872091402167"><ele>214.0</ele><time>2026-04-11T14:52:23Z</time></trkpt><trkpt lat="43.95431184686431" lon="10.708794938211906"><ele>214.0</ele><time>2026-04-11T14:52:24Z</time></trkpt><trkpt lat="43.95423272376021" lon="10.708673491261798"><ele>215.2</ele><time>2026-04-11T14:52:25Z</time></trkpt><trkpt lat="43.954191660717115" lon="10.708531396913518"><ele>216.39999999999998</ele><time>2026-04-11T14:52:26Z</time></trkpt><trkpt lat="43.95417010585347" lon="10.708383783461832"><ele>217.6</ele><time>2026-04-11T14:52:27Z</time></trkpt><trkpt lat="43.95417221280262" lon="10.70822008819647"><ele>218.8</ele><time>2026-04-11T14:52:28Z</time></trkpt><trkpt lat="43.95412913625009" lon="10.70807830945275"><ele>220.0</ele><time>2026-04-11T14:52:29Z</time></trkpt><trkpt lat="43.95409338426751" lon="10.707947331298223"><ele>220.0</ele><time>2026-04-11T14:52:30Z</time></trkpt><trkpt lat="43.95408338167497" lon="10.70781451004307"><ele>220.0</ele><time>2026-04-11T14:52:31Z</time></trkpt><trkpt lat="43.954030297727776" lon="10.707698652437994"><ele>220.0</ele><time>2026-04-11T14:52:32Z</time></trkpt><trkpt lat="43.95396372179432" lon="10.707600787829303"><ele>220.0</ele><time>2026-04-11T14:52:33Z</time></trkpt><trkpt lat="43.953879009347844" lon="10.707521502451787"><ele>220.0</ele><time>2026-04-11T14:52:34Z</time></trkpt><trkpt lat="43.95377413897642" lon="10.707479620317855"><ele>217.0</ele><time>2026-04-11T14:52:35Z</time></trkpt><trkpt lat="43.95365970068594" lon="10.707445623554023"><ele>214.0</ele><time>2026-04-11T14:52:36Z</time></trkpt><trkpt lat="43.953554125765265" lon="10.707414241707268"><ele>211.0</ele><time>2026-04-11T14:52:37Z</time></trkpt><trkpt lat="43.95344621509036" lon="10.707488640499514"><ele>208.0</ele><time>2026-04-11T14:52:38Z</time></trkpt><trkpt lat="43.953360506217564" lon="10.707603239954338"><ele>207.4</ele><time>2026-04-11T14:52:39Z</time></trkpt><trkpt lat="43.95328040262554" lon="10.70770333480069"><ele>206.8</ele><time>2026-04-11T14:52:40Z</time></trkpt><trkpt lat="43.95320173227912" lon="10.707806206046632"><ele>206.2</ele><time>2026-04-11T14:52:41Z</time></trkpt><trkpt lat="43.95311015352353" lon="10.707895075311674"><ele>205.6</ele><time>2026-04-11T14:52:42Z</time></trkpt><trkpt lat="43.95300397213025" lon="10.707967639244687"><ele>205.0</ele><time>2026-04-11T14:52:43Z</time></trkpt><trkpt lat="43.95288923200158" lon="10.70800200878661"><ele>205.0</ele><time>2026-04-11T14:52:44Z</time></trkpt><trkpt lat="43.95277138194738" lon="10.708023968878978"><ele>205.0</ele><time>2026-04-11T14:52:45Z</time></trkpt><trkpt lat="43.9526582186719" lon="10.708045479590194"><ele>205.0</ele><time>2026-04-11T14:52:46Z</time></trkpt><trkpt lat="43.9525483393659" lon="10.708064281176062"><ele>205.0</ele><time>2026-04-11T14:52:47Z</time></trkpt><trkpt lat="43.952428817431226" lon="10.708075950356777"><ele>205.0</ele><time>2026-04-11T14:52:48Z</time></trkpt><trkpt lat="43.95231201534864" lon="10.708088562919995"><ele>205.0</ele><time>2026-04-11T14:52:49Z</time></trkpt><trkpt lat="43.952194117574734" lon="10.708107497402938"><ele>205.0</ele><time>2026-04-11T14:52:50Z</time></trkpt><trkpt lat="43.95207680725105" lon="10.708130381467285"><ele>205.0</ele><time>2026-04-11T14:52:51Z</time></trkpt><trkpt lat="43.95194105534252" lon="10.708128108887093"><ele>205.0</ele><time>2026-04-11T14:52:52Z</time></trkpt><trkpt lat="43.951809458034255" lon="10.708132682379215"><ele>205.0</ele><time>2026-04-11T14:52:53Z</time></trkpt><trkpt lat="43.951701316944295" lon="10.708097338823336"><ele>205.0</ele><time>2026-04-11T14:52:54Z</time></trkpt><trkpt lat="43.95157570677297" lon="10.708047253350758"><ele>205.0</ele><time>2026-04-11T14:52:55Z</time></trkpt><trkpt lat="43.9514505855587" lon="10.708018278042347"><ele>205.5</ele><time>2026-04-11T14:52:56Z</time></trkpt><trkpt lat="43.95132408884687" lon="10.707984990743993"><ele>206.0</ele><time>2026-04-11T14:52:57Z</time></trkpt><trkpt lat="43.95120458673644" lon="10.707940352171182"><ele>206.5</ele><time>2026-04-11T14:52:58Z</time></trkpt><trkpt lat="43.95108068819569" lon="10.707913158632163"><ele>207.0</ele><time>2026-04-11T14:52:59Z</time></trkpt><trkpt lat="43.95097801782312" lon="10.707874234644535"><ele>207.25</ele><time>2026-04-11T14:53:00Z</time></trkpt><trkpt lat="43.95085524402529" lon="10.707851943999314"><ele>207.5</ele><time>2026-04-11T14:53:01Z</time></trkpt><trkpt lat="43.95073745458769" lon="10.70779970593697"><ele>207.75</ele><time>2026-04-11T14:53:02Z</time></trkpt><trkpt lat="43.9506225977264" lon="10.707755962304347"><ele>208.0</ele><time>2026-04-11T14:53:03Z</time></trkpt><trkpt lat="43.95051436155754" lon="10.707732429745345"><ele>203.0</ele><time>2026-04-11T14:53:04Z</time></trkpt><trkpt lat="43.950402764584084" lon="10.707695516464812"><ele>198.0</ele><time>2026-04-11T14:53:05Z</time></trkpt><trkpt lat="43.9502871054812" lon="10.70764739722756"><ele>193.0</ele><time>2026-04-11T14:53:06Z</time></trkpt><trkpt lat="43.950168945136035" lon="10.707609116395144"><ele>188.0</ele><time>2026-04-11T14:53:07Z</time></trkpt><trkpt lat="43.950053284025444" lon="10.707569254403163"><ele>188.75</ele><time>2026-04-11T14:53:08Z</time></trkpt><trkpt lat="43.949934127462996" lon="10.707522103237158"><ele>189.5</ele><time>2026-04-11T14:53:09Z</time></trkpt><trkpt lat="43.94980478626962" lon="10.707475332099422"><ele>190.25</ele><time>2026-04-11T14:53:10Z</time></trkpt><trkpt lat="43.949689785637936" lon="10.707404712591206"><ele>191.0</ele><time>2026-04-11T14:53:11Z</time></trkpt><trkpt lat="43.94957965217339" lon="10.707317982403096"><ele>191.0</ele><time>2026-04-11T14:53:12Z</time></trkpt><trkpt lat="43.94948662831208" lon="10.707250970803338"><ele>191.0</ele><time>2026-04-11T14:53:13Z</time></trkpt><trkpt lat="43.94939098776426" lon="10.70720828369538"><ele>191.0</ele><time>2026-04-11T14:53:14Z</time></trkpt><trkpt lat="43.94928305243148" lon="10.707187165475274"><ele>191.0</ele><time>2026-04-11T14:53:15Z</time></trkpt><trkpt lat="43.949159467105595" lon="10.707181704026635"><ele>191.0</ele><time>2026-04-11T14:53:16Z</time></trkpt><trkpt lat="43.94904613102181" lon="10.707162611325872"><ele>192.5</ele><time>2026-04-11T14:53:17Z</time></trkpt><trkpt lat="43.948945205830924" lon="10.707158163545476"><ele>194.0</ele><time>2026-04-11T14:53:18Z</time></trkpt><trkpt lat="43.94880995008212" lon="10.7071255360349"><ele>195.5</ele><time>2026-04-11T14:53:19Z</time></trkpt><trkpt lat="43.94868653574538" lon="10.707105605263603"><ele>197.0</ele><time>2026-04-11T14:53:20Z</time></trkpt><trkpt lat="43.948557092084286" lon="10.707080892665012"><ele>197.0</ele><time>2026-04-11T14:53:21Z</time></trkpt><trkpt lat="43.948438980271966" lon="10.707058834038452"><ele>197.0</ele><time>2026-04-11T14:53:22Z</time></trkpt><trkpt lat="43.94833385367919" lon="10.70697868514821"><ele>197.0</ele><time>2026-04-11T14:53:23Z</time></trkpt><trkpt lat="43.94821471528237" lon="10.706879982696636"><ele>197.0</ele><time>2026-04-11T14:53:24Z</time></trkpt><trkpt lat="43.94809720050048" lon="10.706809250806254"><ele>193.25</ele><time>2026-04-11T14:53:25Z</time></trkpt><trkpt lat="43.94799419374316" lon="10.70676145251733"><ele>189.5</ele><time>2026-04-11T14:53:26Z</time></trkpt><trkpt lat="43.94788520746414" lon="10.706746062370867"><ele>185.75</ele><time>2026-04-11T14:53:27Z</time></trkpt><trkpt lat="43.94774975296494" lon="10.706839621095446"><ele>182.0</ele><time>2026-04-11T14:53:28Z</time></trkpt><trkpt lat="43.94764235763918" lon="10.706886440798488"><ele>185.2</ele><time>2026-04-11T14:53:29Z</time></trkpt><trkpt lat="43.94753304297362" lon="10.706979651336912"><ele>188.39999999999998</ele><time>2026-04-11T14:53:30Z</time></trkpt><trkpt lat="43.94742385564894" lon="10.707039320889807"><ele>191.60000000000002</ele><time>2026-04-11T14:53:31Z</time></trkpt><trkpt lat="43.9473288316017" lon="10.707090987468144"><ele>194.8</ele><time>2026-04-11T14:53:32Z</time></trkpt><trkpt lat="43.947234548840704" lon="10.70714181459057"><ele>198.0</ele><time>2026-04-11T14:53:33Z</time></trkpt><trkpt lat="43.947144529657166" lon="10.707179212783531"><ele>198.0</ele><time>2026-04-11T14:53:34Z</time></trkpt><trkpt lat="43.947030915298065" lon="10.707151799129127"><ele>198.0</ele><time>2026-04-11T14:53:35Z</time></trkpt><trkpt lat="43.946907686642426" lon="10.707110938505833"><ele>198.0</ele><time>2026-04-11T14:53:36Z</time></trkpt><trkpt lat="43.94680013965262" lon="10.707077333551258"><ele>198.0</ele><time>2026-04-11T14:53:37Z</time></trkpt><trkpt lat="43.94667919802157" lon="10.707036225913537"><ele>199.5</ele><time>2026-04-11T14:53:38Z</time></trkpt><trkpt lat="43.9465591063482" lon="10.707008012853823"><ele>201.0</ele><time>2026-04-11T14:53:39Z</time></trkpt><trkpt lat="43.946421567528745" lon="10.706958550255072"><ele>202.5</ele><time>2026-04-11T14:53:40Z</time></trkpt><trkpt lat="43.94629047109068" lon="10.70678096507296"><ele>204.0</ele><time>2026-04-11T14:53:41Z</time></trkpt><trkpt lat="43.9461618229342" lon="10.706689581074572"><ele>199.75</ele><time>2026-04-11T14:53:42Z</time></trkpt><trkpt lat="43.94603858384966" lon="10.706590307969114"><ele>195.5</ele><time>2026-04-11T14:53:43Z</time></trkpt><trkpt lat="43.94590892712842" lon="10.706507453244493"><ele>191.25</ele><time>2026-04-11T14:53:44Z</time></trkpt><trkpt lat="43.94577825718084" lon="10.706406855548257"><ele>187.0</ele><time>2026-04-11T14:53:45Z</time></trkpt><trkpt lat="43.94563900050518" lon="10.70632981084601"><ele>187.0</ele><time>2026-04-11T14:53:46Z</time></trkpt><trkpt lat="43.94550576334978" lon="10.70626253229361"><ele>187.0</ele><time>2026-04-11T14:53:47Z</time></trkpt><trkpt lat="43.94537545272527" lon="10.70618075637856"><ele>187.0</ele><time>2026-04-11T14:53:48Z</time></trkpt><trkpt lat="43.94524244077813" lon="10.706131977718966"><ele>187.0</ele><time>2026-04-11T14:53:49Z</time></trkpt><trkpt lat="43.94511958935966" lon="10.706044294092298"><ele>186.0</ele><time>2026-04-11T14:53:50Z</time></trkpt><trkpt lat="43.945012579482636" lon="10.705984424868742"><ele>185.0</ele><time>2026-04-11T14:53:51Z</time></trkpt><trkpt lat="43.944891244802115" lon="10.705922298987755"><ele>184.0</ele><time>2026-04-11T14:53:52Z</time></trkpt><trkpt lat="43.944767294322695" lon="10.705859546162612"><ele>183.0</ele><time>2026-04-11T14:53:53Z</time></trkpt><trkpt lat="43.94463930678683" lon="10.705811444085652"><ele>183.0</ele><time>2026-04-11T14:53:54Z</time></trkpt><trkpt lat="43.94452125932808" lon="10.70577961988286"><ele>183.0</ele><time>2026-04-11T14:53:55Z</time></trkpt><trkpt lat="43.94440637761344" lon="10.705722134692873"><ele>183.0</ele><time>2026-04-11T14:53:56Z</time></trkpt><trkpt lat="43.94429696159716" lon="10.70559753804346"><ele>183.0</ele><time>2026-04-11T14:53:57Z</time></trkpt><trkpt lat="43.944182708357424" lon="10.705480673323194"><ele>184.25</ele><time>2026-04-11T14:53:58Z</time></trkpt><trkpt lat="43.94407271182914" lon="10.705369482488695"><ele>185.5</ele><time>2026-04-11T14:53:59Z</time></trkpt><trkpt lat="43.94398999231113" lon="10.705260498071329"><ele>186.75</ele><time>2026-04-11T14:54:00Z</time></trkpt><trkpt lat="43.943929019261034" lon="10.705134720005749"><ele>188.0</ele><time>2026-04-11T14:54:01Z</time></trkpt><trkpt lat="43.943846086365006" lon="10.70502036250755"><ele>183.5</ele><time>2026-04-11T14:54:02Z</time></trkpt><trkpt lat="43.94376523121561" lon="10.704935047373642"><ele>179.0</ele><time>2026-04-11T14:54:03Z</time></trkpt><trkpt lat="43.94366679331322" lon="10.704874563049106"><ele>174.5</ele><time>2026-04-11T14:54:04Z</time></trkpt><trkpt lat="43.943557789700165" lon="10.7048326843557"><ele>170.0</ele><time>2026-04-11T14:54:05Z</time></trkpt><trkpt lat="43.943426559315625" lon="10.704793886840568"><ele>172.0</ele><time>2026-04-11T14:54:06Z</time></trkpt><trkpt lat="43.94330946857395" lon="10.70475321875113"><ele>174.0</ele><time>2026-04-11T14:54:07Z</time></trkpt><trkpt lat="43.94318748035662" lon="10.704724051448249"><ele>176.0</ele><time>2026-04-11T14:54:08Z</time></trkpt><trkpt lat="43.94306095592161" lon="10.70473007895537"><ele>178.0</ele><time>2026-04-11T14:54:09Z</time></trkpt><trkpt lat="43.94293134580722" lon="10.70472162127233"><ele>178.0</ele><time>2026-04-11T14:54:10Z</time></trkpt><trkpt lat="43.94280574835297" lon="10.70472514609233"><ele>178.0</ele><time>2026-04-11T14:54:11Z</time></trkpt><trkpt lat="43.942678800314724" lon="10.704718410978252"><ele>178.0</ele><time>2026-04-11T14:54:12Z</time></trkpt><trkpt lat="43.94255025161362" lon="10.704706668061348"><ele>178.0</ele><time>2026-04-11T14:54:13Z</time></trkpt><trkpt lat="43.94242313162563" lon="10.704678696323102"><ele>183.25</ele><time>2026-04-11T14:54:14Z</time></trkpt><trkpt lat="43.94229904356558" lon="10.704635946607812"><ele>188.5</ele><time>2026-04-11T14:54:15Z</time></trkpt><trkpt lat="43.942183530865925" lon="10.704588793249542"><ele>193.75</ele><time>2026-04-11T14:54:16Z</time></trkpt><trkpt lat="43.942063063753665" lon="10.704513346922834"><ele>199.0</ele><time>2026-04-11T14:54:17Z</time></trkpt><trkpt lat="43.94194623218848" lon="10.70444823271639"><ele>193.75</ele><time>2026-04-11T14:54:18Z</time></trkpt><trkpt lat="43.941826164724354" lon="10.704375343640622"><ele>188.5</ele><time>2026-04-11T14:54:19Z</time></trkpt><trkpt lat="43.94170560899344" lon="10.704299116918648"><ele>183.25</ele><time>2026-04-11T14:54:20Z</time></trkpt><trkpt lat="43.94158613002682" lon="10.704227952407903"><ele>178.0</ele><time>2026-04-11T14:54:21Z</time></trkpt><trkpt lat="43.94147960668958" lon="10.70416384477885"><ele>177.8</ele><time>2026-04-11T14:54:22Z</time></trkpt><trkpt lat="43.94138919982468" lon="10.704079367434511"><ele>177.60000000000002</ele><time>2026-04-11T14:54:23Z</time></trkpt><trkpt lat="43.94131394390427" lon="10.70400124445148"><ele>177.39999999999998</ele><time>2026-04-11T14:54:24Z</time></trkpt><trkpt lat="43.94126928318766" lon="10.703865418356756"><ele>177.2</ele><time>2026-04-11T14:54:25Z</time></trkpt><trkpt lat="43.94123121965422" lon="10.70376672358351"><ele>177.0</ele><time>2026-04-11T14:54:26Z</time></trkpt><trkpt lat="43.94112580815169" lon="10.703752997147488"><ele>177.0</ele><time>2026-04-11T14:54:27Z</time></trkpt><trkpt lat="43.94101390810608" lon="10.703783278507185"><ele>177.0</ele><time>2026-04-11T14:54:28Z</time></trkpt><trkpt lat="43.940899133683615" lon="10.70386660295132"><ele>177.0</ele><time>2026-04-11T14:54:29Z</time></trkpt><trkpt lat="43.94080630767752" lon="10.703963261033376"><ele>177.0</ele><time>2026-04-11T14:54:30Z</time></trkpt><trkpt lat="43.94071241147575" lon="10.704049951366454"><ele>175.8</ele><time>2026-04-11T14:54:31Z</time></trkpt><trkpt lat="43.94061556131285" lon="10.704132526669799"><ele>174.6</ele><time>2026-04-11T14:54:32Z</time></trkpt><trkpt lat="43.94055038373166" lon="10.704237775690201"><ele>173.4</ele><time>2026-04-11T14:54:33Z</time></trkpt><trkpt lat="43.9404714839337" lon="10.704348332616302"><ele>172.20000000000002</ele><time>2026-04-11T14:54:34Z</time></trkpt><trkpt lat="43.940414388270206" lon="10.70446345715182"><ele>171.0</ele><time>2026-04-11T14:54:35Z</time></trkpt><trkpt lat="43.94036029301428" lon="10.704584797660559"><ele>172.8</ele><time>2026-04-11T14:54:36Z</time></trkpt><trkpt lat="43.94030120100839" lon="10.704689246995324"><ele>174.60000000000002</ele><time>2026-04-11T14:54:37Z</time></trkpt><trkpt lat="43.940239573160504" lon="10.704801452432216"><ele>176.4</ele><time>2026-04-11T14:54:38Z</time></trkpt><trkpt lat="43.94015117474918" lon="10.704882786573924"><ele>178.2</ele><time>2026-04-11T14:54:39Z</time></trkpt><trkpt lat="43.940060326831656" lon="10.704957349501555"><ele>180.0</ele><time>2026-04-11T14:54:40Z</time></trkpt><trkpt lat="43.93994790133427" lon="10.705013034366235"><ele>180.0</ele><time>2026-04-11T14:54:41Z</time></trkpt><trkpt lat="43.939832858599814" lon="10.705057344329889"><ele>180.0</ele><time>2026-04-11T14:54:42Z</time></trkpt><trkpt lat="43.939742496332286" lon="10.705019550235109"><ele>180.0</ele><time>2026-04-11T14:54:43Z</time></trkpt><trkpt lat="43.93965175296008" lon="10.705002546738134"><ele>180.0</ele><time>2026-04-11T14:54:44Z</time></trkpt><trkpt lat="43.93956501436864" lon="10.704899973010718"><ele>180.0</ele><time>2026-04-11T14:54:45Z</time></trkpt><trkpt lat="43.939482177293385" lon="10.704759080084946"><ele>180.0</ele><time>2026-04-11T14:54:46Z</time></trkpt><trkpt lat="43.93940181004978" lon="10.704574861916369"><ele>180.0</ele><time>2026-04-11T14:54:47Z</time></trkpt><trkpt lat="43.939310555854426" lon="10.704416302385413"><ele>180.0</ele><time>2026-04-11T14:54:48Z</time></trkpt><trkpt lat="43.93922401766738" lon="10.704235816499667"><ele>175.75</ele><time>2026-04-11T14:54:49Z</time></trkpt><trkpt lat="43.93913205627334" lon="10.704091733292813"><ele>171.5</ele><time>2026-04-11T14:54:50Z</time></trkpt><trkpt lat="43.939040298790474" lon="10.703932439231396"><ele>167.25</ele><time>2026-04-11T14:54:51Z</time></trkpt><trkpt lat="43.938964197049266" lon="10.703767827064718"><ele>163.0</ele><time>2026-04-11T14:54:52Z</time></trkpt><trkpt lat="43.93888080088848" lon="10.703603734314607"><ele>163.5</ele><time>2026-04-11T14:54:53Z</time></trkpt><trkpt lat="43.93879089672914" lon="10.70343580529335"><ele>164.0</ele><time>2026-04-11T14:54:54Z</time></trkpt><trkpt lat="43.938705911680074" lon="10.70328210973046"><ele>164.5</ele><time>2026-04-11T14:54:55Z</time></trkpt><trkpt lat="43.938619738196" lon="10.70311495377391"><ele>165.0</ele><time>2026-04-11T14:54:56Z</time></trkpt><trkpt lat="43.93854770260256" lon="10.70294905608262"><ele>165.0</ele><time>2026-04-11T14:54:57Z</time></trkpt><trkpt lat="43.93844570587784" lon="10.702808298914508"><ele>165.0</ele><time>2026-04-11T14:54:58Z</time></trkpt><trkpt lat="43.93833520802652" lon="10.702669097156202"><ele>165.0</ele><time>2026-04-11T14:54:59Z</time></trkpt><trkpt lat="43.93823216335357" lon="10.702522835524158"><ele>165.0</ele><time>2026-04-11T14:55:00Z</time></trkpt><trkpt lat="43.93812803793977" lon="10.702383411962552"><ele>164.25</ele><time>2026-04-11T14:55:01Z</time></trkpt><trkpt lat="43.93802319580973" lon="10.702254281848454"><ele>163.5</ele><time>2026-04-11T14:55:02Z</time></trkpt><trkpt lat="43.937916280530224" lon="10.702143296399841"><ele>162.75</ele><time>2026-04-11T14:55:03Z</time></trkpt><trkpt lat="43.93779997046842" lon="10.702069682414864"><ele>162.0</ele><time>2026-04-11T14:55:04Z</time></trkpt><trkpt lat="43.93769345359309" lon="10.70201374230817"><ele>162.0</ele><time>2026-04-11T14:55:05Z</time></trkpt><trkpt lat="43.93756167825923" lon="10.701970216421918"><ele>162.0</ele><time>2026-04-11T14:55:06Z</time></trkpt><trkpt lat="43.93743131049642" lon="10.701913247101702"><ele>162.0</ele><time>2026-04-11T14:55:07Z</time></trkpt><trkpt lat="43.93730935204749" lon="10.701859263130967"><ele>162.0</ele><time>2026-04-11T14:55:08Z</time></trkpt><trkpt lat="43.93718788309118" lon="10.701809048358445"><ele>160.25</ele><time>2026-04-11T14:55:09Z</time></trkpt><trkpt lat="43.937090951622004" lon="10.701689058629904"><ele>158.5</ele><time>2026-04-11T14:55:10Z</time></trkpt><trkpt lat="43.936974722471334" lon="10.70161697852287"><ele>156.75</ele><time>2026-04-11T14:55:11Z</time></trkpt><trkpt lat="43.93686075581456" lon="10.701540885542622"><ele>155.0</ele><time>2026-04-11T14:55:12Z</time></trkpt><trkpt lat="43.93675730279291" lon="10.701448850134422"><ele>155.2</ele><time>2026-04-11T14:55:13Z</time></trkpt><trkpt lat="43.93666014454086" lon="10.70135600830989"><ele>155.4</ele><time>2026-04-11T14:55:14Z</time></trkpt><trkpt lat="43.936572718656734" lon="10.701254793794726"><ele>155.6</ele><time>2026-04-11T14:55:15Z</time></trkpt><trkpt lat="43.93649722164649" lon="10.70115616827189"><ele>155.8</ele><time>2026-04-11T14:55:16Z</time></trkpt><trkpt lat="43.93643671182836" lon="10.70104722246788"><ele>156.0</ele><time>2026-04-11T14:55:17Z</time></trkpt><trkpt lat="43.936382882657334" lon="10.700961443289836"><ele>156.0</ele><time>2026-04-11T14:55:18Z</time></trkpt><trkpt lat="43.9363341760394" lon="10.700891332004819"><ele>156.0</ele><time>2026-04-11T14:55:19Z</time></trkpt><trkpt lat="43.936276491946984" lon="10.700821830762168"><ele>156.0</ele><time>2026-04-11T14:55:20Z</time></trkpt><trkpt lat="43.9361976981122" lon="10.700733468643122"><ele>156.0</ele><time>2026-04-11T14:55:22Z</time></trkpt><trkpt lat="43.93610933948437" lon="10.700697157088799"><ele>156.0</ele><time>2026-04-11T14:55:24Z</time></trkpt><trkpt lat="43.93605023037659" lon="10.70066663876913"><ele>156.0</ele><time>2026-04-11T14:55:25Z</time></trkpt><trkpt lat="43.93597582713525" lon="10.700618596894413"><ele>156.0</ele><time>2026-04-11T14:55:26Z</time></trkpt><trkpt lat="43.935895604331925" lon="10.700554722173266"><ele>156.0</ele><time>2026-04-11T14:55:27Z</time></trkpt><trkpt lat="43.93581528806081" lon="10.700476198126152"><ele>156.0</ele><time>2026-04-11T14:55:28Z</time></trkpt><trkpt lat="43.93573090212939" lon="10.700379078691707"><ele>156.0</ele><time>2026-04-11T14:55:29Z</time></trkpt><trkpt lat="43.93564348420737" lon="10.700283299671337"><ele>156.0</ele><time>2026-04-11T14:55:30Z</time></trkpt><trkpt lat="43.93554721354726" lon="10.700183830060475"><ele>155.25</ele><time>2026-04-11T14:55:31Z</time></trkpt><trkpt lat="43.935453531272366" lon="10.700068114939306"><ele>154.5</ele><time>2026-04-11T14:55:32Z</time></trkpt><trkpt lat="43.935377905530295" lon="10.699940497225539"><ele>153.75</ele><time>2026-04-11T14:55:33Z</time></trkpt><trkpt lat="43.93529397402888" lon="10.699823539466747"><ele>153.0</ele><time>2026-04-11T14:55:34Z</time></trkpt><trkpt lat="43.935201427860335" lon="10.699733550120461"><ele>153.0</ele><time>2026-04-11T14:55:35Z</time></trkpt><trkpt lat="43.93512597902856" lon="10.699632460339078"><ele>153.0</ele><time>2026-04-11T14:55:36Z</time></trkpt><trkpt lat="43.93506894257585" lon="10.699503871705124"><ele>153.0</ele><time>2026-04-11T14:55:37Z</time></trkpt><trkpt lat="43.93504358545308" lon="10.69939227417476"><ele>153.0</ele><time>2026-04-11T14:55:38Z</time></trkpt><trkpt lat="43.93506462740631" lon="10.699244698747789"><ele>153.0</ele><time>2026-04-11T14:55:39Z</time></trkpt><trkpt lat="43.93505372003661" lon="10.699114175858154"><ele>152.4</ele><time>2026-04-11T14:55:40Z</time></trkpt><trkpt lat="43.93501385855318" lon="10.699008966178381"><ele>151.8</ele><time>2026-04-11T14:55:41Z</time></trkpt><trkpt lat="43.934944046185656" lon="10.698901366317687"><ele>151.2</ele><time>2026-04-11T14:55:42Z</time></trkpt><trkpt lat="43.934857816110785" lon="10.698806159684818"><ele>150.6</ele><time>2026-04-11T14:55:43Z</time></trkpt><trkpt lat="43.934770344859615" lon="10.698697683808062"><ele>150.0</ele><time>2026-04-11T14:55:44Z</time></trkpt><trkpt lat="43.93467535831413" lon="10.69858379383931"><ele>150.5</ele><time>2026-04-11T14:55:45Z</time></trkpt><trkpt lat="43.93454681068264" lon="10.69848067663867"><ele>151.0</ele><time>2026-04-11T14:55:46Z</time></trkpt><trkpt lat="43.93442034822782" lon="10.698385040663984"><ele>151.5</ele><time>2026-04-11T14:55:47Z</time></trkpt><trkpt lat="43.93430548708054" lon="10.698293676495577"><ele>152.0</ele><time>2026-04-11T14:55:48Z</time></trkpt><trkpt lat="43.934172454553185" lon="10.698205360132672"><ele>152.0</ele><time>2026-04-11T14:55:49Z</time></trkpt><trkpt lat="43.93404367829249" lon="10.698133512479886"><ele>152.0</ele><time>2026-04-11T14:55:50Z</time></trkpt><trkpt lat="43.93392526852099" lon="10.698046031691986"><ele>152.0</ele><time>2026-04-11T14:55:51Z</time></trkpt><trkpt lat="43.9338153452115" lon="10.697962179617605"><ele>152.0</ele><time>2026-04-11T14:55:52Z</time></trkpt><trkpt lat="43.93374214930812" lon="10.69782811747893"><ele>152.0</ele><time>2026-04-11T14:55:53Z</time></trkpt><trkpt lat="43.933645897486244" lon="10.697752005241709"><ele>152.0</ele><time>2026-04-11T14:55:54Z</time></trkpt><trkpt lat="43.933554757058324" lon="10.69767304051417"><ele>152.0</ele><time>2026-04-11T14:55:55Z</time></trkpt><trkpt lat="43.93347979437686" lon="10.697615207863977"><ele>152.0</ele><time>2026-04-11T14:55:56Z</time></trkpt><trkpt lat="43.93342742919508" lon="10.697483165560111"><ele>152.0</ele><time>2026-04-11T14:55:57Z</time></trkpt><trkpt lat="43.93341980638198" lon="10.697270401327305"><ele>151.5</ele><time>2026-04-11T14:55:58Z</time></trkpt><trkpt lat="43.93340706472342" lon="10.697093236477544"><ele>151.0</ele><time>2026-04-11T14:55:59Z</time></trkpt><trkpt lat="43.93337102337453" lon="10.696937502340255"><ele>150.5</ele><time>2026-04-11T14:56:00Z</time></trkpt><trkpt lat="43.93333456968256" lon="10.696764064649107"><ele>150.0</ele><time>2026-04-11T14:56:01Z</time></trkpt><trkpt lat="43.93330446566755" lon="10.69661169076507"><ele>151.75</ele><time>2026-04-11T14:56:02Z</time></trkpt><trkpt lat="43.93326822032748" lon="10.696463024699083"><ele>153.5</ele><time>2026-04-11T14:56:03Z</time></trkpt><trkpt lat="43.933246271799185" lon="10.696311576225524"><ele>155.25</ele><time>2026-04-11T14:56:04Z</time></trkpt><trkpt lat="43.933212124703694" lon="10.696155920754157"><ele>157.0</ele><time>2026-04-11T14:56:05Z</time></trkpt><trkpt lat="43.933175958651766" lon="10.696002350160224"><ele>157.5</ele><time>2026-04-11T14:56:06Z</time></trkpt><trkpt lat="43.93313146196446" lon="10.695845221973286"><ele>158.0</ele><time>2026-04-11T14:56:07Z</time></trkpt><trkpt lat="43.93308796821799" lon="10.695695550966928"><ele>158.5</ele><time>2026-04-11T14:56:08Z</time></trkpt><trkpt lat="43.93301366442943" lon="10.695573394166662"><ele>159.0</ele><time>2026-04-11T14:56:09Z</time></trkpt><trkpt lat="43.93297006953822" lon="10.695420692787744"><ele>159.0</ele><time>2026-04-11T14:56:10Z</time></trkpt><trkpt lat="43.93295944257204" lon="10.695278602889326"><ele>159.0</ele><time>2026-04-11T14:56:11Z</time></trkpt><trkpt lat="43.932912097411936" lon="10.695138068468907"><ele>159.0</ele><time>2026-04-11T14:56:12Z</time></trkpt><trkpt lat="43.93288128912147" lon="10.69500710164559"><ele>159.0</ele><time>2026-04-11T14:56:13Z</time></trkpt><trkpt lat="43.932885452654396" lon="10.694916440606255"><ele>159.0</ele><time>2026-04-11T14:56:14Z</time></trkpt><trkpt lat="43.932902744138744" lon="10.694825818988315"><ele>159.0</ele><time>2026-04-11T14:56:15Z</time></trkpt><trkpt lat="43.9329585239976" lon="10.694723357671249"><ele>157.4</ele><time>2026-04-11T14:56:16Z</time></trkpt><trkpt lat="43.933045423466794" lon="10.69462276078611"><ele>155.8</ele><time>2026-04-11T14:56:17Z</time></trkpt><trkpt lat="43.933119724624774" lon="10.694595256400651"><ele>154.2</ele><time>2026-04-11T14:56:18Z</time></trkpt><trkpt lat="43.93321274933617" lon="10.694594283120567"><ele>152.6</ele><time>2026-04-11T14:56:19Z</time></trkpt><trkpt lat="43.93318872927908" lon="10.694480833440668"><ele>151.0</ele><time>2026-04-11T14:56:20Z</time></trkpt><trkpt lat="43.93310694934694" lon="10.694339892911904"><ele>151.0</ele><time>2026-04-11T14:56:22Z</time></trkpt><trkpt lat="43.93293640849785" lon="10.694250870026655"><ele>151.0</ele><time>2026-04-11T14:56:23Z</time></trkpt><trkpt lat="43.93284162678145" lon="10.694181387863088"><ele>151.0</ele><time>2026-04-11T14:56:24Z</time></trkpt><trkpt lat="43.93274203013718" lon="10.694099239316762"><ele>151.0</ele><time>2026-04-11T14:56:25Z</time></trkpt><trkpt lat="43.9326448097657" lon="10.694025035925236"><ele>151.0</ele><time>2026-04-11T14:56:26Z</time></trkpt><trkpt lat="43.932564071446684" lon="10.693960099832921"><ele>151.0</ele><time>2026-04-11T14:56:27Z</time></trkpt><trkpt lat="43.932466894493146" lon="10.69395626417879"><ele>151.0</ele><time>2026-04-11T14:56:28Z</time></trkpt><trkpt lat="43.93241101003708" lon="10.693821585651502"><ele>151.0</ele><time>2026-04-11T14:56:29Z</time></trkpt><trkpt lat="43.93234796335764" lon="10.693698855685083"><ele>151.0</ele><time>2026-04-11T14:56:30Z</time></trkpt><trkpt lat="43.932294515553444" lon="10.693566071571327"><ele>150.2</ele><time>2026-04-11T14:56:31Z</time></trkpt><trkpt lat="43.93223262587508" lon="10.693444761439464"><ele>149.39999999999998</ele><time>2026-04-11T14:56:32Z</time></trkpt><trkpt lat="43.932170272960214" lon="10.693340908296195"><ele>148.6</ele><time>2026-04-11T14:56:33Z</time></trkpt><trkpt lat="43.93209545035261" lon="10.693241365478334"><ele>147.79999999999998</ele><time>2026-04-11T14:56:34Z</time></trkpt><trkpt lat="43.931998500908676" lon="10.693129589613982"><ele>147.0</ele><time>2026-04-11T14:56:35Z</time></trkpt><trkpt lat="43.931863554407194" lon="10.693066372035863"><ele>144.66666666666666</ele><time>2026-04-11T14:56:36Z</time></trkpt><trkpt lat="43.93170726491323" lon="10.693028596944723"><ele>142.33333333333331</ele><time>2026-04-11T14:56:37Z</time></trkpt><trkpt lat="43.93157646945428" lon="10.692951639642445"><ele>140.0</ele><time>2026-04-11T14:56:38Z</time></trkpt><trkpt lat="43.93142740024246" lon="10.693001895969779"><ele>140.0</ele><time>2026-04-11T14:56:39Z</time></trkpt><trkpt lat="43.9312627217555" lon="10.693056342845917"><ele>140.0</ele><time>2026-04-11T14:56:40Z</time></trkpt><trkpt lat="43.931121766836775" lon="10.69325200721535"><ele>140.0</ele><time>2026-04-11T14:56:41Z</time></trkpt><trkpt lat="43.93099681104059" lon="10.693445972097548"><ele>139.0</ele><time>2026-04-11T14:56:42Z</time></trkpt><trkpt lat="43.930894277514916" lon="10.69365865905149"><ele>138.0</ele><time>2026-04-11T14:56:43Z</time></trkpt><trkpt lat="43.93079850544117" lon="10.693843502427173"><ele>137.0</ele><time>2026-04-11T14:56:44Z</time></trkpt><trkpt lat="43.9307085226284" lon="10.693985932715643"><ele>137.0</ele><time>2026-04-11T14:56:45Z</time></trkpt><trkpt lat="43.93059985291565" lon="10.694118516969947"><ele>137.0</ele><time>2026-04-11T14:56:46Z</time></trkpt><trkpt lat="43.93049705875909" lon="10.69424574787968"><ele>137.0</ele><time>2026-04-11T14:56:47Z</time></trkpt><trkpt lat="43.930396879638614" lon="10.694337811109985"><ele>137.0</ele><time>2026-04-11T14:56:48Z</time></trkpt><trkpt lat="43.93031293526308" lon="10.69448551949845"><ele>136.75</ele><time>2026-04-11T14:56:49Z</time></trkpt><trkpt lat="43.930237356181046" lon="10.694626745443554"><ele>136.5</ele><time>2026-04-11T14:56:50Z</time></trkpt><trkpt lat="43.93012651497023" lon="10.69472234966789"><ele>136.25</ele><time>2026-04-11T14:56:51Z</time></trkpt><trkpt lat="43.93002219616022" lon="10.694791207167514"><ele>136.0</ele><time>2026-04-11T14:56:52Z</time></trkpt><trkpt lat="43.929911476027286" lon="10.694853635773415"><ele>136.0</ele><time>2026-04-11T14:56:53Z</time></trkpt><trkpt lat="43.92977977226258" lon="10.69483819783463"><ele>136.0</ele><time>2026-04-11T14:56:54Z</time></trkpt><trkpt lat="43.92969384223057" lon="10.69471005041575"><ele>136.0</ele><time>2026-04-11T14:56:55Z</time></trkpt><trkpt lat="43.92957684502077" lon="10.694715931879452"><ele>136.0</ele><time>2026-04-11T14:56:56Z</time></trkpt><trkpt lat="43.92958569504888" lon="10.69440353782577"><ele>136.0</ele><time>2026-04-11T14:56:57Z</time></trkpt><trkpt lat="43.929603435649646" lon="10.694254564258161"><ele>136.0</ele><time>2026-04-11T14:56:58Z</time></trkpt><trkpt lat="43.92956608319657" lon="10.694130590591994"><ele>136.0</ele><time>2026-04-11T14:56:59Z</time></trkpt><trkpt lat="43.92952616388702" lon="10.69393112579548"><ele>136.0</ele><time>2026-04-11T14:57:00Z</time></trkpt><trkpt lat="43.92952138497992" lon="10.69371706182885"><ele>138.25</ele><time>2026-04-11T14:57:01Z</time></trkpt><trkpt lat="43.9295297993084" lon="10.693517030997343"><ele>140.5</ele><time>2026-04-11T14:57:02Z</time></trkpt><trkpt lat="43.929554349027306" lon="10.69334725217762"><ele>142.75</ele><time>2026-04-11T14:57:03Z</time></trkpt><trkpt lat="43.92953261988697" lon="10.693186118324258"><ele>145.0</ele><time>2026-04-11T14:57:04Z</time></trkpt><trkpt lat="43.929542110236724" lon="10.692997986824066"><ele>145.0</ele><time>2026-04-11T14:57:05Z</time></trkpt><trkpt lat="43.92955282677872" lon="10.692819766803698"><ele>145.0</ele><time>2026-04-11T14:57:06Z</time></trkpt><trkpt lat="43.929563299129825" lon="10.692652360946555"><ele>145.0</ele><time>2026-04-11T14:57:07Z</time></trkpt><trkpt lat="43.92958787229683" lon="10.692482116304411"><ele>145.0</ele><time>2026-04-11T14:57:08Z</time></trkpt><trkpt lat="43.92955099623324" lon="10.692294692625769"><ele>143.0</ele><time>2026-04-11T14:57:09Z</time></trkpt><trkpt lat="43.92954089311457" lon="10.692114893160339"><ele>141.0</ele><time>2026-04-11T14:57:10Z</time></trkpt><trkpt lat="43.92953711426853" lon="10.691935269033296"><ele>139.0</ele><time>2026-04-11T14:57:11Z</time></trkpt><trkpt lat="43.92952522471545" lon="10.691747342522364"><ele>137.0</ele><time>2026-04-11T14:57:12Z</time></trkpt><trkpt lat="43.929506392642374" lon="10.691553956805548"><ele>135.0</ele><time>2026-04-11T14:57:13Z</time></trkpt><trkpt lat="43.92947470023775" lon="10.691373029454946"><ele>133.0</ele><time>2026-04-11T14:57:14Z</time></trkpt><trkpt lat="43.929435464581196" lon="10.691208149685826"><ele>131.0</ele><time>2026-04-11T14:57:15Z</time></trkpt><trkpt lat="43.92939114634235" lon="10.69105481035113"><ele>129.0</ele><time>2026-04-11T14:57:16Z</time></trkpt><trkpt lat="43.92932568654594" lon="10.690897968769015"><ele>128.75</ele><time>2026-04-11T14:57:17Z</time></trkpt><trkpt lat="43.92922505987865" lon="10.690773451682201"><ele>128.5</ele><time>2026-04-11T14:57:18Z</time></trkpt><trkpt lat="43.929133043303885" lon="10.690670797870371"><ele>128.25</ele><time>2026-04-11T14:57:19Z</time></trkpt><trkpt lat="43.929026830266814" lon="10.690586276320033"><ele>128.0</ele><time>2026-04-11T14:57:20Z</time></trkpt><trkpt lat="43.92886086695675" lon="10.690527545038588"><ele>128.0</ele><time>2026-04-11T14:57:21Z</time></trkpt><trkpt lat="43.92872241895068" lon="10.69052834676687"><ele>128.0</ele><time>2026-04-11T14:57:22Z</time></trkpt><trkpt lat="43.92858557320457" lon="10.690519732054355"><ele>128.0</ele><time>2026-04-11T14:57:23Z</time></trkpt><trkpt lat="43.928459461777585" lon="10.690520102160148"><ele>128.0</ele><time>2026-04-11T14:57:24Z</time></trkpt><trkpt lat="43.928369020634435" lon="10.690586209051599"><ele>127.0</ele><time>2026-04-11T14:57:25Z</time></trkpt><trkpt lat="43.928227101829805" lon="10.690717380031206"><ele>126.0</ele><time>2026-04-11T14:57:26Z</time></trkpt><trkpt lat="43.92809903688563" lon="10.69082297239724"><ele>125.0</ele><time>2026-04-11T14:57:27Z</time></trkpt><trkpt lat="43.92798509936736" lon="10.69095026698263"><ele>125.0</ele><time>2026-04-11T14:57:28Z</time></trkpt><trkpt lat="43.92787165153222" lon="10.691064908777106"><ele>125.0</ele><time>2026-04-11T14:57:29Z</time></trkpt><trkpt lat="43.92776369565954" lon="10.69117087873438"><ele>125.0</ele><time>2026-04-11T14:57:30Z</time></trkpt><trkpt lat="43.92768081095079" lon="10.69128887063642"><ele>125.0</ele><time>2026-04-11T14:57:31Z</time></trkpt><trkpt lat="43.927584332939155" lon="10.691421007311305"><ele>124.5</ele><time>2026-04-11T14:57:32Z</time></trkpt><trkpt lat="43.92751562052059" lon="10.691544898829909"><ele>124.0</ele><time>2026-04-11T14:57:33Z</time></trkpt><trkpt lat="43.92743536212012" lon="10.691672229899517"><ele>123.5</ele><time>2026-04-11T14:57:34Z</time></trkpt><trkpt lat="43.92735452097573" lon="10.69179172291257"><ele>123.0</ele><time>2026-04-11T14:57:35Z</time></trkpt><trkpt lat="43.92726869503156" lon="10.69189741471237"><ele>120.0</ele><time>2026-04-11T14:57:36Z</time></trkpt><trkpt lat="43.9271764535251" lon="10.692013818950175"><ele>117.0</ele><time>2026-04-11T14:57:37Z</time></trkpt><trkpt lat="43.92706131268574" lon="10.692089735351695"><ele>114.0</ele><time>2026-04-11T14:57:38Z</time></trkpt><trkpt lat="43.926924270228696" lon="10.692131898788984"><ele>111.0</ele><time>2026-04-11T14:57:39Z</time></trkpt><trkpt lat="43.92676631734725" lon="10.692158348239797"><ele>111.5</ele><time>2026-04-11T14:57:40Z</time></trkpt><trkpt lat="43.92662986899348" lon="10.692179338186712"><ele>112.0</ele><time>2026-04-11T14:57:41Z</time></trkpt><trkpt lat="43.926482640267615" lon="10.692216879230864"><ele>112.5</ele><time>2026-04-11T14:57:42Z</time></trkpt><trkpt lat="43.92634274522967" lon="10.692253683037144"><ele>113.0</ele><time>2026-04-11T14:57:43Z</time></trkpt><trkpt lat="43.92619914790754" lon="10.692294116423586"><ele>113.0</ele><time>2026-04-11T14:57:44Z</time></trkpt><trkpt lat="43.92605779568995" lon="10.69234041157621"><ele>113.0</ele><time>2026-04-11T14:57:45Z</time></trkpt><trkpt lat="43.925909810876455" lon="10.692406924394962"><ele>113.0</ele><time>2026-04-11T14:57:46Z</time></trkpt><trkpt lat="43.925759798332564" lon="10.692450174274773"><ele>116.5</ele><time>2026-04-11T14:57:47Z</time></trkpt><trkpt lat="43.92562165167032" lon="10.692511121679878"><ele>120.0</ele><time>2026-04-11T14:57:48Z</time></trkpt><trkpt lat="43.92552239545543" lon="10.692589673465914"><ele>123.5</ele><time>2026-04-11T14:57:49Z</time></trkpt><trkpt lat="43.92539042453992" lon="10.69265202701132"><ele>127.0</ele><time>2026-04-11T14:57:50Z</time></trkpt><trkpt lat="43.92522716783781" lon="10.692669279907692"><ele>127.0</ele><time>2026-04-11T14:57:51Z</time></trkpt><trkpt lat="43.92506689759931" lon="10.692627433303306"><ele>127.0</ele><time>2026-04-11T14:57:52Z</time></trkpt><trkpt lat="43.92490391439268" lon="10.692632043032912"><ele>127.0</ele><time>2026-04-11T14:57:53Z</time></trkpt><trkpt lat="43.924761974025444" lon="10.692651146680438"><ele>126.5</ele><time>2026-04-11T14:57:54Z</time></trkpt><trkpt lat="43.92459690489074" lon="10.692698248911599"><ele>126.0</ele><time>2026-04-11T14:57:55Z</time></trkpt><trkpt lat="43.924466308469036" lon="10.692708750986458"><ele>125.5</ele><time>2026-04-11T14:57:56Z</time></trkpt><trkpt lat="43.92432539844249" lon="10.692698555215712"><ele>125.0</ele><time>2026-04-11T14:57:57Z</time></trkpt><trkpt lat="43.92418248469417" lon="10.692686988636018"><ele>125.0</ele><time>2026-04-11T14:57:58Z</time></trkpt><trkpt lat="43.924075912715544" lon="10.692631962197154"><ele>125.0</ele><time>2026-04-11T14:57:59Z</time></trkpt><trkpt lat="43.92398363113832" lon="10.692491003723736"><ele>125.0</ele><time>2026-04-11T14:58:00Z</time></trkpt><trkpt lat="43.92384969477974" lon="10.692468702122753"><ele>125.0</ele><time>2026-04-11T14:58:01Z</time></trkpt><trkpt lat="43.92374758054548" lon="10.692287166836406"><ele>125.0</ele><time>2026-04-11T14:58:02Z</time></trkpt><trkpt lat="43.92362205846897" lon="10.692206254269315"><ele>125.0</ele><time>2026-04-11T14:58:03Z</time></trkpt><trkpt lat="43.923514458217454" lon="10.692101383614492"><ele>125.0</ele><time>2026-04-11T14:58:04Z</time></trkpt><trkpt lat="43.9233712169886" lon="10.692093909061468"><ele>125.0</ele><time>2026-04-11T14:58:05Z</time></trkpt><trkpt lat="43.92324887999172" lon="10.692083046190554"><ele>123.25</ele><time>2026-04-11T14:58:06Z</time></trkpt><trkpt lat="43.92312389666219" lon="10.69214433356816"><ele>121.5</ele><time>2026-04-11T14:58:07Z</time></trkpt><trkpt lat="43.922973418931136" lon="10.692218108316197"><ele>119.75</ele><time>2026-04-11T14:58:08Z</time></trkpt><trkpt lat="43.922836136057235" lon="10.692270200186176"><ele>118.0</ele><time>2026-04-11T14:58:09Z</time></trkpt><trkpt lat="43.92269437537853" lon="10.692334695635404"><ele>119.25</ele><time>2026-04-11T14:58:10Z</time></trkpt><trkpt lat="43.92255450029199" lon="10.692407339867287"><ele>120.5</ele><time>2026-04-11T14:58:11Z</time></trkpt><trkpt lat="43.92243688804431" lon="10.692468621867778"><ele>121.75</ele><time>2026-04-11T14:58:12Z</time></trkpt><trkpt lat="43.922309371664724" lon="10.692532561594758"><ele>123.0</ele><time>2026-04-11T14:58:13Z</time></trkpt><trkpt lat="43.9221802431777" lon="10.69264806795277"><ele>123.0</ele><time>2026-04-11T14:58:14Z</time></trkpt><trkpt lat="43.92206137977681" lon="10.692738076249444"><ele>123.0</ele><time>2026-04-11T14:58:15Z</time></trkpt><trkpt lat="43.92193703612348" lon="10.69284453651499"><ele>123.0</ele><time>2026-04-11T14:58:16Z</time></trkpt><trkpt lat="43.921809928967065" lon="10.692972167623532"><ele>123.0</ele><time>2026-04-11T14:58:17Z</time></trkpt><trkpt lat="43.92167520349866" lon="10.693076081527378"><ele>118.75</ele><time>2026-04-11T14:58:18Z</time></trkpt><trkpt lat="43.921563909278504" lon="10.693167228676163"><ele>114.5</ele><time>2026-04-11T14:58:19Z</time></trkpt><trkpt lat="43.921440241291236" lon="10.693251973260244"><ele>110.25</ele><time>2026-04-11T14:58:20Z</time></trkpt><trkpt lat="43.92133779248262" lon="10.693360548776072"><ele>106.0</ele><time>2026-04-11T14:58:21Z</time></trkpt><trkpt lat="43.92123422784927" lon="10.693519944844226"><ele>105.0</ele><time>2026-04-11T14:58:22Z</time></trkpt><trkpt lat="43.921143825777946" lon="10.693663477023694"><ele>104.0</ele><time>2026-04-11T14:58:23Z</time></trkpt><trkpt lat="43.92104166073084" lon="10.693766740142996"><ele>103.0</ele><time>2026-04-11T14:58:24Z</time></trkpt><trkpt lat="43.92091562129321" lon="10.693814083448329"><ele>102.0</ele><time>2026-04-11T14:58:25Z</time></trkpt><trkpt lat="43.9207988052331" lon="10.693867476912203"><ele>102.0</ele><time>2026-04-11T14:58:26Z</time></trkpt><trkpt lat="43.92065681714526" lon="10.69390621315152"><ele>102.0</ele><time>2026-04-11T14:58:27Z</time></trkpt><trkpt lat="43.920542901387954" lon="10.693974418188214"><ele>102.0</ele><time>2026-04-11T14:58:28Z</time></trkpt><trkpt lat="43.920436196769835" lon="10.694090434128173"><ele>102.0</ele><time>2026-04-11T14:58:29Z</time></trkpt><trkpt lat="43.92029660545065" lon="10.694159567127258"><ele>102.0</ele><time>2026-04-11T14:58:30Z</time></trkpt><trkpt lat="43.920172514791105" lon="10.694219833604032"><ele>102.0</ele><time>2026-04-11T14:58:31Z</time></trkpt><trkpt lat="43.92005332433321" lon="10.694265017344216"><ele>102.0</ele><time>2026-04-11T14:58:32Z</time></trkpt><trkpt lat="43.919919789184725" lon="10.694239114028754"><ele>102.0</ele><time>2026-04-11T14:58:33Z</time></trkpt><trkpt lat="43.91978287190367" lon="10.694283224831985"><ele>105.0</ele><time>2026-04-11T14:58:34Z</time></trkpt><trkpt lat="43.919644396204404" lon="10.69431365123039"><ele>108.0</ele><time>2026-04-11T14:58:35Z</time></trkpt><trkpt lat="43.9195093243419" lon="10.69430590799964"><ele>111.0</ele><time>2026-04-11T14:58:36Z</time></trkpt><trkpt lat="43.91938411310413" lon="10.694261011281023"><ele>114.0</ele><time>2026-04-11T14:58:37Z</time></trkpt><trkpt lat="43.919261247059026" lon="10.6942006706592"><ele>113.5</ele><time>2026-04-11T14:58:38Z</time></trkpt><trkpt lat="43.91911672589451" lon="10.69418534363768"><ele>113.0</ele><time>2026-04-11T14:58:39Z</time></trkpt><trkpt lat="43.91897793403153" lon="10.694122799560217"><ele>112.5</ele><time>2026-04-11T14:58:40Z</time></trkpt><trkpt lat="43.91883410986488" lon="10.694064208433431"><ele>112.0</ele><time>2026-04-11T14:58:41Z</time></trkpt><trkpt lat="43.91869179147724" lon="10.693946014906187"><ele>112.0</ele><time>2026-04-11T14:58:42Z</time></trkpt><trkpt lat="43.9185347715043" lon="10.693869130482296"><ele>112.0</ele><time>2026-04-11T14:58:43Z</time></trkpt><trkpt lat="43.91838454619115" lon="10.693773998679793"><ele>112.0</ele><time>2026-04-11T14:58:44Z</time></trkpt><trkpt lat="43.918252110487245" lon="10.693654229444686"><ele>118.66666666666667</ele><time>2026-04-11T14:58:45Z</time></trkpt><trkpt lat="43.91810965834733" lon="10.69352907195783"><ele>125.33333333333334</ele><time>2026-04-11T14:58:46Z</time></trkpt><trkpt lat="43.91796311622792" lon="10.693420742648875"><ele>132.0</ele><time>2026-04-11T14:58:47Z</time></trkpt><trkpt lat="43.917801612439646" lon="10.693334385106873"><ele>132.0</ele><time>2026-04-11T14:58:48Z</time></trkpt><trkpt lat="43.917639806603404" lon="10.693272309668146"><ele>132.0</ele><time>2026-04-11T14:58:49Z</time></trkpt><trkpt lat="43.917445238195434" lon="10.693219233898546"><ele>132.0</ele><time>2026-04-11T14:58:50Z</time></trkpt><trkpt lat="43.9172592480661" lon="10.693198588172962"><ele>126.0</ele><time>2026-04-11T14:58:51Z</time></trkpt><trkpt lat="43.91707158342618" lon="10.693202686447714"><ele>120.0</ele><time>2026-04-11T14:58:52Z</time></trkpt><trkpt lat="43.9168972648979" lon="10.693183914427415"><ele>114.0</ele><time>2026-04-11T14:58:53Z</time></trkpt><trkpt lat="43.91672548839658" lon="10.693173341132061"><ele>112.0</ele><time>2026-04-11T14:58:54Z</time></trkpt><trkpt lat="43.916547557753766" lon="10.693201158373016"><ele>110.0</ele><time>2026-04-11T14:58:55Z</time></trkpt><trkpt lat="43.91638281159786" lon="10.693180220466825"><ele>108.0</ele><time>2026-04-11T14:58:56Z</time></trkpt><trkpt lat="43.91620625949573" lon="10.69317209019459"><ele>108.0</ele><time>2026-04-11T14:58:57Z</time></trkpt><trkpt lat="43.91604463462092" lon="10.693168620105295"><ele>108.0</ele><time>2026-04-11T14:58:58Z</time></trkpt><trkpt lat="43.91588408637726" lon="10.693175817604526"><ele>108.0</ele><time>2026-04-11T14:58:59Z</time></trkpt><trkpt lat="43.915726238430565" lon="10.693152201178801"><ele>103.33333333333333</ele><time>2026-04-11T14:59:00Z</time></trkpt><trkpt lat="43.91556011413092" lon="10.693148129044213"><ele>98.66666666666666</ele><time>2026-04-11T14:59:01Z</time></trkpt><trkpt lat="43.91539219135027" lon="10.6931296112984"><ele>94.0</ele><time>2026-04-11T14:59:02Z</time></trkpt><trkpt lat="43.91522710974352" lon="10.69311293410978"><ele>91.33333333333333</ele><time>2026-04-11T14:59:03Z</time></trkpt><trkpt lat="43.91506162794526" lon="10.693080697811743"><ele>88.66666666666667</ele><time>2026-04-11T14:59:04Z</time></trkpt><trkpt lat="43.91489344646935" lon="10.693061577041759"><ele>86.0</ele><time>2026-04-11T14:59:05Z</time></trkpt><trkpt lat="43.914747186157136" lon="10.692992619046752"><ele>86.0</ele><time>2026-04-11T14:59:06Z</time></trkpt><trkpt lat="43.914573076321666" lon="10.693010873685147"><ele>86.0</ele><time>2026-04-11T14:59:07Z</time></trkpt><trkpt lat="43.91441904427664" lon="10.692970850195112"><ele>86.0</ele><time>2026-04-11T14:59:08Z</time></trkpt><trkpt lat="43.9142633181403" lon="10.692911853495215"><ele>85.0</ele><time>2026-04-11T14:59:09Z</time></trkpt><trkpt lat="43.91411938568929" lon="10.692822309456155"><ele>84.0</ele><time>2026-04-11T14:59:10Z</time></trkpt><trkpt lat="43.91398456636762" lon="10.692664988633014"><ele>83.0</ele><time>2026-04-11T14:59:11Z</time></trkpt><trkpt lat="43.91390265026413" lon="10.692497382627055"><ele>83.0</ele><time>2026-04-11T14:59:12Z</time></trkpt><trkpt lat="43.91377386773583" lon="10.692362294125038"><ele>83.0</ele><time>2026-04-11T14:59:13Z</time></trkpt><trkpt lat="43.91365734597264" lon="10.692218893499895"><ele>83.0</ele><time>2026-04-11T14:59:14Z</time></trkpt><trkpt lat="43.91354073757156" lon="10.692090340067876"><ele>83.0</ele><time>2026-04-11T14:59:15Z</time></trkpt><trkpt lat="43.91342203144741" lon="10.691977618410048"><ele>83.0</ele><time>2026-04-11T14:59:16Z</time></trkpt><trkpt lat="43.913305661919175" lon="10.6918592015605"><ele>83.0</ele><time>2026-04-11T14:59:17Z</time></trkpt><trkpt lat="43.913178678329594" lon="10.691762884396905"><ele>83.0</ele><time>2026-04-11T14:59:18Z</time></trkpt><trkpt lat="43.91304111656139" lon="10.691687334695947"><ele>83.25</ele><time>2026-04-11T14:59:19Z</time></trkpt><trkpt lat="43.91290722004783" lon="10.691614302740593"><ele>83.5</ele><time>2026-04-11T14:59:20Z</time></trkpt><trkpt lat="43.91277701085267" lon="10.691534723068989"><ele>83.75</ele><time>2026-04-11T14:59:21Z</time></trkpt><trkpt lat="43.91265101143986" lon="10.691445724351544"><ele>84.0</ele><time>2026-04-11T14:59:22Z</time></trkpt><trkpt lat="43.91252565313562" lon="10.691362660889721"><ele>83.75</ele><time>2026-04-11T14:59:23Z</time></trkpt><trkpt lat="43.91240222220328" lon="10.69128791021717"><ele>83.5</ele><time>2026-04-11T14:59:24Z</time></trkpt><trkpt lat="43.91227602194359" lon="10.6912162450601"><ele>83.25</ele><time>2026-04-11T14:59:25Z</time></trkpt><trkpt lat="43.91214874298908" lon="10.691150299908374"><ele>83.0</ele><time>2026-04-11T14:59:26Z</time></trkpt><trkpt lat="43.91202644471775" lon="10.69107887912878"><ele>83.0</ele><time>2026-04-11T14:59:27Z</time></trkpt><trkpt lat="43.91190453456899" lon="10.691018070157078"><ele>83.0</ele><time>2026-04-11T14:59:28Z</time></trkpt><trkpt lat="43.91179844872201" lon="10.690969604688824"><ele>83.0</ele><time>2026-04-11T14:59:29Z</time></trkpt><trkpt lat="43.911688044791966" lon="10.690928004633516"><ele>83.0</ele><time>2026-04-11T14:59:30Z</time></trkpt><trkpt lat="43.9115922375806" lon="10.690890569446266"><ele>82.0</ele><time>2026-04-11T14:59:31Z</time></trkpt><trkpt lat="43.91149762909313" lon="10.690874022366918"><ele>81.0</ele><time>2026-04-11T14:59:32Z</time></trkpt><trkpt lat="43.91140177921621" lon="10.690857765431051"><ele>80.0</ele><time>2026-04-11T14:59:33Z</time></trkpt><trkpt lat="43.91132999856568" lon="10.690845670128784"><ele>79.0</ele><time>2026-04-11T14:59:34Z</time></trkpt><trkpt lat="43.91124810749393" lon="10.690859478840501"><ele>78.0</ele><time>2026-04-11T14:59:35Z</time></trkpt><trkpt lat="43.91112168126623" lon="10.690879585861138"><ele>78.0</ele><time>2026-04-11T14:59:37Z</time></trkpt><trkpt lat="43.91104104655806" lon="10.69089587276175"><ele>78.0</ele><time>2026-04-11T14:59:39Z</time></trkpt><trkpt lat="43.91097024801265" lon="10.690882826621086"><ele>78.0</ele><time>2026-04-11T14:59:41Z</time></trkpt><trkpt lat="43.91099070723907" lon="10.69098494332758"><ele>78.0</ele><time>2026-04-11T15:01:10Z</time></trkpt><trkpt lat="43.91094477925439" lon="10.690918791639264"><ele>78.0</ele><time>2026-04-11T15:02:33Z</time></trkpt><trkpt lat="43.91087208978999" lon="10.690861308013254"><ele>78.0</ele><time>2026-04-11T15:04:52Z</time></trkpt><trkpt lat="43.910884016682076" lon="10.690767066650167"><ele>78.0</ele><time>2026-04-11T15:04:54Z</time></trkpt><trkpt lat="43.91091233665158" lon="10.690667976035565"><ele>77.16666666666667</ele><time>2026-04-11T15:05:10Z</time></trkpt><trkpt lat="43.9108392107541" lon="10.690602497469119"><ele>76.33333333333333</ele><time>2026-04-11T15:05:12Z</time></trkpt><trkpt lat="43.91072301095889" lon="10.690553064196216"><ele>75.5</ele><time>2026-04-11T15:05:14Z</time></trkpt><trkpt lat="43.910661483371804" lon="10.690531450179725"><ele>74.66666666666666</ele><time>2026-04-11T15:05:15Z</time></trkpt><trkpt lat="43.91059068721092" lon="10.690519707008729"><ele>73.83333333333333</ele><time>2026-04-11T15:05:16Z</time></trkpt><trkpt lat="43.91051740022853" lon="10.690496128302694"><ele>73.0</ele><time>2026-04-11T15:05:17Z</time></trkpt><trkpt lat="43.910430224276965" lon="10.690459028010215"><ele>73.0</ele><time>2026-04-11T15:05:18Z</time></trkpt><trkpt lat="43.91034446256025" lon="10.690427324358243"><ele>73.0</ele><time>2026-04-11T15:05:19Z</time></trkpt><trkpt lat="43.91025252369632" lon="10.690393614250585"><ele>73.0</ele><time>2026-04-11T15:05:20Z</time></trkpt><trkpt lat="43.910156305272" lon="10.690352775486222"><ele>73.0</ele><time>2026-04-11T15:05:21Z</time></trkpt><trkpt lat="43.910055474381835" lon="10.690310570659994"><ele>73.0</ele><time>2026-04-11T15:05:22Z</time></trkpt><trkpt lat="43.90994660437164" lon="10.690268987249372"><ele>72.75</ele><time>2026-04-11T15:05:23Z</time></trkpt><trkpt lat="43.9098363044312" lon="10.690228915160583"><ele>72.5</ele><time>2026-04-11T15:05:24Z</time></trkpt><trkpt lat="43.90973265025504" lon="10.690165122301693"><ele>72.25</ele><time>2026-04-11T15:05:25Z</time></trkpt><trkpt lat="43.909622058699064" lon="10.690123019097873"><ele>72.0</ele><time>2026-04-11T15:05:26Z</time></trkpt><trkpt lat="43.90950565662826" lon="10.690101618110102"><ele>72.0</ele><time>2026-04-11T15:05:27Z</time></trkpt><trkpt lat="43.90940569227716" lon="10.6900638611846"><ele>72.0</ele><time>2026-04-11T15:05:28Z</time></trkpt><trkpt lat="43.90930589026994" lon="10.690021029390639"><ele>72.0</ele><time>2026-04-11T15:05:29Z</time></trkpt><trkpt lat="43.90921057978766" lon="10.689986098791541"><ele>72.0</ele><time>2026-04-11T15:05:30Z</time></trkpt><trkpt lat="43.90911623943886" lon="10.68995002714299"><ele>72.0</ele><time>2026-04-11T15:05:31Z</time></trkpt><trkpt lat="43.909024555143134" lon="10.689916253905263"><ele>71.6</ele><time>2026-04-11T15:05:32Z</time></trkpt><trkpt lat="43.90892920347191" lon="10.689876043509662"><ele>71.2</ele><time>2026-04-11T15:05:33Z</time></trkpt><trkpt lat="43.90883557213351" lon="10.689834674887733"><ele>70.8</ele><time>2026-04-11T15:05:34Z</time></trkpt><trkpt lat="43.90873767235078" lon="10.689800123492901"><ele>70.4</ele><time>2026-04-11T15:05:35Z</time></trkpt><trkpt lat="43.90863999734993" lon="10.689764200198807"><ele>70.0</ele><time>2026-04-11T15:05:36Z</time></trkpt><trkpt lat="43.908535215752536" lon="10.689725831340978"><ele>70.0</ele><time>2026-04-11T15:05:37Z</time></trkpt><trkpt lat="43.9084339091562" lon="10.689680628942604"><ele>70.0</ele><time>2026-04-11T15:05:38Z</time></trkpt><trkpt lat="43.908330242499986" lon="10.689635026014825"><ele>70.0</ele><time>2026-04-11T15:05:39Z</time></trkpt><trkpt lat="43.9082252649212" lon="10.689592427805973"><ele>70.0</ele><time>2026-04-11T15:05:40Z</time></trkpt><trkpt lat="43.90811558482458" lon="10.689553689980588"><ele>70.0</ele><time>2026-04-11T15:05:41Z</time></trkpt><trkpt lat="43.90800197260158" lon="10.689511370387823"><ele>70.0</ele><time>2026-04-11T15:05:42Z</time></trkpt><trkpt lat="43.90789537751984" lon="10.689469485034344"><ele>70.0</ele><time>2026-04-11T15:05:43Z</time></trkpt><trkpt lat="43.907791514657546" lon="10.68942883343467"><ele>70.0</ele><time>2026-04-11T15:05:44Z</time></trkpt><trkpt lat="43.9076881515464" lon="10.689390839718783"><ele>70.0</ele><time>2026-04-11T15:05:45Z</time></trkpt><trkpt lat="43.90758366033548" lon="10.68935471617072"><ele>70.0</ele><time>2026-04-11T15:05:46Z</time></trkpt><trkpt lat="43.90748278413248" lon="10.689314999960535"><ele>70.25</ele><time>2026-04-11T15:05:47Z</time></trkpt><trkpt lat="43.90738652140755" lon="10.689275641814064"><ele>70.5</ele><time>2026-04-11T15:05:48Z</time></trkpt><trkpt lat="43.907286999159766" lon="10.689236878044735"><ele>70.75</ele><time>2026-04-11T15:05:49Z</time></trkpt><trkpt lat="43.90709470646652" lon="10.689163571640341"><ele>71.0</ele><time>2026-04-11T15:05:51Z</time></trkpt><trkpt lat="43.90699836804142" lon="10.6891288226256"><ele>71.0</ele><time>2026-04-11T15:05:52Z</time></trkpt><trkpt lat="43.90690375696136" lon="10.689095020363299"><ele>71.0</ele><time>2026-04-11T15:05:53Z</time></trkpt><trkpt lat="43.90680799536993" lon="10.689062476074662"><ele>71.0</ele><time>2026-04-11T15:05:54Z</time></trkpt><trkpt lat="43.90670163260301" lon="10.689054807168228"><ele>71.0</ele><time>2026-04-11T15:05:55Z</time></trkpt><trkpt lat="43.906590285243894" lon="10.689066920642547"><ele>71.0</ele><time>2026-04-11T15:05:56Z</time></trkpt><trkpt lat="43.906472618490376" lon="10.689025352809928"><ele>70.39999999999999</ele><time>2026-04-11T15:05:57Z</time></trkpt><trkpt lat="43.90635838552567" lon="10.689029475350056"><ele>69.8</ele><time>2026-04-11T15:05:58Z</time></trkpt><trkpt lat="43.90624941509455" lon="10.689037343622077"><ele>69.19999999999999</ele><time>2026-04-11T15:05:59Z</time></trkpt><trkpt lat="43.906146960180216" lon="10.68904474143283"><ele>68.6</ele><time>2026-04-11T15:06:00Z</time></trkpt><trkpt lat="43.90604742177907" lon="10.689051928655735"><ele>68.0</ele><time>2026-04-11T15:06:01Z</time></trkpt><trkpt lat="43.905949300113015" lon="10.689060168251222"><ele>67.83333333333334</ele><time>2026-04-11T15:06:02Z</time></trkpt><trkpt lat="43.905852304535266" lon="10.68906900761768"><ele>67.66666666666667</ele><time>2026-04-11T15:06:03Z</time></trkpt><trkpt lat="43.90576217762816" lon="10.68907397074353"><ele>67.5</ele><time>2026-04-11T15:06:04Z</time></trkpt><trkpt lat="43.90567569171028" lon="10.68907767135541"><ele>67.33333333333333</ele><time>2026-04-11T15:06:05Z</time></trkpt><trkpt lat="43.905588174188665" lon="10.689081416109728"><ele>67.16666666666666</ele><time>2026-04-11T15:06:06Z</time></trkpt><trkpt lat="43.905514934813915" lon="10.689084551751218"><ele>67.0</ele><time>2026-04-11T15:06:07Z</time></trkpt><trkpt lat="43.90544509371282" lon="10.68908754015582"><ele>67.0</ele><time>2026-04-11T15:06:08Z</time></trkpt><trkpt lat="43.9053201277027" lon="10.689115067398328"><ele>67.0</ele><time>2026-04-11T15:06:10Z</time></trkpt><trkpt lat="43.90520292786154" lon="10.689105601774923"><ele>67.0</ele><time>2026-04-11T15:06:12Z</time></trkpt><trkpt lat="43.905110464006356" lon="10.689108474176816"><ele>67.0</ele><time>2026-04-11T15:06:14Z</time></trkpt><trkpt lat="43.90504451065291" lon="10.689124170794974"><ele>67.0</ele><time>2026-04-11T15:06:44Z</time></trkpt><trkpt lat="43.9049788924256" lon="10.689109024739901"><ele>67.2</ele><time>2026-04-11T15:06:47Z</time></trkpt><trkpt lat="43.90493229850559" lon="10.68927833546082"><ele>67.4</ele><time>2026-04-11T15:07:01Z</time></trkpt><trkpt lat="43.90494152832671" lon="10.689424036849154"><ele>67.6</ele><time>2026-04-11T15:07:03Z</time></trkpt><trkpt lat="43.90495913738511" lon="10.689595598748381"><ele>67.8</ele><time>2026-04-11T15:07:05Z</time></trkpt><trkpt lat="43.904967674373715" lon="10.689683278726319"><ele>68.0</ele><time>2026-04-11T15:07:06Z</time></trkpt><trkpt lat="43.90497576655479" lon="10.689784948018941"><ele>68.0</ele><time>2026-04-11T15:07:07Z</time></trkpt><trkpt lat="43.90497907851958" lon="10.689884963413414"><ele>68.0</ele><time>2026-04-11T15:07:08Z</time></trkpt><trkpt lat="43.90498559170169" lon="10.689986322018855"><ele>68.0</ele><time>2026-04-11T15:07:09Z</time></trkpt><trkpt lat="43.90499517168059" lon="10.690092536984798"><ele>68.0</ele><time>2026-04-11T15:07:10Z</time></trkpt><trkpt lat="43.905000823056746" lon="10.690203224346119"><ele>68.0</ele><time>2026-04-11T15:07:11Z</time></trkpt><trkpt lat="43.90500743348281" lon="10.690327519838272"><ele>68.0</ele><time>2026-04-11T15:07:12Z</time></trkpt><trkpt lat="43.905031255298034" lon="10.690445775309021"><ele>68.0</ele><time>2026-04-11T15:07:13Z</time></trkpt><trkpt lat="43.90507314791967" lon="10.690552856210525"><ele>68.0</ele><time>2026-04-11T15:07:14Z</time></trkpt><trkpt lat="43.90511946908834" lon="10.69066141649245"><ele>68.0</ele><time>2026-04-11T15:07:15Z</time></trkpt><trkpt lat="43.90517026442829" lon="10.690770372200964"><ele>68.0</ele><time>2026-04-11T15:07:16Z</time></trkpt><trkpt lat="43.905205051031714" lon="10.69088433954559"><ele>68.0</ele><time>2026-04-11T15:07:17Z</time></trkpt><trkpt lat="43.90522212473633" lon="10.691003220668058"><ele>68.0</ele><time>2026-04-11T15:07:18Z</time></trkpt><trkpt lat="43.9052270456169" lon="10.691129499488657"><ele>68.0</ele><time>2026-04-11T15:07:19Z</time></trkpt><trkpt lat="43.90521555018339" lon="10.691256769075986"><ele>68.0</ele><time>2026-04-11T15:07:20Z</time></trkpt><trkpt lat="43.90518187318664" lon="10.691368695433622"><ele>68.0</ele><time>2026-04-11T15:07:21Z</time></trkpt><trkpt lat="43.90518158192631" lon="10.691491733398834"><ele>68.0</ele><time>2026-04-11T15:07:22Z</time></trkpt><trkpt lat="43.90517424896852" lon="10.69160396585846"><ele>68.0</ele><time>2026-04-11T15:07:23Z</time></trkpt><trkpt lat="43.90515537745542" lon="10.69172657320219"><ele>68.0</ele><time>2026-04-11T15:07:24Z</time></trkpt><trkpt lat="43.90513782492302" lon="10.69185239526838"><ele>68.6</ele><time>2026-04-11T15:07:25Z</time></trkpt><trkpt lat="43.9051255236606" lon="10.691975410959927"><ele>69.19999999999999</ele><time>2026-04-11T15:07:26Z</time></trkpt><trkpt lat="43.90510246849392" lon="10.692114654551565"><ele>69.8</ele><time>2026-04-11T15:07:27Z</time></trkpt><trkpt lat="43.9050981313485" lon="10.692255320505696"><ele>70.39999999999999</ele><time>2026-04-11T15:07:28Z</time></trkpt><trkpt lat="43.90509239118661" lon="10.692389255649056"><ele>71.0</ele><time>2026-04-11T15:07:29Z</time></trkpt><trkpt lat="43.90508777022135" lon="10.69251281878269"><ele>70.66666666666667</ele><time>2026-04-11T15:07:30Z</time></trkpt><trkpt lat="43.905070879804036" lon="10.692623602819905"><ele>70.33333333333334</ele><time>2026-04-11T15:07:31Z</time></trkpt><trkpt lat="43.90504017119464" lon="10.6927292101605"><ele>70.0</ele><time>2026-04-11T15:07:32Z</time></trkpt><trkpt lat="43.904984551640226" lon="10.69281510508224"><ele>69.66666666666667</ele><time>2026-04-11T15:07:33Z</time></trkpt><trkpt lat="43.904907938606456" lon="10.692869439517578"><ele>69.33333333333333</ele><time>2026-04-11T15:07:34Z</time></trkpt><trkpt lat="43.90482369268918" lon="10.692891964888798"><ele>69.0</ele><time>2026-04-11T15:07:35Z</time></trkpt><trkpt lat="43.90474285409619" lon="10.692861470107266"><ele>72.4</ele><time>2026-04-11T15:07:36Z</time></trkpt><trkpt lat="43.90463276210332" lon="10.692830236565833"><ele>75.80000000000001</ele><time>2026-04-11T15:07:37Z</time></trkpt><trkpt lat="43.9045427357701" lon="10.692820853499393"><ele>79.19999999999999</ele><time>2026-04-11T15:07:38Z</time></trkpt><trkpt lat="43.904454026907864" lon="10.692818883609897"><ele>82.6</ele><time>2026-04-11T15:07:39Z</time></trkpt><trkpt lat="43.904337980717465" lon="10.692827729699314"><ele>86.0</ele><time>2026-04-11T15:07:40Z</time></trkpt><trkpt lat="43.904231466575574" lon="10.692863943038557"><ele>86.25</ele><time>2026-04-11T15:07:41Z</time></trkpt><trkpt lat="43.9041182540841" lon="10.692911783617168"><ele>86.5</ele><time>2026-04-11T15:07:42Z</time></trkpt><trkpt lat="43.90400850047159" lon="10.69295717974026"><ele>86.75</ele><time>2026-04-11T15:07:43Z</time></trkpt><trkpt lat="43.903889987018836" lon="10.692971222081857"><ele>87.0</ele><time>2026-04-11T15:07:44Z</time></trkpt><trkpt lat="43.90376766853326" lon="10.692994094429496"><ele>87.0</ele><time>2026-04-11T15:07:45Z</time></trkpt><trkpt lat="43.903647706643916" lon="10.69302060414993"><ele>87.0</ele><time>2026-04-11T15:07:46Z</time></trkpt><trkpt lat="43.90352471808398" lon="10.693021429542902"><ele>87.0</ele><time>2026-04-11T15:07:47Z</time></trkpt><trkpt lat="43.90340221814021" lon="10.69301973094077"><ele>87.0</ele><time>2026-04-11T15:07:48Z</time></trkpt><trkpt lat="43.90328147568825" lon="10.693024278920278"><ele>86.5</ele><time>2026-04-11T15:07:49Z</time></trkpt><trkpt lat="43.903154766390976" lon="10.692989462919803"><ele>86.0</ele><time>2026-04-11T15:07:50Z</time></trkpt><trkpt lat="43.903036235675714" lon="10.692953396084096"><ele>85.5</ele><time>2026-04-11T15:07:51Z</time></trkpt><trkpt lat="43.902928503099986" lon="10.692919531402465"><ele>85.0</ele><time>2026-04-11T15:07:52Z</time></trkpt><trkpt lat="43.90283702757269" lon="10.692919200827042"><ele>85.0</ele><time>2026-04-11T15:07:53Z</time></trkpt><trkpt lat="43.90277191631865" lon="10.692896561664773"><ele>85.0</ele><time>2026-04-11T15:07:54Z</time></trkpt><trkpt lat="43.902714958290744" lon="10.692959180797441"><ele>85.0</ele><time>2026-04-11T15:08:00Z</time></trkpt><trkpt lat="43.90279919530766" lon="10.692987971037239"><ele>85.0</ele><time>2026-04-11T15:09:12Z</time></trkpt><trkpt lat="43.90286070836546" lon="10.692917903879398"><ele>85.0</ele><time>2026-04-11T15:09:13Z</time></trkpt><trkpt lat="43.90276274612534" lon="10.692870091475333"><ele>85.0</ele><time>2026-04-11T15:09:14Z</time></trkpt><trkpt lat="43.90290575331722" lon="10.693265730662814"><ele>94.5</ele><time>2026-04-11T15:09:16Z</time></trkpt><trkpt lat="43.90313038465608" lon="10.693686140755354"><ele>104.0</ele><time>2026-04-11T15:09:17Z</time></trkpt><trkpt lat="43.90361631658766" lon="10.693621174057217"><ele>108.66666666666666</ele><time>2026-04-11T15:09:20Z</time></trkpt><trkpt lat="43.90392840663588" lon="10.69362492703041"><ele>113.33333333333334</ele><time>2026-04-11T15:09:23Z</time></trkpt><trkpt lat="43.90400430173205" lon="10.693630782872939"><ele>118.0</ele><time>2026-04-11T15:09:24Z</time></trkpt><trkpt lat="43.904109304423955" lon="10.693635641398638"><ele>118.0</ele><time>2026-04-11T15:09:25Z</time></trkpt><trkpt lat="43.904175761146774" lon="10.693701757914384"><ele>118.0</ele><time>2026-04-11T15:09:26Z</time></trkpt><trkpt lat="43.904273443452595" lon="10.693713990378559"><ele>118.0</ele><time>2026-04-11T15:09:27Z</time></trkpt><trkpt lat="43.9045798983753" lon="10.693576810635752"><ele>110.0</ele><time>2026-04-11T15:09:29Z</time></trkpt><trkpt lat="43.904665533841246" lon="10.693564299037519"><ele>102.0</ele><time>2026-04-11T15:09:30Z</time></trkpt><trkpt lat="43.90478024120335" lon="10.693559003936672"><ele>94.0</ele><time>2026-04-11T15:09:32Z</time></trkpt><trkpt lat="43.90486013416843" lon="10.693559003934578"><ele>86.0</ele><time>2026-04-11T15:09:33Z</time></trkpt><trkpt lat="43.90494043553813" lon="10.692835520505266"><ele>86.0</ele><time>2026-04-11T15:09:34Z</time></trkpt><trkpt lat="43.90500826910476" lon="10.692761852509056"><ele>86.0</ele><time>2026-04-11T15:09:35Z</time></trkpt><trkpt lat="43.90505476021353" lon="10.692671964668886"><ele>86.0</ele><time>2026-04-11T15:09:36Z</time></trkpt><trkpt lat="43.90509051374206" lon="10.692567322384367"><ele>86.0</ele><time>2026-04-11T15:09:37Z</time></trkpt><trkpt lat="43.90509888953618" lon="10.692452028108429"><ele>86.0</ele><time>2026-04-11T15:09:38Z</time></trkpt><trkpt lat="43.90510349723595" lon="10.692334352893633"><ele>86.0</ele><time>2026-04-11T15:09:39Z</time></trkpt><trkpt lat="43.90509368529779" lon="10.69221802552664"><ele>83.5</ele><time>2026-04-11T15:09:40Z</time></trkpt><trkpt lat="43.90510068728081" lon="10.69210929259762"><ele>81.0</ele><time>2026-04-11T15:09:41Z</time></trkpt><trkpt lat="43.90511366614339" lon="10.69202259669164"><ele>78.5</ele><time>2026-04-11T15:09:42Z</time></trkpt><trkpt lat="43.9051805783372" lon="10.69187843127463"><ele>76.0</ele><time>2026-04-11T15:09:44Z</time></trkpt><trkpt lat="43.905227701335214" lon="10.691816935185134"><ele>73.5</ele><time>2026-04-11T15:09:45Z</time></trkpt><trkpt lat="43.90529679627341" lon="10.691787294180799"><ele>71.0</ele><time>2026-04-11T15:09:46Z</time></trkpt><trkpt lat="43.905367797952856" lon="10.691779841680482"><ele>70.39999999999999</ele><time>2026-04-11T15:09:47Z</time></trkpt><trkpt lat="43.90544193984122" lon="10.691766526016018"><ele>69.8</ele><time>2026-04-11T15:09:48Z</time></trkpt><trkpt lat="43.905532617470975" lon="10.691756929353806"><ele>69.19999999999999</ele><time>2026-04-11T15:09:49Z</time></trkpt><trkpt lat="43.90568377766699" lon="10.691740599082271"><ele>68.6</ele><time>2026-04-11T15:09:51Z</time></trkpt><trkpt lat="43.905778323394046" lon="10.691739759176707"><ele>68.0</ele><time>2026-04-11T15:09:52Z</time></trkpt><trkpt lat="43.90587526077176" lon="10.691747083700221"><ele>68.6</ele><time>2026-04-11T15:09:53Z</time></trkpt><trkpt lat="43.905975426487025" lon="10.691757891672994"><ele>69.19999999999999</ele><time>2026-04-11T15:09:54Z</time></trkpt><trkpt lat="43.90607409873284" lon="10.691753788425029"><ele>69.8</ele><time>2026-04-11T15:09:55Z</time></trkpt><trkpt lat="43.90617675084584" lon="10.691772512881858"><ele>70.39999999999999</ele><time>2026-04-11T15:09:56Z</time></trkpt><trkpt lat="43.90627567509791" lon="10.691788739040282"><ele>71.0</ele><time>2026-04-11T15:09:57Z</time></trkpt><trkpt lat="43.906367188676654" lon="10.691796914057033"><ele>71.0</ele><time>2026-04-11T15:09:58Z</time></trkpt><trkpt lat="43.906448187561324" lon="10.691791181440076"><ele>71.0</ele><time>2026-04-11T15:09:59Z</time></trkpt><trkpt lat="43.906525488424" lon="10.691780997372089"><ele>71.0</ele><time>2026-04-11T15:10:00Z</time></trkpt><trkpt lat="43.90659720904408" lon="10.691783462528278"><ele>71.0</ele><time>2026-04-11T15:10:01Z</time></trkpt><trkpt lat="43.906702893308776" lon="10.69180061761295"><ele>71.0</ele><time>2026-04-11T15:10:03Z</time></trkpt><trkpt lat="43.906771811924145" lon="10.691811037493084"><ele>71.0</ele><time>2026-04-11T15:10:04Z</time></trkpt><trkpt lat="43.906831958443" lon="10.691837078383072"><ele>71.83333333333334</ele><time>2026-04-11T15:10:05Z</time></trkpt><trkpt lat="43.9068916116046" lon="10.691894506571181"><ele>72.66666666666667</ele><time>2026-04-11T15:10:06Z</time></trkpt><trkpt lat="43.90694483819022" lon="10.691975780168093"><ele>73.5</ele><time>2026-04-11T15:10:07Z</time></trkpt><trkpt lat="43.90699098100651" lon="10.692074478946594"><ele>74.33333333333333</ele><time>2026-04-11T15:10:08Z</time></trkpt><trkpt lat="43.907038584111" lon="10.692171357545588"><ele>75.16666666666666</ele><time>2026-04-11T15:10:09Z</time></trkpt><trkpt lat="43.90710460491161" lon="10.692254953585905"><ele>76.0</ele><time>2026-04-11T15:10:10Z</time></trkpt><trkpt lat="43.90718718235689" lon="10.692298349681415"><ele>76.39999999999999</ele><time>2026-04-11T15:10:11Z</time></trkpt><trkpt lat="43.90728053432464" lon="10.692326151911168"><ele>76.8</ele><time>2026-04-11T15:10:12Z</time></trkpt><trkpt lat="43.90738523954021" lon="10.692364255744891"><ele>77.19999999999999</ele><time>2026-04-11T15:10:13Z</time></trkpt><trkpt lat="43.907482493123695" lon="10.69239930895514"><ele>77.6</ele><time>2026-04-11T15:10:14Z</time></trkpt><trkpt lat="43.90757606287099" lon="10.692432399410489"><ele>78.0</ele><time>2026-04-11T15:10:15Z</time></trkpt><trkpt lat="43.90766972748278" lon="10.692462758975847"><ele>78.0</ele><time>2026-04-11T15:10:16Z</time></trkpt><trkpt lat="43.90775203637589" lon="10.69247796817209"><ele>78.0</ele><time>2026-04-11T15:10:17Z</time></trkpt><trkpt lat="43.907828323178755" lon="10.692480431779588"><ele>78.0</ele><time>2026-04-11T15:10:18Z</time></trkpt><trkpt lat="43.9079151461844" lon="10.692518258995879"><ele>78.0</ele><time>2026-04-11T15:10:20Z</time></trkpt><trkpt lat="43.90797069392758" lon="10.692579071918022"><ele>78.0</ele><time>2026-04-11T15:11:06Z</time></trkpt><trkpt lat="43.90795204476558" lon="10.692483471050851"><ele>78.0</ele><time>2026-04-11T15:11:09Z</time></trkpt><trkpt lat="43.90786304383478" lon="10.692501523317897"><ele>78.0</ele><time>2026-04-11T15:11:11Z</time></trkpt><trkpt lat="43.907802217678466" lon="10.692623957744964"><ele>78.0</ele><time>2026-04-11T15:11:13Z</time></trkpt><trkpt lat="43.907764439667375" lon="10.692694714094353"><ele>78.0</ele><time>2026-04-11T15:11:14Z</time></trkpt><trkpt lat="43.90772183629537" lon="10.692765939694128"><ele>78.0</ele><time>2026-04-11T15:11:15Z</time></trkpt><trkpt lat="43.907680378898576" lon="10.69283279030199"><ele>78.0</ele><time>2026-04-11T15:11:16Z</time></trkpt><trkpt lat="43.90765949068376" lon="10.69296069636992"><ele>78.0</ele><time>2026-04-11T15:11:18Z</time></trkpt><trkpt lat="43.9077096329322" lon="10.6930522709642"><ele>81.33333333333333</ele><time>2026-04-11T15:11:19Z</time></trkpt><trkpt lat="43.90780053874704" lon="10.69320489594277"><ele>84.66666666666666</ele><time>2026-04-11T15:11:21Z</time></trkpt><trkpt lat="43.907840886204916" lon="10.6932729423137"><ele>88.0</ele><time>2026-04-11T15:11:22Z</time></trkpt><trkpt lat="43.907858591841794" lon="10.693372058135216"><ele>91.33333333333333</ele><time>2026-04-11T15:11:23Z</time></trkpt><trkpt lat="43.90786469234394" lon="10.693465396868959"><ele>94.66666666666666</ele><time>2026-04-11T15:11:24Z</time></trkpt><trkpt lat="43.907812745016614" lon="10.693551926227968"><ele>98.0</ele><time>2026-04-11T15:11:26Z</time></trkpt><trkpt lat="43.907796882411404" lon="10.693659561194616"><ele>105.0</ele><time>2026-04-11T15:11:28Z</time></trkpt><trkpt lat="43.90788795347501" lon="10.693698029684178"><ele>112.0</ele><time>2026-04-11T15:11:35Z</time></trkpt><trkpt lat="43.90794918415001" lon="10.693604927034642"><ele>119.00000000000001</ele><time>2026-04-11T15:11:38Z</time></trkpt><trkpt lat="43.90802816290274" lon="10.693632283528"><ele>126.0</ele><time>2026-04-11T15:11:42Z</time></trkpt><trkpt lat="43.90811948690076" lon="10.693700900400927"><ele>133.0</ele><time>2026-04-11T15:11:50Z</time></trkpt><trkpt lat="43.908200852582496" lon="10.693737071817333"><ele>133.0</ele><time>2026-04-11T15:11:52Z</time></trkpt><trkpt lat="43.90829522994722" lon="10.693799220937917"><ele>133.0</ele><time>2026-04-11T15:11:53Z</time></trkpt><trkpt lat="43.90837210802993" lon="10.693819352034431"><ele>133.0</ele><time>2026-04-11T15:11:54Z</time></trkpt><trkpt lat="43.90843343187793" lon="10.693916138988504"><ele>133.0</ele><time>2026-04-11T15:11:55Z</time></trkpt><trkpt lat="43.90851234077197" lon="10.693981116383677"><ele>133.0</ele><time>2026-04-11T15:11:57Z</time></trkpt><trkpt lat="43.9085837389491" lon="10.694065907698029"><ele>132.5</ele><time>2026-04-11T15:11:59Z</time></trkpt><trkpt lat="43.90867114417766" lon="10.694115480144514"><ele>132.0</ele><time>2026-04-11T15:12:01Z</time></trkpt><trkpt lat="43.90878917230292" lon="10.694132048804217"><ele>131.5</ele><time>2026-04-11T15:12:04Z</time></trkpt><trkpt lat="43.908865455372066" lon="10.69414759811485"><ele>131.0</ele><time>2026-04-11T15:12:05Z</time></trkpt><trkpt lat="43.90892986723847" lon="10.694173479225745"><ele>130.5</ele><time>2026-04-11T15:12:06Z</time></trkpt><trkpt lat="43.90898745633261" lon="10.694223711567682"><ele>130.0</ele><time>2026-04-11T15:12:07Z</time></trkpt><trkpt lat="43.9090479083187" lon="10.694248816135392"><ele>130.0</ele><time>2026-04-11T15:12:08Z</time></trkpt><trkpt lat="43.9091132327766" lon="10.694258326935035"><ele>130.0</ele><time>2026-04-11T15:12:09Z</time></trkpt><trkpt lat="43.90923825927473" lon="10.694314338552614"><ele>130.0</ele><time>2026-04-11T15:12:11Z</time></trkpt><trkpt lat="43.90930324826687" lon="10.694341252660278"><ele>130.0</ele><time>2026-04-11T15:12:12Z</time></trkpt><trkpt lat="43.909367148635944" lon="10.694405670501354"><ele>130.0</ele><time>2026-04-11T15:12:14Z</time></trkpt><trkpt lat="43.90930484490923" lon="10.694381886685958"><ele>130.0</ele><time>2026-04-11T15:12:20Z</time></trkpt><trkpt lat="43.90931180313167" lon="10.6944913231645"><ele>137.2</ele><time>2026-04-11T15:12:56Z</time></trkpt><trkpt lat="43.90931703942643" lon="10.694585604836288"><ele>144.4</ele><time>2026-04-11T15:12:59Z</time></trkpt><trkpt lat="43.90937792111456" lon="10.694642573765792"><ele>151.60000000000002</ele><time>2026-04-11T15:13:02Z</time></trkpt><trkpt lat="43.90943265712269" lon="10.694708409789948"><ele>158.8</ele><time>2026-04-11T15:13:06Z</time></trkpt><trkpt lat="43.909539231463974" lon="10.69486737121048"><ele>166.0</ele><time>2026-04-11T15:13:07Z</time></trkpt><trkpt lat="43.9096309181801" lon="10.69493496529527"><ele>166.0</ele><time>2026-04-11T15:13:08Z</time></trkpt><trkpt lat="43.90980186376564" lon="10.69476601318644"><ele>166.0</ele><time>2026-04-11T15:13:09Z</time></trkpt><trkpt lat="43.909995901543795" lon="10.69488875893243"><ele>166.0</ele><time>2026-04-11T15:13:11Z</time></trkpt><trkpt lat="43.91008677847199" lon="10.69494547835555"><ele>168.0</ele><time>2026-04-11T15:13:13Z</time></trkpt><trkpt lat="43.91020340471167" lon="10.694914528498265"><ele>170.0</ele><time>2026-04-11T15:13:15Z</time></trkpt><trkpt lat="43.91030941195057" lon="10.694902228979188"><ele>172.0</ele><time>2026-04-11T15:13:17Z</time></trkpt><trkpt lat="43.910495235667696" lon="10.695168163260751"><ele>172.0</ele><time>2026-04-11T15:13:21Z</time></trkpt><trkpt lat="43.91062318446354" lon="10.695259287988378"><ele>172.0</ele><time>2026-04-11T15:13:23Z</time></trkpt><trkpt lat="43.91071269847391" lon="10.695317647294742"><ele>172.0</ele><time>2026-04-11T15:13:24Z</time></trkpt><trkpt lat="43.910810224694686" lon="10.695233664331479"><ele>172.0</ele><time>2026-04-11T15:13:25Z</time></trkpt><trkpt lat="43.910867407945666" lon="10.695303567127338"><ele>172.0</ele><time>2026-04-11T15:13:29Z</time></trkpt><trkpt lat="43.9109340694927" lon="10.695387723684007"><ele>170.6</ele><time>2026-04-11T15:13:33Z</time></trkpt><trkpt lat="43.91096869710063" lon="10.695463671117183"><ele>169.2</ele><time>2026-04-11T15:13:35Z</time></trkpt><trkpt lat="43.91095007520071" lon="10.69560411526705"><ele>167.8</ele><time>2026-04-11T15:14:40Z</time></trkpt><trkpt lat="43.91097766382996" lon="10.695742357150623"><ele>166.4</ele><time>2026-04-11T15:14:42Z</time></trkpt><trkpt lat="43.910960240799035" lon="10.695884499737208"><ele>165.0</ele><time>2026-04-11T15:14:44Z</time></trkpt><trkpt lat="43.9109168319479" lon="10.696003773506037"><ele>169.83333333333334</ele><time>2026-04-11T15:14:46Z</time></trkpt><trkpt lat="43.910871445129466" lon="10.696068638933838"><ele>174.66666666666669</ele><time>2026-04-11T15:14:47Z</time></trkpt><trkpt lat="43.910827246622006" lon="10.696185481393405"><ele>179.5</ele><time>2026-04-11T15:14:49Z</time></trkpt><trkpt lat="43.91082101932552" lon="10.696310958473596"><ele>184.33333333333334</ele><time>2026-04-11T15:14:51Z</time></trkpt><trkpt lat="43.910853241833166" lon="10.696428216265328"><ele>189.16666666666669</ele><time>2026-04-11T15:14:53Z</time></trkpt><trkpt lat="43.910855157342056" lon="10.6965706006933"><ele>194.0</ele><time>2026-04-11T15:14:55Z</time></trkpt><trkpt lat="43.91085224268522" lon="10.696666974724842"><ele>191.33333333333334</ele><time>2026-04-11T15:14:57Z</time></trkpt><trkpt lat="43.91085322823911" lon="10.696766896621998"><ele>188.66666666666669</ele><time>2026-04-11T15:15:03Z</time></trkpt><trkpt lat="43.91089753744216" lon="10.696848563979382"><ele>186.0</ele><time>2026-04-11T15:15:29Z</time></trkpt><trkpt lat="43.910943551357434" lon="10.696775129678258"><ele>183.33333333333334</ele><time>2026-04-11T15:15:42Z</time></trkpt><trkpt lat="43.91097739820082" lon="10.696621015304736"><ele>180.66666666666669</ele><time>2026-04-11T15:15:44Z</time></trkpt><trkpt lat="43.91095878978778" lon="10.696535645236905"><ele>178.0</ele><time>2026-04-11T15:15:45Z</time></trkpt><trkpt lat="43.9109052847979" lon="10.696453784672885"><ele>175.4</ele><time>2026-04-11T15:15:46Z</time></trkpt><trkpt lat="43.91086469970526" lon="10.696383248833898"><ele>172.8</ele><time>2026-04-11T15:15:47Z</time></trkpt><trkpt lat="43.9108667510279" lon="10.696256419255235"><ele>170.2</ele><time>2026-04-11T15:15:49Z</time></trkpt><trkpt lat="43.91090648617174" lon="10.696085179277581"><ele>167.6</ele><time>2026-04-11T15:15:51Z</time></trkpt><trkpt lat="43.91093467044527" lon="10.696001254361237"><ele>165.0</ele><time>2026-04-11T15:15:52Z</time></trkpt><trkpt lat="43.910978049063395" lon="10.69583701281075"><ele>165.0</ele><time>2026-04-11T15:15:54Z</time></trkpt><trkpt lat="43.91099402854205" lon="10.695747713483234"><ele>165.0</ele><time>2026-04-11T15:15:55Z</time></trkpt><trkpt lat="43.910981807262964" lon="10.695653248260099"><ele>165.0</ele><time>2026-04-11T15:15:56Z</time></trkpt><trkpt lat="43.91094712024994" lon="10.695561058739372"><ele>165.0</ele><time>2026-04-11T15:15:57Z</time></trkpt><trkpt lat="43.91090929805926" lon="10.695402292356695"><ele>165.0</ele><time>2026-04-11T15:15:59Z</time></trkpt><trkpt lat="43.91090983924888" lon="10.695265044486717"><ele>165.0</ele><time>2026-04-11T15:16:01Z</time></trkpt><trkpt lat="43.910981867390035" lon="10.69518250132683"><ele>165.0</ele><time>2026-04-11T15:16:03Z</time></trkpt><trkpt lat="43.9110672284423" lon="10.69516820952566"><ele>165.0</ele><time>2026-04-11T15:16:04Z</time></trkpt><trkpt lat="43.911132810166784" lon="10.695220609429505"><ele>165.0</ele><time>2026-04-11T15:16:05Z</time></trkpt><trkpt lat="43.911217662359725" lon="10.695322479913143"><ele>165.0</ele><time>2026-04-11T15:16:07Z</time></trkpt><trkpt lat="43.91123669057081" lon="10.695429801629428"><ele>165.0</ele><time>2026-04-11T15:16:08Z</time></trkpt><trkpt lat="43.911222755848584" lon="10.695586961400736"><ele>165.0</ele><time>2026-04-11T15:16:09Z</time></trkpt><trkpt lat="43.91121765065445" lon="10.695727537453653"><ele>165.0</ele><time>2026-04-11T15:16:10Z</time></trkpt><trkpt lat="43.911226440554934" lon="10.695857315958817"><ele>165.0</ele><time>2026-04-11T15:16:11Z</time></trkpt><trkpt lat="43.91122595777817" lon="10.695988636258296"><ele>165.0</ele><time>2026-04-11T15:16:12Z</time></trkpt><trkpt lat="43.91123527417611" lon="10.696120294402347"><ele>165.0</ele><time>2026-04-11T15:16:13Z</time></trkpt><trkpt lat="43.91124336143336" lon="10.696248065274183"><ele>167.16666666666666</ele><time>2026-04-11T15:16:14Z</time></trkpt><trkpt lat="43.91125813815033" lon="10.696392410020023"><ele>169.33333333333334</ele><time>2026-04-11T15:16:15Z</time></trkpt><trkpt lat="43.91129809366977" lon="10.696476909716845"><ele>171.5</ele><time>2026-04-11T15:16:16Z</time></trkpt><trkpt lat="43.911329140189984" lon="10.69656387372055"><ele>173.66666666666669</ele><time>2026-04-11T15:16:17Z</time></trkpt><trkpt lat="43.91134213568104" lon="10.69667469278117"><ele>175.83333333333334</ele><time>2026-04-11T15:16:18Z</time></trkpt><trkpt lat="43.911341713172796" lon="10.69678352121228"><ele>178.0</ele><time>2026-04-11T15:16:19Z</time></trkpt><trkpt lat="43.91134548128864" lon="10.696884772566033"><ele>176.25</ele><time>2026-04-11T15:16:20Z</time></trkpt><trkpt lat="43.911361767096246" lon="10.696995817799476"><ele>174.5</ele><time>2026-04-11T15:16:21Z</time></trkpt><trkpt lat="43.91139188877577" lon="10.697086851322142"><ele>172.75</ele><time>2026-04-11T15:16:22Z</time></trkpt><trkpt lat="43.91157031314017" lon="10.69695172253548"><ele>171.0</ele><time>2026-04-11T15:16:23Z</time></trkpt><trkpt lat="43.91174955259676" lon="10.69697597998033"><ele>171.0</ele><time>2026-04-11T15:16:25Z</time></trkpt><trkpt lat="43.911848046438315" lon="10.696954427574557"><ele>171.0</ele><time>2026-04-11T15:16:26Z</time></trkpt><trkpt lat="43.9119545700313" lon="10.69694674571678"><ele>171.0</ele><time>2026-04-11T15:16:27Z</time></trkpt><trkpt lat="43.91205180855308" lon="10.696871870970993"><ele>171.0</ele><time>2026-04-11T15:16:28Z</time></trkpt><trkpt lat="43.91213869168157" lon="10.69679668062812"><ele>171.0</ele><time>2026-04-11T15:16:29Z</time></trkpt><trkpt lat="43.91224269681837" lon="10.696787770347887"><ele>167.4</ele><time>2026-04-11T15:16:30Z</time></trkpt><trkpt lat="43.91233469666162" lon="10.696790587624264"><ele>163.8</ele><time>2026-04-11T15:16:31Z</time></trkpt><trkpt lat="43.912413875761025" lon="10.696802842536416"><ele>160.20000000000002</ele><time>2026-04-11T15:16:32Z</time></trkpt><trkpt lat="43.912500997429895" lon="10.696828162760443"><ele>156.60000000000002</ele><time>2026-04-11T15:16:33Z</time></trkpt><trkpt lat="43.912589576337986" lon="10.696837510712825"><ele>153.0</ele><time>2026-04-11T15:16:34Z</time></trkpt><trkpt lat="43.91269816332652" lon="10.696924059694426"><ele>152.16666666666666</ele><time>2026-04-11T15:16:35Z</time></trkpt><trkpt lat="43.91260760102375" lon="10.696923851837465"><ele>151.33333333333334</ele><time>2026-04-11T15:16:38Z</time></trkpt><trkpt lat="43.91255048246652" lon="10.696973000831855"><ele>150.5</ele><time>2026-04-11T15:16:40Z</time></trkpt><trkpt lat="43.91255324227855" lon="10.697083750708256"><ele>149.66666666666669</ele><time>2026-04-11T15:17:12Z</time></trkpt><trkpt lat="43.912573454952835" lon="10.69721942155521"><ele>148.83333333333334</ele><time>2026-04-11T15:17:14Z</time></trkpt><trkpt lat="43.912586928413546" lon="10.697362439100944"><ele>148.0</ele><time>2026-04-11T15:17:16Z</time></trkpt><trkpt lat="43.91258803175543" lon="10.697458550933762"><ele>148.0</ele><time>2026-04-11T15:17:17Z</time></trkpt><trkpt lat="43.912582583104715" lon="10.697602410264004"><ele>148.0</ele><time>2026-04-11T15:17:18Z</time></trkpt><trkpt lat="43.91259213964183" lon="10.697739718248174"><ele>148.0</ele><time>2026-04-11T15:17:19Z</time></trkpt><trkpt lat="43.912600288197694" lon="10.69785589669381"><ele>148.0</ele><time>2026-04-11T15:17:20Z</time></trkpt><trkpt lat="43.91260302787762" lon="10.697964558848867"><ele>148.0</ele><time>2026-04-11T15:17:21Z</time></trkpt><trkpt lat="43.91255668679121" lon="10.698170064653905"><ele>152.33333333333334</ele><time>2026-04-11T15:17:23Z</time></trkpt><trkpt lat="43.9124346124118" lon="10.698213959334986"><ele>156.66666666666669</ele><time>2026-04-11T15:17:24Z</time></trkpt><trkpt lat="43.912349746276526" lon="10.698279109685176"><ele>161.0</ele><time>2026-04-11T15:17:25Z</time></trkpt><trkpt lat="43.91228366506791" lon="10.698256995544865"><ele>165.33333333333334</ele><time>2026-04-11T15:17:27Z</time></trkpt><trkpt lat="43.91229866417812" lon="10.698164100501305"><ele>169.66666666666666</ele><time>2026-04-11T15:17:28Z</time></trkpt><trkpt lat="43.912358964124785" lon="10.698093012590466"><ele>174.0</ele><time>2026-04-11T15:17:30Z</time></trkpt><trkpt lat="43.91241458187504" lon="10.69803749472127"><ele>174.0</ele><time>2026-04-11T15:17:31Z</time></trkpt><trkpt lat="43.91243214846521" lon="10.697921393507011"><ele>174.0</ele><time>2026-04-11T15:17:33Z</time></trkpt><trkpt lat="43.912357734678565" lon="10.697963700835796"><ele>174.0</ele><time>2026-04-11T15:17:36Z</time></trkpt><trkpt lat="43.912302840203026" lon="10.698033701889411"><ele>174.0</ele><time>2026-04-11T15:17:37Z</time></trkpt><trkpt lat="43.9122125091226" lon="10.69818637532623"><ele>174.0</ele><time>2026-04-11T15:17:38Z</time></trkpt><trkpt lat="43.912149627083544" lon="10.6982836814907"><ele>174.0</ele><time>2026-04-11T15:17:39Z</time></trkpt><trkpt lat="43.912096332069" lon="10.698366305750971"><ele>174.0</ele><time>2026-04-11T15:17:40Z</time></trkpt><trkpt lat="43.9120248476877" lon="10.698458949376931"><ele>174.0</ele><time>2026-04-11T15:17:41Z</time></trkpt><trkpt lat="43.91194425483961" lon="10.698553415239704"><ele>174.0</ele><time>2026-04-11T15:17:42Z</time></trkpt><trkpt lat="43.911877882713874" lon="10.698656660595697"><ele>174.0</ele><time>2026-04-11T15:17:43Z</time></trkpt><trkpt lat="43.91182852928571" lon="10.698734485730366"><ele>174.0</ele><time>2026-04-11T15:17:44Z</time></trkpt><trkpt lat="43.91177086316115" lon="10.69877418080415"><ele>174.0</ele><time>2026-04-11T15:17:45Z</time></trkpt><trkpt lat="43.91168777428093" lon="10.698773915475487"><ele>174.0</ele><time>2026-04-11T15:17:48Z</time></trkpt><trkpt lat="43.911754738023575" lon="10.698749596423973"><ele>174.0</ele><time>2026-04-11T15:17:50Z</time></trkpt><trkpt lat="43.91187973057685" lon="10.698685718563908"><ele>174.0</ele><time>2026-04-11T15:17:51Z</time></trkpt><trkpt lat="43.91191943796945" lon="10.698559244112712"><ele>174.0</ele><time>2026-04-11T15:17:52Z</time></trkpt><trkpt lat="43.91195539431469" lon="10.69834085651706"><ele>174.0</ele><time>2026-04-11T15:17:53Z</time></trkpt><trkpt lat="43.91199774706276" lon="10.698201935190838"><ele>174.0</ele><time>2026-04-11T15:17:54Z</time></trkpt><trkpt lat="43.91203002390785" lon="10.698102644398427"><ele>174.0</ele><time>2026-04-11T15:17:55Z</time></trkpt><trkpt lat="43.91206555405315" lon="10.69801568138844"><ele>174.0</ele><time>2026-04-11T15:17:56Z</time></trkpt><trkpt lat="43.912113943576124" lon="10.697940812834256"><ele>174.0</ele><time>2026-04-11T15:17:57Z</time></trkpt><trkpt lat="43.91203834631382" lon="10.697937407818882"><ele>174.0</ele><time>2026-04-11T15:17:59Z</time></trkpt><trkpt lat="43.911979496951055" lon="10.697974232208697"><ele>174.0</ele><time>2026-04-11T15:18:01Z</time></trkpt><trkpt lat="43.91191918046609" lon="10.698132480774241"><ele>174.0</ele><time>2026-04-11T15:18:03Z</time></trkpt><trkpt lat="43.911859506954755" lon="10.698211323184605"><ele>174.0</ele><time>2026-04-11T15:18:04Z</time></trkpt><trkpt lat="43.9117679841398" lon="10.698362980510584"><ele>174.0</ele><time>2026-04-11T15:18:05Z</time></trkpt><trkpt lat="43.91170493173245" lon="10.698480263244035"><ele>180.6</ele><time>2026-04-11T15:18:06Z</time></trkpt><trkpt lat="43.91164371412636" lon="10.69856982252235"><ele>187.2</ele><time>2026-04-11T15:18:07Z</time></trkpt><trkpt lat="43.91148668089788" lon="10.698618616900516"><ele>193.79999999999998</ele><time>2026-04-11T15:18:08Z</time></trkpt><trkpt lat="43.91141607878298" lon="10.698697384144685"><ele>200.39999999999998</ele><time>2026-04-11T15:18:09Z</time></trkpt><trkpt lat="43.91135713102999" lon="10.69879146702576"><ele>207.0</ele><time>2026-04-11T15:18:10Z</time></trkpt><trkpt lat="43.91131523173188" lon="10.698950888623964"><ele>207.0</ele><time>2026-04-11T15:18:11Z</time></trkpt><trkpt lat="43.91128443668423" lon="10.699083594771471"><ele>207.0</ele><time>2026-04-11T15:18:12Z</time></trkpt><trkpt lat="43.91125562469932" lon="10.69920830417297"><ele>207.0</ele><time>2026-04-11T15:18:13Z</time></trkpt><trkpt lat="43.91123242405206" lon="10.699311527751293"><ele>207.0</ele><time>2026-04-11T15:18:14Z</time></trkpt><trkpt lat="43.911189536430065" lon="10.699418579912729"><ele>207.0</ele><time>2026-04-11T15:18:15Z</time></trkpt><trkpt lat="43.911147006563674" lon="10.69951818870291"><ele>207.0</ele><time>2026-04-11T15:18:16Z</time></trkpt><trkpt lat="43.911087936055836" lon="10.699609693144017"><ele>207.2</ele><time>2026-04-11T15:18:17Z</time></trkpt><trkpt lat="43.911029734124966" lon="10.699675249705216"><ele>207.39999999999998</ele><time>2026-04-11T15:18:18Z</time></trkpt><trkpt lat="43.91098705058527" lon="10.699802597613125"><ele>207.60000000000002</ele><time>2026-04-11T15:18:20Z</time></trkpt><trkpt lat="43.91090324338169" lon="10.699666735141177"><ele>207.8</ele><time>2026-04-11T15:18:23Z</time></trkpt><trkpt lat="43.91088827554178" lon="10.699563894478059"><ele>208.0</ele><time>2026-04-11T15:18:24Z</time></trkpt><trkpt lat="43.91098736225414" lon="10.699420680291489"><ele>207.83333333333331</ele><time>2026-04-11T15:18:26Z</time></trkpt><trkpt lat="43.91102844636974" lon="10.699334986266319"><ele>207.66666666666666</ele><time>2026-04-11T15:18:27Z</time></trkpt><trkpt lat="43.911059445649016" lon="10.699231343606257"><ele>207.5</ele><time>2026-04-11T15:18:28Z</time></trkpt><trkpt lat="43.9110459869362" lon="10.699132857051493"><ele>207.33333333333331</ele><time>2026-04-11T15:18:29Z</time></trkpt><trkpt lat="43.911045252246936" lon="10.699026942081439"><ele>207.16666666666666</ele><time>2026-04-11T15:18:30Z</time></trkpt><trkpt lat="43.91105531077838" lon="10.698912352431789"><ele>207.0</ele><time>2026-04-11T15:18:31Z</time></trkpt><trkpt lat="43.9110616256898" lon="10.69878671676378"><ele>207.0</ele><time>2026-04-11T15:18:32Z</time></trkpt><trkpt lat="43.91107259674269" lon="10.698690703185711"><ele>207.0</ele><time>2026-04-11T15:18:33Z</time></trkpt><trkpt lat="43.91109819936233" lon="10.698584032012109"><ele>207.0</ele><time>2026-04-11T15:18:35Z</time></trkpt><trkpt lat="43.91107307492942" lon="10.69867555221283"><ele>207.0</ele><time>2026-04-11T15:19:12Z</time></trkpt><trkpt lat="43.91104029812726" lon="10.698781405654325"><ele>207.0</ele><time>2026-04-11T15:19:13Z</time></trkpt><trkpt lat="43.91098764849813" lon="10.698938678826469"><ele>207.0</ele><time>2026-04-11T15:19:14Z</time></trkpt><trkpt lat="43.910924152252434" lon="10.69907470903094"><ele>212.66666666666666</ele><time>2026-04-11T15:19:15Z</time></trkpt><trkpt lat="43.910890594036104" lon="10.699182122767569"><ele>218.33333333333331</ele><time>2026-04-11T15:19:16Z</time></trkpt><trkpt lat="43.91083729046729" lon="10.69928562461858"><ele>224.0</ele><time>2026-04-11T15:19:17Z</time></trkpt><trkpt lat="43.91078568978933" lon="10.699372798103445"><ele>229.66666666666666</ele><time>2026-04-11T15:19:18Z</time></trkpt><trkpt lat="43.91071890167673" lon="10.699444511198898"><ele>235.33333333333331</ele><time>2026-04-11T15:19:19Z</time></trkpt><trkpt lat="43.91067170179261" lon="10.699514072813015"><ele>241.0</ele><time>2026-04-11T15:19:20Z</time></trkpt><trkpt lat="43.910618843180096" lon="10.699586119652826"><ele>240.99999999999997</ele><time>2026-04-11T15:19:21Z</time></trkpt><trkpt lat="43.91057951916714" lon="10.69969622692154"><ele>241.0</ele><time>2026-04-11T15:19:22Z</time></trkpt><trkpt lat="43.91056285720615" lon="10.699816170130198"><ele>241.0</ele><time>2026-04-11T15:19:23Z</time></trkpt><trkpt lat="43.91052685905665" lon="10.69991128970781"><ele>241.0</ele><time>2026-04-11T15:19:24Z</time></trkpt><trkpt lat="43.91047888910814" lon="10.69999411671974"><ele>240.99999999999997</ele><time>2026-04-11T15:19:25Z</time></trkpt><trkpt lat="43.9104260718544" lon="10.700082464276038"><ele>241.0</ele><time>2026-04-11T15:19:26Z</time></trkpt><trkpt lat="43.910413728594875" lon="10.700192357597038"><ele>241.16666666666666</ele><time>2026-04-11T15:19:27Z</time></trkpt><trkpt lat="43.91038205467799" lon="10.700285720077611"><ele>241.33333333333331</ele><time>2026-04-11T15:19:28Z</time></trkpt><trkpt lat="43.91034400962175" lon="10.700360992308847"><ele>241.5</ele><time>2026-04-11T15:19:29Z</time></trkpt><trkpt lat="43.91031013940059" lon="10.700441815558682"><ele>241.66666666666669</ele><time>2026-04-11T15:19:30Z</time></trkpt><trkpt lat="43.91025698849278" lon="10.700522633914472"><ele>241.83333333333334</ele><time>2026-04-11T15:19:31Z</time></trkpt><trkpt lat="43.910186639136306" lon="10.700636793462188"><ele>242.0</ele><time>2026-04-11T15:19:33Z</time></trkpt><trkpt lat="43.91012990894327" lon="10.700688762525761"><ele>251.2</ele><time>2026-04-11T15:19:34Z</time></trkpt><trkpt lat="43.91002717764535" lon="10.700789828041975"><ele>260.4</ele><time>2026-04-11T15:19:36Z</time></trkpt><trkpt lat="43.90997004638885" lon="10.700971248715424"><ele>269.6</ele><time>2026-04-11T15:19:38Z</time></trkpt><trkpt lat="43.90993248032903" lon="10.701090146155313"><ele>278.8</ele><time>2026-04-11T15:19:39Z</time></trkpt><trkpt lat="43.909895174727716" lon="10.70117031446952"><ele>288.0</ele><time>2026-04-11T15:19:40Z</time></trkpt><trkpt lat="43.90982794902732" lon="10.701299447995975"><ele>288.28571428571433</ele><time>2026-04-11T15:19:42Z</time></trkpt><trkpt lat="43.90977478528465" lon="10.701353766991271"><ele>288.57142857142856</ele><time>2026-04-11T15:19:43Z</time></trkpt><trkpt lat="43.90973387104749" lon="10.701423691228047"><ele>288.8571428571429</ele><time>2026-04-11T15:19:44Z</time></trkpt><trkpt lat="43.90969714519184" lon="10.701498117509857"><ele>289.14285714285717</ele><time>2026-04-11T15:19:45Z</time></trkpt><trkpt lat="43.90965725828553" lon="10.701595464947752"><ele>289.42857142857144</ele><time>2026-04-11T15:19:46Z</time></trkpt><trkpt lat="43.90962250271096" lon="10.701673658543932"><ele>289.7142857142857</ele><time>2026-04-11T15:19:47Z</time></trkpt><trkpt lat="43.90960522510292" lon="10.701772426456058"><ele>290.0</ele><time>2026-04-11T15:19:48Z</time></trkpt><trkpt lat="43.90962803902737" lon="10.701873134557296"><ele>294.1666666666667</ele><time>2026-04-11T15:19:49Z</time></trkpt><trkpt lat="43.909624373251326" lon="10.7020028749791"><ele>298.33333333333337</ele><time>2026-04-11T15:19:51Z</time></trkpt><trkpt lat="43.90969918207027" lon="10.70210491015404"><ele>302.5</ele><time>2026-04-11T15:19:53Z</time></trkpt><trkpt lat="43.90975540606227" lon="10.702154186802826"><ele>306.6666666666667</ele><time>2026-04-11T15:19:54Z</time></trkpt><trkpt lat="43.90981966175048" lon="10.70214150255272"><ele>310.8333333333333</ele><time>2026-04-11T15:19:55Z</time></trkpt><trkpt lat="43.90991432784866" lon="10.702149278455865"><ele>315.0</ele><time>2026-04-11T15:19:56Z</time></trkpt><trkpt lat="43.90998939115761" lon="10.702167153290898"><ele>315.0</ele><time>2026-04-11T15:19:57Z</time></trkpt><trkpt lat="43.91005647212938" lon="10.702195102044328"><ele>315.0</ele><time>2026-04-11T15:19:58Z</time></trkpt><trkpt lat="43.91017494594721" lon="10.702223677562271"><ele>315.0</ele><time>2026-04-11T15:20:00Z</time></trkpt><trkpt lat="43.91004050089006" lon="10.70219908750544"><ele>315.0</ele><time>2026-04-11T15:20:05Z</time></trkpt><trkpt lat="43.909974118840545" lon="10.702201677145913"><ele>315.0</ele><time>2026-04-11T15:20:06Z</time></trkpt><trkpt lat="43.90991055833228" lon="10.702221993565036"><ele>315.0</ele><time>2026-04-11T15:20:07Z</time></trkpt><trkpt lat="43.90986784530367" lon="10.702304825780976"><ele>315.0</ele><time>2026-04-11T15:20:10Z</time></trkpt><trkpt lat="43.90992952833039" lon="10.702385284594754"><ele>315.0</ele><time>2026-04-11T15:20:12Z</time></trkpt><trkpt lat="43.90999410169875" lon="10.702410374937608"><ele>315.0</ele><time>2026-04-11T15:20:13Z</time></trkpt><trkpt lat="43.910058541329214" lon="10.702442739690042"><ele>315.0</ele><time>2026-04-11T15:20:14Z</time></trkpt><trkpt lat="43.91014405842494" lon="10.702456589666523"><ele>315.0</ele><time>2026-04-11T15:20:15Z</time></trkpt><trkpt lat="43.91026527542039" lon="10.702409300461447"><ele>314.5</ele><time>2026-04-11T15:20:16Z</time></trkpt><trkpt lat="43.91038314630447" lon="10.702384027727323"><ele>314.0</ele><time>2026-04-11T15:20:17Z</time></trkpt><trkpt lat="43.91045085758956" lon="10.70240535418405"><ele>313.5</ele><time>2026-04-11T15:20:18Z</time></trkpt><trkpt lat="43.91051574810499" lon="10.70242665112931"><ele>313.0</ele><time>2026-04-11T15:20:19Z</time></trkpt><trkpt lat="43.91056428543507" lon="10.702532682430771"><ele>312.5</ele><time>2026-04-11T15:20:21Z</time></trkpt><trkpt lat="43.9106239891985" lon="10.702561605819465"><ele>312.0</ele><time>2026-04-11T15:20:22Z</time></trkpt><trkpt lat="43.91066388174818" lon="10.702633532442398"><ele>312.0</ele><time>2026-04-11T15:20:24Z</time></trkpt><trkpt lat="43.91066712849203" lon="10.702737517590439"><ele>312.0</ele><time>2026-04-11T15:20:27Z</time></trkpt><trkpt lat="43.9108304380657" lon="10.70268718160219"><ele>312.0</ele><time>2026-04-11T15:20:52Z</time></trkpt><trkpt lat="43.910905293467906" lon="10.702698046561668"><ele>312.0</ele><time>2026-04-11T15:20:53Z</time></trkpt><trkpt lat="43.910990171563554" lon="10.702687170669014"><ele>312.0</ele><time>2026-04-11T15:20:54Z</time></trkpt><trkpt lat="43.91106528146644" lon="10.702690265583131"><ele>316.5</ele><time>2026-04-11T15:20:55Z</time></trkpt><trkpt lat="43.911140342480294" lon="10.70278913053872"><ele>321.0</ele><time>2026-04-11T15:20:56Z</time></trkpt><trkpt lat="43.911210098038275" lon="10.702812238778918"><ele>325.5</ele><time>2026-04-11T15:20:57Z</time></trkpt><trkpt lat="43.911297527950076" lon="10.702879623339705"><ele>330.0</ele><time>2026-04-11T15:20:58Z</time></trkpt><trkpt lat="43.91136813977982" lon="10.702895557254921"><ele>334.5</ele><time>2026-04-11T15:20:59Z</time></trkpt><trkpt lat="43.9114360139684" lon="10.702914734153795"><ele>339.0</ele><time>2026-04-11T15:21:00Z</time></trkpt><trkpt lat="43.91156193837411" lon="10.702989804695505"><ele>339.0</ele><time>2026-04-11T15:21:02Z</time></trkpt><trkpt lat="43.911633318176484" lon="10.70302491431652"><ele>339.0</ele><time>2026-04-11T15:21:03Z</time></trkpt><trkpt lat="43.9117011324482" lon="10.703054262759474"><ele>339.0</ele><time>2026-04-11T15:21:04Z</time></trkpt><trkpt lat="43.91177143952078" lon="10.70308562464165"><ele>339.0</ele><time>2026-04-11T15:21:05Z</time></trkpt><trkpt lat="43.911837879565624" lon="10.703118762686591"><ele>339.0</ele><time>2026-04-11T15:21:06Z</time></trkpt><trkpt lat="43.911915665266804" lon="10.703165922080219"><ele>339.0</ele><time>2026-04-11T15:21:07Z</time></trkpt><trkpt lat="43.911976478044515" lon="10.703214189356022"><ele>339.0</ele><time>2026-04-11T15:21:08Z</time></trkpt><trkpt lat="43.912028190758036" lon="10.703273190633867"><ele>337.8333333333333</ele><time>2026-04-11T15:21:09Z</time></trkpt><trkpt lat="43.9121103174869" lon="10.703307107748278"><ele>336.6666666666667</ele><time>2026-04-11T15:21:10Z</time></trkpt><trkpt lat="43.91218469228364" lon="10.7033672382067"><ele>335.5</ele><time>2026-04-11T15:21:11Z</time></trkpt><trkpt lat="43.912208166568426" lon="10.703478356102437"><ele>334.33333333333337</ele><time>2026-04-11T15:21:12Z</time></trkpt><trkpt lat="43.912198639474006" lon="10.70359792599524"><ele>333.1666666666667</ele><time>2026-04-11T15:21:14Z</time></trkpt><trkpt lat="43.912145609307494" lon="10.703719472419131"><ele>332.0</ele><time>2026-04-11T15:21:16Z</time></trkpt><trkpt lat="43.91211771939204" lon="10.703822507874696"><ele>332.0</ele><time>2026-04-11T15:21:17Z</time></trkpt><trkpt lat="43.91208691594869" lon="10.70390474150279"><ele>332.0</ele><time>2026-04-11T15:21:18Z</time></trkpt><trkpt lat="43.91201860620649" lon="10.703939257500835"><ele>332.0</ele><time>2026-04-11T15:21:19Z</time></trkpt><trkpt lat="43.9119531070828" lon="10.703995537792263"><ele>332.0</ele><time>2026-04-11T15:21:20Z</time></trkpt><trkpt lat="43.91188555142064" lon="10.704132151300861"><ele>332.0</ele><time>2026-04-11T15:21:22Z</time></trkpt><trkpt lat="43.91184298420727" lon="10.704223715878623"><ele>332.0</ele><time>2026-04-11T15:21:23Z</time></trkpt><trkpt lat="43.91179666506709" lon="10.704303153751605"><ele>332.0</ele><time>2026-04-11T15:21:24Z</time></trkpt><trkpt lat="43.91174355077234" lon="10.704381464954473"><ele>332.0</ele><time>2026-04-11T15:21:25Z</time></trkpt><trkpt lat="43.91168730903664" lon="10.704428181888998"><ele>332.0</ele><time>2026-04-11T15:21:26Z</time></trkpt><trkpt lat="43.91162524885351" lon="10.704487847619497"><ele>332.0</ele><time>2026-04-11T15:21:27Z</time></trkpt><trkpt lat="43.91150830612178" lon="10.704588084878326"><ele>332.0</ele><time>2026-04-11T15:21:29Z</time></trkpt><trkpt lat="43.91146592807386" lon="10.704694656223243"><ele>332.0</ele><time>2026-04-11T15:21:31Z</time></trkpt><trkpt lat="43.91146298820498" lon="10.704835547785567"><ele>339.40000000000003</ele><time>2026-04-11T15:23:30Z</time></trkpt><trkpt lat="43.91142493787291" lon="10.704942274498082"><ele>346.8</ele><time>2026-04-11T15:23:31Z</time></trkpt><trkpt lat="43.911407088422024" lon="10.70512780725117"><ele>354.2</ele><time>2026-04-11T15:23:33Z</time></trkpt><trkpt lat="43.91142741982795" lon="10.70525054752733"><ele>361.6</ele><time>2026-04-11T15:23:34Z</time></trkpt><trkpt lat="43.91147970278391" lon="10.705404439758427"><ele>369.0</ele><time>2026-04-11T15:23:35Z</time></trkpt><trkpt lat="43.911552788758044" lon="10.705496388282207"><ele>370.8333333333333</ele><time>2026-04-11T15:23:36Z</time></trkpt><trkpt lat="43.911545356802854" lon="10.705644294312098"><ele>372.6666666666667</ele><time>2026-04-11T15:23:38Z</time></trkpt><trkpt lat="43.91149548295127" lon="10.70572524231241"><ele>374.5</ele><time>2026-04-11T15:23:39Z</time></trkpt><trkpt lat="43.91148851510477" lon="10.70583744093123"><ele>376.33333333333337</ele><time>2026-04-11T15:23:41Z</time></trkpt><trkpt lat="43.91157427129628" lon="10.705878846976509"><ele>378.1666666666667</ele><time>2026-04-11T15:23:44Z</time></trkpt><trkpt lat="43.91165813093333" lon="10.705895219072326"><ele>380.0</ele><time>2026-04-11T15:23:46Z</time></trkpt><trkpt lat="43.911722132502675" lon="10.706022007533258"><ele>382.0</ele><time>2026-04-11T15:23:48Z</time></trkpt><trkpt lat="43.91171087243041" lon="10.706189366551586"><ele>384.0</ele><time>2026-04-11T15:23:50Z</time></trkpt><trkpt lat="43.9117099754495" lon="10.706323200799888"><ele>386.0</ele><time>2026-04-11T15:23:51Z</time></trkpt><trkpt lat="43.91172545950806" lon="10.706450639987303"><ele>388.0</ele><time>2026-04-11T15:23:52Z</time></trkpt><trkpt lat="43.911748787376666" lon="10.706599305844996"><ele>390.0</ele><time>2026-04-11T15:23:53Z</time></trkpt><trkpt lat="43.91177451178916" lon="10.70672194660142"><ele>389.0</ele><time>2026-04-11T15:23:54Z</time></trkpt><trkpt lat="43.91179574174083" lon="10.706833383247423"><ele>388.0</ele><time>2026-04-11T15:23:55Z</time></trkpt><trkpt lat="43.91185612337691" lon="10.70689409372744"><ele>387.0</ele><time>2026-04-11T15:23:56Z</time></trkpt><trkpt lat="43.911937573057614" lon="10.706891703971298"><ele>386.0</ele><time>2026-04-11T15:23:57Z</time></trkpt><trkpt lat="43.912012176455896" lon="10.706923439953965"><ele>385.0</ele><time>2026-04-11T15:23:58Z</time></trkpt><trkpt lat="43.91211624662863" lon="10.706976905897895"><ele>384.0</ele><time>2026-04-11T15:23:59Z</time></trkpt><trkpt lat="43.91218495886517" lon="10.707011607569502"><ele>384.0</ele><time>2026-04-11T15:24:00Z</time></trkpt><trkpt lat="43.91225945344535" lon="10.707072481627565"><ele>384.0</ele><time>2026-04-11T15:24:01Z</time></trkpt><trkpt lat="43.91231009863499" lon="10.707139510585089"><ele>384.0</ele><time>2026-04-11T15:24:02Z</time></trkpt><trkpt lat="43.9123626379288" lon="10.707211426256421"><ele>384.0</ele><time>2026-04-11T15:24:03Z</time></trkpt><trkpt lat="43.91237114039693" lon="10.707342991031561"><ele>384.0</ele><time>2026-04-11T15:24:05Z</time></trkpt><trkpt lat="43.91229685050187" lon="10.707477021361052"><ele>384.0</ele><time>2026-04-11T15:24:07Z</time></trkpt><trkpt lat="43.91220496804113" lon="10.707622789955762"><ele>384.0</ele><time>2026-04-11T15:24:09Z</time></trkpt><trkpt lat="43.912173565228414" lon="10.7077420535577"><ele>384.0</ele><time>2026-04-11T15:24:11Z</time></trkpt><trkpt lat="43.91223659257444" lon="10.707741833186384"><ele>384.0</ele><time>2026-04-11T15:24:12Z</time></trkpt><trkpt lat="43.91231840958188" lon="10.707747159082"><ele>384.0</ele><time>2026-04-11T15:24:13Z</time></trkpt><trkpt lat="43.9124234820264" lon="10.70782524379024"><ele>384.0</ele><time>2026-04-11T15:24:15Z</time></trkpt><trkpt lat="43.9124963704266" lon="10.707837056717104"><ele>384.0</ele><time>2026-04-11T15:24:16Z</time></trkpt><trkpt lat="43.91255154736936" lon="10.707880823698257"><ele>379.6</ele><time>2026-04-11T15:24:17Z</time></trkpt><trkpt lat="43.91260232677448" lon="10.707953546740173"><ele>375.2</ele><time>2026-04-11T15:24:18Z</time></trkpt><trkpt lat="43.912641525483664" lon="10.70806353671672"><ele>370.8</ele><time>2026-04-11T15:24:19Z</time></trkpt><trkpt lat="43.91262462555981" lon="10.708235633858664"><ele>366.40000000000003</ele><time>2026-04-11T15:24:20Z</time></trkpt><trkpt lat="43.912663410884285" lon="10.708330983550102"><ele>362.0</ele><time>2026-04-11T15:24:21Z</time></trkpt><trkpt lat="43.91269607586581" lon="10.70843888164742"><ele>362.0</ele><time>2026-04-11T15:24:22Z</time></trkpt><trkpt lat="43.91272645130645" lon="10.708552211762672"><ele>362.0</ele><time>2026-04-11T15:24:23Z</time></trkpt><trkpt lat="43.912743305801335" lon="10.708669669301816"><ele>362.0</ele><time>2026-04-11T15:24:24Z</time></trkpt><trkpt lat="43.91275742121687" lon="10.708778580524582"><ele>362.0</ele><time>2026-04-11T15:24:25Z</time></trkpt><trkpt lat="43.912751617276605" lon="10.708947882109603"><ele>362.0</ele><time>2026-04-11T15:24:26Z</time></trkpt><trkpt lat="43.91274045995758" lon="10.70912314622411"><ele>362.33333333333337</ele><time>2026-04-11T15:24:27Z</time></trkpt><trkpt lat="43.912709419426164" lon="10.709262835583495"><ele>362.6666666666667</ele><time>2026-04-11T15:24:28Z</time></trkpt><trkpt lat="43.91266586544045" lon="10.709341015906617"><ele>363.0</ele><time>2026-04-11T15:24:30Z</time></trkpt><trkpt lat="43.912614810811995" lon="10.709471882631467"><ele>363.3333333333333</ele><time>2026-04-11T15:24:32Z</time></trkpt><trkpt lat="43.91258208007745" lon="10.70955852576551"><ele>363.66666666666663</ele><time>2026-04-11T15:24:33Z</time></trkpt><trkpt lat="43.912565036739885" lon="10.709666826817287"><ele>364.0</ele><time>2026-04-11T15:24:34Z</time></trkpt><trkpt lat="43.91253921261892" lon="10.709775391888488"><ele>372.0</ele><time>2026-04-11T15:24:35Z</time></trkpt><trkpt lat="43.91253119084183" lon="10.709922445670937"><ele>380.0</ele><time>2026-04-11T15:24:36Z</time></trkpt><trkpt lat="43.91251592082916" lon="10.710060861955043"><ele>388.0</ele><time>2026-04-11T15:24:37Z</time></trkpt><trkpt lat="43.912505744384525" lon="10.710178330698678"><ele>396.0</ele><time>2026-04-11T15:24:38Z</time></trkpt><trkpt lat="43.91247808538626" lon="10.710286980698429"><ele>404.0</ele><time>2026-04-11T15:24:39Z</time></trkpt><trkpt lat="43.91242701204511" lon="10.710376716249591"><ele>404.2</ele><time>2026-04-11T15:24:40Z</time></trkpt><trkpt lat="43.9124539337031" lon="10.71053468499172"><ele>404.4</ele><time>2026-04-11T15:24:42Z</time></trkpt><trkpt lat="43.912457507570565" lon="10.710658623275464"><ele>404.6</ele><time>2026-04-11T15:24:43Z</time></trkpt><trkpt lat="43.91250930518207" lon="10.710793303100573"><ele>404.8</ele><time>2026-04-11T15:24:44Z</time></trkpt><trkpt lat="43.91256961465438" lon="10.710916809831241"><ele>405.0</ele><time>2026-04-11T15:24:45Z</time></trkpt><trkpt lat="43.912601384338025" lon="10.711043526343857"><ele>400.25</ele><time>2026-04-11T15:24:46Z</time></trkpt><trkpt lat="43.91266782253512" lon="10.711199699360986"><ele>395.5</ele><time>2026-04-11T15:24:47Z</time></trkpt><trkpt lat="43.912729256632005" lon="10.711338689247004"><ele>390.75</ele><time>2026-04-11T15:24:48Z</time></trkpt><trkpt lat="43.912798468363285" lon="10.711455576196947"><ele>386.0</ele><time>2026-04-11T15:24:49Z</time></trkpt><trkpt lat="43.91284830344336" lon="10.711592437110731"><ele>386.0</ele><time>2026-04-11T15:24:50Z</time></trkpt><trkpt lat="43.91290125462712" lon="10.711688086650863"><ele>386.0</ele><time>2026-04-11T15:24:51Z</time></trkpt><trkpt lat="43.91297835765284" lon="10.711828414009874"><ele>386.0</ele><time>2026-04-11T15:24:53Z</time></trkpt><trkpt lat="43.91289606669823" lon="10.712042819597071"><ele>386.0</ele><time>2026-04-11T15:24:55Z</time></trkpt><trkpt lat="43.912900461111356" lon="10.712136624584453"><ele>387.8</ele><time>2026-04-11T15:24:56Z</time></trkpt><trkpt lat="43.912936357205574" lon="10.7122707673357"><ele>389.6</ele><time>2026-04-11T15:24:57Z</time></trkpt><trkpt lat="43.912985460834086" lon="10.712385771552997"><ele>391.4</ele><time>2026-04-11T15:24:58Z</time></trkpt><trkpt lat="43.9129934599895" lon="10.712537102487158"><ele>393.2</ele><time>2026-04-11T15:24:59Z</time></trkpt><trkpt lat="43.913000090312174" lon="10.71268423796799"><ele>395.0</ele><time>2026-04-11T15:25:00Z</time></trkpt><trkpt lat="43.913000328378835" lon="10.712805198325126"><ele>394.99999999999994</ele><time>2026-04-11T15:25:01Z</time></trkpt><trkpt lat="43.91304472605924" lon="10.712930460740127"><ele>395.0</ele><time>2026-04-11T15:25:02Z</time></trkpt><trkpt lat="43.913064317142606" lon="10.713042218716177"><ele>395.0</ele><time>2026-04-11T15:25:03Z</time></trkpt><trkpt lat="43.913066532733204" lon="10.713164450343232"><ele>395.0</ele><time>2026-04-11T15:25:04Z</time></trkpt><trkpt lat="43.91305590388419" lon="10.713296689515255"><ele>394.99999999999994</ele><time>2026-04-11T15:25:05Z</time></trkpt><trkpt lat="43.91303853463918" lon="10.71340075922534"><ele>395.0</ele><time>2026-04-11T15:25:06Z</time></trkpt><trkpt lat="43.91294535477517" lon="10.713478845023948"><ele>394.99999999999994</ele><time>2026-04-11T15:25:08Z</time></trkpt><trkpt lat="43.912862412932625" lon="10.713516400301303"><ele>395.0</ele><time>2026-04-11T15:25:09Z</time></trkpt><trkpt lat="43.912791855864256" lon="10.713571266749888"><ele>395.0</ele><time>2026-04-11T15:25:10Z</time></trkpt><trkpt lat="43.912722377435536" lon="10.71362079229322"><ele>395.0</ele><time>2026-04-11T15:25:11Z</time></trkpt><trkpt lat="43.91263692303316" lon="10.713682078335074"><ele>394.99999999999994</ele><time>2026-04-11T15:25:12Z</time></trkpt><trkpt lat="43.91268825705204" lon="10.713774311681115"><ele>395.0</ele><time>2026-04-11T15:25:15Z</time></trkpt><trkpt lat="43.91274211981428" lon="10.713826266355413"><ele>395.8</ele><time>2026-04-11T15:25:16Z</time></trkpt><trkpt lat="43.912791270402764" lon="10.713939592151297"><ele>396.6</ele><time>2026-04-11T15:25:18Z</time></trkpt><trkpt lat="43.91282431344407" lon="10.714079738063207"><ele>397.4</ele><time>2026-04-11T15:25:20Z</time></trkpt><trkpt lat="43.91283654836835" lon="10.714265330419181"><ele>398.2</ele><time>2026-04-11T15:25:22Z</time></trkpt><trkpt lat="43.91280426555764" lon="10.714383530802468"><ele>399.0</ele><time>2026-04-11T15:25:23Z</time></trkpt><trkpt lat="43.91278056779454" lon="10.714484062708134"><ele>400.5</ele><time>2026-04-11T15:25:24Z</time></trkpt><trkpt lat="43.91275964320309" lon="10.714589007455707"><ele>402.0</ele><time>2026-04-11T15:25:25Z</time></trkpt><trkpt lat="43.91271847841167" lon="10.714681478553288"><ele>403.5</ele><time>2026-04-11T15:25:26Z</time></trkpt><trkpt lat="43.91261953198092" lon="10.714776908142106"><ele>405.0</ele><time>2026-04-11T15:25:27Z</time></trkpt><trkpt lat="43.9125825230407" lon="10.714878300974005"><ele>406.5</ele><time>2026-04-11T15:25:28Z</time></trkpt><trkpt lat="43.91256066477375" lon="10.714985392039074"><ele>408.0</ele><time>2026-04-11T15:25:29Z</time></trkpt><trkpt lat="43.91256244629245" lon="10.715093379567845"><ele>409.8333333333333</ele><time>2026-04-11T15:25:30Z</time></trkpt><trkpt lat="43.91253098516286" lon="10.71525218375346"><ele>411.66666666666663</ele><time>2026-04-11T15:25:32Z</time></trkpt><trkpt lat="43.91247763992674" lon="10.715323096675796"><ele>413.5</ele><time>2026-04-11T15:25:33Z</time></trkpt><trkpt lat="43.91240101152418" lon="10.715388756733155"><ele>415.3333333333333</ele><time>2026-04-11T15:25:34Z</time></trkpt><trkpt lat="43.91233915626295" lon="10.715455924504482"><ele>417.16666666666663</ele><time>2026-04-11T15:25:35Z</time></trkpt><trkpt lat="43.91226772197904" lon="10.715522715461747"><ele>419.0</ele><time>2026-04-11T15:25:37Z</time></trkpt><trkpt lat="43.912256379786626" lon="10.715676710931392"><ele>419.0</ele><time>2026-04-11T15:25:40Z</time></trkpt><trkpt lat="43.9122843011343" lon="10.715789652420193"><ele>419.0</ele><time>2026-04-11T15:25:41Z</time></trkpt><trkpt lat="43.91236370003727" lon="10.715873166345325"><ele>419.0</ele><time>2026-04-11T15:25:42Z</time></trkpt><trkpt lat="43.91246679086999" lon="10.715947779075728"><ele>419.0</ele><time>2026-04-11T15:25:43Z</time></trkpt><trkpt lat="43.91255384128684" lon="10.716052438039961"><ele>419.0</ele><time>2026-04-11T15:25:44Z</time></trkpt><trkpt lat="43.912641614528404" lon="10.716138083157075"><ele>417.5</ele><time>2026-04-11T15:25:45Z</time></trkpt><trkpt lat="43.91273828665523" lon="10.716233732112205"><ele>416.0</ele><time>2026-04-11T15:25:46Z</time></trkpt><trkpt lat="43.91283087856186" lon="10.71634948681159"><ele>414.5</ele><time>2026-04-11T15:25:47Z</time></trkpt><trkpt lat="43.912925210037386" lon="10.7164663120278"><ele>413.0</ele><time>2026-04-11T15:25:48Z</time></trkpt><trkpt lat="43.91302079571661" lon="10.716593419963184"><ele>413.0</ele><time>2026-04-11T15:25:49Z</time></trkpt><trkpt lat="43.91311532350844" lon="10.716726816732198"><ele>413.0</ele><time>2026-04-11T15:25:50Z</time></trkpt><trkpt lat="43.913209311194414" lon="10.716862106430137"><ele>413.0</ele><time>2026-04-11T15:25:51Z</time></trkpt><trkpt lat="43.91330317248049" lon="10.716984320793163"><ele>413.0</ele><time>2026-04-11T15:25:52Z</time></trkpt><trkpt lat="43.91339350383395" lon="10.71708687811389"><ele>415.79999999999995</ele><time>2026-04-11T15:25:53Z</time></trkpt><trkpt lat="43.913467314270434" lon="10.71719904542809"><ele>418.6</ele><time>2026-04-11T15:25:54Z</time></trkpt><trkpt lat="43.913524958708926" lon="10.717310698062391"><ele>421.40000000000003</ele><time>2026-04-11T15:25:55Z</time></trkpt><trkpt lat="43.91357492459685" lon="10.717447167025142"><ele>424.20000000000005</ele><time>2026-04-11T15:25:56Z</time></trkpt><trkpt lat="43.91363273473252" lon="10.717548892019492"><ele>427.0</ele><time>2026-04-11T15:25:57Z</time></trkpt><trkpt lat="43.91371003352291" lon="10.717641962569799"><ele>427.0</ele><time>2026-04-11T15:25:58Z</time></trkpt><trkpt lat="43.91380041340666" lon="10.717732388276502"><ele>427.00000000000006</ele><time>2026-04-11T15:25:59Z</time></trkpt><trkpt lat="43.913895226718" lon="10.717791529101792"><ele>427.00000000000006</ele><time>2026-04-11T15:26:00Z</time></trkpt><trkpt lat="43.913964840922645" lon="10.717858370894144"><ele>427.0</ele><time>2026-04-11T15:26:01Z</time></trkpt><trkpt lat="43.91401549828063" lon="10.717958604302812"><ele>427.0</ele><time>2026-04-11T15:26:02Z</time></trkpt><trkpt lat="43.914053244865485" lon="10.718071463947588"><ele>425.83333333333337</ele><time>2026-04-11T15:26:03Z</time></trkpt><trkpt lat="43.9140475203129" lon="10.718229579815072"><ele>424.6666666666667</ele><time>2026-04-11T15:26:04Z</time></trkpt><trkpt lat="43.91404522459787" lon="10.718354032025703"><ele>423.5</ele><time>2026-04-11T15:26:05Z</time></trkpt><trkpt lat="43.914065562791784" lon="10.718442182342917"><ele>422.33333333333337</ele><time>2026-04-11T15:26:06Z</time></trkpt><trkpt lat="43.914106001787765" lon="10.71851168411626"><ele>421.1666666666667</ele><time>2026-04-11T15:26:07Z</time></trkpt><trkpt lat="43.91417228939477" lon="10.718585663725099"><ele>420.0</ele><time>2026-04-11T15:26:08Z</time></trkpt><trkpt lat="43.9142593759227" lon="10.71859925660411"><ele>419.5</ele><time>2026-04-11T15:26:09Z</time></trkpt><trkpt lat="43.91432805625426" lon="10.71855556922101"><ele>419.0</ele><time>2026-04-11T15:26:52Z</time></trkpt><trkpt lat="43.91420935645178" lon="10.718522142717507"><ele>418.5</ele><time>2026-04-11T15:26:58Z</time></trkpt><trkpt lat="43.91412560875763" lon="10.718453921256447"><ele>418.0</ele><time>2026-04-11T15:26:59Z</time></trkpt><trkpt lat="43.914071225748486" lon="10.718383331341109"><ele>417.5</ele><time>2026-04-11T15:27:00Z</time></trkpt><trkpt lat="43.91401075028411" lon="10.718315076938977"><ele>417.0</ele><time>2026-04-11T15:27:01Z</time></trkpt><trkpt lat="43.91398572942635" lon="10.71823400717907"><ele>417.0</ele><time>2026-04-11T15:27:02Z</time></trkpt><trkpt lat="43.91397871952073" lon="10.718072033043951"><ele>417.0</ele><time>2026-04-11T15:27:03Z</time></trkpt><trkpt lat="43.9139677380785" lon="10.71794810433002"><ele>417.0</ele><time>2026-04-11T15:27:04Z</time></trkpt><trkpt lat="43.9139649835951" lon="10.717829270222845"><ele>417.0</ele><time>2026-04-11T15:27:05Z</time></trkpt><trkpt lat="43.91395193276352" lon="10.717732677952672"><ele>417.0</ele><time>2026-04-11T15:27:06Z</time></trkpt><trkpt lat="43.913904575274415" lon="10.717631831556353"><ele>419.0</ele><time>2026-04-11T15:27:07Z</time></trkpt><trkpt lat="43.91382143920163" lon="10.717574303284216"><ele>421.0</ele><time>2026-04-11T15:27:08Z</time></trkpt><trkpt lat="43.91370320892746" lon="10.717525306717217"><ele>423.00000000000006</ele><time>2026-04-11T15:27:09Z</time></trkpt><trkpt lat="43.91362914851252" lon="10.717467566854689"><ele>425.0</ele><time>2026-04-11T15:27:10Z</time></trkpt><trkpt lat="43.91355510585834" lon="10.717406830514092"><ele>427.0</ele><time>2026-04-11T15:27:11Z</time></trkpt><trkpt lat="43.91350613504991" lon="10.717304741766624"><ele>427.0</ele><time>2026-04-11T15:27:12Z</time></trkpt><trkpt lat="43.913448348755374" lon="10.717197717509457"><ele>427.00000000000006</ele><time>2026-04-11T15:27:13Z</time></trkpt><trkpt lat="43.913426096543446" lon="10.717061871832614"><ele>427.00000000000006</ele><time>2026-04-11T15:27:14Z</time></trkpt><trkpt lat="43.913353896218815" lon="10.716961908139307"><ele>427.0</ele><time>2026-04-11T15:27:15Z</time></trkpt><trkpt lat="43.91327875456231" lon="10.716860469811545"><ele>427.0</ele><time>2026-04-11T15:27:16Z</time></trkpt><trkpt lat="43.91318810979181" lon="10.716751555532644"><ele>423.5</ele><time>2026-04-11T15:27:17Z</time></trkpt><trkpt lat="43.91309892758278" lon="10.716639983723821"><ele>420.0</ele><time>2026-04-11T15:27:18Z</time></trkpt><trkpt lat="43.913014967645964" lon="10.716523559814759"><ele>416.5</ele><time>2026-04-11T15:27:19Z</time></trkpt><trkpt lat="43.91291068637508" lon="10.716420072659465"><ele>413.0</ele><time>2026-04-11T15:27:20Z</time></trkpt><trkpt lat="43.912831510317844" lon="10.716299971259373"><ele>413.0</ele><time>2026-04-11T15:27:21Z</time></trkpt><trkpt lat="43.91274967879245" lon="10.716200433159223"><ele>413.0</ele><time>2026-04-11T15:27:22Z</time></trkpt><trkpt lat="43.91267395497046" lon="10.716102637762384"><ele>413.0</ele><time>2026-04-11T15:27:23Z</time></trkpt><trkpt lat="43.91258974832632" lon="10.716027569889501"><ele>413.0</ele><time>2026-04-11T15:27:24Z</time></trkpt><trkpt lat="43.91251286136035" lon="10.715953485380924"><ele>413.0</ele><time>2026-04-11T15:27:25Z</time></trkpt><trkpt lat="43.912474248084" lon="10.715874591872158"><ele>412.16666666666663</ele><time>2026-04-11T15:27:26Z</time></trkpt><trkpt lat="43.912391462267585" lon="10.715799568443911"><ele>411.3333333333333</ele><time>2026-04-11T15:27:28Z</time></trkpt><trkpt lat="43.91232466192132" lon="10.715813728710453"><ele>410.5</ele><time>2026-04-11T15:28:29Z</time></trkpt><trkpt lat="43.91230267607462" lon="10.715902744667595"><ele>409.66666666666663</ele><time>2026-04-11T15:28:32Z</time></trkpt><trkpt lat="43.912256575558324" lon="10.715971564867747"><ele>408.8333333333333</ele><time>2026-04-11T15:28:34Z</time></trkpt><trkpt lat="43.91218794106896" lon="10.716065835067676"><ele>408.0</ele><time>2026-04-11T15:28:37Z</time></trkpt><trkpt lat="43.912155374007526" lon="10.716143972636011"><ele>408.0</ele><time>2026-04-11T15:28:41Z</time></trkpt><trkpt lat="43.91210356987408" lon="10.71623432939737"><ele>408.0</ele><time>2026-04-11T15:28:50Z</time></trkpt><trkpt lat="43.91207666797313" lon="10.71635102584926"><ele>408.0</ele><time>2026-04-11T15:29:29Z</time></trkpt><trkpt lat="43.91202995667743" lon="10.716446420526124"><ele>408.0</ele><time>2026-04-11T15:29:31Z</time></trkpt><trkpt lat="43.91197693928781" lon="10.716548140371764"><ele>408.0</ele><time>2026-04-11T15:29:33Z</time></trkpt><trkpt lat="43.91190540305025" lon="10.716693128389638"><ele>408.0</ele><time>2026-04-11T15:29:35Z</time></trkpt><trkpt lat="43.91184024273641" lon="10.716797548754666"><ele>408.0</ele><time>2026-04-11T15:29:37Z</time></trkpt><trkpt lat="43.91182246679455" lon="10.716883544768091"><ele>408.0</ele><time>2026-04-11T15:29:39Z</time></trkpt><trkpt lat="43.91176888860439" lon="10.716948235963802"><ele>408.0</ele><time>2026-04-11T15:29:41Z</time></trkpt><trkpt lat="43.91171265314184" lon="10.717005520555224"><ele>408.0</ele><time>2026-04-11T15:29:44Z</time></trkpt><trkpt lat="43.911776270108085" lon="10.717054913244544"><ele>408.0</ele><time>2026-04-11T15:30:21Z</time></trkpt><trkpt lat="43.911871690560204" lon="10.716986544756406"><ele>408.0</ele><time>2026-04-11T15:30:23Z</time></trkpt><trkpt lat="43.911967080892474" lon="10.716923522530175"><ele>408.0</ele><time>2026-04-11T15:30:25Z</time></trkpt><trkpt lat="43.91201762996111" lon="10.716847484759707"><ele>408.0</ele><time>2026-04-11T15:30:26Z</time></trkpt><trkpt lat="43.912109113502936" lon="10.716785525658114"><ele>408.0</ele><time>2026-04-11T15:30:28Z</time></trkpt><trkpt lat="43.9121969855155" lon="10.716823200134563"><ele>408.0</ele><time>2026-04-11T15:30:30Z</time></trkpt><trkpt lat="43.912242264678426" lon="10.71700330688797"><ele>403.59999999999997</ele><time>2026-04-11T15:30:32Z</time></trkpt><trkpt lat="43.91226095357794" lon="10.717106803654948"><ele>399.2</ele><time>2026-04-11T15:30:33Z</time></trkpt><trkpt lat="43.9122767074092" lon="10.717201724945236"><ele>394.8</ele><time>2026-04-11T15:30:34Z</time></trkpt><trkpt lat="43.912304355644174" lon="10.717342872747418"><ele>390.4</ele><time>2026-04-11T15:30:36Z</time></trkpt><trkpt lat="43.91233389870699" lon="10.717486051108528"><ele>386.0</ele><time>2026-04-11T15:30:38Z</time></trkpt><trkpt lat="43.912423078751424" lon="10.717602421396283"><ele>385.99999999999994</ele><time>2026-04-11T15:30:40Z</time></trkpt><trkpt lat="43.91249059412767" lon="10.717652392099676"><ele>386.0</ele><time>2026-04-11T15:30:41Z</time></trkpt><trkpt lat="43.91254741746814" lon="10.717694172292338"><ele>386.0</ele><time>2026-04-11T15:30:42Z</time></trkpt><trkpt lat="43.91261092837325" lon="10.71770646890387"><ele>386.0</ele><time>2026-04-11T15:30:43Z</time></trkpt><trkpt lat="43.912731224392836" lon="10.717734373345628"><ele>385.99999999999994</ele><time>2026-04-11T15:30:45Z</time></trkpt><trkpt lat="43.91278482672853" lon="10.717799286333365"><ele>386.0</ele><time>2026-04-11T15:30:46Z</time></trkpt><trkpt lat="43.91278828931134" lon="10.717946656744846"><ele>387.6</ele><time>2026-04-11T15:30:48Z</time></trkpt><trkpt lat="43.912711030269335" lon="10.71801371405311"><ele>389.20000000000005</ele><time>2026-04-11T15:30:49Z</time></trkpt><trkpt lat="43.91265429839988" lon="10.718134717164038"><ele>390.79999999999995</ele><time>2026-04-11T15:30:51Z</time></trkpt><trkpt lat="43.91269579719851" lon="10.718278684872043"><ele>392.4</ele><time>2026-04-11T15:30:53Z</time></trkpt><trkpt lat="43.9127232954809" lon="10.718389067632241"><ele>394.0</ele><time>2026-04-11T15:30:54Z</time></trkpt><trkpt lat="43.912772813526374" lon="10.718450806864372"><ele>394.00000000000006</ele><time>2026-04-11T15:30:55Z</time></trkpt><trkpt lat="43.91287366370836" lon="10.718530418585198"><ele>394.0</ele><time>2026-04-11T15:30:57Z</time></trkpt><trkpt lat="43.912940215961264" lon="10.718528659630493"><ele>394.0</ele><time>2026-04-11T15:30:58Z</time></trkpt><trkpt lat="43.91300103509437" lon="10.718505485578135"><ele>394.0</ele><time>2026-04-11T15:30:59Z</time></trkpt><trkpt lat="43.91307298664073" lon="10.718457639517187"><ele>394.00000000000006</ele><time>2026-04-11T15:31:00Z</time></trkpt><trkpt lat="43.91314015604903" lon="10.718421628909026"><ele>394.0</ele><time>2026-04-11T15:31:01Z</time></trkpt><trkpt lat="43.91320751650678" lon="10.718397789133444"><ele>394.0</ele><time>2026-04-11T15:31:02Z</time></trkpt><trkpt lat="43.913301410216135" lon="10.718430491173164"><ele>394.0</ele><time>2026-04-11T15:31:04Z</time></trkpt><trkpt lat="43.91331497039783" lon="10.718589348484462"><ele>394.0</ele><time>2026-04-11T15:31:06Z</time></trkpt><trkpt lat="43.9132602002898" lon="10.718790821613746"><ele>394.0</ele><time>2026-04-11T15:31:08Z</time></trkpt><trkpt lat="43.91327069465672" lon="10.718880486053695"><ele>394.0</ele><time>2026-04-11T15:31:09Z</time></trkpt><trkpt lat="43.91331942560037" lon="10.718941002987842"><ele>394.6666666666667</ele><time>2026-04-11T15:31:10Z</time></trkpt><trkpt lat="43.91337176953348" lon="10.71901502478648"><ele>395.33333333333337</ele><time>2026-04-11T15:31:11Z</time></trkpt><trkpt lat="43.9134321848595" lon="10.719069874522631"><ele>396.0</ele><time>2026-04-11T15:31:12Z</time></trkpt><trkpt lat="43.91350315346467" lon="10.719142354465216"><ele>396.66666666666663</ele><time>2026-04-11T15:31:13Z</time></trkpt><trkpt lat="43.91356912964706" lon="10.719221739169104"><ele>397.3333333333333</ele><time>2026-04-11T15:31:14Z</time></trkpt><trkpt lat="43.9136289749565" lon="10.719289255885412"><ele>398.0</ele><time>2026-04-11T15:31:15Z</time></trkpt><trkpt lat="43.91368980339769" lon="10.719365974872973"><ele>397.16666666666663</ele><time>2026-04-11T15:31:16Z</time></trkpt><trkpt lat="43.913760587751234" lon="10.719440720834186"><ele>396.3333333333333</ele><time>2026-04-11T15:31:17Z</time></trkpt><trkpt lat="43.91382746749401" lon="10.719496522178945"><ele>395.5</ele><time>2026-04-11T15:31:18Z</time></trkpt><trkpt lat="43.91389279400919" lon="10.719568219535372"><ele>394.66666666666663</ele><time>2026-04-11T15:31:19Z</time></trkpt><trkpt lat="43.91395399221561" lon="10.719534659269868"><ele>393.8333333333333</ele><time>2026-04-11T15:31:20Z</time></trkpt><trkpt lat="43.914052715183416" lon="10.719549028639877"><ele>393.0</ele><time>2026-04-11T15:31:22Z</time></trkpt><trkpt lat="43.914088800100814" lon="10.719638025621528"><ele>393.0</ele><time>2026-04-11T15:31:26Z</time></trkpt><trkpt lat="43.91417024392293" lon="10.719730601488733"><ele>393.0</ele><time>2026-04-11T15:31:28Z</time></trkpt><trkpt lat="43.914229693720216" lon="10.719830994856817"><ele>393.0</ele><time>2026-04-11T15:31:29Z</time></trkpt><trkpt lat="43.91422796929067" lon="10.719956196178305"><ele>393.0</ele><time>2026-04-11T15:31:30Z</time></trkpt><trkpt lat="43.91428751618932" lon="10.72002518690256"><ele>393.0</ele><time>2026-04-11T15:31:31Z</time></trkpt><trkpt lat="43.91429657320299" lon="10.720136441844076"><ele>393.0</ele><time>2026-04-11T15:31:33Z</time></trkpt><trkpt lat="43.914166880667985" lon="10.72012883487258"><ele>393.0</ele><time>2026-04-11T15:31:35Z</time></trkpt><trkpt lat="43.914072805320984" lon="10.720169347039118"><ele>393.0</ele><time>2026-04-11T15:31:36Z</time></trkpt><trkpt lat="43.91397419198998" lon="10.720171352157683"><ele>393.0</ele><time>2026-04-11T15:31:37Z</time></trkpt><trkpt lat="43.91389604340749" lon="10.720161589983576"><ele>393.0</ele><time>2026-04-11T15:31:38Z</time></trkpt><trkpt lat="43.91382221969282" lon="10.720144054811279"><ele>393.0</ele><time>2026-04-11T15:31:39Z</time></trkpt><trkpt lat="43.913749378244006" lon="10.720117686525743"><ele>393.0</ele><time>2026-04-11T15:31:40Z</time></trkpt><trkpt lat="43.91369243325697" lon="10.72007429523735"><ele>393.0</ele><time>2026-04-11T15:31:41Z</time></trkpt><trkpt lat="43.913605531305215" lon="10.72002663858767"><ele>393.0</ele><time>2026-04-11T15:31:43Z</time></trkpt><trkpt lat="43.91352957932839" lon="10.719997947528816"><ele>393.0</ele><time>2026-04-11T15:31:45Z</time></trkpt><trkpt lat="43.91345077905607" lon="10.72010306886849"><ele>393.0</ele><time>2026-04-11T15:31:47Z</time></trkpt><trkpt lat="43.91343565210115" lon="10.72024524347504"><ele>393.0</ele><time>2026-04-11T15:31:49Z</time></trkpt><trkpt lat="43.913422902220525" lon="10.720338711292856"><ele>392.4</ele><time>2026-04-11T15:31:50Z</time></trkpt><trkpt lat="43.913419026686526" lon="10.720499538651364"><ele>391.79999999999995</ele><time>2026-04-11T15:31:52Z</time></trkpt><trkpt lat="43.913393096818936" lon="10.720581677510138"><ele>391.2</ele><time>2026-04-11T15:31:53Z</time></trkpt><trkpt lat="43.913339297739604" lon="10.72068329161723"><ele>390.6</ele><time>2026-04-11T15:31:55Z</time></trkpt><trkpt lat="43.91328655906052" lon="10.720568641082158"><ele>390.0</ele><time>2026-04-11T15:31:59Z</time></trkpt><trkpt lat="43.91322818339735" lon="10.720470419130356"><ele>390.0</ele><time>2026-04-11T15:32:00Z</time></trkpt><trkpt lat="43.9131829755883" lon="10.720379890269426"><ele>390.0</ele><time>2026-04-11T15:32:01Z</time></trkpt><trkpt lat="43.91312861534293" lon="10.72029887665861"><ele>390.0</ele><time>2026-04-11T15:32:02Z</time></trkpt><trkpt lat="43.91307094432731" lon="10.720215259958133"><ele>390.0</ele><time>2026-04-11T15:32:03Z</time></trkpt><trkpt lat="43.91300931224883" lon="10.720119609857003"><ele>390.0</ele><time>2026-04-11T15:32:04Z</time></trkpt><trkpt lat="43.91294894923199" lon="10.720086646798725"><ele>390.0</ele><time>2026-04-11T15:32:05Z</time></trkpt><trkpt lat="43.9128876308953" lon="10.720027240313163"><ele>388.5</ele><time>2026-04-11T15:32:06Z</time></trkpt><trkpt lat="43.91278191029594" lon="10.719966770637502"><ele>387.0</ele><time>2026-04-11T15:32:08Z</time></trkpt><trkpt lat="43.91271312317762" lon="10.719986345634679"><ele>385.5</ele><time>2026-04-11T15:32:09Z</time></trkpt><trkpt lat="43.91264144298361" lon="10.71997795314212"><ele>384.0</ele><time>2026-04-11T15:32:10Z</time></trkpt><trkpt lat="43.91257587648138" lon="10.719991043325358"><ele>382.5</ele><time>2026-04-11T15:32:11Z</time></trkpt><trkpt lat="43.912518697490945" lon="10.720031289203817"><ele>381.0</ele><time>2026-04-11T15:32:12Z</time></trkpt><trkpt lat="43.91241528017724" lon="10.720094183858212"><ele>382.0</ele><time>2026-04-11T15:32:14Z</time></trkpt><trkpt lat="43.912327923438866" lon="10.720171075160277"><ele>383.0</ele><time>2026-04-11T15:32:16Z</time></trkpt><trkpt lat="43.91222677521064" lon="10.720292929131068"><ele>384.0</ele><time>2026-04-11T15:32:18Z</time></trkpt><trkpt lat="43.91216869626698" lon="10.720337209813787"><ele>385.0</ele><time>2026-04-11T15:32:19Z</time></trkpt><trkpt lat="43.91210705139688" lon="10.720415054488377"><ele>386.0</ele><time>2026-04-11T15:32:20Z</time></trkpt><trkpt lat="43.912079248389354" lon="10.720533876652619"><ele>386.0</ele><time>2026-04-11T15:32:21Z</time></trkpt><trkpt lat="43.91203903464839" lon="10.72065572320583"><ele>386.0</ele><time>2026-04-11T15:32:22Z</time></trkpt><trkpt lat="43.911986883347296" lon="10.720719046621523"><ele>386.0</ele><time>2026-04-11T15:32:23Z</time></trkpt><trkpt lat="43.91187516544985" lon="10.72080699292973"><ele>386.0</ele><time>2026-04-11T15:32:25Z</time></trkpt><trkpt lat="43.911808435638505" lon="10.720884576335635"><ele>386.0</ele><time>2026-04-11T15:32:26Z</time></trkpt><trkpt lat="43.9117402324722" lon="10.720936775264857"><ele>385.16666666666663</ele><time>2026-04-11T15:32:27Z</time></trkpt><trkpt lat="43.911687886632876" lon="10.721009059789157"><ele>384.3333333333333</ele><time>2026-04-11T15:32:28Z</time></trkpt><trkpt lat="43.91165550550624" lon="10.721121357333757"><ele>383.5</ele><time>2026-04-11T15:32:30Z</time></trkpt><trkpt lat="43.911637072138056" lon="10.72121389399092"><ele>382.66666666666663</ele><time>2026-04-11T15:32:34Z</time></trkpt><trkpt lat="43.91155194542517" lon="10.72127976998458"><ele>381.8333333333333</ele><time>2026-04-11T15:32:36Z</time></trkpt><trkpt lat="43.911473627244376" lon="10.721374696109587"><ele>381.0</ele><time>2026-04-11T15:32:37Z</time></trkpt><trkpt lat="43.91140427230339" lon="10.721429958815337"><ele>381.0</ele><time>2026-04-11T15:32:38Z</time></trkpt><trkpt lat="43.91133042025698" lon="10.721485579395713"><ele>381.0</ele><time>2026-04-11T15:32:39Z</time></trkpt><trkpt lat="43.91126930732115" lon="10.721552720761363"><ele>381.0</ele><time>2026-04-11T15:32:40Z</time></trkpt><trkpt lat="43.91120362149382" lon="10.721611894027573"><ele>381.0</ele><time>2026-04-11T15:32:41Z</time></trkpt><trkpt lat="43.91116520704259" lon="10.72169399881022"><ele>381.0</ele><time>2026-04-11T15:32:42Z</time></trkpt><trkpt lat="43.91112455651304" lon="10.721777124618985"><ele>381.0</ele><time>2026-04-11T15:32:43Z</time></trkpt><trkpt lat="43.911121676350135" lon="10.721874656248131"><ele>381.6666666666667</ele><time>2026-04-11T15:32:44Z</time></trkpt><trkpt lat="43.91112775522071" lon="10.721986678646958"><ele>382.33333333333337</ele><time>2026-04-11T15:32:45Z</time></trkpt><trkpt lat="43.91113755026054" lon="10.722082349375684"><ele>383.0</ele><time>2026-04-11T15:32:46Z</time></trkpt><trkpt lat="43.91114300760002" lon="10.722191190338402"><ele>383.6666666666667</ele><time>2026-04-11T15:32:47Z</time></trkpt><trkpt lat="43.91113776996837" lon="10.722297153728908"><ele>384.33333333333337</ele><time>2026-04-11T15:32:48Z</time></trkpt><trkpt lat="43.911101178692604" lon="10.722395783654823"><ele>385.0</ele><time>2026-04-11T15:32:49Z</time></trkpt><trkpt lat="43.911048582665686" lon="10.722495455958882"><ele>385.00000000000006</ele><time>2026-04-11T15:32:50Z</time></trkpt><trkpt lat="43.911008178686686" lon="10.722596905132825"><ele>385.0</ele><time>2026-04-11T15:32:51Z</time></trkpt><trkpt lat="43.91096278963401" lon="10.722689984981876"><ele>385.0</ele><time>2026-04-11T15:32:52Z</time></trkpt><trkpt lat="43.91091063302413" lon="10.722771937412578"><ele>385.0</ele><time>2026-04-11T15:32:53Z</time></trkpt><trkpt lat="43.91085727684862" lon="10.722828234258392"><ele>385.00000000000006</ele><time>2026-04-11T15:32:54Z</time></trkpt><trkpt lat="43.91077872589193" lon="10.722859836695243"><ele>385.0</ele><time>2026-04-11T15:32:55Z</time></trkpt><trkpt lat="43.91070878637342" lon="10.722896856903931"><ele>380.33333333333337</ele><time>2026-04-11T15:32:56Z</time></trkpt><trkpt lat="43.910634617020925" lon="10.722929856281452"><ele>375.6666666666667</ele><time>2026-04-11T15:32:57Z</time></trkpt><trkpt lat="43.91055843207728" lon="10.722948604849936"><ele>371.0</ele><time>2026-04-11T15:32:58Z</time></trkpt><trkpt lat="43.91048261009582" lon="10.722968249682477"><ele>366.33333333333337</ele><time>2026-04-11T15:32:59Z</time></trkpt><trkpt lat="43.91040873577199" lon="10.722977640637184"><ele>361.6666666666667</ele><time>2026-04-11T15:33:00Z</time></trkpt><trkpt lat="43.910324184947044" lon="10.722973385189045"><ele>357.0</ele><time>2026-04-11T15:33:01Z</time></trkpt><trkpt lat="43.910257313930764" lon="10.722977581440574"><ele>357.0</ele><time>2026-04-11T15:33:02Z</time></trkpt><trkpt lat="43.91018044080026" lon="10.7229832221483"><ele>357.0</ele><time>2026-04-11T15:33:03Z</time></trkpt><trkpt lat="43.91011626293732" lon="10.722993347073773"><ele>357.0</ele><time>2026-04-11T15:33:04Z</time></trkpt><trkpt lat="43.91004133342768" lon="10.723018040695033"><ele>357.0</ele><time>2026-04-11T15:33:05Z</time></trkpt><trkpt lat="43.90997201992459" lon="10.723056693219608"><ele>357.0</ele><time>2026-04-11T15:33:06Z</time></trkpt><trkpt lat="43.90988060314596" lon="10.723194043648382"><ele>357.0</ele><time>2026-04-11T15:33:08Z</time></trkpt><trkpt lat="43.90987794271769" lon="10.723344640323507"><ele>357.0</ele><time>2026-04-11T15:33:10Z</time></trkpt><trkpt lat="43.90997159000575" lon="10.723434478341163"><ele>357.0</ele><time>2026-04-11T15:33:12Z</time></trkpt><trkpt lat="43.910041552905206" lon="10.723469240998531"><ele>357.0</ele><time>2026-04-11T15:33:13Z</time></trkpt><trkpt lat="43.910108100862175" lon="10.723491457296598"><ele>357.0</ele><time>2026-04-11T15:33:14Z</time></trkpt><trkpt lat="43.91019536224752" lon="10.723583561084133"><ele>357.0</ele><time>2026-04-11T15:33:16Z</time></trkpt><trkpt lat="43.91017879248814" lon="10.723688276555324"><ele>357.0</ele><time>2026-04-11T15:33:17Z</time></trkpt><trkpt lat="43.9101343037642" lon="10.723778751661401"><ele>356.20000000000005</ele><time>2026-04-11T15:33:18Z</time></trkpt><trkpt lat="43.91007718248503" lon="10.723896738493947"><ele>355.4</ele><time>2026-04-11T15:33:19Z</time></trkpt><trkpt lat="43.90999916347198" lon="10.723973826556248"><ele>354.6</ele><time>2026-04-11T15:33:20Z</time></trkpt><trkpt lat="43.90991126088257" lon="10.72402445206637"><ele>353.79999999999995</ele><time>2026-04-11T15:33:21Z</time></trkpt><trkpt lat="43.90983911508593" lon="10.724094327099264"><ele>353.0</ele><time>2026-04-11T15:33:22Z</time></trkpt><trkpt lat="43.909767782374004" lon="10.724161407494437"><ele>349.0</ele><time>2026-04-11T15:33:23Z</time></trkpt><trkpt lat="43.909701360991065" lon="10.724226811972683"><ele>345.0</ele><time>2026-04-11T15:33:24Z</time></trkpt><trkpt lat="43.90967497566718" lon="10.72432018561739"><ele>341.0</ele><time>2026-04-11T15:33:25Z</time></trkpt><trkpt lat="43.90965975641322" lon="10.724406479619518"><ele>337.0</ele><time>2026-04-11T15:33:26Z</time></trkpt><trkpt lat="43.90967857530863" lon="10.724512639874227"><ele>333.0</ele><time>2026-04-11T15:33:27Z</time></trkpt><trkpt lat="43.90970562257905" lon="10.724632841144052"><ele>329.0</ele><time>2026-04-11T15:33:28Z</time></trkpt><trkpt lat="43.90973872126567" lon="10.724743670654787"><ele>327.6666666666667</ele><time>2026-04-11T15:33:29Z</time></trkpt><trkpt lat="43.90976782620635" lon="10.724853886140762"><ele>326.33333333333337</ele><time>2026-04-11T15:33:30Z</time></trkpt><trkpt lat="43.909796640661256" lon="10.724960276816647"><ele>325.0</ele><time>2026-04-11T15:33:31Z</time></trkpt><trkpt lat="43.90981796840871" lon="10.7250688232625"><ele>323.6666666666667</ele><time>2026-04-11T15:33:32Z</time></trkpt><trkpt lat="43.909853607501425" lon="10.725169822800032"><ele>322.3333333333333</ele><time>2026-04-11T15:33:33Z</time></trkpt><trkpt lat="43.90989034519431" lon="10.725249527151442"><ele>321.0</ele><time>2026-04-11T15:33:34Z</time></trkpt><trkpt lat="43.90991259306401" lon="10.725358369837574"><ele>317.0</ele><time>2026-04-11T15:33:36Z</time></trkpt><trkpt lat="43.90978415198634" lon="10.725448452469623"><ele>313.0</ele><time>2026-04-11T15:33:38Z</time></trkpt><trkpt lat="43.90969482814721" lon="10.72549201417155"><ele>309.0</ele><time>2026-04-11T15:33:39Z</time></trkpt><trkpt lat="43.90961480857685" lon="10.725524059828176"><ele>305.0</ele><time>2026-04-11T15:33:40Z</time></trkpt><trkpt lat="43.909530491624196" lon="10.72557744298473"><ele>301.0</ele><time>2026-04-11T15:33:41Z</time></trkpt><trkpt lat="43.90944524326686" lon="10.725629062215772"><ele>301.0</ele><time>2026-04-11T15:33:42Z</time></trkpt><trkpt lat="43.90937647447912" lon="10.725680950571455"><ele>301.0</ele><time>2026-04-11T15:33:43Z</time></trkpt><trkpt lat="43.90930003097188" lon="10.725702862982937"><ele>301.0</ele><time>2026-04-11T15:33:44Z</time></trkpt><trkpt lat="43.909232605391495" lon="10.725749124350246"><ele>301.0</ele><time>2026-04-11T15:33:45Z</time></trkpt><trkpt lat="43.909172143262374" lon="10.725813856865258"><ele>301.0</ele><time>2026-04-11T15:33:46Z</time></trkpt><trkpt lat="43.90917173061249" lon="10.72601516445016"><ele>298.16666666666663</ele><time>2026-04-11T15:33:48Z</time></trkpt><trkpt lat="43.909138141116856" lon="10.726110284641868"><ele>295.3333333333333</ele><time>2026-04-11T15:33:49Z</time></trkpt><trkpt lat="43.90908825887593" lon="10.72618873093856"><ele>292.5</ele><time>2026-04-11T15:33:50Z</time></trkpt><trkpt lat="43.90902035055854" lon="10.72625914379476"><ele>289.6666666666667</ele><time>2026-04-11T15:33:51Z</time></trkpt><trkpt lat="43.90894761451195" lon="10.726314558635899"><ele>286.83333333333337</ele><time>2026-04-11T15:33:52Z</time></trkpt><trkpt lat="43.90887971190656" lon="10.726358568384045"><ele>284.0</ele><time>2026-04-11T15:33:53Z</time></trkpt><trkpt lat="43.908797341761755" lon="10.726390037617573"><ele>284.0</ele><time>2026-04-11T15:33:54Z</time></trkpt><trkpt lat="43.908718150673444" lon="10.726415216556719"><ele>284.0</ele><time>2026-04-11T15:33:55Z</time></trkpt><trkpt lat="43.908640335163085" lon="10.726407071261383"><ele>284.0</ele><time>2026-04-11T15:33:56Z</time></trkpt><trkpt lat="43.90857558658093" lon="10.726392051262234"><ele>284.0</ele><time>2026-04-11T15:33:57Z</time></trkpt><trkpt lat="43.90848555701765" lon="10.726315961782593"><ele>284.0</ele><time>2026-04-11T15:33:59Z</time></trkpt><trkpt lat="43.908531821866504" lon="10.726103040936465"><ele>286.0</ele><time>2026-04-11T15:34:01Z</time></trkpt><trkpt lat="43.908662399884975" lon="10.726001833169809"><ele>288.0</ele><time>2026-04-11T15:34:02Z</time></trkpt><trkpt lat="43.90872082973003" lon="10.72588748129615"><ele>290.0</ele><time>2026-04-11T15:34:03Z</time></trkpt><trkpt lat="43.908775674550334" lon="10.72579525718824"><ele>292.0</ele><time>2026-04-11T15:34:04Z</time></trkpt><trkpt lat="43.90882373655885" lon="10.725701253289913"><ele>294.0</ele><time>2026-04-11T15:34:05Z</time></trkpt><trkpt lat="43.908830740413755" lon="10.725602164988866"><ele>294.0</ele><time>2026-04-11T15:34:06Z</time></trkpt><trkpt lat="43.90882306972674" lon="10.725477614751478"><ele>294.0</ele><time>2026-04-11T15:34:07Z</time></trkpt><trkpt lat="43.90882603031406" lon="10.72535678008364"><ele>294.0</ele><time>2026-04-11T15:34:08Z</time></trkpt><trkpt lat="43.908811041023206" lon="10.725260595495017"><ele>294.0</ele><time>2026-04-11T15:34:09Z</time></trkpt><trkpt lat="43.90869585526316" lon="10.725226840663925"><ele>294.0</ele><time>2026-04-11T15:34:11Z</time></trkpt><trkpt lat="43.908606248460565" lon="10.725259692138295"><ele>294.0</ele><time>2026-04-11T15:34:12Z</time></trkpt><trkpt lat="43.90852568857545" lon="10.7252455786243"><ele>294.0</ele><time>2026-04-11T15:34:13Z</time></trkpt><trkpt lat="43.90845029342473" lon="10.72523313663606"><ele>294.0</ele><time>2026-04-11T15:34:14Z</time></trkpt><trkpt lat="43.90837444642907" lon="10.725200718686702"><ele>294.0</ele><time>2026-04-11T15:34:15Z</time></trkpt><trkpt lat="43.908289341065824" lon="10.725184249584157"><ele>294.0</ele><time>2026-04-11T15:34:16Z</time></trkpt><trkpt lat="43.90822949025159" lon="10.725216536045668"><ele>294.0</ele><time>2026-04-11T15:34:17Z</time></trkpt><trkpt lat="43.90816248174028" lon="10.725270011343833"><ele>290.59999999999997</ele><time>2026-04-11T15:34:18Z</time></trkpt><trkpt lat="43.908108620540716" lon="10.72535241493711"><ele>287.2</ele><time>2026-04-11T15:34:19Z</time></trkpt><trkpt lat="43.908038728485515" lon="10.72548073918498"><ele>283.79999999999995</ele><time>2026-04-11T15:34:20Z</time></trkpt><trkpt lat="43.90794022747813" lon="10.72555219493126"><ele>280.4</ele><time>2026-04-11T15:34:21Z</time></trkpt><trkpt lat="43.90786000703656" lon="10.725624185432565"><ele>277.0</ele><time>2026-04-11T15:34:22Z</time></trkpt><trkpt lat="43.90776679970922" lon="10.725720968857987"><ele>277.0</ele><time>2026-04-11T15:34:23Z</time></trkpt><trkpt lat="43.90766973706992" lon="10.725786082708208"><ele>277.0</ele><time>2026-04-11T15:34:24Z</time></trkpt><trkpt lat="43.907588799465394" lon="10.725851688063296"><ele>277.0</ele><time>2026-04-11T15:34:25Z</time></trkpt><trkpt lat="43.907511259537905" lon="10.725942242681269"><ele>277.0</ele><time>2026-04-11T15:34:26Z</time></trkpt><trkpt lat="43.907439505630514" lon="10.726064486886006"><ele>277.0</ele><time>2026-04-11T15:34:27Z</time></trkpt><trkpt lat="43.90736395544099" lon="10.726173082636759"><ele>271.6</ele><time>2026-04-11T15:34:28Z</time></trkpt><trkpt lat="43.90728927576356" lon="10.726268403208868"><ele>266.2</ele><time>2026-04-11T15:34:29Z</time></trkpt><trkpt lat="43.90721192063188" lon="10.726365856938182"><ele>260.8</ele><time>2026-04-11T15:34:30Z</time></trkpt><trkpt lat="43.90714056448776" lon="10.726456465991527"><ele>255.4</ele><time>2026-04-11T15:34:31Z</time></trkpt><trkpt lat="43.907082844348764" lon="10.726544261236592"><ele>250.0</ele><time>2026-04-11T15:34:32Z</time></trkpt><trkpt lat="43.90703640171213" lon="10.726630561733502"><ele>250.0</ele><time>2026-04-11T15:34:33Z</time></trkpt><trkpt lat="43.90697252716434" lon="10.726719577858617"><ele>250.0</ele><time>2026-04-11T15:34:34Z</time></trkpt><trkpt lat="43.90687468637729" lon="10.726762343924552"><ele>250.0</ele><time>2026-04-11T15:34:35Z</time></trkpt><trkpt lat="43.90679356455592" lon="10.726796931397555"><ele>250.0</ele><time>2026-04-11T15:34:36Z</time></trkpt><trkpt lat="43.906714480468125" lon="10.72684682501867"><ele>250.0</ele><time>2026-04-11T15:34:37Z</time></trkpt><trkpt lat="43.90658525478222" lon="10.726917701842833"><ele>245.8</ele><time>2026-04-11T15:34:39Z</time></trkpt><trkpt lat="43.90653396889791" lon="10.726968575486566"><ele>241.6</ele><time>2026-04-11T15:34:40Z</time></trkpt><trkpt lat="43.90652170693732" lon="10.727100176390664"><ele>237.39999999999998</ele><time>2026-04-11T15:34:42Z</time></trkpt><trkpt lat="43.906622792827" lon="10.727140193594856"><ele>233.2</ele><time>2026-04-11T15:34:44Z</time></trkpt><trkpt lat="43.90675343264859" lon="10.727053966023982"><ele>229.0</ele><time>2026-04-11T15:34:46Z</time></trkpt><trkpt lat="43.90683414482186" lon="10.727074679876653"><ele>229.0</ele><time>2026-04-11T15:34:48Z</time></trkpt><trkpt lat="43.90674023772323" lon="10.727308459516907"><ele>229.0</ele><time>2026-04-11T15:34:52Z</time></trkpt><trkpt lat="43.90668242438472" lon="10.727432509293385"><ele>229.0</ele><time>2026-04-11T15:34:53Z</time></trkpt><trkpt lat="43.906584335344085" lon="10.727556185157518"><ele>229.0</ele><time>2026-04-11T15:34:54Z</time></trkpt><trkpt lat="43.90651657016531" lon="10.727652710446312"><ele>229.0</ele><time>2026-04-11T15:34:55Z</time></trkpt><trkpt lat="43.90642823849107" lon="10.727724478834467"><ele>228.99999999999997</ele><time>2026-04-11T15:34:56Z</time></trkpt><trkpt lat="43.90628555168461" lon="10.72778644645784"><ele>228.99999999999997</ele><time>2026-04-11T15:34:57Z</time></trkpt><trkpt lat="43.906193246446726" lon="10.727807370457505"><ele>229.0</ele><time>2026-04-11T15:34:58Z</time></trkpt><trkpt lat="43.90610353772461" lon="10.727868792767362"><ele>229.0</ele><time>2026-04-11T15:34:59Z</time></trkpt><trkpt lat="43.906037772939065" lon="10.727922450647545"><ele>225.66666666666666</ele><time>2026-04-11T15:35:00Z</time></trkpt><trkpt lat="43.90596834240533" lon="10.727985085681647"><ele>222.33333333333331</ele><time>2026-04-11T15:35:01Z</time></trkpt><trkpt lat="43.90590940366308" lon="10.728043060219875"><ele>219.0</ele><time>2026-04-11T15:35:02Z</time></trkpt><trkpt lat="43.90585878948957" lon="10.728098244469795"><ele>215.66666666666669</ele><time>2026-04-11T15:35:03Z</time></trkpt><trkpt lat="43.905797773618" lon="10.728133941289844"><ele>212.33333333333334</ele><time>2026-04-11T15:35:04Z</time></trkpt><trkpt lat="43.905781477315095" lon="10.728242573976269"><ele>209.0</ele><time>2026-04-11T15:35:06Z</time></trkpt><trkpt lat="43.90584011561492" lon="10.728327162253393"><ele>209.00000000000003</ele><time>2026-04-11T15:35:07Z</time></trkpt><trkpt lat="43.90590592845359" lon="10.72831190967252"><ele>209.0</ele><time>2026-04-11T15:35:08Z</time></trkpt><trkpt lat="43.90597315231963" lon="10.728296124201911"><ele>209.0</ele><time>2026-04-11T15:35:09Z</time></trkpt><trkpt lat="43.90607815689048" lon="10.728278097326891"><ele>209.0</ele><time>2026-04-11T15:35:11Z</time></trkpt><trkpt lat="43.90618855301598" lon="10.728240975701857"><ele>209.00000000000003</ele><time>2026-04-11T15:35:13Z</time></trkpt><trkpt lat="43.90626737901487" lon="10.728210805998433"><ele>209.0</ele><time>2026-04-11T15:35:14Z</time></trkpt><trkpt lat="43.90636321667666" lon="10.728182252747473"><ele>207.79999999999998</ele><time>2026-04-11T15:35:15Z</time></trkpt><trkpt lat="43.90645946400801" lon="10.728139290887842"><ele>206.6</ele><time>2026-04-11T15:35:16Z</time></trkpt><trkpt lat="43.906572222348714" lon="10.728048408894733"><ele>205.4</ele><time>2026-04-11T15:35:17Z</time></trkpt><trkpt lat="43.90666641765848" lon="10.727998492171471"><ele>204.2</ele><time>2026-04-11T15:35:18Z</time></trkpt><trkpt lat="43.90676578602798" lon="10.727940651665005"><ele>203.0</ele><time>2026-04-11T15:35:19Z</time></trkpt><trkpt lat="43.90685844307808" lon="10.727878834893456"><ele>203.0</ele><time>2026-04-11T15:35:20Z</time></trkpt><trkpt lat="43.90695848382655" lon="10.727796822253328"><ele>203.0</ele><time>2026-04-11T15:35:21Z</time></trkpt><trkpt lat="43.90704267372514" lon="10.727752329962307"><ele>203.0</ele><time>2026-04-11T15:35:22Z</time></trkpt><trkpt lat="43.907101881432496" lon="10.727705952326627"><ele>203.0</ele><time>2026-04-11T15:35:23Z</time></trkpt><trkpt lat="43.907187473514135" lon="10.727547200789413"><ele>203.0</ele><time>2026-04-11T15:35:25Z</time></trkpt><trkpt lat="43.907229389027464" lon="10.727460473573798"><ele>203.0</ele><time>2026-04-11T15:35:26Z</time></trkpt><trkpt lat="43.907277346228554" lon="10.727369560519675"><ele>203.0</ele><time>2026-04-11T15:35:27Z</time></trkpt><trkpt lat="43.9073289670533" lon="10.727311594037658"><ele>203.0</ele><time>2026-04-11T15:35:28Z</time></trkpt><trkpt lat="43.90739044016822" lon="10.727337698022213"><ele>203.0</ele><time>2026-04-11T15:35:30Z</time></trkpt><trkpt lat="43.90740302306072" lon="10.727430196665333"><ele>203.0</ele><time>2026-04-11T15:35:31Z</time></trkpt><trkpt lat="43.90735550910225" lon="10.727764265474743"><ele>203.00000000000003</ele><time>2026-04-11T15:35:32Z</time></trkpt><trkpt lat="43.9073764576583" lon="10.727927161533156"><ele>203.0</ele><time>2026-04-11T15:35:34Z</time></trkpt><trkpt lat="43.9074628846597" lon="10.72797462839451"><ele>203.0</ele><time>2026-04-11T15:35:35Z</time></trkpt><trkpt lat="43.90754583659233" lon="10.727972898003886"><ele>203.0</ele><time>2026-04-11T15:35:36Z</time></trkpt><trkpt lat="43.90761347186404" lon="10.727960692593951"><ele>203.00000000000003</ele><time>2026-04-11T15:35:37Z</time></trkpt><trkpt lat="43.90768886086431" lon="10.727965410524138"><ele>203.0</ele><time>2026-04-11T15:35:38Z</time></trkpt><trkpt lat="43.907773666838644" lon="10.727958626411066"><ele>205.4</ele><time>2026-04-11T15:35:39Z</time></trkpt><trkpt lat="43.90787446908396" lon="10.727947118964849"><ele>207.8</ele><time>2026-04-11T15:35:40Z</time></trkpt><trkpt lat="43.90797275564707" lon="10.72793038882816"><ele>210.2</ele><time>2026-04-11T15:35:41Z</time></trkpt><trkpt lat="43.908062520257616" lon="10.7279196737987"><ele>212.6</ele><time>2026-04-11T15:35:42Z</time></trkpt><trkpt lat="43.90815047619079" lon="10.727907399428442"><ele>215.0</ele><time>2026-04-11T15:35:43Z</time></trkpt><trkpt lat="43.90823180106635" lon="10.727946935522649"><ele>215.00000000000003</ele><time>2026-04-11T15:35:44Z</time></trkpt><trkpt lat="43.90829955852322" lon="10.727949564172432"><ele>215.0</ele><time>2026-04-11T15:35:45Z</time></trkpt><trkpt lat="43.90836853112307" lon="10.727964630466493"><ele>215.0</ele><time>2026-04-11T15:35:46Z</time></trkpt><trkpt lat="43.90845070305097" lon="10.728040627140519"><ele>215.0</ele><time>2026-04-11T15:35:48Z</time></trkpt><trkpt lat="43.90848406148709" lon="10.728127965160647"><ele>215.00000000000003</ele><time>2026-04-11T15:35:49Z</time></trkpt><trkpt lat="43.90856579769603" lon="10.728145465545552"><ele>215.0</ele><time>2026-04-11T15:35:50Z</time></trkpt><trkpt lat="43.908644056931465" lon="10.728171700340603"><ele>218.00000000000003</ele><time>2026-04-11T15:35:51Z</time></trkpt><trkpt lat="43.90871694178847" lon="10.728218964150349"><ele>221.0</ele><time>2026-04-11T15:35:52Z</time></trkpt><trkpt lat="43.90877883739897" lon="10.728270881299144"><ele>224.0</ele><time>2026-04-11T15:35:53Z</time></trkpt><trkpt lat="43.90883530321535" lon="10.728341246010688"><ele>227.0</ele><time>2026-04-11T15:35:54Z</time></trkpt><trkpt lat="43.90890131533355" lon="10.728407942288714"><ele>230.00000000000003</ele><time>2026-04-11T15:35:55Z</time></trkpt><trkpt lat="43.90897503351161" lon="10.728455994120349"><ele>233.0</ele><time>2026-04-11T15:35:56Z</time></trkpt><trkpt lat="43.90903586328757" lon="10.72849960018931"><ele>232.8</ele><time>2026-04-11T15:35:57Z</time></trkpt><trkpt lat="43.90911939507361" lon="10.728591486235464"><ele>232.60000000000002</ele><time>2026-04-11T15:35:59Z</time></trkpt><trkpt lat="43.90898498721414" lon="10.728692276850502"><ele>232.39999999999998</ele><time>2026-04-11T15:36:01Z</time></trkpt><trkpt lat="43.90888789230799" lon="10.728693163677626"><ele>232.2</ele><time>2026-04-11T15:36:02Z</time></trkpt><trkpt lat="43.908806899759746" lon="10.728659196629609"><ele>232.0</ele><time>2026-04-11T15:36:03Z</time></trkpt><trkpt lat="43.90870600866838" lon="10.728660535750707"><ele>232.0</ele><time>2026-04-11T15:36:04Z</time></trkpt><trkpt lat="43.90861985221963" lon="10.728705315531453"><ele>232.0</ele><time>2026-04-11T15:36:05Z</time></trkpt><trkpt lat="43.90853253734217" lon="10.728726784321587"><ele>232.0</ele><time>2026-04-11T15:36:06Z</time></trkpt><trkpt lat="43.90844792730808" lon="10.728735366748984"><ele>232.0</ele><time>2026-04-11T15:36:07Z</time></trkpt><trkpt lat="43.90832680948189" lon="10.728710585000185"><ele>232.0</ele><time>2026-04-11T15:36:08Z</time></trkpt><trkpt lat="43.90823444686833" lon="10.72870334858685"><ele>228.8</ele><time>2026-04-11T15:36:09Z</time></trkpt><trkpt lat="43.90814922759917" lon="10.728718050273155"><ele>225.6</ele><time>2026-04-11T15:36:10Z</time></trkpt><trkpt lat="43.90805468547835" lon="10.728717580514097"><ele>222.40000000000003</ele><time>2026-04-11T15:36:11Z</time></trkpt><trkpt lat="43.9079916904755" lon="10.728773261197826"><ele>219.20000000000002</ele><time>2026-04-11T15:36:12Z</time></trkpt><trkpt lat="43.90791057502521" lon="10.728837905781557"><ele>216.0</ele><time>2026-04-11T15:36:13Z</time></trkpt><trkpt lat="43.90780734607822" lon="10.728900446006561"><ele>216.0</ele><time>2026-04-11T15:36:15Z</time></trkpt><trkpt lat="43.90775362333499" lon="10.728947354659171"><ele>216.0</ele><time>2026-04-11T15:36:16Z</time></trkpt><trkpt lat="43.907701594278834" lon="10.729015611542634"><ele>216.0</ele><time>2026-04-11T15:36:17Z</time></trkpt><trkpt lat="43.907720557728595" lon="10.72915238851381"><ele>216.0</ele><time>2026-04-11T15:36:19Z</time></trkpt><trkpt lat="43.90781454872775" lon="10.729273143567605"><ele>216.0</ele><time>2026-04-11T15:36:21Z</time></trkpt><trkpt lat="43.90787155999555" lon="10.729318867395158"><ele>216.0</ele><time>2026-04-11T15:36:22Z</time></trkpt><trkpt lat="43.90794449105149" lon="10.729352689688575"><ele>213.66666666666666</ele><time>2026-04-11T15:36:23Z</time></trkpt><trkpt lat="43.90800760969467" lon="10.729394297699791"><ele>211.33333333333331</ele><time>2026-04-11T15:36:24Z</time></trkpt><trkpt lat="43.90807553476002" lon="10.72945793557845"><ele>209.0</ele><time>2026-04-11T15:36:25Z</time></trkpt><trkpt lat="43.90814057972258" lon="10.729500100138882"><ele>206.66666666666666</ele><time>2026-04-11T15:36:26Z</time></trkpt><trkpt lat="43.908202329330194" lon="10.729545769747123"><ele>204.33333333333331</ele><time>2026-04-11T15:36:27Z</time></trkpt><trkpt lat="43.90830127550197" lon="10.729614322439161"><ele>202.0</ele><time>2026-04-11T15:36:29Z</time></trkpt><trkpt lat="43.90838801824344" lon="10.729677171960745"><ele>205.2</ele><time>2026-04-11T15:36:31Z</time></trkpt><trkpt lat="43.90849275343267" lon="10.72969296940431"><ele>208.39999999999998</ele><time>2026-04-11T15:36:33Z</time></trkpt><trkpt lat="43.908591306782206" lon="10.729735328556814"><ele>211.60000000000002</ele><time>2026-04-11T15:36:35Z</time></trkpt><trkpt lat="43.90868534409282" lon="10.729803041925683"><ele>214.8</ele><time>2026-04-11T15:36:37Z</time></trkpt><trkpt lat="43.90874578733987" lon="10.72984664023897"><ele>218.0</ele><time>2026-04-11T15:36:38Z</time></trkpt><trkpt lat="43.90883985429067" lon="10.729938383188772"><ele>218.0</ele><time>2026-04-11T15:36:40Z</time></trkpt><trkpt lat="43.908943939254904" lon="10.730028676410578"><ele>218.0</ele><time>2026-04-11T15:36:42Z</time></trkpt><trkpt lat="43.90904634474491" lon="10.730116554891962"><ele>218.0</ele><time>2026-04-11T15:36:44Z</time></trkpt><trkpt lat="43.90911689989347" lon="10.730252982897618"><ele>218.0</ele><time>2026-04-11T15:36:46Z</time></trkpt><trkpt lat="43.90915140824158" lon="10.730337883669058"><ele>218.0</ele><time>2026-04-11T15:36:47Z</time></trkpt><trkpt lat="43.90915605656305" lon="10.73044502757413"><ele>218.00000000000003</ele><time>2026-04-11T15:36:49Z</time></trkpt><trkpt lat="43.90909866382187" lon="10.7305053542843"><ele>218.0</ele><time>2026-04-11T15:36:51Z</time></trkpt><trkpt lat="43.90900439077131" lon="10.730360818327245"><ele>218.0</ele><time>2026-04-11T15:36:53Z</time></trkpt><trkpt lat="43.90893409456091" lon="10.730294877095874"><ele>218.0</ele><time>2026-04-11T15:36:54Z</time></trkpt><trkpt lat="43.90886864345862" lon="10.730262715632557"><ele>218.00000000000003</ele><time>2026-04-11T15:36:55Z</time></trkpt><trkpt lat="43.90879697498519" lon="10.7302256896814"><ele>218.0</ele><time>2026-04-11T15:36:56Z</time></trkpt><trkpt lat="43.90872711456024" lon="10.730185057421968"><ele>218.0</ele><time>2026-04-11T15:36:57Z</time></trkpt><trkpt lat="43.90865077552183" lon="10.730117026864878"><ele>218.0</ele><time>2026-04-11T15:36:58Z</time></trkpt><trkpt lat="43.908551672718666" lon="10.730115721419661"><ele>218.0</ele><time>2026-04-11T15:36:59Z</time></trkpt><trkpt lat="43.90844215515095" lon="10.730165005433614"><ele>218.0</ele><time>2026-04-11T15:37:00Z</time></trkpt><trkpt lat="43.908356244233644" lon="10.730166261951211"><ele>218.0</ele><time>2026-04-11T15:37:01Z</time></trkpt><trkpt lat="43.90828236074428" lon="10.730174016368817"><ele>217.66666666666669</ele><time>2026-04-11T15:37:02Z</time></trkpt><trkpt lat="43.908193885972366" lon="10.730181778518281"><ele>217.33333333333334</ele><time>2026-04-11T15:37:03Z</time></trkpt><trkpt lat="43.90812459102741" lon="10.7301957930274"><ele>217.0</ele><time>2026-04-11T15:37:04Z</time></trkpt><trkpt lat="43.908057622212695" lon="10.730249083942436"><ele>216.66666666666669</ele><time>2026-04-11T15:37:05Z</time></trkpt><trkpt lat="43.907977642849865" lon="10.730279997984841"><ele>216.33333333333334</ele><time>2026-04-11T15:37:06Z</time></trkpt><trkpt lat="43.907916166197914" lon="10.730311928956917"><ele>216.0</ele><time>2026-04-11T15:37:07Z</time></trkpt><trkpt lat="43.90784039946281" lon="10.730322806652882"><ele>216.0</ele><time>2026-04-11T15:37:08Z</time></trkpt><trkpt lat="43.90775365408569" lon="10.730291647220904"><ele>216.00000000000003</ele><time>2026-04-11T15:37:09Z</time></trkpt><trkpt lat="43.90761305892396" lon="10.73022511902957"><ele>216.00000000000003</ele><time>2026-04-11T15:37:11Z</time></trkpt><trkpt lat="43.90752859445061" lon="10.730202275310264"><ele>216.0</ele><time>2026-04-11T15:37:12Z</time></trkpt><trkpt lat="43.907473425425025" lon="10.730122583724677"><ele>216.0</ele><time>2026-04-11T15:37:13Z</time></trkpt><trkpt lat="43.90740942699028" lon="10.730080459059465"><ele>211.8</ele><time>2026-04-11T15:37:14Z</time></trkpt><trkpt lat="43.90736838975495" lon="10.730004795038962"><ele>207.60000000000002</ele><time>2026-04-11T15:37:15Z</time></trkpt><trkpt lat="43.90728815309845" lon="10.729915294822733"><ele>203.4</ele><time>2026-04-11T15:37:17Z</time></trkpt><trkpt lat="43.9072561753198" lon="10.729828742816695"><ele>199.2</ele><time>2026-04-11T15:37:18Z</time></trkpt><trkpt lat="43.9071964401542" lon="10.729766207827486"><ele>195.0</ele><time>2026-04-11T15:37:19Z</time></trkpt><trkpt lat="43.90706949004973" lon="10.729706234354385"><ele>195.0</ele><time>2026-04-11T15:37:20Z</time></trkpt><trkpt lat="43.90700525986025" lon="10.729718958705368"><ele>195.0</ele><time>2026-04-11T15:37:21Z</time></trkpt><trkpt lat="43.906937835490176" lon="10.729676713162823"><ele>195.0</ele><time>2026-04-11T15:37:22Z</time></trkpt><trkpt lat="43.906867581437" lon="10.72967141972143"><ele>195.0</ele><time>2026-04-11T15:37:23Z</time></trkpt><trkpt lat="43.90683486736675" lon="10.729565414807764"><ele>195.0</ele><time>2026-04-11T15:37:24Z</time></trkpt><trkpt lat="43.90677125397354" lon="10.729496704025568"><ele>195.0</ele><time>2026-04-11T15:37:25Z</time></trkpt><trkpt lat="43.90673330107844" lon="10.729415998157885"><ele>195.0</ele><time>2026-04-11T15:37:26Z</time></trkpt><trkpt lat="43.9066856045032" lon="10.72934621114076"><ele>195.0</ele><time>2026-04-11T15:37:27Z</time></trkpt><trkpt lat="43.90663679693566" lon="10.72927075236166"><ele>195.0</ele><time>2026-04-11T15:37:29Z</time></trkpt><trkpt lat="43.906495039328945" lon="10.729254771369693"><ele>195.0</ele><time>2026-04-11T15:37:31Z</time></trkpt><trkpt lat="43.90634233374384" lon="10.72931161968573"><ele>195.0</ele><time>2026-04-11T15:37:33Z</time></trkpt><trkpt lat="43.90622528557569" lon="10.729474432315993"><ele>195.0</ele><time>2026-04-11T15:37:34Z</time></trkpt><trkpt lat="43.90614359432497" lon="10.729553060546824"><ele>195.0</ele><time>2026-04-11T15:37:35Z</time></trkpt><trkpt lat="43.906050402564695" lon="10.729645832735129"><ele>195.0</ele><time>2026-04-11T15:37:36Z</time></trkpt><trkpt lat="43.90597796507029" lon="10.72973365362685"><ele>195.0</ele><time>2026-04-11T15:37:37Z</time></trkpt><trkpt lat="43.90593339761423" lon="10.729818347008665"><ele>195.0</ele><time>2026-04-11T15:37:38Z</time></trkpt><trkpt lat="43.905824125100956" lon="10.729887573574208"><ele>193.5</ele><time>2026-04-11T15:37:40Z</time></trkpt><trkpt lat="43.90578987877624" lon="10.729977094685152"><ele>192.0</ele><time>2026-04-11T15:37:41Z</time></trkpt><trkpt lat="43.90572869049372" lon="10.730011962853048"><ele>190.5</ele><time>2026-04-11T15:37:42Z</time></trkpt><trkpt lat="43.90565835016284" lon="10.730002692814624"><ele>189.0</ele><time>2026-04-11T15:37:43Z</time></trkpt><trkpt lat="43.90556307832431" lon="10.730004340059683"><ele>187.5</ele><time>2026-04-11T15:37:44Z</time></trkpt><trkpt lat="43.905497371529904" lon="10.730018807931696"><ele>186.0</ele><time>2026-04-11T15:37:45Z</time></trkpt><trkpt lat="43.9053901705782" lon="10.730041967769228"><ele>186.0</ele><time>2026-04-11T15:37:47Z</time></trkpt><trkpt lat="43.90534659384745" lon="10.729971909582178"><ele>186.0</ele><time>2026-04-11T15:37:48Z</time></trkpt><trkpt lat="43.90526854142926" lon="10.729914135537978"><ele>186.0</ele><time>2026-04-11T15:37:49Z</time></trkpt><trkpt lat="43.90518251624732" lon="10.729839977240717"><ele>186.0</ele><time>2026-04-11T15:37:50Z</time></trkpt><trkpt lat="43.9050719065032" lon="10.729788154705945"><ele>186.0</ele><time>2026-04-11T15:37:51Z</time></trkpt><trkpt lat="43.904949377134855" lon="10.729712171670636"><ele>185.83333333333334</ele><time>2026-04-11T15:37:52Z</time></trkpt><trkpt lat="43.90485503651029" lon="10.729660686913872"><ele>185.66666666666666</ele><time>2026-04-11T15:37:53Z</time></trkpt><trkpt lat="43.90478734275664" lon="10.729637200843907"><ele>185.5</ele><time>2026-04-11T15:37:54Z</time></trkpt><trkpt lat="43.90471317617774" lon="10.729612873642578"><ele>185.33333333333331</ele><time>2026-04-11T15:37:55Z</time></trkpt><trkpt lat="43.904614654228965" lon="10.729604136551606"><ele>185.16666666666666</ele><time>2026-04-11T15:37:56Z</time></trkpt><trkpt lat="43.904526141439774" lon="10.729591853570518"><ele>185.0</ele><time>2026-04-11T15:37:57Z</time></trkpt><trkpt lat="43.90443913161407" lon="10.729575061626537"><ele>185.0</ele><time>2026-04-11T15:37:58Z</time></trkpt><trkpt lat="43.90436929883597" lon="10.729558284469459"><ele>185.0</ele><time>2026-04-11T15:37:59Z</time></trkpt><trkpt lat="43.90429309339863" lon="10.72954044696605"><ele>185.0</ele><time>2026-04-11T15:38:00Z</time></trkpt><trkpt lat="43.9042264776697" lon="10.729592405398964"><ele>185.0</ele><time>2026-04-11T15:38:02Z</time></trkpt><trkpt lat="43.90411598030716" lon="10.729704713664937"><ele>185.0</ele><time>2026-04-11T15:38:03Z</time></trkpt><trkpt lat="43.90403424850647" lon="10.729747339680126"><ele>185.0</ele><time>2026-04-11T15:38:04Z</time></trkpt><trkpt lat="43.90394329223555" lon="10.729766463553805"><ele>183.66666666666666</ele><time>2026-04-11T15:38:05Z</time></trkpt><trkpt lat="43.90386900791306" lon="10.729797993188175"><ele>182.33333333333331</ele><time>2026-04-11T15:38:06Z</time></trkpt><trkpt lat="43.903801294438956" lon="10.729830979654787"><ele>181.0</ele><time>2026-04-11T15:38:07Z</time></trkpt><trkpt lat="43.903747770944726" lon="10.729913641475997"><ele>179.66666666666666</ele><time>2026-04-11T15:38:08Z</time></trkpt><trkpt lat="43.90370023545255" lon="10.730015904694525"><ele>178.33333333333334</ele><time>2026-04-11T15:38:09Z</time></trkpt><trkpt lat="43.90367616916426" lon="10.73012225194263"><ele>177.0</ele><time>2026-04-11T15:38:10Z</time></trkpt><trkpt lat="43.90363483137211" lon="10.730209780874066"><ele>175.8</ele><time>2026-04-11T15:38:11Z</time></trkpt><trkpt lat="43.90360326133287" lon="10.73029793705171"><ele>174.6</ele><time>2026-04-11T15:38:12Z</time></trkpt><trkpt lat="43.90356243630618" lon="10.730428344671394"><ele>173.4</ele><time>2026-04-11T15:38:13Z</time></trkpt><trkpt lat="43.90347733805279" lon="10.73049954804054"><ele>172.20000000000002</ele><time>2026-04-11T15:38:14Z</time></trkpt><trkpt lat="43.903395907668184" lon="10.730560320025761"><ele>171.0</ele><time>2026-04-11T15:38:15Z</time></trkpt><trkpt lat="43.90330976068531" lon="10.730652858366449"><ele>171.0</ele><time>2026-04-11T15:38:16Z</time></trkpt><trkpt lat="43.90326101568809" lon="10.73078640133202"><ele>171.0</ele><time>2026-04-11T15:38:18Z</time></trkpt><trkpt lat="43.903238092293" lon="10.730905559471305"><ele>171.0</ele><time>2026-04-11T15:38:19Z</time></trkpt><trkpt lat="43.903212545076" lon="10.731029751927998"><ele>171.0</ele><time>2026-04-11T15:38:20Z</time></trkpt><trkpt lat="43.90317823614652" lon="10.731172814972446"><ele>171.0</ele><time>2026-04-11T15:38:21Z</time></trkpt><trkpt lat="43.90314385634105" lon="10.731277580673925"><ele>174.60000000000002</ele><time>2026-04-11T15:38:22Z</time></trkpt><trkpt lat="43.903125524456534" lon="10.731375840834163"><ele>178.2</ele><time>2026-04-11T15:38:23Z</time></trkpt><trkpt lat="43.90308891012522" lon="10.731460592278957"><ele>181.8</ele><time>2026-04-11T15:38:24Z</time></trkpt><trkpt lat="43.903009866520506" lon="10.731495347586227"><ele>185.39999999999998</ele><time>2026-04-11T15:38:26Z</time></trkpt><trkpt lat="43.9029087933593" lon="10.73140541724921"><ele>189.0</ele><time>2026-04-11T15:38:27Z</time></trkpt><trkpt lat="43.902799461900464" lon="10.731515583872692"><ele>189.0</ele><time>2026-04-11T15:38:29Z</time></trkpt><trkpt lat="43.90272567063142" lon="10.731568042909924"><ele>189.0</ele><time>2026-04-11T15:38:30Z</time></trkpt><trkpt lat="43.902630144646935" lon="10.731607138985611"><ele>189.0</ele><time>2026-04-11T15:38:31Z</time></trkpt><trkpt lat="43.902519758455" lon="10.731631872693693"><ele>189.0</ele><time>2026-04-11T15:38:32Z</time></trkpt><trkpt lat="43.9024238829285" lon="10.731651494708073"><ele>189.0</ele><time>2026-04-11T15:38:33Z</time></trkpt><trkpt lat="43.90234077171174" lon="10.731677233814835"><ele>191.0</ele><time>2026-04-11T15:38:34Z</time></trkpt><trkpt lat="43.90222600355889" lon="10.73170779720341"><ele>193.0</ele><time>2026-04-11T15:38:35Z</time></trkpt><trkpt lat="43.902143385858245" lon="10.731757987390484"><ele>195.0</ele><time>2026-04-11T15:38:36Z</time></trkpt><trkpt lat="43.90208078119476" lon="10.731854306901578"><ele>197.0</ele><time>2026-04-11T15:38:37Z</time></trkpt><trkpt lat="43.9020136612524" lon="10.731930342393511"><ele>199.0</ele><time>2026-04-11T15:38:38Z</time></trkpt><trkpt lat="43.90194138062555" lon="10.73202992288257"><ele>199.0</ele><time>2026-04-11T15:38:39Z</time></trkpt><trkpt lat="43.90187735995094" lon="10.732110293540645"><ele>199.0</ele><time>2026-04-11T15:38:40Z</time></trkpt><trkpt lat="43.90180161784962" lon="10.732209867961346"><ele>199.0</ele><time>2026-04-11T15:38:41Z</time></trkpt><trkpt lat="43.9017271419145" lon="10.732298948134833"><ele>199.0</ele><time>2026-04-11T15:38:42Z</time></trkpt><trkpt lat="43.90165482898718" lon="10.73238380832923"><ele>199.0</ele><time>2026-04-11T15:38:43Z</time></trkpt><trkpt lat="43.90157090748942" lon="10.73246687560163"><ele>196.66666666666666</ele><time>2026-04-11T15:38:44Z</time></trkpt><trkpt lat="43.90149611410425" lon="10.732526660000449"><ele>194.33333333333331</ele><time>2026-04-11T15:38:45Z</time></trkpt><trkpt lat="43.901426196594606" lon="10.73256842417592"><ele>192.0</ele><time>2026-04-11T15:38:46Z</time></trkpt><trkpt lat="43.90136008301779" lon="10.732652361865519"><ele>189.66666666666666</ele><time>2026-04-11T15:38:47Z</time></trkpt><trkpt lat="43.90131112251597" lon="10.73274777432104"><ele>187.33333333333331</ele><time>2026-04-11T15:38:48Z</time></trkpt><trkpt lat="43.90126368885082" lon="10.732850025623852"><ele>185.0</ele><time>2026-04-11T15:38:49Z</time></trkpt><trkpt lat="43.90122858594568" lon="10.732983574752144"><ele>185.0</ele><time>2026-04-11T15:38:50Z</time></trkpt><trkpt lat="43.90119004088821" lon="10.733095376772908"><ele>185.0</ele><time>2026-04-11T15:38:51Z</time></trkpt><trkpt lat="43.90115771260814" lon="10.733203032428657"><ele>185.0</ele><time>2026-04-11T15:38:52Z</time></trkpt><trkpt lat="43.901113840845476" lon="10.733319055457953"><ele>185.0</ele><time>2026-04-11T15:38:53Z</time></trkpt><trkpt lat="43.90106860617845" lon="10.733422366989695"><ele>185.0</ele><time>2026-04-11T15:38:54Z</time></trkpt><trkpt lat="43.90100598651561" lon="10.733559887910065"><ele>185.0</ele><time>2026-04-11T15:38:56Z</time></trkpt><trkpt lat="43.901027741993225" lon="10.73372085400162"><ele>185.0</ele><time>2026-04-11T15:38:58Z</time></trkpt><trkpt lat="43.90104526928508" lon="10.733816404328476"><ele>185.0</ele><time>2026-04-11T15:38:59Z</time></trkpt><trkpt lat="43.90107881925191" lon="10.733930940454565"><ele>185.0</ele><time>2026-04-11T15:39:00Z</time></trkpt><trkpt lat="43.90111810189193" lon="10.734045730903196"><ele>185.0</ele><time>2026-04-11T15:39:01Z</time></trkpt><trkpt lat="43.90116167580906" lon="10.734142357606958"><ele>185.0</ele><time>2026-04-11T15:39:02Z</time></trkpt><trkpt lat="43.90120988437079" lon="10.734220165720076"><ele>185.0</ele><time>2026-04-11T15:39:03Z</time></trkpt><trkpt lat="43.90126017419283" lon="10.73429731223388"><ele>185.0</ele><time>2026-04-11T15:39:04Z</time></trkpt><trkpt lat="43.90127707477719" lon="10.734388500840604"><ele>185.0</ele><time>2026-04-11T15:39:05Z</time></trkpt><trkpt lat="43.901224285522694" lon="10.73447254152291"><ele>185.0</ele><time>2026-04-11T15:39:07Z</time></trkpt><trkpt lat="43.901071704141295" lon="10.734571633436534"><ele>184.0</ele><time>2026-04-11T15:39:08Z</time></trkpt><trkpt lat="43.90098833838578" lon="10.734634805114323"><ele>183.0</ele><time>2026-04-11T15:39:09Z</time></trkpt><trkpt lat="43.90091840020689" lon="10.734673042360809"><ele>182.0</ele><time>2026-04-11T15:39:10Z</time></trkpt><trkpt lat="43.90081281167499" lon="10.734716997792834"><ele>181.0</ele><time>2026-04-11T15:39:12Z</time></trkpt><trkpt lat="43.900754005976054" lon="10.73466717773908"><ele>180.0</ele><time>2026-04-11T15:39:14Z</time></trkpt><trkpt lat="43.900861235090915" lon="10.734684786657667"><ele>177.8</ele><time>2026-04-11T15:39:46Z</time></trkpt><trkpt lat="43.90086106067342" lon="10.734820275932252"><ele>175.6</ele><time>2026-04-11T15:39:49Z</time></trkpt><trkpt lat="43.90080674160743" lon="10.734929189801134"><ele>173.39999999999998</ele><time>2026-04-11T15:39:51Z</time></trkpt><trkpt lat="43.90073292004525" lon="10.735056883219814"><ele>171.2</ele><time>2026-04-11T15:39:53Z</time></trkpt><trkpt lat="43.90066407622876" lon="10.73517895949014"><ele>169.0</ele><time>2026-04-11T15:39:55Z</time></trkpt><trkpt lat="43.90059783627313" lon="10.735288394566767"><ele>166.33333333333334</ele><time>2026-04-11T15:39:57Z</time></trkpt><trkpt lat="43.900564588612895" lon="10.735363980762044"><ele>163.66666666666669</ele><time>2026-04-11T15:39:59Z</time></trkpt><trkpt lat="43.90061530750613" lon="10.735435964343685"><ele>161.0</ele><time>2026-04-11T15:40:01Z</time></trkpt><trkpt lat="43.900679545586065" lon="10.735459361868596"><ele>158.33333333333334</ele><time>2026-04-11T15:40:02Z</time></trkpt><trkpt lat="43.90078495777393" lon="10.735557548298717"><ele>155.66666666666666</ele><time>2026-04-11T15:40:04Z</time></trkpt><trkpt lat="43.9008649328009" lon="10.735619083273676"><ele>153.0</ele><time>2026-04-11T15:40:06Z</time></trkpt><trkpt lat="43.90089087010731" lon="10.735701570466935"><ele>153.33333333333334</ele><time>2026-04-11T15:40:07Z</time></trkpt><trkpt lat="43.90092799340668" lon="10.73579227710434"><ele>153.66666666666666</ele><time>2026-04-11T15:40:08Z</time></trkpt><trkpt lat="43.90096050947754" lon="10.735885079472077"><ele>154.0</ele><time>2026-04-11T15:40:09Z</time></trkpt><trkpt lat="43.90097267364366" lon="10.735983668635132"><ele>154.33333333333331</ele><time>2026-04-11T15:40:10Z</time></trkpt><trkpt lat="43.90097235436258" lon="10.736091992741986"><ele>154.66666666666666</ele><time>2026-04-11T15:40:11Z</time></trkpt><trkpt lat="43.90104205728911" lon="10.736210843208333"><ele>155.0</ele><time>2026-04-11T15:40:13Z</time></trkpt><trkpt lat="43.90111329292848" lon="10.736194303546895"><ele>155.0</ele><time>2026-04-11T15:40:14Z</time></trkpt><trkpt lat="43.90118169518595" lon="10.736153344655413"><ele>155.0</ele><time>2026-04-11T15:40:15Z</time></trkpt><trkpt lat="43.90124471430588" lon="10.736152820008392"><ele>155.0</ele><time>2026-04-11T15:40:16Z</time></trkpt><trkpt lat="43.901305524016024" lon="10.736208144158278"><ele>155.0</ele><time>2026-04-11T15:40:17Z</time></trkpt><trkpt lat="43.90133910529978" lon="10.736313975772573"><ele>155.0</ele><time>2026-04-11T15:40:18Z</time></trkpt><trkpt lat="43.90140923993247" lon="10.736495951080977"><ele>155.0</ele><time>2026-04-11T15:40:20Z</time></trkpt><trkpt lat="43.90137563572015" lon="10.736617618326552"><ele>155.0</ele><time>2026-04-11T15:40:21Z</time></trkpt><trkpt lat="43.90133784215174" lon="10.73671246114505"><ele>155.0</ele><time>2026-04-11T15:40:22Z</time></trkpt><trkpt lat="43.90130377722465" lon="10.736807091637926"><ele>155.0</ele><time>2026-04-11T15:40:23Z</time></trkpt><trkpt lat="43.901276215924305" lon="10.73690746993753"><ele>155.0</ele><time>2026-04-11T15:40:24Z</time></trkpt><trkpt lat="43.90128073958161" lon="10.73701808928229"><ele>155.0</ele><time>2026-04-11T15:40:25Z</time></trkpt><trkpt lat="43.901286853695524" lon="10.737124898050494"><ele>155.0</ele><time>2026-04-11T15:40:26Z</time></trkpt><trkpt lat="43.901291076751846" lon="10.737234812497627"><ele>154.16666666666666</ele><time>2026-04-11T15:40:27Z</time></trkpt><trkpt lat="43.901275229173834" lon="10.737346771530143"><ele>153.33333333333331</ele><time>2026-04-11T15:40:28Z</time></trkpt><trkpt lat="43.90126684045724" lon="10.737457007748366"><ele>152.5</ele><time>2026-04-11T15:40:29Z</time></trkpt><trkpt lat="43.901265677271866" lon="10.737562283446868"><ele>151.66666666666666</ele><time>2026-04-11T15:40:30Z</time></trkpt><trkpt lat="43.90124974803974" lon="10.73766754888152"><ele>150.83333333333334</ele><time>2026-04-11T15:40:31Z</time></trkpt><trkpt lat="43.901223862232094" lon="10.737764500490451"><ele>150.0</ele><time>2026-04-11T15:40:32Z</time></trkpt><trkpt lat="43.901184680743604" lon="10.737848953848482"><ele>147.4</ele><time>2026-04-11T15:40:33Z</time></trkpt><trkpt lat="43.90114784952735" lon="10.738014731793522"><ele>144.8</ele><time>2026-04-11T15:40:35Z</time></trkpt><trkpt lat="43.901245584029894" lon="10.738110148446516"><ele>142.2</ele><time>2026-04-11T15:40:37Z</time></trkpt><trkpt lat="43.90130735364658" lon="10.738166179737489"><ele>139.6</ele><time>2026-04-11T15:40:38Z</time></trkpt><trkpt lat="43.901371407969485" lon="10.738234476025987"><ele>137.0</ele><time>2026-04-11T15:40:39Z</time></trkpt><trkpt lat="43.90144686074302" lon="10.738270367301228"><ele>137.0</ele><time>2026-04-11T15:40:40Z</time></trkpt><trkpt lat="43.90153180335434" lon="10.73830128673248"><ele>137.0</ele><time>2026-04-11T15:40:41Z</time></trkpt><trkpt lat="43.90161028835816" lon="10.73830701518618"><ele>137.0</ele><time>2026-04-11T15:40:42Z</time></trkpt><trkpt lat="43.901689404558375" lon="10.738327134371534"><ele>137.0</ele><time>2026-04-11T15:40:43Z</time></trkpt><trkpt lat="43.90177161774881" lon="10.738348074247805"><ele>137.0</ele><time>2026-04-11T15:40:44Z</time></trkpt><trkpt lat="43.90184584714006" lon="10.73837558296176"><ele>137.0</ele><time>2026-04-11T15:40:45Z</time></trkpt><trkpt lat="43.9019512385169" lon="10.73845717890628"><ele>139.75</ele><time>2026-04-11T15:40:47Z</time></trkpt><trkpt lat="43.901972813295636" lon="10.73862417474111"><ele>142.5</ele><time>2026-04-11T15:40:49Z</time></trkpt><trkpt lat="43.90194742044541" lon="10.738770403131852"><ele>145.25</ele><time>2026-04-11T15:40:50Z</time></trkpt><trkpt lat="43.9018329539615" lon="10.73898307999907"><ele>148.0</ele><time>2026-04-11T15:40:51Z</time></trkpt><trkpt lat="43.90181469926584" lon="10.739127298306864"><ele>148.0</ele><time>2026-04-11T15:40:53Z</time></trkpt><trkpt lat="43.901878900200366" lon="10.739244085851352"><ele>148.0</ele><time>2026-04-11T15:40:55Z</time></trkpt><trkpt lat="43.901912703034085" lon="10.739374143560697"><ele>148.0</ele><time>2026-04-11T15:40:56Z</time></trkpt><trkpt lat="43.901930660728624" lon="10.739491248579013"><ele>148.0</ele><time>2026-04-11T15:40:57Z</time></trkpt><trkpt lat="43.90194426709902" lon="10.739605060920569"><ele>148.0</ele><time>2026-04-11T15:40:58Z</time></trkpt><trkpt lat="43.9019565208146" lon="10.739714452032661"><ele>148.16666666666669</ele><time>2026-04-11T15:40:59Z</time></trkpt><trkpt lat="43.901951925072716" lon="10.739807034791147"><ele>148.33333333333334</ele><time>2026-04-11T15:41:00Z</time></trkpt><trkpt lat="43.90190589343971" lon="10.739937144063187"><ele>148.5</ele><time>2026-04-11T15:41:02Z</time></trkpt><trkpt lat="43.901836929557106" lon="10.740033634102964"><ele>148.66666666666666</ele><time>2026-04-11T15:41:03Z</time></trkpt><trkpt lat="43.90179826514897" lon="10.740140842030899"><ele>148.83333333333331</ele><time>2026-04-11T15:41:04Z</time></trkpt><trkpt lat="43.90180120934166" lon="10.740234054862675"><ele>149.0</ele><time>2026-04-11T15:41:05Z</time></trkpt><trkpt lat="43.90182137928756" lon="10.740353056565038"><ele>148.16666666666666</ele><time>2026-04-11T15:41:06Z</time></trkpt><trkpt lat="43.90184653712115" lon="10.740446368405438"><ele>147.33333333333331</ele><time>2026-04-11T15:41:07Z</time></trkpt><trkpt lat="43.901835194060475" lon="10.74054933017279"><ele>146.5</ele><time>2026-04-11T15:41:08Z</time></trkpt><trkpt lat="43.90180058306478" lon="10.740629900570136"><ele>145.66666666666666</ele><time>2026-04-11T15:41:09Z</time></trkpt><trkpt lat="43.90171906065725" lon="10.740656828489197"><ele>144.83333333333334</ele><time>2026-04-11T15:41:10Z</time></trkpt><trkpt lat="43.901631261611065" lon="10.740710253278957"><ele>144.0</ele><time>2026-04-11T15:41:11Z</time></trkpt><trkpt lat="43.901528246050745" lon="10.740780010170512"><ele>140.0</ele><time>2026-04-11T15:41:12Z</time></trkpt><trkpt lat="43.901455849912125" lon="10.740849882419592"><ele>136.0</ele><time>2026-04-11T15:41:13Z</time></trkpt><trkpt lat="43.90133856756749" lon="10.74088809934355"><ele>132.0</ele><time>2026-04-11T15:41:14Z</time></trkpt><trkpt lat="43.901240212912164" lon="10.740935244336654"><ele>128.0</ele><time>2026-04-11T15:41:15Z</time></trkpt><trkpt lat="43.901157375083976" lon="10.74098796767872"><ele>124.0</ele><time>2026-04-11T15:41:16Z</time></trkpt><trkpt lat="43.90109093427076" lon="10.741026367708463"><ele>124.4</ele><time>2026-04-11T15:41:17Z</time></trkpt><trkpt lat="43.90102616406186" lon="10.741090298453525"><ele>124.80000000000001</ele><time>2026-04-11T15:41:18Z</time></trkpt><trkpt lat="43.900968819329506" lon="10.741152215586968"><ele>125.19999999999999</ele><time>2026-04-11T15:41:19Z</time></trkpt><trkpt lat="43.90090060121237" lon="10.74129521261169"><ele>125.6</ele><time>2026-04-11T15:41:20Z</time></trkpt><trkpt lat="43.900831565226206" lon="10.741409084389415"><ele>126.0</ele><time>2026-04-11T15:41:21Z</time></trkpt><trkpt lat="43.90077093605658" lon="10.74152208682549"><ele>122.6</ele><time>2026-04-11T15:41:22Z</time></trkpt><trkpt lat="43.900707548556944" lon="10.741623257045488"><ele>119.19999999999999</ele><time>2026-04-11T15:41:23Z</time></trkpt><trkpt lat="43.90065398510552" lon="10.741716315284656"><ele>115.80000000000001</ele><time>2026-04-11T15:41:24Z</time></trkpt><trkpt lat="43.9006091385816" lon="10.741784254012428"><ele>112.4</ele><time>2026-04-11T15:41:25Z</time></trkpt><trkpt lat="43.90064565252802" lon="10.741929992145142"><ele>109.0</ele><time>2026-04-11T15:41:27Z</time></trkpt><trkpt lat="43.90064403105009" lon="10.742094807716711"><ele>106.4</ele><time>2026-04-11T15:41:29Z</time></trkpt><trkpt lat="43.90058461605193" lon="10.742166413493948"><ele>103.80000000000001</ele><time>2026-04-11T15:41:30Z</time></trkpt><trkpt lat="43.9004949270302" lon="10.742203881410243"><ele>101.19999999999999</ele><time>2026-04-11T15:41:31Z</time></trkpt><trkpt lat="43.90043249206034" lon="10.742249815113208"><ele>98.6</ele><time>2026-04-11T15:41:32Z</time></trkpt><trkpt lat="43.90037172694465" lon="10.742365510296848"><ele>96.0</ele><time>2026-04-11T15:41:34Z</time></trkpt><trkpt lat="43.90051442944253" lon="10.74241718322394"><ele>96.0</ele><time>2026-04-11T15:41:36Z</time></trkpt><trkpt lat="43.90059457882221" lon="10.7424100016499"><ele>96.0</ele><time>2026-04-11T15:41:37Z</time></trkpt><trkpt lat="43.90067366535323" lon="10.742408042752729"><ele>96.0</ele><time>2026-04-11T15:41:38Z</time></trkpt><trkpt lat="43.90073729773588" lon="10.742391266113295"><ele>96.0</ele><time>2026-04-11T15:41:39Z</time></trkpt><trkpt lat="43.90081276879176" lon="10.742397123409395"><ele>96.0</ele><time>2026-04-11T15:41:41Z</time></trkpt><trkpt lat="43.90079310654261" lon="10.742488691171744"><ele>96.0</ele><time>2026-04-11T15:41:42Z</time></trkpt><trkpt lat="43.900729570930146" lon="10.742601598683727"><ele>96.0</ele><time>2026-04-11T15:41:43Z</time></trkpt><trkpt lat="43.90063892079674" lon="10.742669566323029"><ele>96.0</ele><time>2026-04-11T15:41:44Z</time></trkpt><trkpt lat="43.90056613458963" lon="10.742758884498098"><ele>96.0</ele><time>2026-04-11T15:41:45Z</time></trkpt><trkpt lat="43.90047796506786" lon="10.742864828301434"><ele>96.0</ele><time>2026-04-11T15:41:46Z</time></trkpt><trkpt lat="43.90040050933203" lon="10.742981774164724"><ele>96.0</ele><time>2026-04-11T15:41:47Z</time></trkpt><trkpt lat="43.90031823769686" lon="10.743102172384045"><ele>93.5</ele><time>2026-04-11T15:41:48Z</time></trkpt><trkpt lat="43.90020757301575" lon="10.743191640379443"><ele>91.0</ele><time>2026-04-11T15:41:49Z</time></trkpt><trkpt lat="43.900091712821876" lon="10.74329226081598"><ele>88.5</ele><time>2026-04-11T15:41:50Z</time></trkpt><trkpt lat="43.899980477744464" lon="10.743404923119519"><ele>86.0</ele><time>2026-04-11T15:41:51Z</time></trkpt><trkpt lat="43.89988077642296" lon="10.743527597833818"><ele>83.5</ele><time>2026-04-11T15:41:52Z</time></trkpt><trkpt lat="43.89977873488809" lon="10.74365189364192"><ele>81.0</ele><time>2026-04-11T15:41:53Z</time></trkpt><trkpt lat="43.89966777490345" lon="10.74374494215896"><ele>78.5</ele><time>2026-04-11T15:41:54Z</time></trkpt><trkpt lat="43.89954725874202" lon="10.743831315463948"><ele>76.0</ele><time>2026-04-11T15:41:55Z</time></trkpt><trkpt lat="43.899422587621345" lon="10.743919925393286"><ele>76.0</ele><time>2026-04-11T15:41:56Z</time></trkpt><trkpt lat="43.8993019948102" lon="10.743978607294768"><ele>76.0</ele><time>2026-04-11T15:41:57Z</time></trkpt><trkpt lat="43.89919455708655" lon="10.744052972979077"><ele>76.0</ele><time>2026-04-11T15:41:58Z</time></trkpt><trkpt lat="43.899090571157686" lon="10.744136202854383"><ele>76.0</ele><time>2026-04-11T15:41:59Z</time></trkpt><trkpt lat="43.8989927618912" lon="10.744226293412598"><ele>74.83333333333333</ele><time>2026-04-11T15:42:00Z</time></trkpt><trkpt lat="43.89890794675991" lon="10.744292085071908"><ele>73.66666666666666</ele><time>2026-04-11T15:42:01Z</time></trkpt><trkpt lat="43.89881841433894" lon="10.744339228836507"><ele>72.5</ele><time>2026-04-11T15:42:02Z</time></trkpt><trkpt lat="43.8987459151028" lon="10.744373244676552"><ele>71.33333333333333</ele><time>2026-04-11T15:42:03Z</time></trkpt><trkpt lat="43.89868241088618" lon="10.74439467758547"><ele>70.16666666666667</ele><time>2026-04-11T15:42:04Z</time></trkpt><trkpt lat="43.89860741471122" lon="10.744415056701174"><ele>69.0</ele><time>2026-04-11T15:42:05Z</time></trkpt><trkpt lat="43.89852191439274" lon="10.744389771266617"><ele>69.0</ele><time>2026-04-11T15:42:06Z</time></trkpt><trkpt lat="43.89844391441337" lon="10.744324855181022"><ele>69.0</ele><time>2026-04-11T15:42:07Z</time></trkpt><trkpt lat="43.898348487339014" lon="10.74429515134285"><ele>69.0</ele><time>2026-04-11T15:42:08Z</time></trkpt><trkpt lat="43.8982715546515" lon="10.744248900460779"><ele>69.0</ele><time>2026-04-11T15:42:09Z</time></trkpt><trkpt lat="43.898187101758545" lon="10.744218668845424"><ele>69.0</ele><time>2026-04-11T15:42:10Z</time></trkpt><trkpt lat="43.898110653573845" lon="10.744180488610057"><ele>69.0</ele><time>2026-04-11T15:42:11Z</time></trkpt><trkpt lat="43.89804013680494" lon="10.744134054923967"><ele>67.8</ele><time>2026-04-11T15:42:12Z</time></trkpt><trkpt lat="43.897993188415" lon="10.74405971196438"><ele>66.60000000000001</ele><time>2026-04-11T15:42:13Z</time></trkpt><trkpt lat="43.89796999903249" lon="10.74397281870697"><ele>65.4</ele><time>2026-04-11T15:42:14Z</time></trkpt><trkpt lat="43.898031845524706" lon="10.743813067724483"><ele>64.2</ele><time>2026-04-11T15:42:15Z</time></trkpt><trkpt lat="43.898040803339285" lon="10.74369049825225"><ele>63.0</ele><time>2026-04-11T15:42:16Z</time></trkpt><trkpt lat="43.89802833939858" lon="10.743552070538426"><ele>63.0</ele><time>2026-04-11T15:42:18Z</time></trkpt><trkpt lat="43.89796045375187" lon="10.743537409417339"><ele>63.0</ele><time>2026-04-11T15:42:19Z</time></trkpt><trkpt lat="43.89787647371044" lon="10.74354778177824"><ele>63.0</ele><time>2026-04-11T15:42:20Z</time></trkpt><trkpt lat="43.89778748772163" lon="10.743544903011742"><ele>63.0</ele><time>2026-04-11T15:42:21Z</time></trkpt><trkpt lat="43.89768521633663" lon="10.743535031356668"><ele>63.0</ele><time>2026-04-11T15:42:22Z</time></trkpt><trkpt lat="43.897584462390256" lon="10.7435121752168"><ele>63.0</ele><time>2026-04-11T15:42:23Z</time></trkpt><trkpt lat="43.89747320438062" lon="10.7434820441684"><ele>61.5</ele><time>2026-04-11T15:42:24Z</time></trkpt><trkpt lat="43.89734965116089" lon="10.743439577968534"><ele>60.0</ele><time>2026-04-11T15:42:25Z</time></trkpt><trkpt lat="43.89722705956767" lon="10.74339174674903"><ele>58.5</ele><time>2026-04-11T15:42:26Z</time></trkpt><trkpt lat="43.89710822806762" lon="10.743312912707031"><ele>57.0</ele><time>2026-04-11T15:42:27Z</time></trkpt><trkpt lat="43.89698102265645" lon="10.743216541927884"><ele>57.0</ele><time>2026-04-11T15:42:28Z</time></trkpt><trkpt lat="43.896845203375996" lon="10.743135759159209"><ele>57.0</ele><time>2026-04-11T15:42:29Z</time></trkpt><trkpt lat="43.89670400723902" lon="10.743061875419274"><ele>57.0</ele><time>2026-04-11T15:42:30Z</time></trkpt><trkpt lat="43.89655058522861" lon="10.742996887315396"><ele>55.33333333333333</ele><time>2026-04-11T15:42:31Z</time></trkpt><trkpt lat="43.896388828452864" lon="10.742934642778753"><ele>53.666666666666664</ele><time>2026-04-11T15:42:32Z</time></trkpt><trkpt lat="43.89623283627149" lon="10.742879192585566"><ele>52.0</ele><time>2026-04-11T15:42:33Z</time></trkpt><trkpt lat="43.896071242670075" lon="10.742825009877839"><ele>50.0</ele><time>2026-04-11T15:42:34Z</time></trkpt><trkpt lat="43.895914482304235" lon="10.742774913107114"><ele>48.0</ele><time>2026-04-11T15:42:35Z</time></trkpt><trkpt lat="43.89575543680161" lon="10.742715169112328"><ele>46.0</ele><time>2026-04-11T15:42:36Z</time></trkpt><trkpt lat="43.89559205092864" lon="10.74267229230621"><ele>46.0</ele><time>2026-04-11T15:42:37Z</time></trkpt><trkpt lat="43.89543063954025" lon="10.742672361073799"><ele>46.0</ele><time>2026-04-11T15:42:38Z</time></trkpt><trkpt lat="43.895265863980406" lon="10.742695009639503"><ele>46.0</ele><time>2026-04-11T15:42:39Z</time></trkpt><trkpt lat="43.89510706229745" lon="10.742741860120121"><ele>45.0</ele><time>2026-04-11T15:42:40Z</time></trkpt><trkpt lat="43.894952099836715" lon="10.742775735928857"><ele>44.0</ele><time>2026-04-11T15:42:41Z</time></trkpt><trkpt lat="43.89479481339265" lon="10.742804375739219"><ele>43.0</ele><time>2026-04-11T15:42:42Z</time></trkpt><trkpt lat="43.89463411339931" lon="10.742825380255047"><ele>43.0</ele><time>2026-04-11T15:42:43Z</time></trkpt><trkpt lat="43.894475323254554" lon="10.742847014235828"><ele>43.0</ele><time>2026-04-11T15:42:44Z</time></trkpt><trkpt lat="43.894318316625224" lon="10.742866756711349"><ele>43.0</ele><time>2026-04-11T15:42:45Z</time></trkpt><trkpt lat="43.89415952289203" lon="10.742868474125228"><ele>43.0</ele><time>2026-04-11T15:42:46Z</time></trkpt><trkpt lat="43.89400250597835" lon="10.74286972979367"><ele>43.0</ele><time>2026-04-11T15:42:47Z</time></trkpt><trkpt lat="43.893845796729146" lon="10.742874744199735"><ele>43.0</ele><time>2026-04-11T15:42:48Z</time></trkpt><trkpt lat="43.89368726665479" lon="10.742884627992906"><ele>43.0</ele><time>2026-04-11T15:42:49Z</time></trkpt><trkpt lat="43.893529021523484" lon="10.742880709281897"><ele>43.0</ele><time>2026-04-11T15:42:50Z</time></trkpt><trkpt lat="43.89337072007786" lon="10.742887875808837"><ele>43.0</ele><time>2026-04-11T15:42:51Z</time></trkpt><trkpt lat="43.89321028079935" lon="10.74290392405837"><ele>42.333333333333336</ele><time>2026-04-11T15:42:52Z</time></trkpt><trkpt lat="43.89305811733563" lon="10.742945305348977"><ele>41.666666666666664</ele><time>2026-04-11T15:42:53Z</time></trkpt><trkpt lat="43.89290643724147" lon="10.743019988554305"><ele>41.0</ele><time>2026-04-11T15:42:54Z</time></trkpt><trkpt lat="43.89276519721936" lon="10.743111325184561"><ele>41.0</ele><time>2026-04-11T15:42:55Z</time></trkpt><trkpt lat="43.89262251629338" lon="10.74320564830951"><ele>41.0</ele><time>2026-04-11T15:42:56Z</time></trkpt><trkpt lat="43.89248088873965" lon="10.74329491650483"><ele>41.0</ele><time>2026-04-11T15:42:57Z</time></trkpt><trkpt lat="43.89233506288336" lon="10.743377060969326"><ele>40.33333333333333</ele><time>2026-04-11T15:42:58Z</time></trkpt><trkpt lat="43.89218893717396" lon="10.743467992843872"><ele>39.666666666666664</ele><time>2026-04-11T15:42:59Z</time></trkpt><trkpt lat="43.8920445895796" lon="10.743572582388577"><ele>39.0</ele><time>2026-04-11T15:43:00Z</time></trkpt><trkpt lat="43.8919148922521" lon="10.74369946692929"><ele>40.0</ele><time>2026-04-11T15:43:01Z</time></trkpt><trkpt lat="43.89178978627018" lon="10.743852965567367"><ele>41.0</ele><time>2026-04-11T15:43:02Z</time></trkpt><trkpt lat="43.89165586980121" lon="10.743974197586322"><ele>42.0</ele><time>2026-04-11T15:43:03Z</time></trkpt><trkpt lat="43.89151967516427" lon="10.744103846651324"><ele>42.0</ele><time>2026-04-11T15:43:04Z</time></trkpt><trkpt lat="43.89138302823896" lon="10.74423880240169"><ele>42.0</ele><time>2026-04-11T15:43:05Z</time></trkpt><trkpt lat="43.89124903594995" lon="10.744368949214179"><ele>42.0</ele><time>2026-04-11T15:43:06Z</time></trkpt><trkpt lat="43.89112215591509" lon="10.744502172638335"><ele>43.333333333333336</ele><time>2026-04-11T15:43:07Z</time></trkpt><trkpt lat="43.89099118691677" lon="10.744634379675396"><ele>44.66666666666667</ele><time>2026-04-11T15:43:08Z</time></trkpt><trkpt lat="43.890862627065275" lon="10.744753931537714"><ele>46.0</ele><time>2026-04-11T15:43:09Z</time></trkpt><trkpt lat="43.89073362890683" lon="10.74488443761322"><ele>43.333333333333336</ele><time>2026-04-11T15:43:10Z</time></trkpt><trkpt lat="43.890616039281646" lon="10.745036422550267"><ele>40.666666666666664</ele><time>2026-04-11T15:43:11Z</time></trkpt><trkpt lat="43.89051592229785" lon="10.7451944624309"><ele>38.0</ele><time>2026-04-11T15:43:12Z</time></trkpt><trkpt lat="43.89041722267026" lon="10.745366699737046"><ele>37.33333333333333</ele><time>2026-04-11T15:43:13Z</time></trkpt><trkpt lat="43.890308712926895" lon="10.74552959701681"><ele>36.666666666666664</ele><time>2026-04-11T15:43:14Z</time></trkpt><trkpt lat="43.890186001278096" lon="10.74565982895255"><ele>36.0</ele><time>2026-04-11T15:43:15Z</time></trkpt><trkpt lat="43.89005184556757" lon="10.745764174972729"><ele>36.0</ele><time>2026-04-11T15:43:16Z</time></trkpt><trkpt lat="43.88990225445098" lon="10.745859314950534"><ele>36.0</ele><time>2026-04-11T15:43:17Z</time></trkpt><trkpt lat="43.88975484215269" lon="10.745931683655856"><ele>36.0</ele><time>2026-04-11T15:43:18Z</time></trkpt><trkpt lat="43.8896091342567" lon="10.745968585944636"><ele>36.0</ele><time>2026-04-11T15:43:19Z</time></trkpt><trkpt lat="43.889456715172656" lon="10.745974371853023"><ele>36.0</ele><time>2026-04-11T15:43:20Z</time></trkpt><trkpt lat="43.88929894534864" lon="10.745916109444277"><ele>36.0</ele><time>2026-04-11T15:43:21Z</time></trkpt><trkpt lat="43.889158512165814" lon="10.745867199644922"><ele>36.333333333333336</ele><time>2026-04-11T15:43:22Z</time></trkpt><trkpt lat="43.8890071122517" lon="10.745801535794323"><ele>36.66666666666667</ele><time>2026-04-11T15:43:23Z</time></trkpt><trkpt lat="43.88885650791283" lon="10.745788905038124"><ele>37.0</ele><time>2026-04-11T15:43:24Z</time></trkpt><trkpt lat="43.888700229168435" lon="10.74583144956126"><ele>37.0</ele><time>2026-04-11T15:43:25Z</time></trkpt><trkpt lat="43.888551064661286" lon="10.745908068228658"><ele>37.0</ele><time>2026-04-11T15:43:26Z</time></trkpt><trkpt lat="43.88841249263524" lon="10.746022776274582"><ele>37.0</ele><time>2026-04-11T15:43:27Z</time></trkpt><trkpt lat="43.88829826338218" lon="10.746145815591872"><ele>35.5</ele><time>2026-04-11T15:43:28Z</time></trkpt><trkpt lat="43.88817965748377" lon="10.74627170653301"><ele>34.0</ele><time>2026-04-11T15:43:29Z</time></trkpt><trkpt lat="43.88806596317047" lon="10.746379978895485"><ele>32.5</ele><time>2026-04-11T15:43:30Z</time></trkpt><trkpt lat="43.88796840063464" lon="10.74647966717961"><ele>31.0</ele><time>2026-04-11T15:43:31Z</time></trkpt><trkpt lat="43.88788570043716" lon="10.746571353737998"><ele>31.0</ele><time>2026-04-11T15:43:32Z</time></trkpt><trkpt lat="43.88778665651053" lon="10.746656119130693"><ele>31.0</ele><time>2026-04-11T15:43:33Z</time></trkpt><trkpt lat="43.887679283481624" lon="10.746720629466852"><ele>31.0</ele><time>2026-04-11T15:43:34Z</time></trkpt><trkpt lat="43.88760658454396" lon="10.746750175193315"><ele>31.0</ele><time>2026-04-11T15:43:35Z</time></trkpt><trkpt lat="43.887521860779366" lon="10.746750896349175"><ele>31.0</ele><time>2026-04-11T15:43:36Z</time></trkpt><trkpt lat="43.887413161573974" lon="10.74669947662724"><ele>32.0</ele><time>2026-04-11T15:43:37Z</time></trkpt><trkpt lat="43.887355672003224" lon="10.74652807501982"><ele>33.0</ele><time>2026-04-11T15:43:38Z</time></trkpt><trkpt lat="43.887311381188326" lon="10.746445142356674"><ele>34.0</ele><time>2026-04-11T15:43:39Z</time></trkpt><trkpt lat="43.8872737811131" lon="10.746352774932424"><ele>35.0</ele><time>2026-04-11T15:43:41Z</time></trkpt><trkpt lat="43.88717999948326" lon="10.746327746064598"><ele>36.0</ele><time>2026-04-11T15:43:46Z</time></trkpt><trkpt lat="43.8870651176932" lon="10.74639863784232"><ele>36.0</ele><time>2026-04-11T15:43:48Z</time></trkpt><trkpt lat="43.88698205945379" lon="10.746427863564143"><ele>36.0</ele><time>2026-04-11T15:43:49Z</time></trkpt><trkpt lat="43.886896066567815" lon="10.746456888079498"><ele>36.0</ele><time>2026-04-11T15:43:50Z</time></trkpt><trkpt lat="43.88680577169657" lon="10.746487906243805"><ele>36.0</ele><time>2026-04-11T15:43:51Z</time></trkpt><trkpt lat="43.8866985055181" lon="10.746525547517935"><ele>36.0</ele><time>2026-04-11T15:43:52Z</time></trkpt><trkpt lat="43.88658112732452" lon="10.746555582903422"><ele>35.2</ele><time>2026-04-11T15:43:53Z</time></trkpt><trkpt lat="43.88646669696324" lon="10.746591834617249"><ele>34.400000000000006</ele><time>2026-04-11T15:43:54Z</time></trkpt><trkpt lat="43.88636483179009" lon="10.746629415912105"><ele>33.6</ele><time>2026-04-11T15:43:55Z</time></trkpt><trkpt lat="43.88627285426426" lon="10.746675423841229"><ele>32.800000000000004</ele><time>2026-04-11T15:43:56Z</time></trkpt><trkpt lat="43.886172295895534" lon="10.74670561694884"><ele>32.0</ele><time>2026-04-11T15:43:57Z</time></trkpt><trkpt lat="43.886064425591925" lon="10.746734025876618"><ele>32.0</ele><time>2026-04-11T15:43:58Z</time></trkpt><trkpt lat="43.885956190510036" lon="10.74675410453214"><ele>32.0</ele><time>2026-04-11T15:43:59Z</time></trkpt><trkpt lat="43.8858514264534" lon="10.746765848386284"><ele>32.0</ele><time>2026-04-11T15:44:00Z</time></trkpt><trkpt lat="43.88574361402461" lon="10.746774894062506"><ele>32.0</ele><time>2026-04-11T15:44:01Z</time></trkpt><trkpt lat="43.88564009155479" lon="10.746784444592754"><ele>32.0</ele><time>2026-04-11T15:44:02Z</time></trkpt><trkpt lat="43.885540508468104" lon="10.746788410203376"><ele>31.666666666666664</ele><time>2026-04-11T15:44:03Z</time></trkpt><trkpt lat="43.885445079518206" lon="10.746797859430592"><ele>31.333333333333332</ele><time>2026-04-11T15:44:04Z</time></trkpt><trkpt lat="43.885358102817975" lon="10.746813634814782"><ele>31.0</ele><time>2026-04-11T15:44:05Z</time></trkpt><trkpt lat="43.88527438662827" lon="10.746832018062788"><ele>30.666666666666664</ele><time>2026-04-11T15:44:06Z</time></trkpt><trkpt lat="43.88520085264553" lon="10.746842649762808"><ele>30.333333333333332</ele><time>2026-04-11T15:44:07Z</time></trkpt><trkpt lat="43.88512286153513" lon="10.746778089276365"><ele>30.0</ele><time>2026-04-11T15:44:09Z</time></trkpt><trkpt lat="43.88512950906412" lon="10.746689568392135"><ele>30.0</ele><time>2026-04-11T15:44:10Z</time></trkpt><trkpt lat="43.88516871115063" lon="10.746597225666944"><ele>30.0</ele><time>2026-04-11T15:44:11Z</time></trkpt><trkpt lat="43.885210169731174" lon="10.746491543069405"><ele>30.0</ele><time>2026-04-11T15:44:12Z</time></trkpt><trkpt lat="43.88523301835236" lon="10.746361344440935"><ele>30.0</ele><time>2026-04-11T15:44:13Z</time></trkpt><trkpt lat="43.88525171509291" lon="10.746220602369077"><ele>30.0</ele><time>2026-04-11T15:44:14Z</time></trkpt><trkpt lat="43.885254774031765" lon="10.746076487145725"><ele>30.2</ele><time>2026-04-11T15:44:15Z</time></trkpt><trkpt lat="43.88525900558554" lon="10.745932259584439"><ele>30.4</ele><time>2026-04-11T15:44:16Z</time></trkpt><trkpt lat="43.88527546906476" lon="10.745794392982997"><ele>30.6</ele><time>2026-04-11T15:44:17Z</time></trkpt><trkpt lat="43.88528005421334" lon="10.745674415814545"><ele>30.8</ele><time>2026-04-11T15:44:18Z</time></trkpt><trkpt lat="43.885320175249696" lon="10.745560855411298"><ele>31.0</ele><time>2026-04-11T15:44:19Z</time></trkpt><trkpt lat="43.88537247242319" lon="10.745469048781535"><ele>31.000000000000004</ele><time>2026-04-11T15:44:20Z</time></trkpt><trkpt lat="43.88542062198821" lon="10.745397153567028"><ele>31.0</ele><time>2026-04-11T15:44:21Z</time></trkpt><trkpt lat="43.88543761288531" lon="10.745307747290658"><ele>31.0</ele><time>2026-04-11T15:44:22Z</time></trkpt><trkpt lat="43.88538727152832" lon="10.745214930353688"><ele>31.0</ele><time>2026-04-11T15:44:23Z</time></trkpt><trkpt lat="43.88531657049413" lon="10.745140170091988"><ele>31.000000000000004</ele><time>2026-04-11T15:44:24Z</time></trkpt><trkpt lat="43.88525055919914" lon="10.74507386377628"><ele>31.0</ele><time>2026-04-11T15:44:25Z</time></trkpt><trkpt lat="43.88518610759916" lon="10.744999000566262"><ele>31.666666666666668</ele><time>2026-04-11T15:44:26Z</time></trkpt><trkpt lat="43.88512214781149" lon="10.74491976775991"><ele>32.333333333333336</ele><time>2026-04-11T15:44:27Z</time></trkpt><trkpt lat="43.885048934288996" lon="10.744860445523768"><ele>33.0</ele><time>2026-04-11T15:44:28Z</time></trkpt><trkpt lat="43.88497070853941" lon="10.744827435002998"><ele>33.666666666666664</ele><time>2026-04-11T15:44:29Z</time></trkpt><trkpt lat="43.88488825533701" lon="10.744804229260778"><ele>34.33333333333333</ele><time>2026-04-11T15:44:30Z</time></trkpt><trkpt lat="43.88481773425698" lon="10.744770054186684"><ele>35.0</ele><time>2026-04-11T15:44:31Z</time></trkpt><trkpt lat="43.884752921149165" lon="10.74473898480759"><ele>35.2</ele><time>2026-04-11T15:44:32Z</time></trkpt><trkpt lat="43.88465951973385" lon="10.744749534941066"><ele>35.4</ele><time>2026-04-11T15:44:34Z</time></trkpt><trkpt lat="43.8846137136086" lon="10.744895565334799"><ele>35.6</ele><time>2026-04-11T15:44:36Z</time></trkpt><trkpt lat="43.8845637317148" lon="10.745046233730447"><ele>35.8</ele><time>2026-04-11T15:44:38Z</time></trkpt><trkpt lat="43.8845231805145" lon="10.745199561367322"><ele>36.0</ele><time>2026-04-11T15:44:40Z</time></trkpt><trkpt lat="43.88447262585935" lon="10.745288940768235"><ele>33.0</ele><time>2026-04-11T15:44:42Z</time></trkpt><trkpt lat="43.88448060736039" lon="10.745377520466233"><ele>33.0</ele><time>2026-04-11T15:44:57Z</time></trkpt></trkseg></trk></gpx>